<?xml version="1.0" encoding="UTF-8" standalone="no" ?>
<gpx xmlns="http://www.topografix.com/GPX/1/1" xmlns:xsi="http://www.w3.org/2001/XMLSchema-instance" xsi:schemaLocation="http://www.topografix.com/GPX/1/1 http://www.topografix.com/GPX/1/1/gpx.xsd" version="1.1" creator="VisuGPX - https://www.visugpx.com">
  <metadata>
    <name>Raid ANSA Weber 2013</name>
    <desc><![CDATA[Raid multisports organisé par le club ANSA à Saint Pierre de Nemours le 09/06/2013.]]></desc>
  </metadata>
  <trk>
    <name><![CDATA[Untitled]]></name>
    <trkseg>
      <trkpt lat="48.25274" lon="2.68696">
        <ele>82.400001525879</ele>
        <time>2013-06-09T06:38:16.000Z</time>
      </trkpt>
      <trkpt lat="48.25259" lon="2.68707">
        <ele>83</ele>
        <time>2013-06-09T06:38:21.000Z</time>
      </trkpt>
      <trkpt lat="48.25245" lon="2.68718">
        <ele>83.599998474121</ele>
        <time>2013-06-09T06:38:26.000Z</time>
      </trkpt>
      <trkpt lat="48.25228" lon="2.68724">
        <ele>84.199996948242</ele>
        <time>2013-06-09T06:38:31.000Z</time>
      </trkpt>
      <trkpt lat="48.25215" lon="2.68727">
        <ele>84.400001525879</ele>
        <time>2013-06-09T06:38:35.000Z</time>
      </trkpt>
      <trkpt lat="48.25203" lon="2.68727">
        <ele>84.400001525879</ele>
        <time>2013-06-09T06:38:39.000Z</time>
      </trkpt>
      <trkpt lat="48.25189" lon="2.6873">
        <ele>84.599998474121</ele>
        <time>2013-06-09T06:38:44.000Z</time>
      </trkpt>
      <trkpt lat="48.25177" lon="2.68735">
        <ele>85</ele>
        <time>2013-06-09T06:38:48.000Z</time>
      </trkpt>
      <trkpt lat="48.25162" lon="2.68744">
        <ele>85.199996948242</ele>
        <time>2013-06-09T06:38:52.000Z</time>
      </trkpt>
      <trkpt lat="48.25148" lon="2.68753">
        <ele>85</ele>
        <time>2013-06-09T06:38:57.000Z</time>
      </trkpt>
      <trkpt lat="48.25139" lon="2.68764">
        <ele>85.400001525879</ele>
        <time>2013-06-09T06:39:01.000Z</time>
      </trkpt>
      <trkpt lat="48.25128" lon="2.68774">
        <ele>85.400001525879</ele>
        <time>2013-06-09T06:39:05.000Z</time>
      </trkpt>
      <trkpt lat="48.25115" lon="2.68788">
        <ele>85.599998474121</ele>
        <time>2013-06-09T06:39:10.000Z</time>
      </trkpt>
      <trkpt lat="48.25104" lon="2.688">
        <ele>85.400001525879</ele>
        <time>2013-06-09T06:39:14.000Z</time>
      </trkpt>
      <trkpt lat="48.25093" lon="2.68816">
        <ele>85.199996948242</ele>
        <time>2013-06-09T06:39:19.000Z</time>
      </trkpt>
      <trkpt lat="48.25084" lon="2.68831">
        <ele>84.800003051758</ele>
        <time>2013-06-09T06:39:24.000Z</time>
      </trkpt>
      <trkpt lat="48.25076" lon="2.68844">
        <ele>85.599998474121</ele>
        <time>2013-06-09T06:39:28.000Z</time>
      </trkpt>
      <trkpt lat="48.25071" lon="2.68861">
        <ele>86.800003051758</ele>
        <time>2013-06-09T06:39:33.000Z</time>
      </trkpt>
      <trkpt lat="48.25064" lon="2.6888">
        <ele>87.800003051758</ele>
        <time>2013-06-09T06:39:38.000Z</time>
      </trkpt>
      <trkpt lat="48.25063" lon="2.68884">
        <ele>88</ele>
        <time>2013-06-09T06:39:39.000Z</time>
      </trkpt>
      <trkpt lat="48.25055" lon="2.68913">
        <ele>89.599998474121</ele>
        <time>2013-06-09T06:39:45.000Z</time>
      </trkpt>
      <trkpt lat="48.25046" lon="2.68934">
        <ele>88.599998474121</ele>
        <time>2013-06-09T06:39:50.000Z</time>
      </trkpt>
      <trkpt lat="48.25036" lon="2.68954">
        <ele>87.400001525879</ele>
        <time>2013-06-09T06:39:55.000Z</time>
      </trkpt>
      <trkpt lat="48.25028" lon="2.68976">
        <ele>86.199996948242</ele>
        <time>2013-06-09T06:40:00.000Z</time>
      </trkpt>
      <trkpt lat="48.25017" lon="2.68994">
        <ele>84.800003051758</ele>
        <time>2013-06-09T06:40:05.000Z</time>
      </trkpt>
      <trkpt lat="48.25008" lon="2.69004">
        <ele>83.400001525879</ele>
        <time>2013-06-09T06:40:09.000Z</time>
      </trkpt>
      <trkpt lat="48.24997" lon="2.68992">
        <ele>82.599998474121</ele>
        <time>2013-06-09T06:40:14.000Z</time>
      </trkpt>
      <trkpt lat="48.24992" lon="2.68987">
        <ele>82.199996948242</ele>
        <time>2013-06-09T06:40:16.000Z</time>
      </trkpt>
      <trkpt lat="48.2498" lon="2.68971">
        <ele>81.400001525879</ele>
        <time>2013-06-09T06:40:21.000Z</time>
      </trkpt>
      <trkpt lat="48.24973" lon="2.68953">
        <ele>81.199996948242</ele>
        <time>2013-06-09T06:40:25.000Z</time>
      </trkpt>
      <trkpt lat="48.24964" lon="2.68937">
        <ele>80.800003051758</ele>
        <time>2013-06-09T06:40:30.000Z</time>
      </trkpt>
      <trkpt lat="48.24961" lon="2.68929">
        <ele>80.800003051758</ele>
        <time>2013-06-09T06:40:32.000Z</time>
      </trkpt>
      <trkpt lat="48.24956" lon="2.689">
        <ele>80.800003051758</ele>
        <time>2013-06-09T06:40:38.000Z</time>
      </trkpt>
      <trkpt lat="48.24956" lon="2.68895">
        <ele>80.800003051758</ele>
        <time>2013-06-09T06:40:39.000Z</time>
      </trkpt>
      <trkpt lat="48.24954" lon="2.68874">
        <ele>80.800003051758</ele>
        <time>2013-06-09T06:40:43.000Z</time>
      </trkpt>
      <trkpt lat="48.24949" lon="2.68854">
        <ele>80.800003051758</ele>
        <time>2013-06-09T06:40:47.000Z</time>
      </trkpt>
      <trkpt lat="48.24948" lon="2.68832">
        <ele>81</ele>
        <time>2013-06-09T06:40:51.000Z</time>
      </trkpt>
      <trkpt lat="48.24948" lon="2.68811">
        <ele>81</ele>
        <time>2013-06-09T06:40:55.000Z</time>
      </trkpt>
      <trkpt lat="48.24948" lon="2.68785">
        <ele>81</ele>
        <time>2013-06-09T06:41:00.000Z</time>
      </trkpt>
      <trkpt lat="48.24948" lon="2.68751">
        <ele>81</ele>
        <time>2013-06-09T06:41:07.000Z</time>
      </trkpt>
      <trkpt lat="48.24946" lon="2.68726">
        <ele>80.400001525879</ele>
        <time>2013-06-09T06:41:12.000Z</time>
      </trkpt>
      <trkpt lat="48.2494" lon="2.68702">
        <ele>80</ele>
        <time>2013-06-09T06:41:17.000Z</time>
      </trkpt>
      <trkpt lat="48.24939" lon="2.68681">
        <ele>79.599998474121</ele>
        <time>2013-06-09T06:41:21.000Z</time>
      </trkpt>
      <trkpt lat="48.24938" lon="2.68657">
        <ele>79.199996948242</ele>
        <time>2013-06-09T06:41:26.000Z</time>
      </trkpt>
      <trkpt lat="48.24936" lon="2.68638">
        <ele>79.199996948242</ele>
        <time>2013-06-09T06:41:30.000Z</time>
      </trkpt>
      <trkpt lat="48.24936" lon="2.68619">
        <ele>78.800003051758</ele>
        <time>2013-06-09T06:41:34.000Z</time>
      </trkpt>
      <trkpt lat="48.24934" lon="2.68592">
        <ele>78.599998474121</ele>
        <time>2013-06-09T06:41:39.000Z</time>
      </trkpt>
      <trkpt lat="48.24933" lon="2.68587">
        <ele>78.599998474121</ele>
        <time>2013-06-09T06:41:40.000Z</time>
      </trkpt>
      <trkpt lat="48.24936" lon="2.68558">
        <ele>78.199996948242</ele>
        <time>2013-06-09T06:41:45.000Z</time>
      </trkpt>
      <trkpt lat="48.24937" lon="2.68534">
        <ele>77.800003051758</ele>
        <time>2013-06-09T06:41:50.000Z</time>
      </trkpt>
      <trkpt lat="48.24937" lon="2.68529">
        <ele>77.800003051758</ele>
        <time>2013-06-09T06:41:51.000Z</time>
      </trkpt>
      <trkpt lat="48.24939" lon="2.68504">
        <ele>77.400001525879</ele>
        <time>2013-06-09T06:41:56.000Z</time>
      </trkpt>
      <trkpt lat="48.24942" lon="2.6848">
        <ele>77.199996948242</ele>
        <time>2013-06-09T06:42:01.000Z</time>
      </trkpt>
      <trkpt lat="48.24944" lon="2.68457">
        <ele>77</ele>
        <time>2013-06-09T06:42:06.000Z</time>
      </trkpt>
      <trkpt lat="48.24944" lon="2.68441">
        <ele>76.800003051758</ele>
        <time>2013-06-09T06:42:11.000Z</time>
      </trkpt>
      <trkpt lat="48.24944" lon="2.6844">
        <ele>76.800003051758</ele>
        <time>2013-06-09T06:42:13.000Z</time>
      </trkpt>
      <trkpt lat="48.24954" lon="2.6843">
        <ele>76.599998474121</ele>
        <time>2013-06-09T06:42:18.000Z</time>
      </trkpt>
      <trkpt lat="48.24972" lon="2.68428">
        <ele>76.199996948242</ele>
        <time>2013-06-09T06:42:24.000Z</time>
      </trkpt>
      <trkpt lat="48.2499" lon="2.68426">
        <ele>76</ele>
        <time>2013-06-09T06:42:30.000Z</time>
      </trkpt>
      <trkpt lat="48.25009" lon="2.68423">
        <ele>75.800003051758</ele>
        <time>2013-06-09T06:42:36.000Z</time>
      </trkpt>
      <trkpt lat="48.25032" lon="2.68421">
        <ele>75.599998474121</ele>
        <time>2013-06-09T06:42:43.000Z</time>
      </trkpt>
      <trkpt lat="48.25048" lon="2.68419">
        <ele>75.400001525879</ele>
        <time>2013-06-09T06:42:48.000Z</time>
      </trkpt>
      <trkpt lat="48.25067" lon="2.68415">
        <ele>75</ele>
        <time>2013-06-09T06:42:54.000Z</time>
      </trkpt>
      <trkpt lat="48.25084" lon="2.68412">
        <ele>75</ele>
        <time>2013-06-09T06:42:59.000Z</time>
      </trkpt>
      <trkpt lat="48.25102" lon="2.68411">
        <ele>75</ele>
        <time>2013-06-09T06:43:04.000Z</time>
      </trkpt>
      <trkpt lat="48.25122" lon="2.6841">
        <ele>75.199996948242</ele>
        <time>2013-06-09T06:43:10.000Z</time>
      </trkpt>
      <trkpt lat="48.25146" lon="2.68407">
        <ele>75.400001525879</ele>
        <time>2013-06-09T06:43:17.000Z</time>
      </trkpt>
      <trkpt lat="48.25168" lon="2.68403">
        <ele>75.599998474121</ele>
        <time>2013-06-09T06:43:24.000Z</time>
      </trkpt>
      <trkpt lat="48.2518" lon="2.68401">
        <ele>75.599998474121</ele>
        <time>2013-06-09T06:43:28.000Z</time>
      </trkpt>
      <trkpt lat="48.25199" lon="2.68402">
        <ele>75.599998474121</ele>
        <time>2013-06-09T06:43:34.000Z</time>
      </trkpt>
      <trkpt lat="48.25215" lon="2.68399">
        <ele>75.599998474121</ele>
        <time>2013-06-09T06:43:39.000Z</time>
      </trkpt>
      <trkpt lat="48.25229" lon="2.68398">
        <ele>75.599998474121</ele>
        <time>2013-06-09T06:43:43.000Z</time>
      </trkpt>
      <trkpt lat="48.25245" lon="2.68394">
        <ele>75.599998474121</ele>
        <time>2013-06-09T06:43:48.000Z</time>
      </trkpt>
      <trkpt lat="48.25261" lon="2.68392">
        <ele>75.800003051758</ele>
        <time>2013-06-09T06:43:53.000Z</time>
      </trkpt>
      <trkpt lat="48.25278" lon="2.68389">
        <ele>76.199996948242</ele>
        <time>2013-06-09T06:43:58.000Z</time>
      </trkpt>
      <trkpt lat="48.2529" lon="2.68387">
        <ele>76.400001525879</ele>
        <time>2013-06-09T06:44:02.000Z</time>
      </trkpt>
      <trkpt lat="48.25309" lon="2.68386">
        <ele>76.599998474121</ele>
        <time>2013-06-09T06:44:08.000Z</time>
      </trkpt>
      <trkpt lat="48.25327" lon="2.68383">
        <ele>77</ele>
        <time>2013-06-09T06:44:14.000Z</time>
      </trkpt>
      <trkpt lat="48.25347" lon="2.68384">
        <ele>77.400001525879</ele>
        <time>2013-06-09T06:44:20.000Z</time>
      </trkpt>
      <trkpt lat="48.25366" lon="2.68381">
        <ele>77.400001525879</ele>
        <time>2013-06-09T06:44:26.000Z</time>
      </trkpt>
      <trkpt lat="48.25382" lon="2.68381">
        <ele>77.599998474121</ele>
        <time>2013-06-09T06:44:31.000Z</time>
      </trkpt>
      <trkpt lat="48.25395" lon="2.68381">
        <ele>78</ele>
        <time>2013-06-09T06:44:35.000Z</time>
      </trkpt>
      <trkpt lat="48.25412" lon="2.68383">
        <ele>78.199996948242</ele>
        <time>2013-06-09T06:44:40.000Z</time>
      </trkpt>
      <trkpt lat="48.25425" lon="2.68383">
        <ele>78.400001525879</ele>
        <time>2013-06-09T06:44:44.000Z</time>
      </trkpt>
      <trkpt lat="48.25444" lon="2.68383">
        <ele>78.400001525879</ele>
        <time>2013-06-09T06:44:50.000Z</time>
      </trkpt>
      <trkpt lat="48.25462" lon="2.68382">
        <ele>78.400001525879</ele>
        <time>2013-06-09T06:44:56.000Z</time>
      </trkpt>
      <trkpt lat="48.25468" lon="2.68383">
        <ele>78.599998474121</ele>
        <time>2013-06-09T06:44:58.000Z</time>
      </trkpt>
      <trkpt lat="48.25475" lon="2.68389">
        <ele>78.800003051758</ele>
        <time>2013-06-09T06:45:01.000Z</time>
      </trkpt>
      <trkpt lat="48.25484" lon="2.68415">
        <ele>79.800003051758</ele>
        <time>2013-06-09T06:45:08.000Z</time>
      </trkpt>
      <trkpt lat="48.2549" lon="2.68431">
        <ele>79.800003051758</ele>
        <time>2013-06-09T06:45:12.000Z</time>
      </trkpt>
      <trkpt lat="48.25495" lon="2.68447">
        <ele>79.800003051758</ele>
        <time>2013-06-09T06:45:16.000Z</time>
      </trkpt>
      <trkpt lat="48.25504" lon="2.68471">
        <ele>80</ele>
        <time>2013-06-09T06:45:22.000Z</time>
      </trkpt>
      <trkpt lat="48.25512" lon="2.68487">
        <ele>80</ele>
        <time>2013-06-09T06:45:26.000Z</time>
      </trkpt>
      <trkpt lat="48.2552" lon="2.68506">
        <ele>80.199996948242</ele>
        <time>2013-06-09T06:45:31.000Z</time>
      </trkpt>
      <trkpt lat="48.25528" lon="2.68528">
        <ele>80.599998474121</ele>
        <time>2013-06-09T06:45:36.000Z</time>
      </trkpt>
      <trkpt lat="48.25536" lon="2.6855">
        <ele>81.199996948242</ele>
        <time>2013-06-09T06:45:41.000Z</time>
      </trkpt>
      <trkpt lat="48.25541" lon="2.68574">
        <ele>81.800003051758</ele>
        <time>2013-06-09T06:45:46.000Z</time>
      </trkpt>
      <trkpt lat="48.25543" lon="2.68598">
        <ele>82.400001525879</ele>
        <time>2013-06-09T06:45:51.000Z</time>
      </trkpt>
      <trkpt lat="48.25545" lon="2.68615">
        <ele>83.199996948242</ele>
        <time>2013-06-09T06:45:55.000Z</time>
      </trkpt>
      <trkpt lat="48.25546" lon="2.68619">
        <ele>83.400001525879</ele>
        <time>2013-06-09T06:45:56.000Z</time>
      </trkpt>
      <trkpt lat="48.25549" lon="2.68641">
        <ele>84.400001525879</ele>
        <time>2013-06-09T06:46:02.000Z</time>
      </trkpt>
      <trkpt lat="48.25552" lon="2.6866">
        <ele>85.400001525879</ele>
        <time>2013-06-09T06:46:07.000Z</time>
      </trkpt>
      <trkpt lat="48.25553" lon="2.68668">
        <ele>85.800003051758</ele>
        <time>2013-06-09T06:46:09.000Z</time>
      </trkpt>
      <trkpt lat="48.25564" lon="2.68678">
        <ele>86.599998474121</ele>
        <time>2013-06-09T06:46:14.000Z</time>
      </trkpt>
      <trkpt lat="48.25579" lon="2.68682">
        <ele>87.800003051758</ele>
        <time>2013-06-09T06:46:20.000Z</time>
      </trkpt>
      <trkpt lat="48.25592" lon="2.68679">
        <ele>88.400001525879</ele>
        <time>2013-06-09T06:46:24.000Z</time>
      </trkpt>
      <trkpt lat="48.25603" lon="2.68677">
        <ele>88.800003051758</ele>
        <time>2013-06-09T06:46:28.000Z</time>
      </trkpt>
      <trkpt lat="48.25609" lon="2.68678">
        <ele>89</ele>
        <time>2013-06-09T06:46:30.000Z</time>
      </trkpt>
      <trkpt lat="48.25621" lon="2.68683">
        <ele>89.400001525879</ele>
        <time>2013-06-09T06:46:35.000Z</time>
      </trkpt>
      <trkpt lat="48.25638" lon="2.68679">
        <ele>90</ele>
        <time>2013-06-09T06:46:41.000Z</time>
      </trkpt>
      <trkpt lat="48.25648" lon="2.68673">
        <ele>90.199996948242</ele>
        <time>2013-06-09T06:46:46.000Z</time>
      </trkpt>
      <trkpt lat="48.25661" lon="2.68664">
        <ele>90.599998474121</ele>
        <time>2013-06-09T06:46:52.000Z</time>
      </trkpt>
      <trkpt lat="48.25671" lon="2.68657">
        <ele>90.400001525879</ele>
        <time>2013-06-09T06:46:56.000Z</time>
      </trkpt>
      <trkpt lat="48.25683" lon="2.68646">
        <ele>89.800003051758</ele>
        <time>2013-06-09T06:47:01.000Z</time>
      </trkpt>
      <trkpt lat="48.25688" lon="2.68638">
        <ele>89.400001525879</ele>
        <time>2013-06-09T06:47:05.000Z</time>
      </trkpt>
      <trkpt lat="48.25698" lon="2.68621">
        <ele>88.400001525879</ele>
        <time>2013-06-09T06:47:10.000Z</time>
      </trkpt>
      <trkpt lat="48.25709" lon="2.68602">
        <ele>87.400001525879</ele>
        <time>2013-06-09T06:47:15.000Z</time>
      </trkpt>
      <trkpt lat="48.25714" lon="2.68583">
        <ele>86.400001525879</ele>
        <time>2013-06-09T06:47:19.000Z</time>
      </trkpt>
      <trkpt lat="48.25715" lon="2.68562">
        <ele>86</ele>
        <time>2013-06-09T06:47:23.000Z</time>
      </trkpt>
      <trkpt lat="48.25714" lon="2.68531">
        <ele>85.599998474121</ele>
        <time>2013-06-09T06:47:29.000Z</time>
      </trkpt>
      <trkpt lat="48.25712" lon="2.68514">
        <ele>85.199996948242</ele>
        <time>2013-06-09T06:47:33.000Z</time>
      </trkpt>
      <trkpt lat="48.25718" lon="2.68506">
        <ele>85.400001525879</ele>
        <time>2013-06-09T06:47:36.000Z</time>
      </trkpt>
      <trkpt lat="48.25728" lon="2.68505">
        <ele>85.800003051758</ele>
        <time>2013-06-09T06:47:39.000Z</time>
      </trkpt>
      <trkpt lat="48.25747" lon="2.68508">
        <ele>86.599998474121</ele>
        <time>2013-06-09T06:47:45.000Z</time>
      </trkpt>
      <trkpt lat="48.25759" lon="2.68503">
        <ele>86.199996948242</ele>
        <time>2013-06-09T06:47:49.000Z</time>
      </trkpt>
      <trkpt lat="48.25775" lon="2.68502">
        <ele>85.199996948242</ele>
        <time>2013-06-09T06:47:54.000Z</time>
      </trkpt>
      <trkpt lat="48.25783" lon="2.68499">
        <ele>84.599998474121</ele>
        <time>2013-06-09T06:47:57.000Z</time>
      </trkpt>
      <trkpt lat="48.25791" lon="2.68488">
        <ele>83.800003051758</ele>
        <time>2013-06-09T06:48:03.000Z</time>
      </trkpt>
      <trkpt lat="48.2579" lon="2.6849">
        <ele>84</ele>
        <time>2013-06-09T06:48:13.000Z</time>
      </trkpt>
      <trkpt lat="48.2579" lon="2.68492">
        <ele>84</ele>
        <time>2013-06-09T06:48:16.000Z</time>
      </trkpt>
      <trkpt lat="48.25776" lon="2.68489">
        <ele>85</ele>
        <time>2013-06-09T06:48:22.000Z</time>
      </trkpt>
      <trkpt lat="48.25774" lon="2.68487">
        <ele>85</ele>
        <time>2013-06-09T06:48:23.000Z</time>
      </trkpt>
      <trkpt lat="48.25771" lon="2.68481">
        <ele>85</ele>
        <time>2013-06-09T06:48:28.000Z</time>
      </trkpt>
      <trkpt lat="48.2577" lon="2.6848">
        <ele>85.199996948242</ele>
        <time>2013-06-09T06:48:37.000Z</time>
      </trkpt>
      <trkpt lat="48.2577" lon="2.68481">
        <ele>85.199996948242</ele>
        <time>2013-06-09T06:48:50.000Z</time>
      </trkpt>
      <trkpt lat="48.25777" lon="2.68489">
        <ele>84.800003051758</ele>
        <time>2013-06-09T06:48:55.000Z</time>
      </trkpt>
      <trkpt lat="48.25783" lon="2.68497">
        <ele>84.599998474121</ele>
        <time>2013-06-09T06:49:02.000Z</time>
      </trkpt>
      <trkpt lat="48.25783" lon="2.685">
        <ele>84.400001525879</ele>
        <time>2013-06-09T06:49:04.000Z</time>
      </trkpt>
      <trkpt lat="48.25784" lon="2.68503">
        <ele>84.400001525879</ele>
        <time>2013-06-09T06:49:06.000Z</time>
      </trkpt>
      <trkpt lat="48.25782" lon="2.68504">
        <ele>84.599998474121</ele>
        <time>2013-06-09T06:49:11.000Z</time>
      </trkpt>
      <trkpt lat="48.25783" lon="2.68504">
        <ele>84.599998474121</ele>
        <time>2013-06-09T06:49:18.000Z</time>
      </trkpt>
      <trkpt lat="48.25784" lon="2.68504">
        <ele>84.400001525879</ele>
        <time>2013-06-09T06:49:31.000Z</time>
      </trkpt>
      <trkpt lat="48.25784" lon="2.68505">
        <ele>84.400001525879</ele>
        <time>2013-06-09T06:49:43.000Z</time>
      </trkpt>
      <trkpt lat="48.25783" lon="2.68502">
        <ele>84.599998474121</ele>
        <time>2013-06-09T06:50:04.000Z</time>
      </trkpt>
      <trkpt lat="48.25788" lon="2.68504">
        <ele>84.199996948242</ele>
        <time>2013-06-09T06:50:32.000Z</time>
      </trkpt>
      <trkpt lat="48.25787" lon="2.68505">
        <ele>84.199996948242</ele>
        <time>2013-06-09T06:50:42.000Z</time>
      </trkpt>
      <trkpt lat="48.25786" lon="2.68506">
        <ele>84.400001525879</ele>
        <time>2013-06-09T06:50:53.000Z</time>
      </trkpt>
      <trkpt lat="48.25785" lon="2.68505">
        <ele>84.400001525879</ele>
        <time>2013-06-09T06:51:16.000Z</time>
      </trkpt>
      <trkpt lat="48.25784" lon="2.68501">
        <ele>84.400001525879</ele>
        <time>2013-06-09T06:51:23.000Z</time>
      </trkpt>
      <trkpt lat="48.25783" lon="2.68499">
        <ele>84.400001525879</ele>
        <time>2013-06-09T06:51:45.000Z</time>
      </trkpt>
      <trkpt lat="48.25782" lon="2.68502">
        <ele>84.599998474121</ele>
        <time>2013-06-09T06:51:52.000Z</time>
      </trkpt>
      <trkpt lat="48.25779" lon="2.68501">
        <ele>84.800003051758</ele>
        <time>2013-06-09T06:52:16.000Z</time>
      </trkpt>
      <trkpt lat="48.25784" lon="2.68503">
        <ele>84.400001525879</ele>
        <time>2013-06-09T06:53:00.000Z</time>
      </trkpt>
      <trkpt lat="48.25787" lon="2.68506">
        <ele>84.199996948242</ele>
        <time>2013-06-09T06:53:15.000Z</time>
      </trkpt>
      <trkpt lat="48.25785" lon="2.68506">
        <ele>84.400001525879</ele>
        <time>2013-06-09T06:53:24.000Z</time>
      </trkpt>
      <trkpt lat="48.25784" lon="2.68507">
        <ele>84.400001525879</ele>
        <time>2013-06-09T06:53:29.000Z</time>
      </trkpt>
      <trkpt lat="48.25784" lon="2.68509">
        <ele>84.400001525879</ele>
        <time>2013-06-09T06:53:38.000Z</time>
      </trkpt>
      <trkpt lat="48.25784" lon="2.68509">
        <ele>84.400001525879</ele>
        <time>2013-06-09T06:53:47.000Z</time>
      </trkpt>
      <trkpt lat="48.25784" lon="2.68509">
        <ele>84.400001525879</ele>
        <time>2013-06-09T06:53:55.000Z</time>
      </trkpt>
      <trkpt lat="48.2579" lon="2.68508">
        <ele>84</ele>
        <time>2013-06-09T06:54:09.000Z</time>
      </trkpt>
      <trkpt lat="48.25782" lon="2.68514">
        <ele>84.599998474121</ele>
        <time>2013-06-09T06:54:24.000Z</time>
      </trkpt>
      <trkpt lat="48.25787" lon="2.6851">
        <ele>84.199996948242</ele>
        <time>2013-06-09T06:54:42.000Z</time>
      </trkpt>
      <trkpt lat="48.25796" lon="2.68507">
        <ele>83.599998474121</ele>
        <time>2013-06-09T06:55:03.000Z</time>
      </trkpt>
      <trkpt lat="48.25798" lon="2.68507">
        <ele>83.599998474121</ele>
        <time>2013-06-09T06:55:06.000Z</time>
      </trkpt>
      <trkpt lat="48.25801" lon="2.68513">
        <ele>83.400001525879</ele>
        <time>2013-06-09T06:55:12.000Z</time>
      </trkpt>
      <trkpt lat="48.258" lon="2.68515">
        <ele>83.400001525879</ele>
        <time>2013-06-09T06:55:19.000Z</time>
      </trkpt>
      <trkpt lat="48.25795" lon="2.68514">
        <ele>83.800003051758</ele>
        <time>2013-06-09T06:55:36.000Z</time>
      </trkpt>
      <trkpt lat="48.25805" lon="2.68525">
        <ele>83.199996948242</ele>
        <time>2013-06-09T06:55:42.000Z</time>
      </trkpt>
      <trkpt lat="48.25817" lon="2.68538">
        <ele>82.800003051758</ele>
        <time>2013-06-09T06:55:47.000Z</time>
      </trkpt>
      <trkpt lat="48.25822" lon="2.68544">
        <ele>82.599998474121</ele>
        <time>2013-06-09T06:55:49.000Z</time>
      </trkpt>
      <trkpt lat="48.2583" lon="2.68558">
        <ele>82.400001525879</ele>
        <time>2013-06-09T06:55:53.000Z</time>
      </trkpt>
      <trkpt lat="48.25843" lon="2.68581">
        <ele>83</ele>
        <time>2013-06-09T06:55:59.000Z</time>
      </trkpt>
      <trkpt lat="48.2585" lon="2.68599">
        <ele>83</ele>
        <time>2013-06-09T06:56:03.000Z</time>
      </trkpt>
      <trkpt lat="48.25857" lon="2.68624">
        <ele>82.599998474121</ele>
        <time>2013-06-09T06:56:08.000Z</time>
      </trkpt>
      <trkpt lat="48.25863" lon="2.68644">
        <ele>82.599998474121</ele>
        <time>2013-06-09T06:56:12.000Z</time>
      </trkpt>
      <trkpt lat="48.25869" lon="2.68667">
        <ele>82.400001525879</ele>
        <time>2013-06-09T06:56:16.000Z</time>
      </trkpt>
      <trkpt lat="48.25874" lon="2.6869">
        <ele>82.199996948242</ele>
        <time>2013-06-09T06:56:21.000Z</time>
      </trkpt>
      <trkpt lat="48.25874" lon="2.68692">
        <ele>82</ele>
        <time>2013-06-09T06:56:23.000Z</time>
      </trkpt>
      <trkpt lat="48.25872" lon="2.68683">
        <ele>82.199996948242</ele>
        <time>2013-06-09T06:56:27.000Z</time>
      </trkpt>
      <trkpt lat="48.25872" lon="2.68683">
        <ele>82.199996948242</ele>
        <time>2013-06-09T06:56:32.000Z</time>
      </trkpt>
      <trkpt lat="48.25871" lon="2.68687">
        <ele>82.199996948242</ele>
        <time>2013-06-09T06:56:38.000Z</time>
      </trkpt>
      <trkpt lat="48.25869" lon="2.68688">
        <ele>82.199996948242</ele>
        <time>2013-06-09T06:56:47.000Z</time>
      </trkpt>
      <trkpt lat="48.25854" lon="2.68699">
        <ele>82.199996948242</ele>
        <time>2013-06-09T06:56:52.000Z</time>
      </trkpt>
      <trkpt lat="48.2584" lon="2.68708">
        <ele>82.400001525879</ele>
        <time>2013-06-09T06:56:57.000Z</time>
      </trkpt>
      <trkpt lat="48.25836" lon="2.68723">
        <ele>82.599998474121</ele>
        <time>2013-06-09T06:57:02.000Z</time>
      </trkpt>
      <trkpt lat="48.25834" lon="2.68748">
        <ele>82.800003051758</ele>
        <time>2013-06-09T06:57:07.000Z</time>
      </trkpt>
      <trkpt lat="48.25838" lon="2.68771">
        <ele>83.400001525879</ele>
        <time>2013-06-09T06:57:11.000Z</time>
      </trkpt>
      <trkpt lat="48.2584" lon="2.68782">
        <ele>83.800003051758</ele>
        <time>2013-06-09T06:57:13.000Z</time>
      </trkpt>
      <trkpt lat="48.2583" lon="2.68793">
        <ele>84.599998474121</ele>
        <time>2013-06-09T06:57:17.000Z</time>
      </trkpt>
      <trkpt lat="48.2583" lon="2.68804">
        <ele>85</ele>
        <time>2013-06-09T06:57:21.000Z</time>
      </trkpt>
      <trkpt lat="48.25827" lon="2.68811">
        <ele>85.400001525879</ele>
        <time>2013-06-09T06:57:31.000Z</time>
      </trkpt>
      <trkpt lat="48.25827" lon="2.68812">
        <ele>85.400001525879</ele>
        <time>2013-06-09T06:57:36.000Z</time>
      </trkpt>
      <trkpt lat="48.25827" lon="2.68805">
        <ele>85.199996948242</ele>
        <time>2013-06-09T06:57:40.000Z</time>
      </trkpt>
      <trkpt lat="48.25814" lon="2.68793">
        <ele>85.599998474121</ele>
        <time>2013-06-09T06:57:46.000Z</time>
      </trkpt>
      <trkpt lat="48.25793" lon="2.68786">
        <ele>86.800003051758</ele>
        <time>2013-06-09T06:57:52.000Z</time>
      </trkpt>
      <trkpt lat="48.25787" lon="2.68783">
        <ele>87.199996948242</ele>
        <time>2013-06-09T06:57:54.000Z</time>
      </trkpt>
      <trkpt lat="48.2577" lon="2.68787">
        <ele>88.199996948242</ele>
        <time>2013-06-09T06:57:59.000Z</time>
      </trkpt>
      <trkpt lat="48.25765" lon="2.68787">
        <ele>88.599998474121</ele>
        <time>2013-06-09T06:58:00.000Z</time>
      </trkpt>
      <trkpt lat="48.25747" lon="2.68777">
        <ele>90</ele>
        <time>2013-06-09T06:58:04.000Z</time>
      </trkpt>
      <trkpt lat="48.25732" lon="2.68767">
        <ele>90.400001525879</ele>
        <time>2013-06-09T06:58:09.000Z</time>
      </trkpt>
      <trkpt lat="48.25722" lon="2.68759">
        <ele>90.599998474121</ele>
        <time>2013-06-09T06:58:13.000Z</time>
      </trkpt>
      <trkpt lat="48.2571" lon="2.68751">
        <ele>90.800003051758</ele>
        <time>2013-06-09T06:58:17.000Z</time>
      </trkpt>
      <trkpt lat="48.25691" lon="2.68743">
        <ele>91</ele>
        <time>2013-06-09T06:58:23.000Z</time>
      </trkpt>
      <trkpt lat="48.25688" lon="2.68743">
        <ele>91</ele>
        <time>2013-06-09T06:58:24.000Z</time>
      </trkpt>
      <trkpt lat="48.25684" lon="2.68752">
        <ele>90.800003051758</ele>
        <time>2013-06-09T06:58:29.000Z</time>
      </trkpt>
      <trkpt lat="48.25683" lon="2.68769">
        <ele>90.400001525879</ele>
        <time>2013-06-09T06:58:33.000Z</time>
      </trkpt>
      <trkpt lat="48.25683" lon="2.68772">
        <ele>90.400001525879</ele>
        <time>2013-06-09T06:58:36.000Z</time>
      </trkpt>
      <trkpt lat="48.25684" lon="2.68771">
        <ele>90.400001525879</ele>
        <time>2013-06-09T06:58:38.000Z</time>
      </trkpt>
      <trkpt lat="48.25694" lon="2.6878">
        <ele>90</ele>
        <time>2013-06-09T06:58:43.000Z</time>
      </trkpt>
      <trkpt lat="48.25699" lon="2.68788">
        <ele>89.800003051758</ele>
        <time>2013-06-09T06:58:46.000Z</time>
      </trkpt>
      <trkpt lat="48.25698" lon="2.68793">
        <ele>89.599998474121</ele>
        <time>2013-06-09T06:58:56.000Z</time>
      </trkpt>
      <trkpt lat="48.25697" lon="2.68795">
        <ele>89.599998474121</ele>
        <time>2013-06-09T06:59:00.000Z</time>
      </trkpt>
      <trkpt lat="48.2569" lon="2.68793">
        <ele>89.800003051758</ele>
        <time>2013-06-09T06:59:04.000Z</time>
      </trkpt>
      <trkpt lat="48.25679" lon="2.68794">
        <ele>89.800003051758</ele>
        <time>2013-06-09T06:59:09.000Z</time>
      </trkpt>
      <trkpt lat="48.25679" lon="2.6879">
        <ele>89.800003051758</ele>
        <time>2013-06-09T06:59:17.000Z</time>
      </trkpt>
      <trkpt lat="48.25678" lon="2.68786">
        <ele>90</ele>
        <time>2013-06-09T06:59:20.000Z</time>
      </trkpt>
      <trkpt lat="48.25679" lon="2.68759">
        <ele>90.599998474121</ele>
        <time>2013-06-09T06:59:25.000Z</time>
      </trkpt>
      <trkpt lat="48.25681" lon="2.68735">
        <ele>91</ele>
        <time>2013-06-09T06:59:30.000Z</time>
      </trkpt>
      <trkpt lat="48.25691" lon="2.68717">
        <ele>91</ele>
        <time>2013-06-09T06:59:35.000Z</time>
      </trkpt>
      <trkpt lat="48.25699" lon="2.68704">
        <ele>91</ele>
        <time>2013-06-09T06:59:39.000Z</time>
      </trkpt>
      <trkpt lat="48.25702" lon="2.68698">
        <ele>91</ele>
        <time>2013-06-09T06:59:41.000Z</time>
      </trkpt>
      <trkpt lat="48.25703" lon="2.6869">
        <ele>91</ele>
        <time>2013-06-09T06:59:47.000Z</time>
      </trkpt>
      <trkpt lat="48.25697" lon="2.68686">
        <ele>91</ele>
        <time>2013-06-09T06:59:52.000Z</time>
      </trkpt>
      <trkpt lat="48.25696" lon="2.68674">
        <ele>91</ele>
        <time>2013-06-09T06:59:57.000Z</time>
      </trkpt>
      <trkpt lat="48.25695" lon="2.68672">
        <ele>91</ele>
        <time>2013-06-09T06:59:58.000Z</time>
      </trkpt>
      <trkpt lat="48.25693" lon="2.68665">
        <ele>90.800003051758</ele>
        <time>2013-06-09T07:00:00.000Z</time>
      </trkpt>
      <trkpt lat="48.25694" lon="2.68659">
        <ele>90.400001525879</ele>
        <time>2013-06-09T07:00:04.000Z</time>
      </trkpt>
      <trkpt lat="48.25691" lon="2.68657">
        <ele>90.400001525879</ele>
        <time>2013-06-09T07:00:11.000Z</time>
      </trkpt>
      <trkpt lat="48.25677" lon="2.68664">
        <ele>90.800003051758</ele>
        <time>2013-06-09T07:00:15.000Z</time>
      </trkpt>
      <trkpt lat="48.25665" lon="2.68675">
        <ele>90.800003051758</ele>
        <time>2013-06-09T07:00:20.000Z</time>
      </trkpt>
      <trkpt lat="48.25666" lon="2.68676">
        <ele>90.800003051758</ele>
        <time>2013-06-09T07:00:21.000Z</time>
      </trkpt>
      <trkpt lat="48.2567" lon="2.68674">
        <ele>91</ele>
        <time>2013-06-09T07:00:27.000Z</time>
      </trkpt>
      <trkpt lat="48.25671" lon="2.68676">
        <ele>91</ele>
        <time>2013-06-09T07:00:35.000Z</time>
      </trkpt>
      <trkpt lat="48.2567" lon="2.68673">
        <ele>91</ele>
        <time>2013-06-09T07:00:40.000Z</time>
      </trkpt>
      <trkpt lat="48.25668" lon="2.68673">
        <ele>91</ele>
        <time>2013-06-09T07:00:46.000Z</time>
      </trkpt>
      <trkpt lat="48.25661" lon="2.6868">
        <ele>90.800003051758</ele>
        <time>2013-06-09T07:00:50.000Z</time>
      </trkpt>
      <trkpt lat="48.25661" lon="2.68682">
        <ele>90.599998474121</ele>
        <time>2013-06-09T07:00:51.000Z</time>
      </trkpt>
      <trkpt lat="48.25663" lon="2.68685">
        <ele>90.800003051758</ele>
        <time>2013-06-09T07:00:57.000Z</time>
      </trkpt>
      <trkpt lat="48.25662" lon="2.68685">
        <ele>90.800003051758</ele>
        <time>2013-06-09T07:01:03.000Z</time>
      </trkpt>
      <trkpt lat="48.25659" lon="2.68683">
        <ele>90.599998474121</ele>
        <time>2013-06-09T07:01:14.000Z</time>
      </trkpt>
      <trkpt lat="48.25657" lon="2.68679">
        <ele>90.599998474121</ele>
        <time>2013-06-09T07:01:21.000Z</time>
      </trkpt>
      <trkpt lat="48.25656" lon="2.6868">
        <ele>90.599998474121</ele>
        <time>2013-06-09T07:01:25.000Z</time>
      </trkpt>
      <trkpt lat="48.25655" lon="2.6868">
        <ele>90.599998474121</ele>
        <time>2013-06-09T07:01:26.000Z</time>
      </trkpt>
      <trkpt lat="48.25655" lon="2.6868">
        <ele>90.599998474121</ele>
        <time>2013-06-09T07:01:26.000Z</time>
      </trkpt>
      <trkpt lat="48.25643" lon="2.68687">
        <ele>90.199996948242</ele>
        <time>2013-06-09T07:01:32.000Z</time>
      </trkpt>
      <trkpt lat="48.25632" lon="2.68689">
        <ele>89.800003051758</ele>
        <time>2013-06-09T07:01:36.000Z</time>
      </trkpt>
      <trkpt lat="48.2562" lon="2.6869">
        <ele>89.400001525879</ele>
        <time>2013-06-09T07:01:40.000Z</time>
      </trkpt>
      <trkpt lat="48.25608" lon="2.6869">
        <ele>89</ele>
        <time>2013-06-09T07:01:45.000Z</time>
      </trkpt>
      <trkpt lat="48.25606" lon="2.68691">
        <ele>89</ele>
        <time>2013-06-09T07:01:47.000Z</time>
      </trkpt>
      <trkpt lat="48.25606" lon="2.68699">
        <ele>89</ele>
        <time>2013-06-09T07:01:51.000Z</time>
      </trkpt>
      <trkpt lat="48.25608" lon="2.68703">
        <ele>89</ele>
        <time>2013-06-09T07:01:56.000Z</time>
      </trkpt>
      <trkpt lat="48.25611" lon="2.68711">
        <ele>89.199996948242</ele>
        <time>2013-06-09T07:02:01.000Z</time>
      </trkpt>
      <trkpt lat="48.25614" lon="2.68718">
        <ele>89.400001525879</ele>
        <time>2013-06-09T07:02:04.000Z</time>
      </trkpt>
      <trkpt lat="48.2561" lon="2.68725">
        <ele>89.400001525879</ele>
        <time>2013-06-09T07:02:08.000Z</time>
      </trkpt>
      <trkpt lat="48.25609" lon="2.68727">
        <ele>89.400001525879</ele>
        <time>2013-06-09T07:02:09.000Z</time>
      </trkpt>
      <trkpt lat="48.25605" lon="2.68736">
        <ele>89.199996948242</ele>
        <time>2013-06-09T07:02:13.000Z</time>
      </trkpt>
      <trkpt lat="48.25603" lon="2.68742">
        <ele>89.199996948242</ele>
        <time>2013-06-09T07:02:17.000Z</time>
      </trkpt>
      <trkpt lat="48.25603" lon="2.68747">
        <ele>89.400001525879</ele>
        <time>2013-06-09T07:02:24.000Z</time>
      </trkpt>
      <trkpt lat="48.25603" lon="2.6875">
        <ele>89.400001525879</ele>
        <time>2013-06-09T07:02:30.000Z</time>
      </trkpt>
      <trkpt lat="48.25606" lon="2.68752">
        <ele>89.400001525879</ele>
        <time>2013-06-09T07:02:36.000Z</time>
      </trkpt>
      <trkpt lat="48.25608" lon="2.68754">
        <ele>89.400001525879</ele>
        <time>2013-06-09T07:02:44.000Z</time>
      </trkpt>
      <trkpt lat="48.25611" lon="2.68753">
        <ele>89.599998474121</ele>
        <time>2013-06-09T07:02:50.000Z</time>
      </trkpt>
      <trkpt lat="48.25616" lon="2.68753">
        <ele>89.599998474121</ele>
        <time>2013-06-09T07:02:56.000Z</time>
      </trkpt>
      <trkpt lat="48.25617" lon="2.6875">
        <ele>89.800003051758</ele>
        <time>2013-06-09T07:03:02.000Z</time>
      </trkpt>
      <trkpt lat="48.25619" lon="2.6875">
        <ele>89.800003051758</ele>
        <time>2013-06-09T07:03:07.000Z</time>
      </trkpt>
      <trkpt lat="48.25621" lon="2.68749">
        <ele>89.800003051758</ele>
        <time>2013-06-09T07:03:18.000Z</time>
      </trkpt>
      <trkpt lat="48.25625" lon="2.68742">
        <ele>89.800003051758</ele>
        <time>2013-06-09T07:03:24.000Z</time>
      </trkpt>
      <trkpt lat="48.25628" lon="2.68739">
        <ele>90</ele>
        <time>2013-06-09T07:03:27.000Z</time>
      </trkpt>
      <trkpt lat="48.25631" lon="2.68739">
        <ele>90</ele>
        <time>2013-06-09T07:03:29.000Z</time>
      </trkpt>
      <trkpt lat="48.25638" lon="2.68734">
        <ele>90.199996948242</ele>
        <time>2013-06-09T07:03:34.000Z</time>
      </trkpt>
      <trkpt lat="48.25648" lon="2.68726">
        <ele>90.400001525879</ele>
        <time>2013-06-09T07:03:39.000Z</time>
      </trkpt>
      <trkpt lat="48.25652" lon="2.68723">
        <ele>90.400001525879</ele>
        <time>2013-06-09T07:03:43.000Z</time>
      </trkpt>
      <trkpt lat="48.25654" lon="2.68718">
        <ele>90.599998474121</ele>
        <time>2013-06-09T07:03:50.000Z</time>
      </trkpt>
      <trkpt lat="48.25656" lon="2.68716">
        <ele>90.599998474121</ele>
        <time>2013-06-09T07:03:55.000Z</time>
      </trkpt>
      <trkpt lat="48.2566" lon="2.68713">
        <ele>90.800003051758</ele>
        <time>2013-06-09T07:04:00.000Z</time>
      </trkpt>
      <trkpt lat="48.25663" lon="2.68711">
        <ele>90.800003051758</ele>
        <time>2013-06-09T07:04:04.000Z</time>
      </trkpt>
      <trkpt lat="48.25663" lon="2.68706">
        <ele>90.800003051758</ele>
        <time>2013-06-09T07:04:07.000Z</time>
      </trkpt>
      <trkpt lat="48.25665" lon="2.68696">
        <ele>90.800003051758</ele>
        <time>2013-06-09T07:04:13.000Z</time>
      </trkpt>
      <trkpt lat="48.25662" lon="2.68687">
        <ele>90.800003051758</ele>
        <time>2013-06-09T07:04:19.000Z</time>
      </trkpt>
      <trkpt lat="48.25663" lon="2.68681">
        <ele>90.800003051758</ele>
        <time>2013-06-09T07:04:21.000Z</time>
      </trkpt>
      <trkpt lat="48.25674" lon="2.68668">
        <ele>91</ele>
        <time>2013-06-09T07:04:27.000Z</time>
      </trkpt>
      <trkpt lat="48.2568" lon="2.68663">
        <ele>90.800003051758</ele>
        <time>2013-06-09T07:04:31.000Z</time>
      </trkpt>
      <trkpt lat="48.25678" lon="2.68661">
        <ele>90.599998474121</ele>
        <time>2013-06-09T07:04:38.000Z</time>
      </trkpt>
      <trkpt lat="48.25683" lon="2.68657">
        <ele>90.400001525879</ele>
        <time>2013-06-09T07:04:42.000Z</time>
      </trkpt>
      <trkpt lat="48.25696" lon="2.68641">
        <ele>89.599998474121</ele>
        <time>2013-06-09T07:04:47.000Z</time>
      </trkpt>
      <trkpt lat="48.25707" lon="2.68622">
        <ele>88.400001525879</ele>
        <time>2013-06-09T07:04:52.000Z</time>
      </trkpt>
      <trkpt lat="48.2572" lon="2.68609">
        <ele>87.599998474121</ele>
        <time>2013-06-09T07:04:57.000Z</time>
      </trkpt>
      <trkpt lat="48.25725" lon="2.68608">
        <ele>87.599998474121</ele>
        <time>2013-06-09T07:04:59.000Z</time>
      </trkpt>
      <trkpt lat="48.2574" lon="2.68595">
        <ele>86.599998474121</ele>
        <time>2013-06-09T07:05:04.000Z</time>
      </trkpt>
      <trkpt lat="48.25746" lon="2.68591">
        <ele>86.400001525879</ele>
        <time>2013-06-09T07:05:06.000Z</time>
      </trkpt>
      <trkpt lat="48.25756" lon="2.6859">
        <ele>86</ele>
        <time>2013-06-09T07:05:09.000Z</time>
      </trkpt>
      <trkpt lat="48.25761" lon="2.68603">
        <ele>86.599998474121</ele>
        <time>2013-06-09T07:05:13.000Z</time>
      </trkpt>
      <trkpt lat="48.25762" lon="2.68624">
        <ele>87.400001525879</ele>
        <time>2013-06-09T07:05:17.000Z</time>
      </trkpt>
      <trkpt lat="48.25761" lon="2.6863">
        <ele>87.800003051758</ele>
        <time>2013-06-09T07:05:20.000Z</time>
      </trkpt>
      <trkpt lat="48.25757" lon="2.68634">
        <ele>88.400001525879</ele>
        <time>2013-06-09T07:05:26.000Z</time>
      </trkpt>
      <trkpt lat="48.25756" lon="2.68635">
        <ele>88.400001525879</ele>
        <time>2013-06-09T07:05:27.000Z</time>
      </trkpt>
      <trkpt lat="48.25749" lon="2.68636">
        <ele>89</ele>
        <time>2013-06-09T07:05:31.000Z</time>
      </trkpt>
      <trkpt lat="48.25748" lon="2.68634">
        <ele>89</ele>
        <time>2013-06-09T07:05:33.000Z</time>
      </trkpt>
      <trkpt lat="48.25748" lon="2.68633">
        <ele>88.800003051758</ele>
        <time>2013-06-09T07:05:35.000Z</time>
      </trkpt>
      <trkpt lat="48.25748" lon="2.68626">
        <ele>88.400001525879</ele>
        <time>2013-06-09T07:05:43.000Z</time>
      </trkpt>
      <trkpt lat="48.25749" lon="2.68621">
        <ele>88.199996948242</ele>
        <time>2013-06-09T07:05:51.000Z</time>
      </trkpt>
      <trkpt lat="48.25751" lon="2.6862">
        <ele>88</ele>
        <time>2013-06-09T07:05:53.000Z</time>
      </trkpt>
      <trkpt lat="48.25753" lon="2.68622">
        <ele>88</ele>
        <time>2013-06-09T07:05:55.000Z</time>
      </trkpt>
      <trkpt lat="48.25764" lon="2.68617">
        <ele>87</ele>
        <time>2013-06-09T07:05:59.000Z</time>
      </trkpt>
      <trkpt lat="48.25763" lon="2.68601">
        <ele>86.400001525879</ele>
        <time>2013-06-09T07:06:02.000Z</time>
      </trkpt>
      <trkpt lat="48.25763" lon="2.68572">
        <ele>85.599998474121</ele>
        <time>2013-06-09T07:06:08.000Z</time>
      </trkpt>
      <trkpt lat="48.25756" lon="2.68551">
        <ele>86</ele>
        <time>2013-06-09T07:06:12.000Z</time>
      </trkpt>
      <trkpt lat="48.25749" lon="2.68531">
        <ele>86.599998474121</ele>
        <time>2013-06-09T07:06:16.000Z</time>
      </trkpt>
      <trkpt lat="48.25747" lon="2.68527">
        <ele>86.400001525879</ele>
        <time>2013-06-09T07:06:17.000Z</time>
      </trkpt>
      <trkpt lat="48.25741" lon="2.68502">
        <ele>86.400001525879</ele>
        <time>2013-06-09T07:06:22.000Z</time>
      </trkpt>
      <trkpt lat="48.25737" lon="2.68493">
        <ele>86.199996948242</ele>
        <time>2013-06-09T07:06:24.000Z</time>
      </trkpt>
      <trkpt lat="48.25727" lon="2.68481">
        <ele>85.400001525879</ele>
        <time>2013-06-09T07:06:28.000Z</time>
      </trkpt>
      <trkpt lat="48.25719" lon="2.6847">
        <ele>85</ele>
        <time>2013-06-09T07:06:31.000Z</time>
      </trkpt>
      <trkpt lat="48.25709" lon="2.68463">
        <ele>84.400001525879</ele>
        <time>2013-06-09T07:06:36.000Z</time>
      </trkpt>
      <trkpt lat="48.2571" lon="2.68461">
        <ele>84.599998474121</ele>
        <time>2013-06-09T07:06:41.000Z</time>
      </trkpt>
      <trkpt lat="48.25715" lon="2.68455">
        <ele>84.599998474121</ele>
        <time>2013-06-09T07:06:50.000Z</time>
      </trkpt>
      <trkpt lat="48.25714" lon="2.68453">
        <ele>84.599998474121</ele>
        <time>2013-06-09T07:06:52.000Z</time>
      </trkpt>
      <trkpt lat="48.2571" lon="2.68449">
        <ele>84.400001525879</ele>
        <time>2013-06-09T07:06:58.000Z</time>
      </trkpt>
      <trkpt lat="48.25712" lon="2.68423">
        <ele>84</ele>
        <time>2013-06-09T07:07:03.000Z</time>
      </trkpt>
      <trkpt lat="48.25725" lon="2.68389">
        <ele>83.400001525879</ele>
        <time>2013-06-09T07:07:09.000Z</time>
      </trkpt>
      <trkpt lat="48.25733" lon="2.68366">
        <ele>82.800003051758</ele>
        <time>2013-06-09T07:07:14.000Z</time>
      </trkpt>
      <trkpt lat="48.25747" lon="2.68348">
        <ele>82.400001525879</ele>
        <time>2013-06-09T07:07:19.000Z</time>
      </trkpt>
      <trkpt lat="48.25758" lon="2.68331">
        <ele>81.800003051758</ele>
        <time>2013-06-09T07:07:23.000Z</time>
      </trkpt>
      <trkpt lat="48.25769" lon="2.68317">
        <ele>81.400001525879</ele>
        <time>2013-06-09T07:07:27.000Z</time>
      </trkpt>
      <trkpt lat="48.25784" lon="2.68301">
        <ele>81.199996948242</ele>
        <time>2013-06-09T07:07:32.000Z</time>
      </trkpt>
      <trkpt lat="48.25797" lon="2.68289">
        <ele>81.199996948242</ele>
        <time>2013-06-09T07:07:36.000Z</time>
      </trkpt>
      <trkpt lat="48.25806" lon="2.68271">
        <ele>81</ele>
        <time>2013-06-09T07:07:40.000Z</time>
      </trkpt>
      <trkpt lat="48.25812" lon="2.68253">
        <ele>81</ele>
        <time>2013-06-09T07:07:44.000Z</time>
      </trkpt>
      <trkpt lat="48.25819" lon="2.68238">
        <ele>81.199996948242</ele>
        <time>2013-06-09T07:07:48.000Z</time>
      </trkpt>
      <trkpt lat="48.2582" lon="2.68236">
        <ele>81.400001525879</ele>
        <time>2013-06-09T07:07:49.000Z</time>
      </trkpt>
      <trkpt lat="48.25823" lon="2.68231">
        <ele>81.599998474121</ele>
        <time>2013-06-09T07:07:55.000Z</time>
      </trkpt>
      <trkpt lat="48.25822" lon="2.68233">
        <ele>81.400001525879</ele>
        <time>2013-06-09T07:08:06.000Z</time>
      </trkpt>
      <trkpt lat="48.25825" lon="2.6825">
        <ele>81.400001525879</ele>
        <time>2013-06-09T07:08:11.000Z</time>
      </trkpt>
      <trkpt lat="48.25826" lon="2.68263">
        <ele>81.800003051758</ele>
        <time>2013-06-09T07:08:14.000Z</time>
      </trkpt>
      <trkpt lat="48.25832" lon="2.68295">
        <ele>82.400001525879</ele>
        <time>2013-06-09T07:08:19.000Z</time>
      </trkpt>
      <trkpt lat="48.25836" lon="2.6832">
        <ele>82.800003051758</ele>
        <time>2013-06-09T07:08:23.000Z</time>
      </trkpt>
      <trkpt lat="48.2584" lon="2.68336">
        <ele>82.800003051758</ele>
        <time>2013-06-09T07:08:28.000Z</time>
      </trkpt>
      <trkpt lat="48.25844" lon="2.68338">
        <ele>82.800003051758</ele>
        <time>2013-06-09T07:08:34.000Z</time>
      </trkpt>
      <trkpt lat="48.25849" lon="2.68358">
        <ele>82.400001525879</ele>
        <time>2013-06-09T07:08:39.000Z</time>
      </trkpt>
      <trkpt lat="48.25848" lon="2.68368">
        <ele>82.400001525879</ele>
        <time>2013-06-09T07:08:41.000Z</time>
      </trkpt>
      <trkpt lat="48.25838" lon="2.68396">
        <ele>82</ele>
        <time>2013-06-09T07:08:47.000Z</time>
      </trkpt>
      <trkpt lat="48.25832" lon="2.68409">
        <ele>82</ele>
        <time>2013-06-09T07:08:50.000Z</time>
      </trkpt>
      <trkpt lat="48.25832" lon="2.68421">
        <ele>81.800003051758</ele>
        <time>2013-06-09T07:08:55.000Z</time>
      </trkpt>
      <trkpt lat="48.25837" lon="2.68442">
        <ele>81.599998474121</ele>
        <time>2013-06-09T07:09:00.000Z</time>
      </trkpt>
      <trkpt lat="48.25844" lon="2.6846">
        <ele>81.199996948242</ele>
        <time>2013-06-09T07:09:06.000Z</time>
      </trkpt>
      <trkpt lat="48.25844" lon="2.68463">
        <ele>81.199996948242</ele>
        <time>2013-06-09T07:09:14.000Z</time>
      </trkpt>
      <trkpt lat="48.25844" lon="2.68463">
        <ele>81.199996948242</ele>
        <time>2013-06-09T07:09:16.000Z</time>
      </trkpt>
      <trkpt lat="48.25839" lon="2.68452">
        <ele>81.400001525879</ele>
        <time>2013-06-09T07:09:20.000Z</time>
      </trkpt>
      <trkpt lat="48.25828" lon="2.68423">
        <ele>82</ele>
        <time>2013-06-09T07:09:26.000Z</time>
      </trkpt>
      <trkpt lat="48.25823" lon="2.68408">
        <ele>82.400001525879</ele>
        <time>2013-06-09T07:09:29.000Z</time>
      </trkpt>
      <trkpt lat="48.2581" lon="2.68415">
        <ele>82.800003051758</ele>
        <time>2013-06-09T07:09:33.000Z</time>
      </trkpt>
      <trkpt lat="48.25794" lon="2.68429">
        <ele>83.400001525879</ele>
        <time>2013-06-09T07:09:37.000Z</time>
      </trkpt>
      <trkpt lat="48.25783" lon="2.68452">
        <ele>84</ele>
        <time>2013-06-09T07:09:42.000Z</time>
      </trkpt>
      <trkpt lat="48.25781" lon="2.68466">
        <ele>84.400001525879</ele>
        <time>2013-06-09T07:09:47.000Z</time>
      </trkpt>
      <trkpt lat="48.25779" lon="2.68473">
        <ele>84.400001525879</ele>
        <time>2013-06-09T07:09:51.000Z</time>
      </trkpt>
      <trkpt lat="48.25773" lon="2.68478">
        <ele>85</ele>
        <time>2013-06-09T07:09:57.000Z</time>
      </trkpt>
      <trkpt lat="48.25773" lon="2.68481">
        <ele>85</ele>
        <time>2013-06-09T07:10:04.000Z</time>
      </trkpt>
      <trkpt lat="48.25778" lon="2.68481">
        <ele>84.599998474121</ele>
        <time>2013-06-09T07:10:12.000Z</time>
      </trkpt>
      <trkpt lat="48.25776" lon="2.68478">
        <ele>84.800003051758</ele>
        <time>2013-06-09T07:10:20.000Z</time>
      </trkpt>
      <trkpt lat="48.25773" lon="2.68474">
        <ele>84.800003051758</ele>
        <time>2013-06-09T07:10:34.000Z</time>
      </trkpt>
      <trkpt lat="48.25772" lon="2.68474">
        <ele>85</ele>
        <time>2013-06-09T07:10:42.000Z</time>
      </trkpt>
      <trkpt lat="48.25771" lon="2.68473">
        <ele>85</ele>
        <time>2013-06-09T07:10:51.000Z</time>
      </trkpt>
      <trkpt lat="48.25771" lon="2.68474">
        <ele>85</ele>
        <time>2013-06-09T07:11:04.000Z</time>
      </trkpt>
      <trkpt lat="48.25769" lon="2.6847">
        <ele>85</ele>
        <time>2013-06-09T07:11:19.000Z</time>
      </trkpt>
      <trkpt lat="48.25767" lon="2.68471">
        <ele>85.199996948242</ele>
        <time>2013-06-09T07:11:35.000Z</time>
      </trkpt>
      <trkpt lat="48.25767" lon="2.68472">
        <ele>85.199996948242</ele>
        <time>2013-06-09T07:11:51.000Z</time>
      </trkpt>
      <trkpt lat="48.25767" lon="2.68473">
        <ele>85.199996948242</ele>
        <time>2013-06-09T07:11:54.000Z</time>
      </trkpt>
      <trkpt lat="48.2577" lon="2.68478">
        <ele>85</ele>
        <time>2013-06-09T07:12:28.000Z</time>
      </trkpt>
      <trkpt lat="48.2577" lon="2.68479">
        <ele>85.199996948242</ele>
        <time>2013-06-09T07:12:42.000Z</time>
      </trkpt>
      <trkpt lat="48.25771" lon="2.68477">
        <ele>85</ele>
        <time>2013-06-09T07:12:49.000Z</time>
      </trkpt>
      <trkpt lat="48.25767" lon="2.6847">
        <ele>85.199996948242</ele>
        <time>2013-06-09T07:13:10.000Z</time>
      </trkpt>
      <trkpt lat="48.25768" lon="2.68472">
        <ele>85.199996948242</ele>
        <time>2013-06-09T07:13:28.000Z</time>
      </trkpt>
      <trkpt lat="48.25771" lon="2.68475">
        <ele>85</ele>
        <time>2013-06-09T07:13:33.000Z</time>
      </trkpt>
      <trkpt lat="48.25779" lon="2.68479">
        <ele>84.599998474121</ele>
        <time>2013-06-09T07:13:37.000Z</time>
      </trkpt>
      <trkpt lat="48.25781" lon="2.68482">
        <ele>84.400001525879</ele>
        <time>2013-06-09T07:13:38.000Z</time>
      </trkpt>
      <trkpt lat="48.25786" lon="2.68488">
        <ele>84.199996948242</ele>
        <time>2013-06-09T07:13:40.000Z</time>
      </trkpt>
      <trkpt lat="48.25787" lon="2.68503">
        <ele>84.199996948242</ele>
        <time>2013-06-09T07:13:45.000Z</time>
      </trkpt>
      <trkpt lat="48.25789" lon="2.68507">
        <ele>84</ele>
        <time>2013-06-09T07:13:46.000Z</time>
      </trkpt>
      <trkpt lat="48.25796" lon="2.68514">
        <ele>83.800003051758</ele>
        <time>2013-06-09T07:13:50.000Z</time>
      </trkpt>
      <trkpt lat="48.25797" lon="2.68517">
        <ele>83.599998474121</ele>
        <time>2013-06-09T07:14:00.000Z</time>
      </trkpt>
      <trkpt lat="48.25803" lon="2.68517">
        <ele>83.199996948242</ele>
        <time>2013-06-09T07:14:10.000Z</time>
      </trkpt>
      <trkpt lat="48.25812" lon="2.68523">
        <ele>82.800003051758</ele>
        <time>2013-06-09T07:14:14.000Z</time>
      </trkpt>
      <trkpt lat="48.25822" lon="2.68546">
        <ele>82.599998474121</ele>
        <time>2013-06-09T07:14:18.000Z</time>
      </trkpt>
      <trkpt lat="48.25827" lon="2.68565">
        <ele>82.800003051758</ele>
        <time>2013-06-09T07:14:20.000Z</time>
      </trkpt>
      <trkpt lat="48.25842" lon="2.68565">
        <ele>82.599998474121</ele>
        <time>2013-06-09T07:14:24.000Z</time>
      </trkpt>
      <trkpt lat="48.25884" lon="2.68544">
        <ele>82.199996948242</ele>
        <time>2013-06-09T07:14:32.000Z</time>
      </trkpt>
      <trkpt lat="48.25922" lon="2.68525">
        <ele>82.199996948242</ele>
        <time>2013-06-09T07:14:39.000Z</time>
      </trkpt>
      <trkpt lat="48.25955" lon="2.68508">
        <ele>84.199996948242</ele>
        <time>2013-06-09T07:14:45.000Z</time>
      </trkpt>
      <trkpt lat="48.25963" lon="2.68502">
        <ele>84.800003051758</ele>
        <time>2013-06-09T07:14:47.000Z</time>
      </trkpt>
      <trkpt lat="48.25974" lon="2.68504">
        <ele>85.800003051758</ele>
        <time>2013-06-09T07:14:51.000Z</time>
      </trkpt>
      <trkpt lat="48.25987" lon="2.68528">
        <ele>86.800003051758</ele>
        <time>2013-06-09T07:14:57.000Z</time>
      </trkpt>
      <trkpt lat="48.26016" lon="2.68539">
        <ele>88.400001525879</ele>
        <time>2013-06-09T07:15:04.000Z</time>
      </trkpt>
      <trkpt lat="48.26032" lon="2.68524">
        <ele>89.800003051758</ele>
        <time>2013-06-09T07:15:08.000Z</time>
      </trkpt>
      <trkpt lat="48.26054" lon="2.68497">
        <ele>91.800003051758</ele>
        <time>2013-06-09T07:15:14.000Z</time>
      </trkpt>
      <trkpt lat="48.26066" lon="2.68475">
        <ele>92.800003051758</ele>
        <time>2013-06-09T07:15:18.000Z</time>
      </trkpt>
      <trkpt lat="48.26073" lon="2.68458">
        <ele>93.599998474121</ele>
        <time>2013-06-09T07:15:21.000Z</time>
      </trkpt>
      <trkpt lat="48.26071" lon="2.68436">
        <ele>93.599998474121</ele>
        <time>2013-06-09T07:15:25.000Z</time>
      </trkpt>
      <trkpt lat="48.26063" lon="2.68419">
        <ele>93</ele>
        <time>2013-06-09T07:15:28.000Z</time>
      </trkpt>
      <trkpt lat="48.26047" lon="2.68401">
        <ele>91.599998474121</ele>
        <time>2013-06-09T07:15:32.000Z</time>
      </trkpt>
      <trkpt lat="48.26033" lon="2.68367">
        <ele>90.800003051758</ele>
        <time>2013-06-09T07:15:37.000Z</time>
      </trkpt>
      <trkpt lat="48.2602" lon="2.68335">
        <ele>90.199996948242</ele>
        <time>2013-06-09T07:15:42.000Z</time>
      </trkpt>
      <trkpt lat="48.26009" lon="2.68327">
        <ele>90.199996948242</ele>
        <time>2013-06-09T07:15:44.000Z</time>
      </trkpt>
      <trkpt lat="48.25982" lon="2.68303">
        <ele>90.800003051758</ele>
        <time>2013-06-09T07:15:49.000Z</time>
      </trkpt>
      <trkpt lat="48.2595" lon="2.68267">
        <ele>91.599998474121</ele>
        <time>2013-06-09T07:15:56.000Z</time>
      </trkpt>
      <trkpt lat="48.25923" lon="2.68248">
        <ele>90.599998474121</ele>
        <time>2013-06-09T07:16:01.000Z</time>
      </trkpt>
      <trkpt lat="48.25905" lon="2.68234">
        <ele>89.400001525879</ele>
        <time>2013-06-09T07:16:04.000Z</time>
      </trkpt>
      <trkpt lat="48.25885" lon="2.682">
        <ele>88.199996948242</ele>
        <time>2013-06-09T07:16:09.000Z</time>
      </trkpt>
      <trkpt lat="48.2588" lon="2.68178">
        <ele>88.199996948242</ele>
        <time>2013-06-09T07:16:14.000Z</time>
      </trkpt>
      <trkpt lat="48.25876" lon="2.68164">
        <ele>88</ele>
        <time>2013-06-09T07:16:19.000Z</time>
      </trkpt>
      <trkpt lat="48.25876" lon="2.68159">
        <ele>88.199996948242</ele>
        <time>2013-06-09T07:16:20.000Z</time>
      </trkpt>
      <trkpt lat="48.25876" lon="2.68121">
        <ele>88.800003051758</ele>
        <time>2013-06-09T07:16:26.000Z</time>
      </trkpt>
      <trkpt lat="48.25879" lon="2.68091">
        <ele>89.599998474121</ele>
        <time>2013-06-09T07:16:30.000Z</time>
      </trkpt>
      <trkpt lat="48.25882" lon="2.68074">
        <ele>89.800003051758</ele>
        <time>2013-06-09T07:16:32.000Z</time>
      </trkpt>
      <trkpt lat="48.25882" lon="2.68055">
        <ele>89.199996948242</ele>
        <time>2013-06-09T07:16:34.000Z</time>
      </trkpt>
      <trkpt lat="48.25882" lon="2.68035">
        <ele>88.599998474121</ele>
        <time>2013-06-09T07:16:36.000Z</time>
      </trkpt>
      <trkpt lat="48.25885" lon="2.68013">
        <ele>88.400001525879</ele>
        <time>2013-06-09T07:16:38.000Z</time>
      </trkpt>
      <trkpt lat="48.25892" lon="2.67982">
        <ele>87.599998474121</ele>
        <time>2013-06-09T07:16:42.000Z</time>
      </trkpt>
      <trkpt lat="48.25903" lon="2.6796">
        <ele>87</ele>
        <time>2013-06-09T07:16:45.000Z</time>
      </trkpt>
      <trkpt lat="48.25918" lon="2.67933">
        <ele>86</ele>
        <time>2013-06-09T07:16:50.000Z</time>
      </trkpt>
      <trkpt lat="48.2592" lon="2.67927">
        <ele>85.599998474121</ele>
        <time>2013-06-09T07:16:56.000Z</time>
      </trkpt>
      <trkpt lat="48.2592" lon="2.67926">
        <ele>85.599998474121</ele>
        <time>2013-06-09T07:16:57.000Z</time>
      </trkpt>
      <trkpt lat="48.25915" lon="2.6793">
        <ele>85.599998474121</ele>
        <time>2013-06-09T07:17:03.000Z</time>
      </trkpt>
      <trkpt lat="48.25905" lon="2.67946">
        <ele>86.199996948242</ele>
        <time>2013-06-09T07:17:07.000Z</time>
      </trkpt>
      <trkpt lat="48.25884" lon="2.67992">
        <ele>87.599998474121</ele>
        <time>2013-06-09T07:17:14.000Z</time>
      </trkpt>
      <trkpt lat="48.25865" lon="2.68">
        <ele>86.800003051758</ele>
        <time>2013-06-09T07:17:18.000Z</time>
      </trkpt>
      <trkpt lat="48.25851" lon="2.67997">
        <ele>85.800003051758</ele>
        <time>2013-06-09T07:17:21.000Z</time>
      </trkpt>
      <trkpt lat="48.2584" lon="2.68003">
        <ele>85.400001525879</ele>
        <time>2013-06-09T07:17:25.000Z</time>
      </trkpt>
      <trkpt lat="48.25839" lon="2.68005">
        <ele>85.400001525879</ele>
        <time>2013-06-09T07:17:30.000Z</time>
      </trkpt>
      <trkpt lat="48.25839" lon="2.68011">
        <ele>85.400001525879</ele>
        <time>2013-06-09T07:17:41.000Z</time>
      </trkpt>
      <trkpt lat="48.2584" lon="2.6804">
        <ele>85.800003051758</ele>
        <time>2013-06-09T07:17:48.000Z</time>
      </trkpt>
      <trkpt lat="48.25843" lon="2.68073">
        <ele>86.599998474121</ele>
        <time>2013-06-09T07:17:55.000Z</time>
      </trkpt>
      <trkpt lat="48.25845" lon="2.6809">
        <ele>86.599998474121</ele>
        <time>2013-06-09T07:18:00.000Z</time>
      </trkpt>
      <trkpt lat="48.25846" lon="2.68093">
        <ele>86.599998474121</ele>
        <time>2013-06-09T07:18:07.000Z</time>
      </trkpt>
      <trkpt lat="48.25848" lon="2.6809">
        <ele>87</ele>
        <time>2013-06-09T07:18:11.000Z</time>
      </trkpt>
      <trkpt lat="48.25846" lon="2.68073">
        <ele>86.800003051758</ele>
        <time>2013-06-09T07:18:15.000Z</time>
      </trkpt>
      <trkpt lat="48.25841" lon="2.68023">
        <ele>85.599998474121</ele>
        <time>2013-06-09T07:18:23.000Z</time>
      </trkpt>
      <trkpt lat="48.25851" lon="2.68002">
        <ele>86</ele>
        <time>2013-06-09T07:18:28.000Z</time>
      </trkpt>
      <trkpt lat="48.25867" lon="2.68008">
        <ele>87</ele>
        <time>2013-06-09T07:18:32.000Z</time>
      </trkpt>
      <trkpt lat="48.25872" lon="2.68007">
        <ele>87.400001525879</ele>
        <time>2013-06-09T07:18:33.000Z</time>
      </trkpt>
      <trkpt lat="48.25894" lon="2.67978">
        <ele>87.400001525879</ele>
        <time>2013-06-09T07:18:38.000Z</time>
      </trkpt>
      <trkpt lat="48.25906" lon="2.67956">
        <ele>86.800003051758</ele>
        <time>2013-06-09T07:18:41.000Z</time>
      </trkpt>
      <trkpt lat="48.25915" lon="2.67941">
        <ele>86.400001525879</ele>
        <time>2013-06-09T07:18:43.000Z</time>
      </trkpt>
      <trkpt lat="48.25924" lon="2.67928">
        <ele>86</ele>
        <time>2013-06-09T07:18:45.000Z</time>
      </trkpt>
      <trkpt lat="48.25937" lon="2.67926">
        <ele>86.400001525879</ele>
        <time>2013-06-09T07:18:48.000Z</time>
      </trkpt>
      <trkpt lat="48.25946" lon="2.6794">
        <ele>87.599998474121</ele>
        <time>2013-06-09T07:18:51.000Z</time>
      </trkpt>
      <trkpt lat="48.25966" lon="2.67961">
        <ele>89.599998474121</ele>
        <time>2013-06-09T07:18:57.000Z</time>
      </trkpt>
      <trkpt lat="48.2597" lon="2.6796">
        <ele>89.800003051758</ele>
        <time>2013-06-09T07:18:58.000Z</time>
      </trkpt>
      <trkpt lat="48.26" lon="2.6795">
        <ele>90.599998474121</ele>
        <time>2013-06-09T07:19:04.000Z</time>
      </trkpt>
      <trkpt lat="48.26006" lon="2.67951">
        <ele>90.400001525879</ele>
        <time>2013-06-09T07:19:05.000Z</time>
      </trkpt>
      <trkpt lat="48.26016" lon="2.67956">
        <ele>90.199996948242</ele>
        <time>2013-06-09T07:19:07.000Z</time>
      </trkpt>
      <trkpt lat="48.26032" lon="2.67976">
        <ele>90.800003051758</ele>
        <time>2013-06-09T07:19:11.000Z</time>
      </trkpt>
      <trkpt lat="48.26045" lon="2.67986">
        <ele>90.800003051758</ele>
        <time>2013-06-09T07:19:14.000Z</time>
      </trkpt>
      <trkpt lat="48.26062" lon="2.67981">
        <ele>90</ele>
        <time>2013-06-09T07:19:18.000Z</time>
      </trkpt>
      <trkpt lat="48.26072" lon="2.67964">
        <ele>89</ele>
        <time>2013-06-09T07:19:21.000Z</time>
      </trkpt>
      <trkpt lat="48.26085" lon="2.67946">
        <ele>87.800003051758</ele>
        <time>2013-06-09T07:19:24.000Z</time>
      </trkpt>
      <trkpt lat="48.26094" lon="2.67936">
        <ele>86.400001525879</ele>
        <time>2013-06-09T07:19:26.000Z</time>
      </trkpt>
      <trkpt lat="48.26109" lon="2.67916">
        <ele>84</ele>
        <time>2013-06-09T07:19:30.000Z</time>
      </trkpt>
      <trkpt lat="48.26111" lon="2.679">
        <ele>83.400001525879</ele>
        <time>2013-06-09T07:19:34.000Z</time>
      </trkpt>
      <trkpt lat="48.261" lon="2.67892">
        <ele>84.199996948242</ele>
        <time>2013-06-09T07:19:37.000Z</time>
      </trkpt>
      <trkpt lat="48.26073" lon="2.67873">
        <ele>85.199996948242</ele>
        <time>2013-06-09T07:19:43.000Z</time>
      </trkpt>
      <trkpt lat="48.26046" lon="2.67856">
        <ele>85.800003051758</ele>
        <time>2013-06-09T07:19:48.000Z</time>
      </trkpt>
      <trkpt lat="48.26012" lon="2.67834">
        <ele>87.199996948242</ele>
        <time>2013-06-09T07:19:54.000Z</time>
      </trkpt>
      <trkpt lat="48.25977" lon="2.67813">
        <ele>86.400001525879</ele>
        <time>2013-06-09T07:20:00.000Z</time>
      </trkpt>
      <trkpt lat="48.2594" lon="2.67789">
        <ele>84.400001525879</ele>
        <time>2013-06-09T07:20:06.000Z</time>
      </trkpt>
      <trkpt lat="48.2591" lon="2.67769">
        <ele>83</ele>
        <time>2013-06-09T07:20:11.000Z</time>
      </trkpt>
      <trkpt lat="48.2587" lon="2.67743">
        <ele>82.199996948242</ele>
        <time>2013-06-09T07:20:18.000Z</time>
      </trkpt>
      <trkpt lat="48.25854" lon="2.67733">
        <ele>81.800003051758</ele>
        <time>2013-06-09T07:20:21.000Z</time>
      </trkpt>
      <trkpt lat="48.25829" lon="2.67717">
        <ele>81.400001525879</ele>
        <time>2013-06-09T07:20:26.000Z</time>
      </trkpt>
      <trkpt lat="48.25817" lon="2.67709">
        <ele>81.199996948242</ele>
        <time>2013-06-09T07:20:29.000Z</time>
      </trkpt>
      <trkpt lat="48.2581" lon="2.67705">
        <ele>81</ele>
        <time>2013-06-09T07:20:33.000Z</time>
      </trkpt>
      <trkpt lat="48.25811" lon="2.67705">
        <ele>81</ele>
        <time>2013-06-09T07:20:40.000Z</time>
      </trkpt>
      <trkpt lat="48.25809" lon="2.67702">
        <ele>81</ele>
        <time>2013-06-09T07:20:51.000Z</time>
      </trkpt>
      <trkpt lat="48.25821" lon="2.67684">
        <ele>81</ele>
        <time>2013-06-09T07:20:56.000Z</time>
      </trkpt>
      <trkpt lat="48.25847" lon="2.67671">
        <ele>80.800003051758</ele>
        <time>2013-06-09T07:21:01.000Z</time>
      </trkpt>
      <trkpt lat="48.25884" lon="2.67656">
        <ele>80.400001525879</ele>
        <time>2013-06-09T07:21:07.000Z</time>
      </trkpt>
      <trkpt lat="48.2589" lon="2.67653">
        <ele>80.400001525879</ele>
        <time>2013-06-09T07:21:08.000Z</time>
      </trkpt>
      <trkpt lat="48.25932" lon="2.67631">
        <ele>80.800003051758</ele>
        <time>2013-06-09T07:21:15.000Z</time>
      </trkpt>
      <trkpt lat="48.25937" lon="2.67628">
        <ele>81</ele>
        <time>2013-06-09T07:21:16.000Z</time>
      </trkpt>
      <trkpt lat="48.2595" lon="2.67612">
        <ele>81.400001525879</ele>
        <time>2013-06-09T07:21:20.000Z</time>
      </trkpt>
      <trkpt lat="48.2595" lon="2.67608">
        <ele>81.400001525879</ele>
        <time>2013-06-09T07:21:24.000Z</time>
      </trkpt>
      <trkpt lat="48.25947" lon="2.67602">
        <ele>81.199996948242</ele>
        <time>2013-06-09T07:21:28.000Z</time>
      </trkpt>
      <trkpt lat="48.25937" lon="2.6759">
        <ele>81.199996948242</ele>
        <time>2013-06-09T07:21:34.000Z</time>
      </trkpt>
      <trkpt lat="48.25928" lon="2.67576">
        <ele>81.400001525879</ele>
        <time>2013-06-09T07:21:40.000Z</time>
      </trkpt>
      <trkpt lat="48.25926" lon="2.67574">
        <ele>81.599998474121</ele>
        <time>2013-06-09T07:21:41.000Z</time>
      </trkpt>
      <trkpt lat="48.25926" lon="2.67559">
        <ele>82.400001525879</ele>
        <time>2013-06-09T07:21:47.000Z</time>
      </trkpt>
      <trkpt lat="48.25928" lon="2.67553">
        <ele>82.800003051758</ele>
        <time>2013-06-09T07:21:49.000Z</time>
      </trkpt>
      <trkpt lat="48.25929" lon="2.67524">
        <ele>84.599998474121</ele>
        <time>2013-06-09T07:21:55.000Z</time>
      </trkpt>
      <trkpt lat="48.25929" lon="2.67513">
        <ele>85.199996948242</ele>
        <time>2013-06-09T07:21:57.000Z</time>
      </trkpt>
      <trkpt lat="48.2593" lon="2.67485">
        <ele>87.400001525879</ele>
        <time>2013-06-09T07:22:03.000Z</time>
      </trkpt>
      <trkpt lat="48.25932" lon="2.67476">
        <ele>88.199996948242</ele>
        <time>2013-06-09T07:22:05.000Z</time>
      </trkpt>
      <trkpt lat="48.25935" lon="2.67446">
        <ele>91.199996948242</ele>
        <time>2013-06-09T07:22:11.000Z</time>
      </trkpt>
      <trkpt lat="48.25936" lon="2.6743">
        <ele>92.599998474121</ele>
        <time>2013-06-09T07:22:16.000Z</time>
      </trkpt>
      <trkpt lat="48.25938" lon="2.67421">
        <ele>93.599998474121</ele>
        <time>2013-06-09T07:22:23.000Z</time>
      </trkpt>
      <trkpt lat="48.25941" lon="2.67408">
        <ele>95.199996948242</ele>
        <time>2013-06-09T07:22:30.000Z</time>
      </trkpt>
      <trkpt lat="48.25945" lon="2.67398">
        <ele>96.599998474121</ele>
        <time>2013-06-09T07:22:39.000Z</time>
      </trkpt>
      <trkpt lat="48.25947" lon="2.67389">
        <ele>97.599998474121</ele>
        <time>2013-06-09T07:22:46.000Z</time>
      </trkpt>
      <trkpt lat="48.25948" lon="2.67382">
        <ele>98.599998474121</ele>
        <time>2013-06-09T07:22:52.000Z</time>
      </trkpt>
      <trkpt lat="48.25948" lon="2.67373">
        <ele>99.599998474121</ele>
        <time>2013-06-09T07:22:59.000Z</time>
      </trkpt>
      <trkpt lat="48.25949" lon="2.67367">
        <ele>100.19999694824</ele>
        <time>2013-06-09T07:23:02.000Z</time>
      </trkpt>
      <trkpt lat="48.25949" lon="2.67355">
        <ele>101.59999847412</ele>
        <time>2013-06-09T07:23:10.000Z</time>
      </trkpt>
      <trkpt lat="48.2595" lon="2.67345">
        <ele>103</ele>
        <time>2013-06-09T07:23:19.000Z</time>
      </trkpt>
      <trkpt lat="48.25953" lon="2.67335">
        <ele>104.19999694824</ele>
        <time>2013-06-09T07:23:27.000Z</time>
      </trkpt>
      <trkpt lat="48.25954" lon="2.67331">
        <ele>104.40000152588</ele>
        <time>2013-06-09T07:23:32.000Z</time>
      </trkpt>
      <trkpt lat="48.25957" lon="2.67324">
        <ele>104.80000305176</ele>
        <time>2013-06-09T07:23:38.000Z</time>
      </trkpt>
      <trkpt lat="48.25961" lon="2.67316">
        <ele>105.40000152588</ele>
        <time>2013-06-09T07:23:46.000Z</time>
      </trkpt>
      <trkpt lat="48.25965" lon="2.67305">
        <ele>106</ele>
        <time>2013-06-09T07:23:54.000Z</time>
      </trkpt>
      <trkpt lat="48.25965" lon="2.67299">
        <ele>106.40000152588</ele>
        <time>2013-06-09T07:24:00.000Z</time>
      </trkpt>
      <trkpt lat="48.25965" lon="2.67291">
        <ele>106.80000305176</ele>
        <time>2013-06-09T07:24:07.000Z</time>
      </trkpt>
      <trkpt lat="48.25965" lon="2.67285">
        <ele>107.19999694824</ele>
        <time>2013-06-09T07:24:14.000Z</time>
      </trkpt>
      <trkpt lat="48.25966" lon="2.6728">
        <ele>107.40000152588</ele>
        <time>2013-06-09T07:24:19.000Z</time>
      </trkpt>
      <trkpt lat="48.25966" lon="2.67277">
        <ele>107.59999847412</ele>
        <time>2013-06-09T07:24:26.000Z</time>
      </trkpt>
      <trkpt lat="48.25967" lon="2.67275">
        <ele>107.80000305176</ele>
        <time>2013-06-09T07:24:34.000Z</time>
      </trkpt>
      <trkpt lat="48.25967" lon="2.67274">
        <ele>107.80000305176</ele>
        <time>2013-06-09T07:24:37.000Z</time>
      </trkpt>
      <trkpt lat="48.25959" lon="2.67268">
        <ele>108</ele>
        <time>2013-06-09T07:24:43.000Z</time>
      </trkpt>
      <trkpt lat="48.25957" lon="2.67269">
        <ele>107.80000305176</ele>
        <time>2013-06-09T07:24:50.000Z</time>
      </trkpt>
      <trkpt lat="48.25959" lon="2.6727">
        <ele>107.80000305176</ele>
        <time>2013-06-09T07:24:57.000Z</time>
      </trkpt>
      <trkpt lat="48.2596" lon="2.67271">
        <ele>107.80000305176</ele>
        <time>2013-06-09T07:24:58.000Z</time>
      </trkpt>
      <trkpt lat="48.25968" lon="2.67273">
        <ele>107.80000305176</ele>
        <time>2013-06-09T07:25:02.000Z</time>
      </trkpt>
      <trkpt lat="48.2597" lon="2.67272">
        <ele>108</ele>
        <time>2013-06-09T07:25:08.000Z</time>
      </trkpt>
      <trkpt lat="48.25975" lon="2.67275">
        <ele>108</ele>
        <time>2013-06-09T07:25:13.000Z</time>
      </trkpt>
      <trkpt lat="48.25978" lon="2.67277">
        <ele>107.80000305176</ele>
        <time>2013-06-09T07:25:16.000Z</time>
      </trkpt>
      <trkpt lat="48.25983" lon="2.67279">
        <ele>107.80000305176</ele>
        <time>2013-06-09T07:25:20.000Z</time>
      </trkpt>
      <trkpt lat="48.25985" lon="2.6728">
        <ele>107.80000305176</ele>
        <time>2013-06-09T07:25:26.000Z</time>
      </trkpt>
      <trkpt lat="48.25988" lon="2.67281">
        <ele>107.80000305176</ele>
        <time>2013-06-09T07:25:29.000Z</time>
      </trkpt>
      <trkpt lat="48.2599" lon="2.67281">
        <ele>107.80000305176</ele>
        <time>2013-06-09T07:25:31.000Z</time>
      </trkpt>
      <trkpt lat="48.25987" lon="2.6728">
        <ele>107.80000305176</ele>
        <time>2013-06-09T07:25:35.000Z</time>
      </trkpt>
      <trkpt lat="48.25988" lon="2.6728">
        <ele>107.80000305176</ele>
        <time>2013-06-09T07:25:36.000Z</time>
      </trkpt>
      <trkpt lat="48.25993" lon="2.67268">
        <ele>108.59999847412</ele>
        <time>2013-06-09T07:25:41.000Z</time>
      </trkpt>
      <trkpt lat="48.25994" lon="2.67262">
        <ele>109</ele>
        <time>2013-06-09T07:25:45.000Z</time>
      </trkpt>
      <trkpt lat="48.25995" lon="2.67263">
        <ele>109</ele>
        <time>2013-06-09T07:25:50.000Z</time>
      </trkpt>
      <trkpt lat="48.25994" lon="2.67275">
        <ele>108.19999694824</ele>
        <time>2013-06-09T07:25:55.000Z</time>
      </trkpt>
      <trkpt lat="48.25994" lon="2.67277">
        <ele>108.19999694824</ele>
        <time>2013-06-09T07:26:00.000Z</time>
      </trkpt>
      <trkpt lat="48.25995" lon="2.67275">
        <ele>108.40000152588</ele>
        <time>2013-06-09T07:26:03.000Z</time>
      </trkpt>
      <trkpt lat="48.26005" lon="2.6726">
        <ele>109.40000152588</ele>
        <time>2013-06-09T07:26:09.000Z</time>
      </trkpt>
      <trkpt lat="48.2601" lon="2.67255">
        <ele>109.59999847412</ele>
        <time>2013-06-09T07:26:11.000Z</time>
      </trkpt>
      <trkpt lat="48.26016" lon="2.67252">
        <ele>110</ele>
        <time>2013-06-09T07:26:14.000Z</time>
      </trkpt>
      <trkpt lat="48.26017" lon="2.67251">
        <ele>110</ele>
        <time>2013-06-09T07:26:25.000Z</time>
      </trkpt>
      <trkpt lat="48.26017" lon="2.67251">
        <ele>110</ele>
        <time>2013-06-09T07:26:26.000Z</time>
      </trkpt>
      <trkpt lat="48.26028" lon="2.67248">
        <ele>110.40000152588</ele>
        <time>2013-06-09T07:26:31.000Z</time>
      </trkpt>
      <trkpt lat="48.2603" lon="2.6725">
        <ele>110.19999694824</ele>
        <time>2013-06-09T07:26:32.000Z</time>
      </trkpt>
      <trkpt lat="48.26044" lon="2.6726">
        <ele>109.40000152588</ele>
        <time>2013-06-09T07:26:36.000Z</time>
      </trkpt>
      <trkpt lat="48.26063" lon="2.67261">
        <ele>109.19999694824</ele>
        <time>2013-06-09T07:26:41.000Z</time>
      </trkpt>
      <trkpt lat="48.26083" lon="2.67272">
        <ele>107.80000305176</ele>
        <time>2013-06-09T07:26:45.000Z</time>
      </trkpt>
      <trkpt lat="48.26094" lon="2.67266">
        <ele>109</ele>
        <time>2013-06-09T07:26:48.000Z</time>
      </trkpt>
      <trkpt lat="48.26097" lon="2.67261">
        <ele>109.59999847412</ele>
        <time>2013-06-09T07:26:49.000Z</time>
      </trkpt>
      <trkpt lat="48.26115" lon="2.67249">
        <ele>111.80000305176</ele>
        <time>2013-06-09T07:26:54.000Z</time>
      </trkpt>
      <trkpt lat="48.26129" lon="2.67247">
        <ele>112.19999694824</ele>
        <time>2013-06-09T07:26:58.000Z</time>
      </trkpt>
      <trkpt lat="48.26134" lon="2.67243">
        <ele>112.59999847412</ele>
        <time>2013-06-09T07:27:01.000Z</time>
      </trkpt>
      <trkpt lat="48.26137" lon="2.6724">
        <ele>112.80000305176</ele>
        <time>2013-06-09T07:27:04.000Z</time>
      </trkpt>
      <trkpt lat="48.26143" lon="2.67236">
        <ele>113.19999694824</ele>
        <time>2013-06-09T07:27:11.000Z</time>
      </trkpt>
      <trkpt lat="48.26153" lon="2.6723">
        <ele>113.80000305176</ele>
        <time>2013-06-09T07:27:16.000Z</time>
      </trkpt>
      <trkpt lat="48.26167" lon="2.67225">
        <ele>114.40000152588</ele>
        <time>2013-06-09T07:27:20.000Z</time>
      </trkpt>
      <trkpt lat="48.26172" lon="2.67227">
        <ele>113.59999847412</ele>
        <time>2013-06-09T07:27:22.000Z</time>
      </trkpt>
      <trkpt lat="48.26188" lon="2.67219">
        <ele>112</ele>
        <time>2013-06-09T07:27:28.000Z</time>
      </trkpt>
      <trkpt lat="48.26204" lon="2.67202">
        <ele>111.40000152588</ele>
        <time>2013-06-09T07:27:34.000Z</time>
      </trkpt>
      <trkpt lat="48.26208" lon="2.67198">
        <ele>111.19999694824</ele>
        <time>2013-06-09T07:27:36.000Z</time>
      </trkpt>
      <trkpt lat="48.26217" lon="2.67203">
        <ele>109.80000305176</ele>
        <time>2013-06-09T07:27:41.000Z</time>
      </trkpt>
      <trkpt lat="48.26228" lon="2.67217">
        <ele>107.40000152588</ele>
        <time>2013-06-09T07:27:46.000Z</time>
      </trkpt>
      <trkpt lat="48.26233" lon="2.67229">
        <ele>105.80000305176</ele>
        <time>2013-06-09T07:27:50.000Z</time>
      </trkpt>
      <trkpt lat="48.26237" lon="2.67235">
        <ele>104.80000305176</ele>
        <time>2013-06-09T07:27:52.000Z</time>
      </trkpt>
      <trkpt lat="48.26244" lon="2.6724">
        <ele>103.59999847412</ele>
        <time>2013-06-09T07:27:56.000Z</time>
      </trkpt>
      <trkpt lat="48.26253" lon="2.67241">
        <ele>102.19999694824</ele>
        <time>2013-06-09T07:28:05.000Z</time>
      </trkpt>
      <trkpt lat="48.26263" lon="2.67248">
        <ele>100</ele>
        <time>2013-06-09T07:28:10.000Z</time>
      </trkpt>
      <trkpt lat="48.26273" lon="2.67246">
        <ele>98.599998474121</ele>
        <time>2013-06-09T07:28:14.000Z</time>
      </trkpt>
      <trkpt lat="48.26276" lon="2.67239">
        <ele>98.599998474121</ele>
        <time>2013-06-09T07:28:17.000Z</time>
      </trkpt>
      <trkpt lat="48.26285" lon="2.67223">
        <ele>98.400001525879</ele>
        <time>2013-06-09T07:28:23.000Z</time>
      </trkpt>
      <trkpt lat="48.26299" lon="2.67218">
        <ele>96.800003051758</ele>
        <time>2013-06-09T07:28:28.000Z</time>
      </trkpt>
      <trkpt lat="48.26319" lon="2.67209">
        <ele>94.199996948242</ele>
        <time>2013-06-09T07:28:32.000Z</time>
      </trkpt>
      <trkpt lat="48.26328" lon="2.67206">
        <ele>93</ele>
        <time>2013-06-09T07:28:34.000Z</time>
      </trkpt>
      <trkpt lat="48.26339" lon="2.67201">
        <ele>91.599998474121</ele>
        <time>2013-06-09T07:28:36.000Z</time>
      </trkpt>
      <trkpt lat="48.26349" lon="2.67191">
        <ele>90.400001525879</ele>
        <time>2013-06-09T07:28:38.000Z</time>
      </trkpt>
      <trkpt lat="48.2636" lon="2.67175">
        <ele>89.400001525879</ele>
        <time>2013-06-09T07:28:41.000Z</time>
      </trkpt>
      <trkpt lat="48.26373" lon="2.67155">
        <ele>88.199996948242</ele>
        <time>2013-06-09T07:28:46.000Z</time>
      </trkpt>
      <trkpt lat="48.26392" lon="2.67136">
        <ele>85.599998474121</ele>
        <time>2013-06-09T07:28:51.000Z</time>
      </trkpt>
      <trkpt lat="48.26402" lon="2.67128">
        <ele>84.199996948242</ele>
        <time>2013-06-09T07:28:53.000Z</time>
      </trkpt>
      <trkpt lat="48.26408" lon="2.67124">
        <ele>83.199996948242</ele>
        <time>2013-06-09T07:28:57.000Z</time>
      </trkpt>
      <trkpt lat="48.26411" lon="2.67121">
        <ele>82.800003051758</ele>
        <time>2013-06-09T07:29:04.000Z</time>
      </trkpt>
      <trkpt lat="48.26411" lon="2.67129">
        <ele>82.199996948242</ele>
        <time>2013-06-09T07:29:23.000Z</time>
      </trkpt>
      <trkpt lat="48.26424" lon="2.67132">
        <ele>80.199996948242</ele>
        <time>2013-06-09T07:29:29.000Z</time>
      </trkpt>
      <trkpt lat="48.26429" lon="2.67126">
        <ele>80</ele>
        <time>2013-06-09T07:29:31.000Z</time>
      </trkpt>
      <trkpt lat="48.26443" lon="2.67097">
        <ele>79.599998474121</ele>
        <time>2013-06-09T07:29:38.000Z</time>
      </trkpt>
      <trkpt lat="48.26457" lon="2.67066">
        <ele>78.800003051758</ele>
        <time>2013-06-09T07:29:43.000Z</time>
      </trkpt>
      <trkpt lat="48.26463" lon="2.67037">
        <ele>79.199996948242</ele>
        <time>2013-06-09T07:29:47.000Z</time>
      </trkpt>
      <trkpt lat="48.26473" lon="2.66994">
        <ele>79.599998474121</ele>
        <time>2013-06-09T07:29:53.000Z</time>
      </trkpt>
      <trkpt lat="48.26476" lon="2.66974">
        <ele>79.400001525879</ele>
        <time>2013-06-09T07:29:56.000Z</time>
      </trkpt>
      <trkpt lat="48.26479" lon="2.66956">
        <ele>79.199996948242</ele>
        <time>2013-06-09T07:29:59.000Z</time>
      </trkpt>
      <trkpt lat="48.26484" lon="2.66941">
        <ele>78.800003051758</ele>
        <time>2013-06-09T07:30:02.000Z</time>
      </trkpt>
      <trkpt lat="48.26492" lon="2.66913">
        <ele>78.199996948242</ele>
        <time>2013-06-09T07:30:07.000Z</time>
      </trkpt>
      <trkpt lat="48.26495" lon="2.66892">
        <ele>78.800003051758</ele>
        <time>2013-06-09T07:30:10.000Z</time>
      </trkpt>
      <trkpt lat="48.26497" lon="2.66875">
        <ele>79.400001525879</ele>
        <time>2013-06-09T07:30:12.000Z</time>
      </trkpt>
      <trkpt lat="48.26505" lon="2.66848">
        <ele>80</ele>
        <time>2013-06-09T07:30:15.000Z</time>
      </trkpt>
      <trkpt lat="48.26512" lon="2.66802">
        <ele>82.599998474121</ele>
        <time>2013-06-09T07:30:21.000Z</time>
      </trkpt>
      <trkpt lat="48.26515" lon="2.66784">
        <ele>83.800003051758</ele>
        <time>2013-06-09T07:30:24.000Z</time>
      </trkpt>
      <trkpt lat="48.26519" lon="2.66773">
        <ele>84.400001525879</ele>
        <time>2013-06-09T07:30:26.000Z</time>
      </trkpt>
      <trkpt lat="48.2653" lon="2.66739">
        <ele>85.800003051758</ele>
        <time>2013-06-09T07:30:33.000Z</time>
      </trkpt>
      <trkpt lat="48.26536" lon="2.66713">
        <ele>86.400001525879</ele>
        <time>2013-06-09T07:30:39.000Z</time>
      </trkpt>
      <trkpt lat="48.26539" lon="2.66702">
        <ele>86.400001525879</ele>
        <time>2013-06-09T07:30:43.000Z</time>
      </trkpt>
      <trkpt lat="48.26539" lon="2.66701">
        <ele>86.599998474121</ele>
        <time>2013-06-09T07:30:45.000Z</time>
      </trkpt>
      <trkpt lat="48.26543" lon="2.66692">
        <ele>86.599998474121</ele>
        <time>2013-06-09T07:30:49.000Z</time>
      </trkpt>
      <trkpt lat="48.26552" lon="2.66661">
        <ele>86.800003051758</ele>
        <time>2013-06-09T07:30:55.000Z</time>
      </trkpt>
      <trkpt lat="48.26561" lon="2.6663">
        <ele>86.400001525879</ele>
        <time>2013-06-09T07:31:00.000Z</time>
      </trkpt>
      <trkpt lat="48.26566" lon="2.66608">
        <ele>86.199996948242</ele>
        <time>2013-06-09T07:31:04.000Z</time>
      </trkpt>
      <trkpt lat="48.26581" lon="2.66579">
        <ele>85.199996948242</ele>
        <time>2013-06-09T07:31:09.000Z</time>
      </trkpt>
      <trkpt lat="48.26601" lon="2.66551">
        <ele>85.400001525879</ele>
        <time>2013-06-09T07:31:14.000Z</time>
      </trkpt>
      <trkpt lat="48.26606" lon="2.66542">
        <ele>85.599998474121</ele>
        <time>2013-06-09T07:31:16.000Z</time>
      </trkpt>
      <trkpt lat="48.26616" lon="2.66531">
        <ele>85.599998474121</ele>
        <time>2013-06-09T07:31:19.000Z</time>
      </trkpt>
      <trkpt lat="48.26642" lon="2.66507">
        <ele>85</ele>
        <time>2013-06-09T07:31:25.000Z</time>
      </trkpt>
      <trkpt lat="48.26647" lon="2.66503">
        <ele>84.800003051758</ele>
        <time>2013-06-09T07:31:26.000Z</time>
      </trkpt>
      <trkpt lat="48.26665" lon="2.66478">
        <ele>84.800003051758</ele>
        <time>2013-06-09T07:31:31.000Z</time>
      </trkpt>
      <trkpt lat="48.26682" lon="2.66453">
        <ele>85.400001525879</ele>
        <time>2013-06-09T07:31:36.000Z</time>
      </trkpt>
      <trkpt lat="48.26689" lon="2.66445">
        <ele>85.599998474121</ele>
        <time>2013-06-09T07:31:38.000Z</time>
      </trkpt>
      <trkpt lat="48.26709" lon="2.66422">
        <ele>85.800003051758</ele>
        <time>2013-06-09T07:31:43.000Z</time>
      </trkpt>
      <trkpt lat="48.26719" lon="2.66411">
        <ele>85.800003051758</ele>
        <time>2013-06-09T07:31:45.000Z</time>
      </trkpt>
      <trkpt lat="48.26728" lon="2.66398">
        <ele>86</ele>
        <time>2013-06-09T07:31:47.000Z</time>
      </trkpt>
      <trkpt lat="48.26748" lon="2.66381">
        <ele>85.400001525879</ele>
        <time>2013-06-09T07:31:51.000Z</time>
      </trkpt>
      <trkpt lat="48.26756" lon="2.66372">
        <ele>85.199996948242</ele>
        <time>2013-06-09T07:31:53.000Z</time>
      </trkpt>
      <trkpt lat="48.2678" lon="2.66336">
        <ele>83.800003051758</ele>
        <time>2013-06-09T07:31:59.000Z</time>
      </trkpt>
      <trkpt lat="48.26801" lon="2.66292">
        <ele>82</ele>
        <time>2013-06-09T07:32:05.000Z</time>
      </trkpt>
      <trkpt lat="48.26807" lon="2.66279">
        <ele>81.400001525879</ele>
        <time>2013-06-09T07:32:07.000Z</time>
      </trkpt>
      <trkpt lat="48.26813" lon="2.66263">
        <ele>80.800003051758</ele>
        <time>2013-06-09T07:32:10.000Z</time>
      </trkpt>
      <trkpt lat="48.2682" lon="2.66242">
        <ele>80</ele>
        <time>2013-06-09T07:32:14.000Z</time>
      </trkpt>
      <trkpt lat="48.26822" lon="2.66232">
        <ele>80</ele>
        <time>2013-06-09T07:32:16.000Z</time>
      </trkpt>
      <trkpt lat="48.26825" lon="2.662">
        <ele>80.199996948242</ele>
        <time>2013-06-09T07:32:22.000Z</time>
      </trkpt>
      <trkpt lat="48.2682" lon="2.66161">
        <ele>80.800003051758</ele>
        <time>2013-06-09T07:32:28.000Z</time>
      </trkpt>
      <trkpt lat="48.2682" lon="2.66155">
        <ele>81</ele>
        <time>2013-06-09T07:32:29.000Z</time>
      </trkpt>
      <trkpt lat="48.26814" lon="2.66129">
        <ele>82.199996948242</ele>
        <time>2013-06-09T07:32:33.000Z</time>
      </trkpt>
      <trkpt lat="48.26809" lon="2.66098">
        <ele>83.199996948242</ele>
        <time>2013-06-09T07:32:38.000Z</time>
      </trkpt>
      <trkpt lat="48.26805" lon="2.66062">
        <ele>83.400001525879</ele>
        <time>2013-06-09T07:32:43.000Z</time>
      </trkpt>
      <trkpt lat="48.26797" lon="2.66017">
        <ele>83</ele>
        <time>2013-06-09T07:32:49.000Z</time>
      </trkpt>
      <trkpt lat="48.26796" lon="2.6601">
        <ele>83</ele>
        <time>2013-06-09T07:32:50.000Z</time>
      </trkpt>
      <trkpt lat="48.26789" lon="2.65988">
        <ele>82.800003051758</ele>
        <time>2013-06-09T07:32:53.000Z</time>
      </trkpt>
      <trkpt lat="48.26784" lon="2.65947">
        <ele>82</ele>
        <time>2013-06-09T07:32:58.000Z</time>
      </trkpt>
      <trkpt lat="48.2678" lon="2.65933">
        <ele>81.599998474121</ele>
        <time>2013-06-09T07:33:00.000Z</time>
      </trkpt>
      <trkpt lat="48.2677" lon="2.65889">
        <ele>81.199996948242</ele>
        <time>2013-06-09T07:33:06.000Z</time>
      </trkpt>
      <trkpt lat="48.26763" lon="2.65857">
        <ele>81.599998474121</ele>
        <time>2013-06-09T07:33:10.000Z</time>
      </trkpt>
      <trkpt lat="48.26754" lon="2.65815">
        <ele>81.599998474121</ele>
        <time>2013-06-09T07:33:15.000Z</time>
      </trkpt>
      <trkpt lat="48.26745" lon="2.65766">
        <ele>82</ele>
        <time>2013-06-09T07:33:21.000Z</time>
      </trkpt>
      <trkpt lat="48.26743" lon="2.65749">
        <ele>82.400001525879</ele>
        <time>2013-06-09T07:33:23.000Z</time>
      </trkpt>
      <trkpt lat="48.26741" lon="2.65731">
        <ele>82.400001525879</ele>
        <time>2013-06-09T07:33:25.000Z</time>
      </trkpt>
      <trkpt lat="48.26737" lon="2.65685">
        <ele>82.199996948242</ele>
        <time>2013-06-09T07:33:30.000Z</time>
      </trkpt>
      <trkpt lat="48.26735" lon="2.65666">
        <ele>82</ele>
        <time>2013-06-09T07:33:32.000Z</time>
      </trkpt>
      <trkpt lat="48.26728" lon="2.65617">
        <ele>82.199996948242</ele>
        <time>2013-06-09T07:33:38.000Z</time>
      </trkpt>
      <trkpt lat="48.26726" lon="2.65582">
        <ele>82</ele>
        <time>2013-06-09T07:33:42.000Z</time>
      </trkpt>
      <trkpt lat="48.26721" lon="2.65559">
        <ele>82</ele>
        <time>2013-06-09T07:33:45.000Z</time>
      </trkpt>
      <trkpt lat="48.26716" lon="2.65528">
        <ele>82.199996948242</ele>
        <time>2013-06-09T07:33:49.000Z</time>
      </trkpt>
      <trkpt lat="48.26711" lon="2.65501">
        <ele>82.400001525879</ele>
        <time>2013-06-09T07:33:53.000Z</time>
      </trkpt>
      <trkpt lat="48.26705" lon="2.65466">
        <ele>81.400001525879</ele>
        <time>2013-06-09T07:33:58.000Z</time>
      </trkpt>
      <trkpt lat="48.26702" lon="2.65445">
        <ele>80.400001525879</ele>
        <time>2013-06-09T07:34:01.000Z</time>
      </trkpt>
      <trkpt lat="48.26692" lon="2.65412">
        <ele>79.599998474121</ele>
        <time>2013-06-09T07:34:06.000Z</time>
      </trkpt>
      <trkpt lat="48.2668" lon="2.65378">
        <ele>79</ele>
        <time>2013-06-09T07:34:11.000Z</time>
      </trkpt>
      <trkpt lat="48.26671" lon="2.65351">
        <ele>78</ele>
        <time>2013-06-09T07:34:15.000Z</time>
      </trkpt>
      <trkpt lat="48.26665" lon="2.65331">
        <ele>77</ele>
        <time>2013-06-09T07:34:18.000Z</time>
      </trkpt>
      <trkpt lat="48.26653" lon="2.65293">
        <ele>77.800003051758</ele>
        <time>2013-06-09T07:34:24.000Z</time>
      </trkpt>
      <trkpt lat="48.2664" lon="2.65255">
        <ele>78</ele>
        <time>2013-06-09T07:34:30.000Z</time>
      </trkpt>
      <trkpt lat="48.26634" lon="2.65232">
        <ele>78.599998474121</ele>
        <time>2013-06-09T07:34:34.000Z</time>
      </trkpt>
      <trkpt lat="48.2663" lon="2.65209">
        <ele>79</ele>
        <time>2013-06-09T07:34:40.000Z</time>
      </trkpt>
      <trkpt lat="48.26629" lon="2.6521">
        <ele>79.199996948242</ele>
        <time>2013-06-09T07:34:46.000Z</time>
      </trkpt>
      <trkpt lat="48.26629" lon="2.65212">
        <ele>79.199996948242</ele>
        <time>2013-06-09T07:34:56.000Z</time>
      </trkpt>
      <trkpt lat="48.26627" lon="2.65216">
        <ele>79.599998474121</ele>
        <time>2013-06-09T07:35:03.000Z</time>
      </trkpt>
      <trkpt lat="48.26625" lon="2.65218">
        <ele>79.599998474121</ele>
        <time>2013-06-09T07:35:09.000Z</time>
      </trkpt>
      <trkpt lat="48.26627" lon="2.65226">
        <ele>79.400001525879</ele>
        <time>2013-06-09T07:35:14.000Z</time>
      </trkpt>
      <trkpt lat="48.26626" lon="2.65231">
        <ele>79.599998474121</ele>
        <time>2013-06-09T07:35:34.000Z</time>
      </trkpt>
      <trkpt lat="48.26623" lon="2.65227">
        <ele>80</ele>
        <time>2013-06-09T07:35:37.000Z</time>
      </trkpt>
      <trkpt lat="48.26621" lon="2.65212">
        <ele>80.199996948242</ele>
        <time>2013-06-09T07:35:41.000Z</time>
      </trkpt>
      <trkpt lat="48.26615" lon="2.65182">
        <ele>80.400001525879</ele>
        <time>2013-06-09T07:35:48.000Z</time>
      </trkpt>
      <trkpt lat="48.26617" lon="2.65162">
        <ele>80.199996948242</ele>
        <time>2013-06-09T07:35:52.000Z</time>
      </trkpt>
      <trkpt lat="48.26628" lon="2.65152">
        <ele>79.800003051758</ele>
        <time>2013-06-09T07:35:58.000Z</time>
      </trkpt>
      <trkpt lat="48.2664" lon="2.65145">
        <ele>79.199996948242</ele>
        <time>2013-06-09T07:36:04.000Z</time>
      </trkpt>
      <trkpt lat="48.26658" lon="2.65139">
        <ele>78</ele>
        <time>2013-06-09T07:36:09.000Z</time>
      </trkpt>
      <trkpt lat="48.2668" lon="2.65142">
        <ele>76.800003051758</ele>
        <time>2013-06-09T07:36:13.000Z</time>
      </trkpt>
      <trkpt lat="48.26701" lon="2.65137">
        <ele>76.599998474121</ele>
        <time>2013-06-09T07:36:18.000Z</time>
      </trkpt>
      <trkpt lat="48.26706" lon="2.65136">
        <ele>76.599998474121</ele>
        <time>2013-06-09T07:36:19.000Z</time>
      </trkpt>
      <trkpt lat="48.26729" lon="2.65122">
        <ele>76.400001525879</ele>
        <time>2013-06-09T07:36:24.000Z</time>
      </trkpt>
      <trkpt lat="48.2677" lon="2.6511">
        <ele>76.599998474121</ele>
        <time>2013-06-09T07:36:31.000Z</time>
      </trkpt>
      <trkpt lat="48.26775" lon="2.65109">
        <ele>76.800003051758</ele>
        <time>2013-06-09T07:36:32.000Z</time>
      </trkpt>
      <trkpt lat="48.26796" lon="2.65111">
        <ele>77.199996948242</ele>
        <time>2013-06-09T07:36:36.000Z</time>
      </trkpt>
      <trkpt lat="48.26821" lon="2.65107">
        <ele>77.599998474121</ele>
        <time>2013-06-09T07:36:41.000Z</time>
      </trkpt>
      <trkpt lat="48.26844" lon="2.65094">
        <ele>78.199996948242</ele>
        <time>2013-06-09T07:36:46.000Z</time>
      </trkpt>
      <trkpt lat="48.26848" lon="2.65092">
        <ele>78.400001525879</ele>
        <time>2013-06-09T07:36:47.000Z</time>
      </trkpt>
      <trkpt lat="48.2685" lon="2.65096">
        <ele>78.400001525879</ele>
        <time>2013-06-09T07:36:54.000Z</time>
      </trkpt>
      <trkpt lat="48.26862" lon="2.65087">
        <ele>78.800003051758</ele>
        <time>2013-06-09T07:37:00.000Z</time>
      </trkpt>
      <trkpt lat="48.26872" lon="2.65082">
        <ele>79.199996948242</ele>
        <time>2013-06-09T07:37:03.000Z</time>
      </trkpt>
      <trkpt lat="48.26882" lon="2.65074">
        <ele>79.599998474121</ele>
        <time>2013-06-09T07:37:08.000Z</time>
      </trkpt>
      <trkpt lat="48.26885" lon="2.65075">
        <ele>79.800003051758</ele>
        <time>2013-06-09T07:37:10.000Z</time>
      </trkpt>
      <trkpt lat="48.26902" lon="2.65072">
        <ele>80.400001525879</ele>
        <time>2013-06-09T07:37:15.000Z</time>
      </trkpt>
      <trkpt lat="48.26936" lon="2.6507">
        <ele>80</ele>
        <time>2013-06-09T07:37:21.000Z</time>
      </trkpt>
      <trkpt lat="48.26954" lon="2.65063">
        <ele>79.400001525879</ele>
        <time>2013-06-09T07:37:25.000Z</time>
      </trkpt>
      <trkpt lat="48.26959" lon="2.65055">
        <ele>79.199996948242</ele>
        <time>2013-06-09T07:37:28.000Z</time>
      </trkpt>
      <trkpt lat="48.26964" lon="2.65052">
        <ele>79</ele>
        <time>2013-06-09T07:37:31.000Z</time>
      </trkpt>
      <trkpt lat="48.26967" lon="2.65052">
        <ele>79</ele>
        <time>2013-06-09T07:37:44.000Z</time>
      </trkpt>
      <trkpt lat="48.26967" lon="2.65052">
        <ele>79</ele>
        <time>2013-06-09T07:37:47.000Z</time>
      </trkpt>
      <trkpt lat="48.26968" lon="2.65045">
        <ele>79</ele>
        <time>2013-06-09T07:37:51.000Z</time>
      </trkpt>
      <trkpt lat="48.26976" lon="2.65037">
        <ele>78.800003051758</ele>
        <time>2013-06-09T07:37:56.000Z</time>
      </trkpt>
      <trkpt lat="48.26978" lon="2.65034">
        <ele>78.800003051758</ele>
        <time>2013-06-09T07:37:57.000Z</time>
      </trkpt>
      <trkpt lat="48.26992" lon="2.65011">
        <ele>78.800003051758</ele>
        <time>2013-06-09T07:38:03.000Z</time>
      </trkpt>
      <trkpt lat="48.26996" lon="2.64998">
        <ele>79</ele>
        <time>2013-06-09T07:38:07.000Z</time>
      </trkpt>
      <trkpt lat="48.27004" lon="2.64982">
        <ele>79.400001525879</ele>
        <time>2013-06-09T07:38:11.000Z</time>
      </trkpt>
      <trkpt lat="48.27013" lon="2.64958">
        <ele>80</ele>
        <time>2013-06-09T07:38:15.000Z</time>
      </trkpt>
      <trkpt lat="48.27009" lon="2.6493">
        <ele>80.599998474121</ele>
        <time>2013-06-09T07:38:19.000Z</time>
      </trkpt>
      <trkpt lat="48.27006" lon="2.64914">
        <ele>80.800003051758</ele>
        <time>2013-06-09T07:38:21.000Z</time>
      </trkpt>
      <trkpt lat="48.27005" lon="2.64877">
        <ele>79.800003051758</ele>
        <time>2013-06-09T07:38:26.000Z</time>
      </trkpt>
      <trkpt lat="48.27001" lon="2.64845">
        <ele>79.199996948242</ele>
        <time>2013-06-09T07:38:31.000Z</time>
      </trkpt>
      <trkpt lat="48.26996" lon="2.64824">
        <ele>79.599998474121</ele>
        <time>2013-06-09T07:38:34.000Z</time>
      </trkpt>
      <trkpt lat="48.26993" lon="2.648">
        <ele>80</ele>
        <time>2013-06-09T07:38:37.000Z</time>
      </trkpt>
      <trkpt lat="48.26984" lon="2.6477">
        <ele>81</ele>
        <time>2013-06-09T07:38:42.000Z</time>
      </trkpt>
      <trkpt lat="48.26978" lon="2.64754">
        <ele>81.800003051758</ele>
        <time>2013-06-09T07:38:46.000Z</time>
      </trkpt>
      <trkpt lat="48.26977" lon="2.64749">
        <ele>81.800003051758</ele>
        <time>2013-06-09T07:38:47.000Z</time>
      </trkpt>
      <trkpt lat="48.26973" lon="2.64723">
        <ele>82.199996948242</ele>
        <time>2013-06-09T07:38:53.000Z</time>
      </trkpt>
      <trkpt lat="48.26973" lon="2.64709">
        <ele>82.199996948242</ele>
        <time>2013-06-09T07:38:56.000Z</time>
      </trkpt>
      <trkpt lat="48.26972" lon="2.64703">
        <ele>82.199996948242</ele>
        <time>2013-06-09T07:38:58.000Z</time>
      </trkpt>
      <trkpt lat="48.26973" lon="2.64684">
        <ele>82</ele>
        <time>2013-06-09T07:39:04.000Z</time>
      </trkpt>
      <trkpt lat="48.26973" lon="2.64661">
        <ele>81.800003051758</ele>
        <time>2013-06-09T07:39:09.000Z</time>
      </trkpt>
      <trkpt lat="48.26972" lon="2.64635">
        <ele>81.800003051758</ele>
        <time>2013-06-09T07:39:14.000Z</time>
      </trkpt>
      <trkpt lat="48.26971" lon="2.64613">
        <ele>81.800003051758</ele>
        <time>2013-06-09T07:39:18.000Z</time>
      </trkpt>
      <trkpt lat="48.26972" lon="2.64587">
        <ele>81.599998474121</ele>
        <time>2013-06-09T07:39:23.000Z</time>
      </trkpt>
      <trkpt lat="48.26971" lon="2.64561">
        <ele>81</ele>
        <time>2013-06-09T07:39:28.000Z</time>
      </trkpt>
      <trkpt lat="48.2697" lon="2.64545">
        <ele>80.599998474121</ele>
        <time>2013-06-09T07:39:32.000Z</time>
      </trkpt>
      <trkpt lat="48.26967" lon="2.64531">
        <ele>80.599998474121</ele>
        <time>2013-06-09T07:39:36.000Z</time>
      </trkpt>
      <trkpt lat="48.26966" lon="2.64528">
        <ele>80.400001525879</ele>
        <time>2013-06-09T07:39:37.000Z</time>
      </trkpt>
      <trkpt lat="48.26959" lon="2.64521">
        <ele>81</ele>
        <time>2013-06-09T07:39:43.000Z</time>
      </trkpt>
      <trkpt lat="48.26956" lon="2.64516">
        <ele>81.199996948242</ele>
        <time>2013-06-09T07:39:56.000Z</time>
      </trkpt>
      <trkpt lat="48.26951" lon="2.64515">
        <ele>81.800003051758</ele>
        <time>2013-06-09T07:40:09.000Z</time>
      </trkpt>
      <trkpt lat="48.26947" lon="2.64513">
        <ele>82.199996948242</ele>
        <time>2013-06-09T07:40:14.000Z</time>
      </trkpt>
      <trkpt lat="48.26941" lon="2.64494">
        <ele>82</ele>
        <time>2013-06-09T07:40:19.000Z</time>
      </trkpt>
      <trkpt lat="48.26935" lon="2.6447">
        <ele>81.599998474121</ele>
        <time>2013-06-09T07:40:23.000Z</time>
      </trkpt>
      <trkpt lat="48.26927" lon="2.64453">
        <ele>81.400001525879</ele>
        <time>2013-06-09T07:40:26.000Z</time>
      </trkpt>
      <trkpt lat="48.2691" lon="2.64436">
        <ele>81</ele>
        <time>2013-06-09T07:40:31.000Z</time>
      </trkpt>
      <trkpt lat="48.26903" lon="2.64431">
        <ele>80.599998474121</ele>
        <time>2013-06-09T07:40:33.000Z</time>
      </trkpt>
      <trkpt lat="48.26882" lon="2.64425">
        <ele>80</ele>
        <time>2013-06-09T07:40:39.000Z</time>
      </trkpt>
      <trkpt lat="48.26863" lon="2.6443">
        <ele>80.199996948242</ele>
        <time>2013-06-09T07:40:44.000Z</time>
      </trkpt>
      <trkpt lat="48.26838" lon="2.64428">
        <ele>79.800003051758</ele>
        <time>2013-06-09T07:40:51.000Z</time>
      </trkpt>
      <trkpt lat="48.26837" lon="2.64415">
        <ele>79</ele>
        <time>2013-06-09T07:40:55.000Z</time>
      </trkpt>
      <trkpt lat="48.26855" lon="2.64393">
        <ele>81</ele>
        <time>2013-06-09T07:41:01.000Z</time>
      </trkpt>
      <trkpt lat="48.26867" lon="2.64376">
        <ele>82</ele>
        <time>2013-06-09T07:41:05.000Z</time>
      </trkpt>
      <trkpt lat="48.2687" lon="2.64371">
        <ele>82.199996948242</ele>
        <time>2013-06-09T07:41:06.000Z</time>
      </trkpt>
      <trkpt lat="48.26892" lon="2.64335">
        <ele>82.199996948242</ele>
        <time>2013-06-09T07:41:11.000Z</time>
      </trkpt>
      <trkpt lat="48.26915" lon="2.64308">
        <ele>81.400001525879</ele>
        <time>2013-06-09T07:41:15.000Z</time>
      </trkpt>
      <trkpt lat="48.26921" lon="2.64293">
        <ele>81.599998474121</ele>
        <time>2013-06-09T07:41:17.000Z</time>
      </trkpt>
      <trkpt lat="48.26937" lon="2.64254">
        <ele>82</ele>
        <time>2013-06-09T07:41:22.000Z</time>
      </trkpt>
      <trkpt lat="48.2694" lon="2.64246">
        <ele>82</ele>
        <time>2013-06-09T07:41:23.000Z</time>
      </trkpt>
      <trkpt lat="48.26947" lon="2.64232">
        <ele>81.800003051758</ele>
        <time>2013-06-09T07:41:25.000Z</time>
      </trkpt>
      <trkpt lat="48.26954" lon="2.64217">
        <ele>81.599998474121</ele>
        <time>2013-06-09T07:41:27.000Z</time>
      </trkpt>
      <trkpt lat="48.26968" lon="2.64173">
        <ele>81.199996948242</ele>
        <time>2013-06-09T07:41:33.000Z</time>
      </trkpt>
      <trkpt lat="48.26972" lon="2.64168">
        <ele>81</ele>
        <time>2013-06-09T07:41:34.000Z</time>
      </trkpt>
      <trkpt lat="48.26982" lon="2.64158">
        <ele>79.800003051758</ele>
        <time>2013-06-09T07:41:37.000Z</time>
      </trkpt>
      <trkpt lat="48.26984" lon="2.64156">
        <ele>79.800003051758</ele>
        <time>2013-06-09T07:41:43.000Z</time>
      </trkpt>
      <trkpt lat="48.26982" lon="2.64155">
        <ele>80</ele>
        <time>2013-06-09T07:41:52.000Z</time>
      </trkpt>
      <trkpt lat="48.26984" lon="2.64155">
        <ele>79.800003051758</ele>
        <time>2013-06-09T07:42:00.000Z</time>
      </trkpt>
      <trkpt lat="48.26989" lon="2.64147">
        <ele>79.199996948242</ele>
        <time>2013-06-09T07:42:04.000Z</time>
      </trkpt>
      <trkpt lat="48.26997" lon="2.64133">
        <ele>78.599998474121</ele>
        <time>2013-06-09T07:42:08.000Z</time>
      </trkpt>
      <trkpt lat="48.27008" lon="2.64118">
        <ele>78.199996948242</ele>
        <time>2013-06-09T07:42:14.000Z</time>
      </trkpt>
      <trkpt lat="48.27008" lon="2.6411">
        <ele>78.199996948242</ele>
        <time>2013-06-09T07:42:18.000Z</time>
      </trkpt>
      <trkpt lat="48.27011" lon="2.64097">
        <ele>78.199996948242</ele>
        <time>2013-06-09T07:42:23.000Z</time>
      </trkpt>
      <trkpt lat="48.27016" lon="2.64071">
        <ele>78</ele>
        <time>2013-06-09T07:42:27.000Z</time>
      </trkpt>
      <trkpt lat="48.27021" lon="2.64042">
        <ele>77.199996948242</ele>
        <time>2013-06-09T07:42:31.000Z</time>
      </trkpt>
      <trkpt lat="48.27023" lon="2.64026">
        <ele>77</ele>
        <time>2013-06-09T07:42:33.000Z</time>
      </trkpt>
      <trkpt lat="48.27023" lon="2.64011">
        <ele>76.599998474121</ele>
        <time>2013-06-09T07:42:35.000Z</time>
      </trkpt>
      <trkpt lat="48.27029" lon="2.63972">
        <ele>76.599998474121</ele>
        <time>2013-06-09T07:42:41.000Z</time>
      </trkpt>
      <trkpt lat="48.27031" lon="2.63961">
        <ele>76.800003051758</ele>
        <time>2013-06-09T07:42:43.000Z</time>
      </trkpt>
      <trkpt lat="48.27034" lon="2.63947">
        <ele>76.800003051758</ele>
        <time>2013-06-09T07:42:45.000Z</time>
      </trkpt>
      <trkpt lat="48.27038" lon="2.63917">
        <ele>77.400001525879</ele>
        <time>2013-06-09T07:42:49.000Z</time>
      </trkpt>
      <trkpt lat="48.27041" lon="2.63886">
        <ele>77.800003051758</ele>
        <time>2013-06-09T07:42:53.000Z</time>
      </trkpt>
      <trkpt lat="48.27043" lon="2.63865">
        <ele>78</ele>
        <time>2013-06-09T07:42:56.000Z</time>
      </trkpt>
      <trkpt lat="48.27043" lon="2.63834">
        <ele>78.400001525879</ele>
        <time>2013-06-09T07:43:01.000Z</time>
      </trkpt>
      <trkpt lat="48.27043" lon="2.63802">
        <ele>78.599998474121</ele>
        <time>2013-06-09T07:43:06.000Z</time>
      </trkpt>
      <trkpt lat="48.27045" lon="2.63767">
        <ele>78.599998474121</ele>
        <time>2013-06-09T07:43:11.000Z</time>
      </trkpt>
      <trkpt lat="48.27047" lon="2.63748">
        <ele>78.599998474121</ele>
        <time>2013-06-09T07:43:15.000Z</time>
      </trkpt>
      <trkpt lat="48.27048" lon="2.63737">
        <ele>78.800003051758</ele>
        <time>2013-06-09T07:43:19.000Z</time>
      </trkpt>
      <trkpt lat="48.27049" lon="2.63732">
        <ele>78.800003051758</ele>
        <time>2013-06-09T07:43:20.000Z</time>
      </trkpt>
      <trkpt lat="48.27054" lon="2.63692">
        <ele>79.199996948242</ele>
        <time>2013-06-09T07:43:26.000Z</time>
      </trkpt>
      <trkpt lat="48.27058" lon="2.63678">
        <ele>79.199996948242</ele>
        <time>2013-06-09T07:43:28.000Z</time>
      </trkpt>
      <trkpt lat="48.27061" lon="2.63638">
        <ele>79.400001525879</ele>
        <time>2013-06-09T07:43:33.000Z</time>
      </trkpt>
      <trkpt lat="48.27061" lon="2.63616">
        <ele>79.599998474121</ele>
        <time>2013-06-09T07:43:37.000Z</time>
      </trkpt>
      <trkpt lat="48.2706" lon="2.63584">
        <ele>80</ele>
        <time>2013-06-09T07:43:43.000Z</time>
      </trkpt>
      <trkpt lat="48.27059" lon="2.63567">
        <ele>80</ele>
        <time>2013-06-09T07:43:46.000Z</time>
      </trkpt>
      <trkpt lat="48.27056" lon="2.63551">
        <ele>80</ele>
        <time>2013-06-09T07:43:48.000Z</time>
      </trkpt>
      <trkpt lat="48.27057" lon="2.63518">
        <ele>80</ele>
        <time>2013-06-09T07:43:53.000Z</time>
      </trkpt>
      <trkpt lat="48.27059" lon="2.63492">
        <ele>80.199996948242</ele>
        <time>2013-06-09T07:43:57.000Z</time>
      </trkpt>
      <trkpt lat="48.27061" lon="2.63474">
        <ele>80.800003051758</ele>
        <time>2013-06-09T07:44:01.000Z</time>
      </trkpt>
      <trkpt lat="48.27061" lon="2.63467">
        <ele>81</ele>
        <time>2013-06-09T07:44:04.000Z</time>
      </trkpt>
      <trkpt lat="48.27065" lon="2.63455">
        <ele>81.599998474121</ele>
        <time>2013-06-09T07:44:10.000Z</time>
      </trkpt>
      <trkpt lat="48.27071" lon="2.63444">
        <ele>82</ele>
        <time>2013-06-09T07:44:14.000Z</time>
      </trkpt>
      <trkpt lat="48.27072" lon="2.63437">
        <ele>82.199996948242</ele>
        <time>2013-06-09T07:44:17.000Z</time>
      </trkpt>
      <trkpt lat="48.27082" lon="2.63432">
        <ele>82.400001525879</ele>
        <time>2013-06-09T07:44:23.000Z</time>
      </trkpt>
      <trkpt lat="48.271" lon="2.63424">
        <ele>81</ele>
        <time>2013-06-09T07:44:28.000Z</time>
      </trkpt>
      <trkpt lat="48.27113" lon="2.63417">
        <ele>80</ele>
        <time>2013-06-09T07:44:32.000Z</time>
      </trkpt>
      <trkpt lat="48.27128" lon="2.63406">
        <ele>78.599998474121</ele>
        <time>2013-06-09T07:44:36.000Z</time>
      </trkpt>
      <trkpt lat="48.2714" lon="2.63392">
        <ele>77.800003051758</ele>
        <time>2013-06-09T07:44:40.000Z</time>
      </trkpt>
      <trkpt lat="48.2714" lon="2.6339">
        <ele>77.599998474121</ele>
        <time>2013-06-09T07:44:43.000Z</time>
      </trkpt>
      <trkpt lat="48.27145" lon="2.63377">
        <ele>77.400001525879</ele>
        <time>2013-06-09T07:44:51.000Z</time>
      </trkpt>
      <trkpt lat="48.27148" lon="2.63364">
        <ele>77.199996948242</ele>
        <time>2013-06-09T07:44:54.000Z</time>
      </trkpt>
      <trkpt lat="48.27148" lon="2.63357">
        <ele>77.199996948242</ele>
        <time>2013-06-09T07:45:00.000Z</time>
      </trkpt>
      <trkpt lat="48.2715" lon="2.63357">
        <ele>77</ele>
        <time>2013-06-09T07:45:05.000Z</time>
      </trkpt>
      <trkpt lat="48.27161" lon="2.63347">
        <ele>76.199996948242</ele>
        <time>2013-06-09T07:45:11.000Z</time>
      </trkpt>
      <trkpt lat="48.27173" lon="2.63346">
        <ele>75.599998474121</ele>
        <time>2013-06-09T07:45:16.000Z</time>
      </trkpt>
      <trkpt lat="48.27187" lon="2.63353">
        <ele>74.800003051758</ele>
        <time>2013-06-09T07:45:19.000Z</time>
      </trkpt>
      <trkpt lat="48.27191" lon="2.63354">
        <ele>74.599998474121</ele>
        <time>2013-06-09T07:45:20.000Z</time>
      </trkpt>
      <trkpt lat="48.27214" lon="2.6336">
        <ele>73.400001525879</ele>
        <time>2013-06-09T07:45:26.000Z</time>
      </trkpt>
      <trkpt lat="48.27234" lon="2.63364">
        <ele>72.599998474121</ele>
        <time>2013-06-09T07:45:31.000Z</time>
      </trkpt>
      <trkpt lat="48.27264" lon="2.63376">
        <ele>71.199996948242</ele>
        <time>2013-06-09T07:45:37.000Z</time>
      </trkpt>
      <trkpt lat="48.27282" lon="2.63391">
        <ele>70.800003051758</ele>
        <time>2013-06-09T07:45:42.000Z</time>
      </trkpt>
      <trkpt lat="48.27306" lon="2.63398">
        <ele>70.800003051758</ele>
        <time>2013-06-09T07:45:47.000Z</time>
      </trkpt>
      <trkpt lat="48.27317" lon="2.63401">
        <ele>70.800003051758</ele>
        <time>2013-06-09T07:45:49.000Z</time>
      </trkpt>
      <trkpt lat="48.27332" lon="2.63404">
        <ele>70.800003051758</ele>
        <time>2013-06-09T07:45:52.000Z</time>
      </trkpt>
      <trkpt lat="48.27348" lon="2.63407">
        <ele>71</ele>
        <time>2013-06-09T07:45:55.000Z</time>
      </trkpt>
      <trkpt lat="48.2736" lon="2.63413">
        <ele>71</ele>
        <time>2013-06-09T07:45:58.000Z</time>
      </trkpt>
      <trkpt lat="48.27379" lon="2.63422">
        <ele>70.800003051758</ele>
        <time>2013-06-09T07:46:03.000Z</time>
      </trkpt>
      <trkpt lat="48.27384" lon="2.63412">
        <ele>71</ele>
        <time>2013-06-09T07:46:06.000Z</time>
      </trkpt>
      <trkpt lat="48.27387" lon="2.63401">
        <ele>71</ele>
        <time>2013-06-09T07:46:08.000Z</time>
      </trkpt>
      <trkpt lat="48.27393" lon="2.63367">
        <ele>71.400001525879</ele>
        <time>2013-06-09T07:46:15.000Z</time>
      </trkpt>
      <trkpt lat="48.27399" lon="2.6334">
        <ele>71.599998474121</ele>
        <time>2013-06-09T07:46:21.000Z</time>
      </trkpt>
      <trkpt lat="48.27404" lon="2.63312">
        <ele>72.199996948242</ele>
        <time>2013-06-09T07:46:26.000Z</time>
      </trkpt>
      <trkpt lat="48.27408" lon="2.6328">
        <ele>73</ele>
        <time>2013-06-09T07:46:31.000Z</time>
      </trkpt>
      <trkpt lat="48.27411" lon="2.63246">
        <ele>73.800003051758</ele>
        <time>2013-06-09T07:46:36.000Z</time>
      </trkpt>
      <trkpt lat="48.27417" lon="2.63204">
        <ele>74.400001525879</ele>
        <time>2013-06-09T07:46:43.000Z</time>
      </trkpt>
      <trkpt lat="48.27419" lon="2.63187">
        <ele>74.599998474121</ele>
        <time>2013-06-09T07:46:47.000Z</time>
      </trkpt>
      <trkpt lat="48.27421" lon="2.6316">
        <ele>75.199996948242</ele>
        <time>2013-06-09T07:46:53.000Z</time>
      </trkpt>
      <trkpt lat="48.27424" lon="2.63137">
        <ele>75.800003051758</ele>
        <time>2013-06-09T07:46:58.000Z</time>
      </trkpt>
      <trkpt lat="48.27426" lon="2.63122">
        <ele>76.199996948242</ele>
        <time>2013-06-09T07:47:01.000Z</time>
      </trkpt>
      <trkpt lat="48.27429" lon="2.63093">
        <ele>76.800003051758</ele>
        <time>2013-06-09T07:47:07.000Z</time>
      </trkpt>
      <trkpt lat="48.27435" lon="2.63061">
        <ele>77</ele>
        <time>2013-06-09T07:47:12.000Z</time>
      </trkpt>
      <trkpt lat="48.27437" lon="2.63042">
        <ele>76.800003051758</ele>
        <time>2013-06-09T07:47:15.000Z</time>
      </trkpt>
      <trkpt lat="48.2744" lon="2.63011">
        <ele>76.599998474121</ele>
        <time>2013-06-09T07:47:19.000Z</time>
      </trkpt>
      <trkpt lat="48.27442" lon="2.62987">
        <ele>76.400001525879</ele>
        <time>2013-06-09T07:47:22.000Z</time>
      </trkpt>
      <trkpt lat="48.27444" lon="2.62947">
        <ele>76.599998474121</ele>
        <time>2013-06-09T07:47:27.000Z</time>
      </trkpt>
      <trkpt lat="48.27446" lon="2.62901">
        <ele>76.599998474121</ele>
        <time>2013-06-09T07:47:33.000Z</time>
      </trkpt>
      <trkpt lat="48.27445" lon="2.62893">
        <ele>76.599998474121</ele>
        <time>2013-06-09T07:47:34.000Z</time>
      </trkpt>
      <trkpt lat="48.27445" lon="2.62862">
        <ele>76.599998474121</ele>
        <time>2013-06-09T07:47:38.000Z</time>
      </trkpt>
      <trkpt lat="48.27445" lon="2.62843">
        <ele>76.599998474121</ele>
        <time>2013-06-09T07:47:41.000Z</time>
      </trkpt>
      <trkpt lat="48.27445" lon="2.6283">
        <ele>76.599998474121</ele>
        <time>2013-06-09T07:47:43.000Z</time>
      </trkpt>
      <trkpt lat="48.27446" lon="2.62812">
        <ele>76.599998474121</ele>
        <time>2013-06-09T07:47:46.000Z</time>
      </trkpt>
      <trkpt lat="48.27447" lon="2.62798">
        <ele>76.400001525879</ele>
        <time>2013-06-09T07:47:51.000Z</time>
      </trkpt>
      <trkpt lat="48.27446" lon="2.62796">
        <ele>76.400001525879</ele>
        <time>2013-06-09T07:47:58.000Z</time>
      </trkpt>
      <trkpt lat="48.27442" lon="2.62793">
        <ele>76.400001525879</ele>
        <time>2013-06-09T07:48:19.000Z</time>
      </trkpt>
      <trkpt lat="48.27442" lon="2.62794">
        <ele>76.400001525879</ele>
        <time>2013-06-09T07:48:38.000Z</time>
      </trkpt>
      <trkpt lat="48.27442" lon="2.62794">
        <ele>76.400001525879</ele>
        <time>2013-06-09T07:48:59.000Z</time>
      </trkpt>
      <trkpt lat="48.27444" lon="2.62792">
        <ele>76.400001525879</ele>
        <time>2013-06-09T07:49:20.000Z</time>
      </trkpt>
      <trkpt lat="48.27442" lon="2.6279">
        <ele>76.400001525879</ele>
        <time>2013-06-09T07:49:23.000Z</time>
      </trkpt>
      <trkpt lat="48.2744" lon="2.62787">
        <ele>76.199996948242</ele>
        <time>2013-06-09T07:49:44.000Z</time>
      </trkpt>
      <trkpt lat="48.27435" lon="2.62785">
        <ele>76.199996948242</ele>
        <time>2013-06-09T07:49:48.000Z</time>
      </trkpt>
      <trkpt lat="48.27435" lon="2.62785">
        <ele>76.199996948242</ele>
        <time>2013-06-09T07:49:48.000Z</time>
      </trkpt>
      <trkpt lat="48.27433" lon="2.62786">
        <ele>76.199996948242</ele>
        <time>2013-06-09T07:49:50.000Z</time>
      </trkpt>
      <trkpt lat="48.27426" lon="2.62788">
        <ele>76</ele>
        <time>2013-06-09T07:49:55.000Z</time>
      </trkpt>
      <trkpt lat="48.27425" lon="2.62788">
        <ele>76</ele>
        <time>2013-06-09T07:49:58.000Z</time>
      </trkpt>
      <trkpt lat="48.27417" lon="2.62792">
        <ele>76</ele>
        <time>2013-06-09T07:50:02.000Z</time>
      </trkpt>
      <trkpt lat="48.27397" lon="2.62792">
        <ele>76.199996948242</ele>
        <time>2013-06-09T07:50:10.000Z</time>
      </trkpt>
      <trkpt lat="48.27394" lon="2.62793">
        <ele>76.400001525879</ele>
        <time>2013-06-09T07:50:14.000Z</time>
      </trkpt>
      <trkpt lat="48.27392" lon="2.62795">
        <ele>76.400001525879</ele>
        <time>2013-06-09T07:50:31.000Z</time>
      </trkpt>
      <trkpt lat="48.27383" lon="2.62796">
        <ele>76.400001525879</ele>
        <time>2013-06-09T07:50:35.000Z</time>
      </trkpt>
      <trkpt lat="48.27365" lon="2.62797">
        <ele>76.800003051758</ele>
        <time>2013-06-09T07:50:40.000Z</time>
      </trkpt>
      <trkpt lat="48.27341" lon="2.62798">
        <ele>77</ele>
        <time>2013-06-09T07:50:45.000Z</time>
      </trkpt>
      <trkpt lat="48.27336" lon="2.62798">
        <ele>77.199996948242</ele>
        <time>2013-06-09T07:50:46.000Z</time>
      </trkpt>
      <trkpt lat="48.27315" lon="2.62797">
        <ele>77.599998474121</ele>
        <time>2013-06-09T07:50:50.000Z</time>
      </trkpt>
      <trkpt lat="48.27283" lon="2.62797">
        <ele>78</ele>
        <time>2013-06-09T07:50:56.000Z</time>
      </trkpt>
      <trkpt lat="48.2726" lon="2.62798">
        <ele>78.400001525879</ele>
        <time>2013-06-09T07:51:00.000Z</time>
      </trkpt>
      <trkpt lat="48.27226" lon="2.62795">
        <ele>80.400001525879</ele>
        <time>2013-06-09T07:51:06.000Z</time>
      </trkpt>
      <trkpt lat="48.27211" lon="2.62796">
        <ele>81.199996948242</ele>
        <time>2013-06-09T07:51:09.000Z</time>
      </trkpt>
      <trkpt lat="48.27188" lon="2.62797">
        <ele>82.800003051758</ele>
        <time>2013-06-09T07:51:15.000Z</time>
      </trkpt>
      <trkpt lat="48.27152" lon="2.62795">
        <ele>85</ele>
        <time>2013-06-09T07:51:23.000Z</time>
      </trkpt>
      <trkpt lat="48.27142" lon="2.62796">
        <ele>85.599998474121</ele>
        <time>2013-06-09T07:51:25.000Z</time>
      </trkpt>
      <trkpt lat="48.27121" lon="2.62802">
        <ele>86.199996948242</ele>
        <time>2013-06-09T07:51:29.000Z</time>
      </trkpt>
      <trkpt lat="48.27081" lon="2.62825">
        <ele>85.800003051758</ele>
        <time>2013-06-09T07:51:37.000Z</time>
      </trkpt>
      <trkpt lat="48.27056" lon="2.62837">
        <ele>86.199996948242</ele>
        <time>2013-06-09T07:51:42.000Z</time>
      </trkpt>
      <trkpt lat="48.2704" lon="2.62838">
        <ele>87</ele>
        <time>2013-06-09T07:51:45.000Z</time>
      </trkpt>
      <trkpt lat="48.27029" lon="2.62835">
        <ele>87.400001525879</ele>
        <time>2013-06-09T07:51:47.000Z</time>
      </trkpt>
      <trkpt lat="48.27001" lon="2.6282">
        <ele>89.400001525879</ele>
        <time>2013-06-09T07:51:53.000Z</time>
      </trkpt>
      <trkpt lat="48.26988" lon="2.62804">
        <ele>91</ele>
        <time>2013-06-09T07:51:57.000Z</time>
      </trkpt>
      <trkpt lat="48.26982" lon="2.62795">
        <ele>91.800003051758</ele>
        <time>2013-06-09T07:51:59.000Z</time>
      </trkpt>
      <trkpt lat="48.26966" lon="2.6276">
        <ele>93.400001525879</ele>
        <time>2013-06-09T07:52:06.000Z</time>
      </trkpt>
      <trkpt lat="48.26964" lon="2.62755">
        <ele>93.599998474121</ele>
        <time>2013-06-09T07:52:07.000Z</time>
      </trkpt>
      <trkpt lat="48.26942" lon="2.62712">
        <ele>96.199996948242</ele>
        <time>2013-06-09T07:52:16.000Z</time>
      </trkpt>
      <trkpt lat="48.26923" lon="2.62678">
        <ele>97.599998474121</ele>
        <time>2013-06-09T07:52:24.000Z</time>
      </trkpt>
      <trkpt lat="48.26908" lon="2.62645">
        <ele>99</ele>
        <time>2013-06-09T07:52:32.000Z</time>
      </trkpt>
      <trkpt lat="48.26895" lon="2.62612">
        <ele>100.40000152588</ele>
        <time>2013-06-09T07:52:40.000Z</time>
      </trkpt>
      <trkpt lat="48.26883" lon="2.62578">
        <ele>101.80000305176</ele>
        <time>2013-06-09T07:52:48.000Z</time>
      </trkpt>
      <trkpt lat="48.26872" lon="2.62544">
        <ele>102.59999847412</ele>
        <time>2013-06-09T07:52:56.000Z</time>
      </trkpt>
      <trkpt lat="48.26863" lon="2.62509">
        <ele>103.40000152588</ele>
        <time>2013-06-09T07:53:04.000Z</time>
      </trkpt>
      <trkpt lat="48.26854" lon="2.62471">
        <ele>103.19999694824</ele>
        <time>2013-06-09T07:53:12.000Z</time>
      </trkpt>
      <trkpt lat="48.26845" lon="2.62446">
        <ele>102.59999847412</ele>
        <time>2013-06-09T07:53:18.000Z</time>
      </trkpt>
      <trkpt lat="48.2684" lon="2.62422">
        <ele>102.19999694824</ele>
        <time>2013-06-09T07:53:24.000Z</time>
      </trkpt>
      <trkpt lat="48.2684" lon="2.62422">
        <ele>102.19999694824</ele>
        <time>2013-06-09T07:53:24.000Z</time>
      </trkpt>
      <trkpt lat="48.26837" lon="2.62413">
        <ele>101.80000305176</ele>
        <time>2013-06-09T07:53:26.000Z</time>
      </trkpt>
      <trkpt lat="48.26832" lon="2.62379">
        <ele>100.59999847412</ele>
        <time>2013-06-09T07:53:31.000Z</time>
      </trkpt>
      <trkpt lat="48.26824" lon="2.62334">
        <ele>98.400001525879</ele>
        <time>2013-06-09T07:53:36.000Z</time>
      </trkpt>
      <trkpt lat="48.26818" lon="2.62303">
        <ele>97.599998474121</ele>
        <time>2013-06-09T07:53:39.000Z</time>
      </trkpt>
      <trkpt lat="48.26817" lon="2.62258">
        <ele>97</ele>
        <time>2013-06-09T07:53:43.000Z</time>
      </trkpt>
      <trkpt lat="48.26827" lon="2.62183">
        <ele>95.400001525879</ele>
        <time>2013-06-09T07:53:49.000Z</time>
      </trkpt>
      <trkpt lat="48.26829" lon="2.62155">
        <ele>95.400001525879</ele>
        <time>2013-06-09T07:53:51.000Z</time>
      </trkpt>
      <trkpt lat="48.2682" lon="2.62099">
        <ele>95.800003051758</ele>
        <time>2013-06-09T07:53:55.000Z</time>
      </trkpt>
      <trkpt lat="48.26794" lon="2.62051">
        <ele>93.199996948242</ele>
        <time>2013-06-09T07:53:59.000Z</time>
      </trkpt>
      <trkpt lat="48.26743" lon="2.61999">
        <ele>87.199996948242</ele>
        <time>2013-06-09T07:54:05.000Z</time>
      </trkpt>
      <trkpt lat="48.26726" lon="2.61982">
        <ele>87.400001525879</ele>
        <time>2013-06-09T07:54:07.000Z</time>
      </trkpt>
      <trkpt lat="48.26703" lon="2.61952">
        <ele>88.400001525879</ele>
        <time>2013-06-09T07:54:10.000Z</time>
      </trkpt>
      <trkpt lat="48.26684" lon="2.61929">
        <ele>88.400001525879</ele>
        <time>2013-06-09T07:54:13.000Z</time>
      </trkpt>
      <trkpt lat="48.26673" lon="2.61919">
        <ele>87.800003051758</ele>
        <time>2013-06-09T07:54:15.000Z</time>
      </trkpt>
      <trkpt lat="48.26668" lon="2.61914">
        <ele>87.599998474121</ele>
        <time>2013-06-09T07:54:16.000Z</time>
      </trkpt>
      <trkpt lat="48.26659" lon="2.61906">
        <ele>87.599998474121</ele>
        <time>2013-06-09T07:54:18.000Z</time>
      </trkpt>
      <trkpt lat="48.26648" lon="2.61894">
        <ele>87.800003051758</ele>
        <time>2013-06-09T07:54:21.000Z</time>
      </trkpt>
      <trkpt lat="48.26635" lon="2.61877">
        <ele>88</ele>
        <time>2013-06-09T07:54:25.000Z</time>
      </trkpt>
      <trkpt lat="48.2662" lon="2.61829">
        <ele>89.599998474121</ele>
        <time>2013-06-09T07:54:34.000Z</time>
      </trkpt>
      <trkpt lat="48.26617" lon="2.61803">
        <ele>90</ele>
        <time>2013-06-09T07:54:38.000Z</time>
      </trkpt>
      <trkpt lat="48.26617" lon="2.61791">
        <ele>90.199996948242</ele>
        <time>2013-06-09T07:54:40.000Z</time>
      </trkpt>
      <trkpt lat="48.2662" lon="2.61758">
        <ele>92.599998474121</ele>
        <time>2013-06-09T07:54:47.000Z</time>
      </trkpt>
      <trkpt lat="48.26627" lon="2.61728">
        <ele>93.800003051758</ele>
        <time>2013-06-09T07:54:54.000Z</time>
      </trkpt>
      <trkpt lat="48.26633" lon="2.61698">
        <ele>94</ele>
        <time>2013-06-09T07:55:00.000Z</time>
      </trkpt>
      <trkpt lat="48.26639" lon="2.61672">
        <ele>94.400001525879</ele>
        <time>2013-06-09T07:55:06.000Z</time>
      </trkpt>
      <trkpt lat="48.2665" lon="2.61644">
        <ele>95.400001525879</ele>
        <time>2013-06-09T07:55:13.000Z</time>
      </trkpt>
      <trkpt lat="48.26658" lon="2.61626">
        <ele>96.599998474121</ele>
        <time>2013-06-09T07:55:18.000Z</time>
      </trkpt>
      <trkpt lat="48.2667" lon="2.61604">
        <ele>98</ele>
        <time>2013-06-09T07:55:24.000Z</time>
      </trkpt>
      <trkpt lat="48.26679" lon="2.61588">
        <ele>98.800003051758</ele>
        <time>2013-06-09T07:55:29.000Z</time>
      </trkpt>
      <trkpt lat="48.26685" lon="2.61577">
        <ele>99.400001525879</ele>
        <time>2013-06-09T07:55:32.000Z</time>
      </trkpt>
      <trkpt lat="48.26685" lon="2.61577">
        <ele>99.400001525879</ele>
        <time>2013-06-09T07:55:32.000Z</time>
      </trkpt>
      <trkpt lat="48.26689" lon="2.61568">
        <ele>99.599998474121</ele>
        <time>2013-06-09T07:55:35.000Z</time>
      </trkpt>
      <trkpt lat="48.26693" lon="2.61573">
        <ele>100.59999847412</ele>
        <time>2013-06-09T07:55:39.000Z</time>
      </trkpt>
      <trkpt lat="48.26691" lon="2.61578">
        <ele>100.59999847412</ele>
        <time>2013-06-09T07:55:41.000Z</time>
      </trkpt>
      <trkpt lat="48.26687" lon="2.61596">
        <ele>100.80000305176</ele>
        <time>2013-06-09T07:55:48.000Z</time>
      </trkpt>
      <trkpt lat="48.2668" lon="2.61616">
        <ele>100.59999847412</ele>
        <time>2013-06-09T07:55:54.000Z</time>
      </trkpt>
      <trkpt lat="48.26672" lon="2.6164">
        <ele>100.80000305176</ele>
        <time>2013-06-09T07:56:01.000Z</time>
      </trkpt>
      <trkpt lat="48.26665" lon="2.61658">
        <ele>101</ele>
        <time>2013-06-09T07:56:07.000Z</time>
      </trkpt>
      <trkpt lat="48.26658" lon="2.61686">
        <ele>100.59999847412</ele>
        <time>2013-06-09T07:56:14.000Z</time>
      </trkpt>
      <trkpt lat="48.26656" lon="2.61712">
        <ele>101.40000152588</ele>
        <time>2013-06-09T07:56:20.000Z</time>
      </trkpt>
      <trkpt lat="48.26651" lon="2.61751">
        <ele>102</ele>
        <time>2013-06-09T07:56:27.000Z</time>
      </trkpt>
      <trkpt lat="48.26646" lon="2.61793">
        <ele>98.400001525879</ele>
        <time>2013-06-09T07:56:34.000Z</time>
      </trkpt>
      <trkpt lat="48.26646" lon="2.61806">
        <ele>97.800003051758</ele>
        <time>2013-06-09T07:56:36.000Z</time>
      </trkpt>
      <trkpt lat="48.26656" lon="2.61833">
        <ele>99.199996948242</ele>
        <time>2013-06-09T07:56:41.000Z</time>
      </trkpt>
      <trkpt lat="48.26672" lon="2.61847">
        <ele>100.40000152588</ele>
        <time>2013-06-09T07:56:45.000Z</time>
      </trkpt>
      <trkpt lat="48.26684" lon="2.61856">
        <ele>100.59999847412</ele>
        <time>2013-06-09T07:56:48.000Z</time>
      </trkpt>
      <trkpt lat="48.26694" lon="2.61864">
        <ele>100.80000305176</ele>
        <time>2013-06-09T07:56:52.000Z</time>
      </trkpt>
      <trkpt lat="48.26695" lon="2.61864">
        <ele>100.80000305176</ele>
        <time>2013-06-09T07:57:00.000Z</time>
      </trkpt>
      <trkpt lat="48.26705" lon="2.61877">
        <ele>100.59999847412</ele>
        <time>2013-06-09T07:57:04.000Z</time>
      </trkpt>
      <trkpt lat="48.26726" lon="2.61904">
        <ele>100.19999694824</ele>
        <time>2013-06-09T07:57:10.000Z</time>
      </trkpt>
      <trkpt lat="48.2673" lon="2.6191">
        <ele>100</ele>
        <time>2013-06-09T07:57:11.000Z</time>
      </trkpt>
      <trkpt lat="48.26743" lon="2.61925">
        <ele>100.19999694824</ele>
        <time>2013-06-09T07:57:15.000Z</time>
      </trkpt>
      <trkpt lat="48.2676" lon="2.61941">
        <ele>99.199996948242</ele>
        <time>2013-06-09T07:57:20.000Z</time>
      </trkpt>
      <trkpt lat="48.26765" lon="2.61945">
        <ele>99</ele>
        <time>2013-06-09T07:57:21.000Z</time>
      </trkpt>
      <trkpt lat="48.26784" lon="2.61958">
        <ele>99.199996948242</ele>
        <time>2013-06-09T07:57:26.000Z</time>
      </trkpt>
      <trkpt lat="48.26787" lon="2.6196">
        <ele>99.199996948242</ele>
        <time>2013-06-09T07:57:27.000Z</time>
      </trkpt>
      <trkpt lat="48.26805" lon="2.61977">
        <ele>99.800003051758</ele>
        <time>2013-06-09T07:57:33.000Z</time>
      </trkpt>
      <trkpt lat="48.26807" lon="2.6198">
        <ele>99.599998474121</ele>
        <time>2013-06-09T07:57:34.000Z</time>
      </trkpt>
      <trkpt lat="48.26818" lon="2.61994">
        <ele>100.59999847412</ele>
        <time>2013-06-09T07:57:41.000Z</time>
      </trkpt>
      <trkpt lat="48.26823" lon="2.62003">
        <ele>100.80000305176</ele>
        <time>2013-06-09T07:57:46.000Z</time>
      </trkpt>
      <trkpt lat="48.26824" lon="2.62007">
        <ele>100.80000305176</ele>
        <time>2013-06-09T07:57:47.000Z</time>
      </trkpt>
      <trkpt lat="48.2683" lon="2.62018">
        <ele>101.40000152588</ele>
        <time>2013-06-09T07:57:50.000Z</time>
      </trkpt>
      <trkpt lat="48.2684" lon="2.62037">
        <ele>101.80000305176</ele>
        <time>2013-06-09T07:57:56.000Z</time>
      </trkpt>
      <trkpt lat="48.26843" lon="2.62052">
        <ele>101.40000152588</ele>
        <time>2013-06-09T07:58:00.000Z</time>
      </trkpt>
      <trkpt lat="48.26844" lon="2.62062">
        <ele>101</ele>
        <time>2013-06-09T07:58:04.000Z</time>
      </trkpt>
      <trkpt lat="48.26846" lon="2.62072">
        <ele>100.80000305176</ele>
        <time>2013-06-09T07:58:10.000Z</time>
      </trkpt>
      <trkpt lat="48.26852" lon="2.62086">
        <ele>101.19999694824</ele>
        <time>2013-06-09T07:58:15.000Z</time>
      </trkpt>
      <trkpt lat="48.2686" lon="2.62094">
        <ele>102</ele>
        <time>2013-06-09T07:58:20.000Z</time>
      </trkpt>
      <trkpt lat="48.26863" lon="2.62102">
        <ele>102</ele>
        <time>2013-06-09T07:58:24.000Z</time>
      </trkpt>
      <trkpt lat="48.2687" lon="2.62117">
        <ele>102.59999847412</ele>
        <time>2013-06-09T07:58:29.000Z</time>
      </trkpt>
      <trkpt lat="48.26871" lon="2.6212">
        <ele>102.80000305176</ele>
        <time>2013-06-09T07:58:32.000Z</time>
      </trkpt>
      <trkpt lat="48.26873" lon="2.62121">
        <ele>103</ele>
        <time>2013-06-09T07:58:38.000Z</time>
      </trkpt>
      <trkpt lat="48.26875" lon="2.62128">
        <ele>103.19999694824</ele>
        <time>2013-06-09T07:58:41.000Z</time>
      </trkpt>
      <trkpt lat="48.26881" lon="2.62143">
        <ele>103.80000305176</ele>
        <time>2013-06-09T07:58:47.000Z</time>
      </trkpt>
      <trkpt lat="48.26886" lon="2.62158">
        <ele>104.19999694824</ele>
        <time>2013-06-09T07:58:53.000Z</time>
      </trkpt>
      <trkpt lat="48.26887" lon="2.6217">
        <ele>104.19999694824</ele>
        <time>2013-06-09T07:58:56.000Z</time>
      </trkpt>
      <trkpt lat="48.26883" lon="2.62191">
        <ele>103.80000305176</ele>
        <time>2013-06-09T07:59:02.000Z</time>
      </trkpt>
      <trkpt lat="48.26876" lon="2.62207">
        <ele>103</ele>
        <time>2013-06-09T07:59:07.000Z</time>
      </trkpt>
      <trkpt lat="48.26875" lon="2.62211">
        <ele>103</ele>
        <time>2013-06-09T07:59:08.000Z</time>
      </trkpt>
      <trkpt lat="48.2688" lon="2.62224">
        <ele>103.59999847412</ele>
        <time>2013-06-09T07:59:13.000Z</time>
      </trkpt>
      <trkpt lat="48.26881" lon="2.62227">
        <ele>103.80000305176</ele>
        <time>2013-06-09T07:59:14.000Z</time>
      </trkpt>
      <trkpt lat="48.26886" lon="2.62245">
        <ele>104.40000152588</ele>
        <time>2013-06-09T07:59:20.000Z</time>
      </trkpt>
      <trkpt lat="48.26896" lon="2.62255">
        <ele>105</ele>
        <time>2013-06-09T07:59:26.000Z</time>
      </trkpt>
      <trkpt lat="48.26896" lon="2.62266">
        <ele>104.59999847412</ele>
        <time>2013-06-09T07:59:30.000Z</time>
      </trkpt>
      <trkpt lat="48.26902" lon="2.62281">
        <ele>104.40000152588</ele>
        <time>2013-06-09T07:59:34.000Z</time>
      </trkpt>
      <trkpt lat="48.26903" lon="2.62297">
        <ele>103.80000305176</ele>
        <time>2013-06-09T07:59:37.000Z</time>
      </trkpt>
      <trkpt lat="48.26902" lon="2.62312">
        <ele>103</ele>
        <time>2013-06-09T07:59:40.000Z</time>
      </trkpt>
      <trkpt lat="48.26903" lon="2.62328">
        <ele>102.40000152588</ele>
        <time>2013-06-09T07:59:43.000Z</time>
      </trkpt>
      <trkpt lat="48.26913" lon="2.62344">
        <ele>102.80000305176</ele>
        <time>2013-06-09T07:59:48.000Z</time>
      </trkpt>
      <trkpt lat="48.26916" lon="2.62347">
        <ele>102.80000305176</ele>
        <time>2013-06-09T07:59:50.000Z</time>
      </trkpt>
      <trkpt lat="48.26924" lon="2.62346">
        <ele>103.19999694824</ele>
        <time>2013-06-09T07:59:55.000Z</time>
      </trkpt>
      <trkpt lat="48.26926" lon="2.62349">
        <ele>103.40000152588</ele>
        <time>2013-06-09T08:00:02.000Z</time>
      </trkpt>
      <trkpt lat="48.26926" lon="2.62347">
        <ele>103.40000152588</ele>
        <time>2013-06-09T08:00:09.000Z</time>
      </trkpt>
      <trkpt lat="48.26927" lon="2.62346">
        <ele>103.40000152588</ele>
        <time>2013-06-09T08:00:22.000Z</time>
      </trkpt>
      <trkpt lat="48.26929" lon="2.62348">
        <ele>103.40000152588</ele>
        <time>2013-06-09T08:00:32.000Z</time>
      </trkpt>
      <trkpt lat="48.26931" lon="2.62348">
        <ele>103.59999847412</ele>
        <time>2013-06-09T08:00:56.000Z</time>
      </trkpt>
      <trkpt lat="48.26928" lon="2.62351">
        <ele>103.40000152588</ele>
        <time>2013-06-09T08:01:04.000Z</time>
      </trkpt>
      <trkpt lat="48.26926" lon="2.62355">
        <ele>103.40000152588</ele>
        <time>2013-06-09T08:01:14.000Z</time>
      </trkpt>
      <trkpt lat="48.2693" lon="2.62357">
        <ele>103.59999847412</ele>
        <time>2013-06-09T08:01:23.000Z</time>
      </trkpt>
      <trkpt lat="48.26933" lon="2.6236">
        <ele>103.80000305176</ele>
        <time>2013-06-09T08:01:25.000Z</time>
      </trkpt>
      <trkpt lat="48.26936" lon="2.62362">
        <ele>103.80000305176</ele>
        <time>2013-06-09T08:01:28.000Z</time>
      </trkpt>
      <trkpt lat="48.26938" lon="2.62363">
        <ele>104</ele>
        <time>2013-06-09T08:01:29.000Z</time>
      </trkpt>
      <trkpt lat="48.26943" lon="2.6236">
        <ele>104.19999694824</ele>
        <time>2013-06-09T08:01:33.000Z</time>
      </trkpt>
      <trkpt lat="48.26953" lon="2.62327">
        <ele>104.80000305176</ele>
        <time>2013-06-09T08:01:40.000Z</time>
      </trkpt>
      <trkpt lat="48.26962" lon="2.6228">
        <ele>106.59999847412</ele>
        <time>2013-06-09T08:01:47.000Z</time>
      </trkpt>
      <trkpt lat="48.26962" lon="2.62226">
        <ele>107.80000305176</ele>
        <time>2013-06-09T08:01:54.000Z</time>
      </trkpt>
      <trkpt lat="48.26956" lon="2.6218">
        <ele>108.19999694824</ele>
        <time>2013-06-09T08:02:00.000Z</time>
      </trkpt>
      <trkpt lat="48.26948" lon="2.62133">
        <ele>108.40000152588</ele>
        <time>2013-06-09T08:02:06.000Z</time>
      </trkpt>
      <trkpt lat="48.26949" lon="2.62102">
        <ele>108.19999694824</ele>
        <time>2013-06-09T08:02:10.000Z</time>
      </trkpt>
      <trkpt lat="48.26951" lon="2.6209">
        <ele>108.19999694824</ele>
        <time>2013-06-09T08:02:12.000Z</time>
      </trkpt>
      <trkpt lat="48.26953" lon="2.62067">
        <ele>108</ele>
        <time>2013-06-09T08:02:16.000Z</time>
      </trkpt>
      <trkpt lat="48.26945" lon="2.62043">
        <ele>108</ele>
        <time>2013-06-09T08:02:22.000Z</time>
      </trkpt>
      <trkpt lat="48.26929" lon="2.62009">
        <ele>108</ele>
        <time>2013-06-09T08:02:28.000Z</time>
      </trkpt>
      <trkpt lat="48.26915" lon="2.61967">
        <ele>107.80000305176</ele>
        <time>2013-06-09T08:02:35.000Z</time>
      </trkpt>
      <trkpt lat="48.26913" lon="2.61961">
        <ele>107.80000305176</ele>
        <time>2013-06-09T08:02:36.000Z</time>
      </trkpt>
      <trkpt lat="48.26898" lon="2.61936">
        <ele>107.40000152588</ele>
        <time>2013-06-09T08:02:43.000Z</time>
      </trkpt>
      <trkpt lat="48.26896" lon="2.61926">
        <ele>107.40000152588</ele>
        <time>2013-06-09T08:02:47.000Z</time>
      </trkpt>
      <trkpt lat="48.26894" lon="2.61916">
        <ele>107.40000152588</ele>
        <time>2013-06-09T08:02:49.000Z</time>
      </trkpt>
      <trkpt lat="48.26894" lon="2.61916">
        <ele>107.40000152588</ele>
        <time>2013-06-09T08:02:49.000Z</time>
      </trkpt>
      <trkpt lat="48.26891" lon="2.61901">
        <ele>107.19999694824</ele>
        <time>2013-06-09T08:02:52.000Z</time>
      </trkpt>
      <trkpt lat="48.26879" lon="2.61863">
        <ele>107.40000152588</ele>
        <time>2013-06-09T08:02:59.000Z</time>
      </trkpt>
      <trkpt lat="48.26877" lon="2.6185">
        <ele>107.59999847412</ele>
        <time>2013-06-09T08:03:01.000Z</time>
      </trkpt>
      <trkpt lat="48.26882" lon="2.61805">
        <ele>107.59999847412</ele>
        <time>2013-06-09T08:03:08.000Z</time>
      </trkpt>
      <trkpt lat="48.26886" lon="2.61788">
        <ele>107.19999694824</ele>
        <time>2013-06-09T08:03:11.000Z</time>
      </trkpt>
      <trkpt lat="48.26886" lon="2.61767">
        <ele>107</ele>
        <time>2013-06-09T08:03:14.000Z</time>
      </trkpt>
      <trkpt lat="48.2688" lon="2.61732">
        <ele>107</ele>
        <time>2013-06-09T08:03:19.000Z</time>
      </trkpt>
      <trkpt lat="48.26875" lon="2.61713">
        <ele>107</ele>
        <time>2013-06-09T08:03:22.000Z</time>
      </trkpt>
      <trkpt lat="48.26869" lon="2.61698">
        <ele>107.40000152588</ele>
        <time>2013-06-09T08:03:25.000Z</time>
      </trkpt>
      <trkpt lat="48.26858" lon="2.61658">
        <ele>107.59999847412</ele>
        <time>2013-06-09T08:03:32.000Z</time>
      </trkpt>
      <trkpt lat="48.26856" lon="2.61654">
        <ele>107.59999847412</ele>
        <time>2013-06-09T08:03:33.000Z</time>
      </trkpt>
      <trkpt lat="48.26852" lon="2.61637">
        <ele>107.59999847412</ele>
        <time>2013-06-09T08:03:37.000Z</time>
      </trkpt>
      <trkpt lat="48.26851" lon="2.61625">
        <ele>107.19999694824</ele>
        <time>2013-06-09T08:03:42.000Z</time>
      </trkpt>
      <trkpt lat="48.26851" lon="2.61622">
        <ele>107.19999694824</ele>
        <time>2013-06-09T08:03:50.000Z</time>
      </trkpt>
      <trkpt lat="48.26844" lon="2.61602">
        <ele>107.59999847412</ele>
        <time>2013-06-09T08:03:55.000Z</time>
      </trkpt>
      <trkpt lat="48.26837" lon="2.61575">
        <ele>107.59999847412</ele>
        <time>2013-06-09T08:03:59.000Z</time>
      </trkpt>
      <trkpt lat="48.26832" lon="2.61552">
        <ele>107</ele>
        <time>2013-06-09T08:04:02.000Z</time>
      </trkpt>
      <trkpt lat="48.26828" lon="2.61528">
        <ele>106</ele>
        <time>2013-06-09T08:04:05.000Z</time>
      </trkpt>
      <trkpt lat="48.26826" lon="2.61515">
        <ele>105.40000152588</ele>
        <time>2013-06-09T08:04:07.000Z</time>
      </trkpt>
      <trkpt lat="48.26822" lon="2.61494">
        <ele>104.80000305176</ele>
        <time>2013-06-09T08:04:10.000Z</time>
      </trkpt>
      <trkpt lat="48.26818" lon="2.61465">
        <ele>103.80000305176</ele>
        <time>2013-06-09T08:04:14.000Z</time>
      </trkpt>
      <trkpt lat="48.26817" lon="2.61447">
        <ele>103</ele>
        <time>2013-06-09T08:04:16.000Z</time>
      </trkpt>
      <trkpt lat="48.26819" lon="2.61416">
        <ele>101.40000152588</ele>
        <time>2013-06-09T08:04:19.000Z</time>
      </trkpt>
      <trkpt lat="48.26821" lon="2.61366">
        <ele>99.400001525879</ele>
        <time>2013-06-09T08:04:24.000Z</time>
      </trkpt>
      <trkpt lat="48.26822" lon="2.6135">
        <ele>98.800003051758</ele>
        <time>2013-06-09T08:04:26.000Z</time>
      </trkpt>
      <trkpt lat="48.26825" lon="2.6133">
        <ele>97.800003051758</ele>
        <time>2013-06-09T08:04:29.000Z</time>
      </trkpt>
      <trkpt lat="48.26832" lon="2.61305">
        <ele>97.199996948242</ele>
        <time>2013-06-09T08:04:33.000Z</time>
      </trkpt>
      <trkpt lat="48.26834" lon="2.61303">
        <ele>96.800003051758</ele>
        <time>2013-06-09T08:04:34.000Z</time>
      </trkpt>
      <trkpt lat="48.26836" lon="2.613">
        <ele>96.400001525879</ele>
        <time>2013-06-09T08:04:36.000Z</time>
      </trkpt>
      <trkpt lat="48.26839" lon="2.61298">
        <ele>96</ele>
        <time>2013-06-09T08:04:39.000Z</time>
      </trkpt>
      <trkpt lat="48.26837" lon="2.613">
        <ele>96.199996948242</ele>
        <time>2013-06-09T08:04:50.000Z</time>
      </trkpt>
      <trkpt lat="48.26838" lon="2.61302">
        <ele>96</ele>
        <time>2013-06-09T08:04:55.000Z</time>
      </trkpt>
      <trkpt lat="48.26838" lon="2.61306">
        <ele>95.800003051758</ele>
        <time>2013-06-09T08:05:02.000Z</time>
      </trkpt>
      <trkpt lat="48.26839" lon="2.61308">
        <ele>95.599998474121</ele>
        <time>2013-06-09T08:05:03.000Z</time>
      </trkpt>
      <trkpt lat="48.2684" lon="2.61319">
        <ele>95</ele>
        <time>2013-06-09T08:05:08.000Z</time>
      </trkpt>
      <trkpt lat="48.26841" lon="2.61325">
        <ele>94.599998474121</ele>
        <time>2013-06-09T08:05:11.000Z</time>
      </trkpt>
      <trkpt lat="48.26841" lon="2.61332">
        <ele>94.199996948242</ele>
        <time>2013-06-09T08:05:15.000Z</time>
      </trkpt>
      <trkpt lat="48.26841" lon="2.61341">
        <ele>94.599998474121</ele>
        <time>2013-06-09T08:05:20.000Z</time>
      </trkpt>
      <trkpt lat="48.2684" lon="2.61343">
        <ele>94.800003051758</ele>
        <time>2013-06-09T08:05:22.000Z</time>
      </trkpt>
      <trkpt lat="48.2684" lon="2.61349">
        <ele>95</ele>
        <time>2013-06-09T08:05:27.000Z</time>
      </trkpt>
      <trkpt lat="48.26841" lon="2.61357">
        <ele>95.199996948242</ele>
        <time>2013-06-09T08:05:32.000Z</time>
      </trkpt>
      <trkpt lat="48.26843" lon="2.61367">
        <ele>95</ele>
        <time>2013-06-09T08:05:37.000Z</time>
      </trkpt>
      <trkpt lat="48.26849" lon="2.61377">
        <ele>94.199996948242</ele>
        <time>2013-06-09T08:05:41.000Z</time>
      </trkpt>
      <trkpt lat="48.2685" lon="2.61382">
        <ele>94</ele>
        <time>2013-06-09T08:05:43.000Z</time>
      </trkpt>
      <trkpt lat="48.26853" lon="2.61389">
        <ele>93.800003051758</ele>
        <time>2013-06-09T08:05:48.000Z</time>
      </trkpt>
      <trkpt lat="48.26856" lon="2.61398">
        <ele>93.599998474121</ele>
        <time>2013-06-09T08:05:59.000Z</time>
      </trkpt>
      <trkpt lat="48.26858" lon="2.61404">
        <ele>93.400001525879</ele>
        <time>2013-06-09T08:06:01.000Z</time>
      </trkpt>
      <trkpt lat="48.26858" lon="2.61406">
        <ele>93.400001525879</ele>
        <time>2013-06-09T08:06:03.000Z</time>
      </trkpt>
      <trkpt lat="48.26858" lon="2.61415">
        <ele>93.800003051758</ele>
        <time>2013-06-09T08:06:11.000Z</time>
      </trkpt>
      <trkpt lat="48.26859" lon="2.61418">
        <ele>93.800003051758</ele>
        <time>2013-06-09T08:06:13.000Z</time>
      </trkpt>
      <trkpt lat="48.26865" lon="2.61426">
        <ele>93</ele>
        <time>2013-06-09T08:06:16.000Z</time>
      </trkpt>
      <trkpt lat="48.26877" lon="2.6144">
        <ele>91.199996948242</ele>
        <time>2013-06-09T08:06:22.000Z</time>
      </trkpt>
      <trkpt lat="48.26888" lon="2.61453">
        <ele>90</ele>
        <time>2013-06-09T08:06:26.000Z</time>
      </trkpt>
      <trkpt lat="48.26892" lon="2.61464">
        <ele>89.800003051758</ele>
        <time>2013-06-09T08:06:29.000Z</time>
      </trkpt>
      <trkpt lat="48.269" lon="2.61475">
        <ele>88.800003051758</ele>
        <time>2013-06-09T08:06:34.000Z</time>
      </trkpt>
      <trkpt lat="48.26907" lon="2.61493">
        <ele>88.599998474121</ele>
        <time>2013-06-09T08:06:41.000Z</time>
      </trkpt>
      <trkpt lat="48.26912" lon="2.61503">
        <ele>88</ele>
        <time>2013-06-09T08:06:45.000Z</time>
      </trkpt>
      <trkpt lat="48.26919" lon="2.61518">
        <ele>87.599998474121</ele>
        <time>2013-06-09T08:06:49.000Z</time>
      </trkpt>
      <trkpt lat="48.26921" lon="2.61521">
        <ele>87.599998474121</ele>
        <time>2013-06-09T08:06:50.000Z</time>
      </trkpt>
      <trkpt lat="48.26927" lon="2.61532">
        <ele>87.599998474121</ele>
        <time>2013-06-09T08:06:55.000Z</time>
      </trkpt>
      <trkpt lat="48.26936" lon="2.61543">
        <ele>87.199996948242</ele>
        <time>2013-06-09T08:07:00.000Z</time>
      </trkpt>
      <trkpt lat="48.26942" lon="2.61543">
        <ele>86.400001525879</ele>
        <time>2013-06-09T08:07:07.000Z</time>
      </trkpt>
      <trkpt lat="48.26942" lon="2.61543">
        <ele>86.400001525879</ele>
        <time>2013-06-09T08:07:07.000Z</time>
      </trkpt>
      <trkpt lat="48.26944" lon="2.61542">
        <ele>86.199996948242</ele>
        <time>2013-06-09T08:07:08.000Z</time>
      </trkpt>
      <trkpt lat="48.26958" lon="2.6153">
        <ele>84</ele>
        <time>2013-06-09T08:07:13.000Z</time>
      </trkpt>
      <trkpt lat="48.26982" lon="2.61505">
        <ele>80</ele>
        <time>2013-06-09T08:07:19.000Z</time>
      </trkpt>
      <trkpt lat="48.27019" lon="2.61463">
        <ele>76.800003051758</ele>
        <time>2013-06-09T08:07:27.000Z</time>
      </trkpt>
      <trkpt lat="48.27056" lon="2.61426">
        <ele>75</ele>
        <time>2013-06-09T08:07:34.000Z</time>
      </trkpt>
      <trkpt lat="48.27107" lon="2.61383">
        <ele>74.800003051758</ele>
        <time>2013-06-09T08:07:43.000Z</time>
      </trkpt>
      <trkpt lat="48.27139" lon="2.61357">
        <ele>75.800003051758</ele>
        <time>2013-06-09T08:07:49.000Z</time>
      </trkpt>
      <trkpt lat="48.27161" lon="2.61335">
        <ele>76.800003051758</ele>
        <time>2013-06-09T08:07:55.000Z</time>
      </trkpt>
      <trkpt lat="48.27165" lon="2.61331">
        <ele>76.800003051758</ele>
        <time>2013-06-09T08:07:56.000Z</time>
      </trkpt>
      <trkpt lat="48.27186" lon="2.61316">
        <ele>77.599998474121</ele>
        <time>2013-06-09T08:08:01.000Z</time>
      </trkpt>
      <trkpt lat="48.27218" lon="2.61286">
        <ele>78.599998474121</ele>
        <time>2013-06-09T08:08:08.000Z</time>
      </trkpt>
      <trkpt lat="48.2725" lon="2.61257">
        <ele>78.800003051758</ele>
        <time>2013-06-09T08:08:15.000Z</time>
      </trkpt>
      <trkpt lat="48.27276" lon="2.61236">
        <ele>79.599998474121</ele>
        <time>2013-06-09T08:08:21.000Z</time>
      </trkpt>
      <trkpt lat="48.27305" lon="2.61212">
        <ele>80</ele>
        <time>2013-06-09T08:08:27.000Z</time>
      </trkpt>
      <trkpt lat="48.27318" lon="2.612">
        <ele>80</ele>
        <time>2013-06-09T08:08:30.000Z</time>
      </trkpt>
      <trkpt lat="48.27322" lon="2.61196">
        <ele>80</ele>
        <time>2013-06-09T08:08:31.000Z</time>
      </trkpt>
      <trkpt lat="48.27322" lon="2.61196">
        <ele>80</ele>
        <time>2013-06-09T08:08:31.000Z</time>
      </trkpt>
      <trkpt lat="48.27332" lon="2.61188">
        <ele>80</ele>
        <time>2013-06-09T08:08:33.000Z</time>
      </trkpt>
      <trkpt lat="48.27357" lon="2.61161">
        <ele>80.199996948242</ele>
        <time>2013-06-09T08:08:39.000Z</time>
      </trkpt>
      <trkpt lat="48.27365" lon="2.61151">
        <ele>80.400001525879</ele>
        <time>2013-06-09T08:08:41.000Z</time>
      </trkpt>
      <trkpt lat="48.27378" lon="2.61138">
        <ele>80.599998474121</ele>
        <time>2013-06-09T08:08:44.000Z</time>
      </trkpt>
      <trkpt lat="48.27389" lon="2.61123">
        <ele>81</ele>
        <time>2013-06-09T08:08:47.000Z</time>
      </trkpt>
      <trkpt lat="48.27406" lon="2.61109">
        <ele>81.400001525879</ele>
        <time>2013-06-09T08:08:51.000Z</time>
      </trkpt>
      <trkpt lat="48.27431" lon="2.61092">
        <ele>82.400001525879</ele>
        <time>2013-06-09T08:08:57.000Z</time>
      </trkpt>
      <trkpt lat="48.27462" lon="2.61065">
        <ele>85.199996948242</ele>
        <time>2013-06-09T08:09:04.000Z</time>
      </trkpt>
      <trkpt lat="48.27484" lon="2.61046">
        <ele>87</ele>
        <time>2013-06-09T08:09:09.000Z</time>
      </trkpt>
      <trkpt lat="48.27487" lon="2.61043">
        <ele>87.400001525879</ele>
        <time>2013-06-09T08:09:10.000Z</time>
      </trkpt>
      <trkpt lat="48.27506" lon="2.61029">
        <ele>88.599998474121</ele>
        <time>2013-06-09T08:09:16.000Z</time>
      </trkpt>
      <trkpt lat="48.27524" lon="2.61016">
        <ele>89.599998474121</ele>
        <time>2013-06-09T08:09:21.000Z</time>
      </trkpt>
      <trkpt lat="48.27539" lon="2.61006">
        <ele>90.199996948242</ele>
        <time>2013-06-09T08:09:25.000Z</time>
      </trkpt>
      <trkpt lat="48.27556" lon="2.60996">
        <ele>90.800003051758</ele>
        <time>2013-06-09T08:09:29.000Z</time>
      </trkpt>
      <trkpt lat="48.27576" lon="2.60987">
        <ele>91.800003051758</ele>
        <time>2013-06-09T08:09:35.000Z</time>
      </trkpt>
      <trkpt lat="48.2759" lon="2.60985">
        <ele>91.599998474121</ele>
        <time>2013-06-09T08:09:40.000Z</time>
      </trkpt>
      <trkpt lat="48.27608" lon="2.60985">
        <ele>91</ele>
        <time>2013-06-09T08:09:45.000Z</time>
      </trkpt>
      <trkpt lat="48.27636" lon="2.60984">
        <ele>89.800003051758</ele>
        <time>2013-06-09T08:09:51.000Z</time>
      </trkpt>
      <trkpt lat="48.27665" lon="2.6098">
        <ele>88.599998474121</ele>
        <time>2013-06-09T08:09:56.000Z</time>
      </trkpt>
      <trkpt lat="48.27695" lon="2.60969">
        <ele>85.800003051758</ele>
        <time>2013-06-09T08:10:01.000Z</time>
      </trkpt>
      <trkpt lat="48.27732" lon="2.60946">
        <ele>82.199996948242</ele>
        <time>2013-06-09T08:10:07.000Z</time>
      </trkpt>
      <trkpt lat="48.27743" lon="2.60936">
        <ele>81.199996948242</ele>
        <time>2013-06-09T08:10:09.000Z</time>
      </trkpt>
      <trkpt lat="48.27743" lon="2.60936">
        <ele>81.199996948242</ele>
        <time>2013-06-09T08:10:09.000Z</time>
      </trkpt>
      <trkpt lat="48.27754" lon="2.60926">
        <ele>80.599998474121</ele>
        <time>2013-06-09T08:10:11.000Z</time>
      </trkpt>
      <trkpt lat="48.27787" lon="2.60897">
        <ele>80.599998474121</ele>
        <time>2013-06-09T08:10:17.000Z</time>
      </trkpt>
      <trkpt lat="48.2781" lon="2.60871">
        <ele>80.400001525879</ele>
        <time>2013-06-09T08:10:22.000Z</time>
      </trkpt>
      <trkpt lat="48.27818" lon="2.60862">
        <ele>80</ele>
        <time>2013-06-09T08:10:24.000Z</time>
      </trkpt>
      <trkpt lat="48.27823" lon="2.60853">
        <ele>79.599998474121</ele>
        <time>2013-06-09T08:10:27.000Z</time>
      </trkpt>
      <trkpt lat="48.27828" lon="2.60848">
        <ele>79.199996948242</ele>
        <time>2013-06-09T08:10:42.000Z</time>
      </trkpt>
      <trkpt lat="48.27838" lon="2.60827">
        <ele>79</ele>
        <time>2013-06-09T08:10:48.000Z</time>
      </trkpt>
      <trkpt lat="48.27843" lon="2.60811">
        <ele>79.199996948242</ele>
        <time>2013-06-09T08:10:52.000Z</time>
      </trkpt>
      <trkpt lat="48.27851" lon="2.60787">
        <ele>79.599998474121</ele>
        <time>2013-06-09T08:10:58.000Z</time>
      </trkpt>
      <trkpt lat="48.27854" lon="2.60758">
        <ele>80</ele>
        <time>2013-06-09T08:11:03.000Z</time>
      </trkpt>
      <trkpt lat="48.27855" lon="2.60741">
        <ele>80.400001525879</ele>
        <time>2013-06-09T08:11:06.000Z</time>
      </trkpt>
      <trkpt lat="48.27859" lon="2.60726">
        <ele>80.400001525879</ele>
        <time>2013-06-09T08:11:10.000Z</time>
      </trkpt>
      <trkpt lat="48.27868" lon="2.60691">
        <ele>80.800003051758</ele>
        <time>2013-06-09T08:11:16.000Z</time>
      </trkpt>
      <trkpt lat="48.27876" lon="2.6067">
        <ele>80.800003051758</ele>
        <time>2013-06-09T08:11:20.000Z</time>
      </trkpt>
      <trkpt lat="48.27878" lon="2.60666">
        <ele>80.800003051758</ele>
        <time>2013-06-09T08:11:21.000Z</time>
      </trkpt>
      <trkpt lat="48.27886" lon="2.60649">
        <ele>80.800003051758</ele>
        <time>2013-06-09T08:11:25.000Z</time>
      </trkpt>
      <trkpt lat="48.27894" lon="2.60624">
        <ele>81.199996948242</ele>
        <time>2013-06-09T08:11:31.000Z</time>
      </trkpt>
      <trkpt lat="48.27905" lon="2.60606">
        <ele>81</ele>
        <time>2013-06-09T08:11:36.000Z</time>
      </trkpt>
      <trkpt lat="48.27911" lon="2.60599">
        <ele>80.800003051758</ele>
        <time>2013-06-09T08:11:40.000Z</time>
      </trkpt>
      <trkpt lat="48.27918" lon="2.60587">
        <ele>80.800003051758</ele>
        <time>2013-06-09T08:11:57.000Z</time>
      </trkpt>
      <trkpt lat="48.27913" lon="2.6059">
        <ele>81</ele>
        <time>2013-06-09T08:12:10.000Z</time>
      </trkpt>
      <trkpt lat="48.27911" lon="2.60589">
        <ele>81</ele>
        <time>2013-06-09T08:12:24.000Z</time>
      </trkpt>
      <trkpt lat="48.27909" lon="2.60589">
        <ele>81.199996948242</ele>
        <time>2013-06-09T08:12:50.000Z</time>
      </trkpt>
      <trkpt lat="48.27908" lon="2.60588">
        <ele>81.199996948242</ele>
        <time>2013-06-09T08:12:54.000Z</time>
      </trkpt>
      <trkpt lat="48.27912" lon="2.60572">
        <ele>81.199996948242</ele>
        <time>2013-06-09T08:13:00.000Z</time>
      </trkpt>
      <trkpt lat="48.27915" lon="2.60564">
        <ele>81.199996948242</ele>
        <time>2013-06-09T08:13:02.000Z</time>
      </trkpt>
      <trkpt lat="48.27923" lon="2.60541">
        <ele>81.199996948242</ele>
        <time>2013-06-09T08:13:07.000Z</time>
      </trkpt>
      <trkpt lat="48.27931" lon="2.6051">
        <ele>81.800003051758</ele>
        <time>2013-06-09T08:13:13.000Z</time>
      </trkpt>
      <trkpt lat="48.2794" lon="2.60486">
        <ele>82.400001525879</ele>
        <time>2013-06-09T08:13:18.000Z</time>
      </trkpt>
      <trkpt lat="48.27946" lon="2.60469">
        <ele>83</ele>
        <time>2013-06-09T08:13:22.000Z</time>
      </trkpt>
      <trkpt lat="48.2795" lon="2.60446">
        <ele>83.800003051758</ele>
        <time>2013-06-09T08:13:27.000Z</time>
      </trkpt>
      <trkpt lat="48.27958" lon="2.60417">
        <ele>84.800003051758</ele>
        <time>2013-06-09T08:13:33.000Z</time>
      </trkpt>
      <trkpt lat="48.27962" lon="2.60394">
        <ele>85.800003051758</ele>
        <time>2013-06-09T08:13:38.000Z</time>
      </trkpt>
      <trkpt lat="48.27963" lon="2.6039">
        <ele>85.800003051758</ele>
        <time>2013-06-09T08:13:39.000Z</time>
      </trkpt>
      <trkpt lat="48.2797" lon="2.60363">
        <ele>86.800003051758</ele>
        <time>2013-06-09T08:13:46.000Z</time>
      </trkpt>
      <trkpt lat="48.2798" lon="2.60333">
        <ele>87.400001525879</ele>
        <time>2013-06-09T08:13:52.000Z</time>
      </trkpt>
      <trkpt lat="48.2799" lon="2.60297">
        <ele>88.800003051758</ele>
        <time>2013-06-09T08:13:59.000Z</time>
      </trkpt>
      <trkpt lat="48.27994" lon="2.60276">
        <ele>89.400001525879</ele>
        <time>2013-06-09T08:14:03.000Z</time>
      </trkpt>
      <trkpt lat="48.28" lon="2.60257">
        <ele>89.599998474121</ele>
        <time>2013-06-09T08:14:07.000Z</time>
      </trkpt>
      <trkpt lat="48.28006" lon="2.60231">
        <ele>89.800003051758</ele>
        <time>2013-06-09T08:14:12.000Z</time>
      </trkpt>
      <trkpt lat="48.28013" lon="2.60204">
        <ele>89.800003051758</ele>
        <time>2013-06-09T08:14:18.000Z</time>
      </trkpt>
      <trkpt lat="48.28018" lon="2.60182">
        <ele>89.800003051758</ele>
        <time>2013-06-09T08:14:23.000Z</time>
      </trkpt>
      <trkpt lat="48.28025" lon="2.6015">
        <ele>89.800003051758</ele>
        <time>2013-06-09T08:14:29.000Z</time>
      </trkpt>
      <trkpt lat="48.28032" lon="2.60121">
        <ele>90</ele>
        <time>2013-06-09T08:14:34.000Z</time>
      </trkpt>
      <trkpt lat="48.28043" lon="2.60094">
        <ele>90</ele>
        <time>2013-06-09T08:14:39.000Z</time>
      </trkpt>
      <trkpt lat="48.28047" lon="2.60078">
        <ele>89.800003051758</ele>
        <time>2013-06-09T08:14:42.000Z</time>
      </trkpt>
      <trkpt lat="48.28052" lon="2.60062">
        <ele>89.800003051758</ele>
        <time>2013-06-09T08:14:45.000Z</time>
      </trkpt>
      <trkpt lat="48.28064" lon="2.60033">
        <ele>88.800003051758</ele>
        <time>2013-06-09T08:14:51.000Z</time>
      </trkpt>
      <trkpt lat="48.28073" lon="2.60009">
        <ele>87.599998474121</ele>
        <time>2013-06-09T08:14:56.000Z</time>
      </trkpt>
      <trkpt lat="48.28081" lon="2.59991">
        <ele>86.199996948242</ele>
        <time>2013-06-09T08:15:01.000Z</time>
      </trkpt>
      <trkpt lat="48.2809" lon="2.59979">
        <ele>85.400001525879</ele>
        <time>2013-06-09T08:15:05.000Z</time>
      </trkpt>
      <trkpt lat="48.28106" lon="2.59956">
        <ele>84.400001525879</ele>
        <time>2013-06-09T08:15:12.000Z</time>
      </trkpt>
      <trkpt lat="48.28123" lon="2.59933">
        <ele>83.400001525879</ele>
        <time>2013-06-09T08:15:18.000Z</time>
      </trkpt>
      <trkpt lat="48.28144" lon="2.59914">
        <ele>82.400001525879</ele>
        <time>2013-06-09T08:15:23.000Z</time>
      </trkpt>
      <trkpt lat="48.28149" lon="2.59911">
        <ele>82.199996948242</ele>
        <time>2013-06-09T08:15:24.000Z</time>
      </trkpt>
      <trkpt lat="48.28186" lon="2.59886">
        <ele>81.199996948242</ele>
        <time>2013-06-09T08:15:31.000Z</time>
      </trkpt>
      <trkpt lat="48.28218" lon="2.59863">
        <ele>79.800003051758</ele>
        <time>2013-06-09T08:15:37.000Z</time>
      </trkpt>
      <trkpt lat="48.28248" lon="2.59844">
        <ele>78</ele>
        <time>2013-06-09T08:15:42.000Z</time>
      </trkpt>
      <trkpt lat="48.28281" lon="2.59824">
        <ele>76.400001525879</ele>
        <time>2013-06-09T08:15:47.000Z</time>
      </trkpt>
      <trkpt lat="48.28332" lon="2.59779">
        <ele>74.599998474121</ele>
        <time>2013-06-09T08:15:55.000Z</time>
      </trkpt>
      <trkpt lat="48.28344" lon="2.59767">
        <ele>74.599998474121</ele>
        <time>2013-06-09T08:15:57.000Z</time>
      </trkpt>
      <trkpt lat="48.28363" lon="2.59746">
        <ele>74.800003051758</ele>
        <time>2013-06-09T08:16:01.000Z</time>
      </trkpt>
      <trkpt lat="48.28365" lon="2.59743">
        <ele>74.800003051758</ele>
        <time>2013-06-09T08:16:02.000Z</time>
      </trkpt>
      <trkpt lat="48.28371" lon="2.59732">
        <ele>75.400001525879</ele>
        <time>2013-06-09T08:16:06.000Z</time>
      </trkpt>
      <trkpt lat="48.28377" lon="2.59718">
        <ele>76</ele>
        <time>2013-06-09T08:16:10.000Z</time>
      </trkpt>
      <trkpt lat="48.28383" lon="2.59682">
        <ele>77.599998474121</ele>
        <time>2013-06-09T08:16:16.000Z</time>
      </trkpt>
      <trkpt lat="48.28382" lon="2.59676">
        <ele>77.800003051758</ele>
        <time>2013-06-09T08:16:17.000Z</time>
      </trkpt>
      <trkpt lat="48.28385" lon="2.5963">
        <ele>79.599998474121</ele>
        <time>2013-06-09T08:16:24.000Z</time>
      </trkpt>
      <trkpt lat="48.28386" lon="2.59624">
        <ele>79.800003051758</ele>
        <time>2013-06-09T08:16:25.000Z</time>
      </trkpt>
      <trkpt lat="48.28401" lon="2.59591">
        <ele>80.800003051758</ele>
        <time>2013-06-09T08:16:31.000Z</time>
      </trkpt>
      <trkpt lat="48.28412" lon="2.59584">
        <ele>81</ele>
        <time>2013-06-09T08:16:35.000Z</time>
      </trkpt>
      <trkpt lat="48.28413" lon="2.59584">
        <ele>81</ele>
        <time>2013-06-09T08:16:37.000Z</time>
      </trkpt>
      <trkpt lat="48.28409" lon="2.59588">
        <ele>80.800003051758</ele>
        <time>2013-06-09T08:16:41.000Z</time>
      </trkpt>
      <trkpt lat="48.28411" lon="2.59592">
        <ele>80.599998474121</ele>
        <time>2013-06-09T08:16:49.000Z</time>
      </trkpt>
      <trkpt lat="48.28412" lon="2.59599">
        <ele>80.400001525879</ele>
        <time>2013-06-09T08:16:57.000Z</time>
      </trkpt>
      <trkpt lat="48.28413" lon="2.59601">
        <ele>80.400001525879</ele>
        <time>2013-06-09T08:17:12.000Z</time>
      </trkpt>
      <trkpt lat="48.2841" lon="2.59604">
        <ele>80.199996948242</ele>
        <time>2013-06-09T08:17:15.000Z</time>
      </trkpt>
      <trkpt lat="48.28405" lon="2.59604">
        <ele>80.400001525879</ele>
        <time>2013-06-09T08:17:19.000Z</time>
      </trkpt>
      <trkpt lat="48.28407" lon="2.59612">
        <ele>80</ele>
        <time>2013-06-09T08:17:23.000Z</time>
      </trkpt>
      <trkpt lat="48.28412" lon="2.5962">
        <ele>79.599998474121</ele>
        <time>2013-06-09T08:17:27.000Z</time>
      </trkpt>
      <trkpt lat="48.28401" lon="2.59624">
        <ele>79.599998474121</ele>
        <time>2013-06-09T08:17:35.000Z</time>
      </trkpt>
      <trkpt lat="48.28397" lon="2.59625">
        <ele>79.599998474121</ele>
        <time>2013-06-09T08:17:43.000Z</time>
      </trkpt>
      <trkpt lat="48.28404" lon="2.59621">
        <ele>79.599998474121</ele>
        <time>2013-06-09T08:17:45.000Z</time>
      </trkpt>
      <trkpt lat="48.28418" lon="2.59595">
        <ele>80.400001525879</ele>
        <time>2013-06-09T08:17:51.000Z</time>
      </trkpt>
      <trkpt lat="48.28435" lon="2.59556">
        <ele>79.599998474121</ele>
        <time>2013-06-09T08:17:57.000Z</time>
      </trkpt>
      <trkpt lat="48.2844" lon="2.59544">
        <ele>79.199996948242</ele>
        <time>2013-06-09T08:17:59.000Z</time>
      </trkpt>
      <trkpt lat="48.28449" lon="2.5953">
        <ele>78.599998474121</ele>
        <time>2013-06-09T08:18:03.000Z</time>
      </trkpt>
      <trkpt lat="48.28459" lon="2.59536">
        <ele>78</ele>
        <time>2013-06-09T08:18:06.000Z</time>
      </trkpt>
      <trkpt lat="48.2848" lon="2.5956">
        <ele>77</ele>
        <time>2013-06-09T08:18:12.000Z</time>
      </trkpt>
      <trkpt lat="48.28492" lon="2.59561">
        <ele>76.400001525879</ele>
        <time>2013-06-09T08:18:15.000Z</time>
      </trkpt>
      <trkpt lat="48.28495" lon="2.59555">
        <ele>76.199996948242</ele>
        <time>2013-06-09T08:18:16.000Z</time>
      </trkpt>
      <trkpt lat="48.28517" lon="2.59497">
        <ele>75.199996948242</ele>
        <time>2013-06-09T08:18:24.000Z</time>
      </trkpt>
      <trkpt lat="48.28538" lon="2.59442">
        <ele>74.800003051758</ele>
        <time>2013-06-09T08:18:32.000Z</time>
      </trkpt>
      <trkpt lat="48.28547" lon="2.59415">
        <ele>74.800003051758</ele>
        <time>2013-06-09T08:18:36.000Z</time>
      </trkpt>
      <trkpt lat="48.28567" lon="2.59382">
        <ele>74.800003051758</ele>
        <time>2013-06-09T08:18:42.000Z</time>
      </trkpt>
      <trkpt lat="48.28578" lon="2.59365">
        <ele>75.199996948242</ele>
        <time>2013-06-09T08:18:45.000Z</time>
      </trkpt>
      <trkpt lat="48.28594" lon="2.59329">
        <ele>76.199996948242</ele>
        <time>2013-06-09T08:18:51.000Z</time>
      </trkpt>
      <trkpt lat="48.28606" lon="2.59302">
        <ele>76.400001525879</ele>
        <time>2013-06-09T08:18:56.000Z</time>
      </trkpt>
      <trkpt lat="48.28628" lon="2.59243">
        <ele>77.199996948242</ele>
        <time>2013-06-09T08:19:06.000Z</time>
      </trkpt>
      <trkpt lat="48.28643" lon="2.59205">
        <ele>78.800003051758</ele>
        <time>2013-06-09T08:19:13.000Z</time>
      </trkpt>
      <trkpt lat="48.28654" lon="2.5918">
        <ele>80</ele>
        <time>2013-06-09T08:19:18.000Z</time>
      </trkpt>
      <trkpt lat="48.28669" lon="2.59135">
        <ele>82.199996948242</ele>
        <time>2013-06-09T08:19:27.000Z</time>
      </trkpt>
      <trkpt lat="48.2868" lon="2.59099">
        <ele>84</ele>
        <time>2013-06-09T08:19:34.000Z</time>
      </trkpt>
      <trkpt lat="48.28695" lon="2.59059">
        <ele>86.599998474121</ele>
        <time>2013-06-09T08:19:42.000Z</time>
      </trkpt>
      <trkpt lat="48.28707" lon="2.59024">
        <ele>89.400001525879</ele>
        <time>2013-06-09T08:19:50.000Z</time>
      </trkpt>
      <trkpt lat="48.2872" lon="2.58991">
        <ele>92.800003051758</ele>
        <time>2013-06-09T08:19:58.000Z</time>
      </trkpt>
      <trkpt lat="48.2873" lon="2.5898">
        <ele>94.599998474121</ele>
        <time>2013-06-09T08:20:04.000Z</time>
      </trkpt>
      <trkpt lat="48.28741" lon="2.5897">
        <ele>96.800003051758</ele>
        <time>2013-06-09T08:20:10.000Z</time>
      </trkpt>
      <trkpt lat="48.28753" lon="2.58956">
        <ele>99.400001525879</ele>
        <time>2013-06-09T08:20:16.000Z</time>
      </trkpt>
      <trkpt lat="48.28763" lon="2.58946">
        <ele>101.59999847412</ele>
        <time>2013-06-09T08:20:21.000Z</time>
      </trkpt>
      <trkpt lat="48.28773" lon="2.58935">
        <ele>104</ele>
        <time>2013-06-09T08:20:26.000Z</time>
      </trkpt>
      <trkpt lat="48.28785" lon="2.58921">
        <ele>106.40000152588</ele>
        <time>2013-06-09T08:20:32.000Z</time>
      </trkpt>
      <trkpt lat="48.28797" lon="2.58909">
        <ele>108.40000152588</ele>
        <time>2013-06-09T08:20:38.000Z</time>
      </trkpt>
      <trkpt lat="48.28809" lon="2.58902">
        <ele>110</ele>
        <time>2013-06-09T08:20:44.000Z</time>
      </trkpt>
      <trkpt lat="48.28821" lon="2.58896">
        <ele>111.59999847412</ele>
        <time>2013-06-09T08:20:50.000Z</time>
      </trkpt>
      <trkpt lat="48.28835" lon="2.58894">
        <ele>113</ele>
        <time>2013-06-09T08:20:58.000Z</time>
      </trkpt>
      <trkpt lat="48.28848" lon="2.58897">
        <ele>113.59999847412</ele>
        <time>2013-06-09T08:21:05.000Z</time>
      </trkpt>
      <trkpt lat="48.28863" lon="2.58896">
        <ele>114.80000305176</ele>
        <time>2013-06-09T08:21:13.000Z</time>
      </trkpt>
      <trkpt lat="48.28873" lon="2.58891">
        <ele>115.80000305176</ele>
        <time>2013-06-09T08:21:19.000Z</time>
      </trkpt>
      <trkpt lat="48.28887" lon="2.58894">
        <ele>116.80000305176</ele>
        <time>2013-06-09T08:21:27.000Z</time>
      </trkpt>
      <trkpt lat="48.28896" lon="2.58894">
        <ele>117.40000152588</ele>
        <time>2013-06-09T08:21:33.000Z</time>
      </trkpt>
      <trkpt lat="48.289" lon="2.58893">
        <ele>117.59999847412</ele>
        <time>2013-06-09T08:21:36.000Z</time>
      </trkpt>
      <trkpt lat="48.28901" lon="2.58891">
        <ele>117.80000305176</ele>
        <time>2013-06-09T08:21:44.000Z</time>
      </trkpt>
      <trkpt lat="48.289" lon="2.5889">
        <ele>117.80000305176</ele>
        <time>2013-06-09T08:21:51.000Z</time>
      </trkpt>
      <trkpt lat="48.289" lon="2.58888">
        <ele>117.80000305176</ele>
        <time>2013-06-09T08:22:10.000Z</time>
      </trkpt>
      <trkpt lat="48.28895" lon="2.58881">
        <ele>117.59999847412</ele>
        <time>2013-06-09T08:22:20.000Z</time>
      </trkpt>
      <trkpt lat="48.28896" lon="2.58876">
        <ele>117.80000305176</ele>
        <time>2013-06-09T08:22:33.000Z</time>
      </trkpt>
      <trkpt lat="48.28893" lon="2.58854">
        <ele>118.19999694824</ele>
        <time>2013-06-09T08:22:39.000Z</time>
      </trkpt>
      <trkpt lat="48.28896" lon="2.58825">
        <ele>118.59999847412</ele>
        <time>2013-06-09T08:22:45.000Z</time>
      </trkpt>
      <trkpt lat="48.28893" lon="2.58801">
        <ele>118.80000305176</ele>
        <time>2013-06-09T08:22:51.000Z</time>
      </trkpt>
      <trkpt lat="48.28874" lon="2.58785">
        <ele>118.59999847412</ele>
        <time>2013-06-09T08:22:57.000Z</time>
      </trkpt>
      <trkpt lat="48.28849" lon="2.5877">
        <ele>118.80000305176</ele>
        <time>2013-06-09T08:23:04.000Z</time>
      </trkpt>
      <trkpt lat="48.28846" lon="2.58767">
        <ele>118.80000305176</ele>
        <time>2013-06-09T08:23:08.000Z</time>
      </trkpt>
      <trkpt lat="48.28845" lon="2.58767">
        <ele>118.80000305176</ele>
        <time>2013-06-09T08:23:10.000Z</time>
      </trkpt>
      <trkpt lat="48.28833" lon="2.58762">
        <ele>118.80000305176</ele>
        <time>2013-06-09T08:23:17.000Z</time>
      </trkpt>
      <trkpt lat="48.28831" lon="2.58761">
        <ele>118.59999847412</ele>
        <time>2013-06-09T08:23:20.000Z</time>
      </trkpt>
      <trkpt lat="48.28828" lon="2.58759">
        <ele>118.59999847412</ele>
        <time>2013-06-09T08:23:24.000Z</time>
      </trkpt>
      <trkpt lat="48.28823" lon="2.58756">
        <ele>118.59999847412</ele>
        <time>2013-06-09T08:23:28.000Z</time>
      </trkpt>
      <trkpt lat="48.28811" lon="2.58745">
        <ele>118.40000152588</ele>
        <time>2013-06-09T08:23:33.000Z</time>
      </trkpt>
      <trkpt lat="48.28811" lon="2.58728">
        <ele>118.59999847412</ele>
        <time>2013-06-09T08:23:38.000Z</time>
      </trkpt>
      <trkpt lat="48.28816" lon="2.58712">
        <ele>118.80000305176</ele>
        <time>2013-06-09T08:23:43.000Z</time>
      </trkpt>
      <trkpt lat="48.28824" lon="2.58692">
        <ele>119</ele>
        <time>2013-06-09T08:23:47.000Z</time>
      </trkpt>
      <trkpt lat="48.28838" lon="2.58652">
        <ele>119</ele>
        <time>2013-06-09T08:23:54.000Z</time>
      </trkpt>
      <trkpt lat="48.28853" lon="2.5861">
        <ele>119</ele>
        <time>2013-06-09T08:24:01.000Z</time>
      </trkpt>
      <trkpt lat="48.2887" lon="2.58552">
        <ele>118.19999694824</ele>
        <time>2013-06-09T08:24:10.000Z</time>
      </trkpt>
      <trkpt lat="48.28874" lon="2.5854">
        <ele>118</ele>
        <time>2013-06-09T08:24:12.000Z</time>
      </trkpt>
      <trkpt lat="48.28882" lon="2.58508">
        <ele>117.19999694824</ele>
        <time>2013-06-09T08:24:17.000Z</time>
      </trkpt>
      <trkpt lat="48.28883" lon="2.58496">
        <ele>117</ele>
        <time>2013-06-09T08:24:19.000Z</time>
      </trkpt>
      <trkpt lat="48.28884" lon="2.5848">
        <ele>117</ele>
        <time>2013-06-09T08:24:22.000Z</time>
      </trkpt>
      <trkpt lat="48.28887" lon="2.58461">
        <ele>117.19999694824</ele>
        <time>2013-06-09T08:24:27.000Z</time>
      </trkpt>
      <trkpt lat="48.2889" lon="2.58425">
        <ele>117.40000152588</ele>
        <time>2013-06-09T08:24:34.000Z</time>
      </trkpt>
      <trkpt lat="48.28893" lon="2.58386">
        <ele>117.40000152588</ele>
        <time>2013-06-09T08:24:40.000Z</time>
      </trkpt>
      <trkpt lat="48.2889" lon="2.58336">
        <ele>117.19999694824</ele>
        <time>2013-06-09T08:24:47.000Z</time>
      </trkpt>
      <trkpt lat="48.28889" lon="2.58323">
        <ele>117.40000152588</ele>
        <time>2013-06-09T08:24:50.000Z</time>
      </trkpt>
      <trkpt lat="48.28889" lon="2.58322">
        <ele>117.40000152588</ele>
        <time>2013-06-09T08:25:00.000Z</time>
      </trkpt>
      <trkpt lat="48.28891" lon="2.58318">
        <ele>117.59999847412</ele>
        <time>2013-06-09T08:25:09.000Z</time>
      </trkpt>
      <trkpt lat="48.28902" lon="2.5833">
        <ele>117.19999694824</ele>
        <time>2013-06-09T08:25:13.000Z</time>
      </trkpt>
      <trkpt lat="48.28911" lon="2.58344">
        <ele>117</ele>
        <time>2013-06-09T08:25:17.000Z</time>
      </trkpt>
      <trkpt lat="48.28926" lon="2.5835">
        <ele>116.40000152588</ele>
        <time>2013-06-09T08:25:22.000Z</time>
      </trkpt>
      <trkpt lat="48.2894" lon="2.58351">
        <ele>115.40000152588</ele>
        <time>2013-06-09T08:25:24.000Z</time>
      </trkpt>
      <trkpt lat="48.28989" lon="2.58345">
        <ele>112.40000152588</ele>
        <time>2013-06-09T08:25:29.000Z</time>
      </trkpt>
      <trkpt lat="48.29028" lon="2.58364">
        <ele>108.59999847412</ele>
        <time>2013-06-09T08:25:33.000Z</time>
      </trkpt>
      <trkpt lat="48.2907" lon="2.58387">
        <ele>103.19999694824</ele>
        <time>2013-06-09T08:25:37.000Z</time>
      </trkpt>
      <trkpt lat="48.29092" lon="2.58403">
        <ele>99.800003051758</ele>
        <time>2013-06-09T08:25:40.000Z</time>
      </trkpt>
      <trkpt lat="48.29117" lon="2.58431">
        <ele>96.400001525879</ele>
        <time>2013-06-09T08:25:45.000Z</time>
      </trkpt>
      <trkpt lat="48.29128" lon="2.58445">
        <ele>95.199996948242</ele>
        <time>2013-06-09T08:25:47.000Z</time>
      </trkpt>
      <trkpt lat="48.29149" lon="2.58465">
        <ele>92.599998474121</ele>
        <time>2013-06-09T08:25:51.000Z</time>
      </trkpt>
      <trkpt lat="48.29178" lon="2.58499">
        <ele>89.199996948242</ele>
        <time>2013-06-09T08:25:57.000Z</time>
      </trkpt>
      <trkpt lat="48.29192" lon="2.58522">
        <ele>89.599998474121</ele>
        <time>2013-06-09T08:26:00.000Z</time>
      </trkpt>
      <trkpt lat="48.29202" lon="2.5855">
        <ele>90</ele>
        <time>2013-06-09T08:26:03.000Z</time>
      </trkpt>
      <trkpt lat="48.29225" lon="2.58595">
        <ele>88.199996948242</ele>
        <time>2013-06-09T08:26:08.000Z</time>
      </trkpt>
      <trkpt lat="48.29249" lon="2.58643">
        <ele>84.800003051758</ele>
        <time>2013-06-09T08:26:13.000Z</time>
      </trkpt>
      <trkpt lat="48.29266" lon="2.5869">
        <ele>83.800003051758</ele>
        <time>2013-06-09T08:26:18.000Z</time>
      </trkpt>
      <trkpt lat="48.29279" lon="2.58727">
        <ele>82.199996948242</ele>
        <time>2013-06-09T08:26:22.000Z</time>
      </trkpt>
      <trkpt lat="48.29286" lon="2.58755">
        <ele>81.400001525879</ele>
        <time>2013-06-09T08:26:26.000Z</time>
      </trkpt>
      <trkpt lat="48.29287" lon="2.58769">
        <ele>81.400001525879</ele>
        <time>2013-06-09T08:26:30.000Z</time>
      </trkpt>
      <trkpt lat="48.29287" lon="2.58773">
        <ele>81.599998474121</ele>
        <time>2013-06-09T08:26:41.000Z</time>
      </trkpt>
      <trkpt lat="48.29289" lon="2.58782">
        <ele>81.400001525879</ele>
        <time>2013-06-09T08:26:47.000Z</time>
      </trkpt>
      <trkpt lat="48.29295" lon="2.588">
        <ele>81.199996948242</ele>
        <time>2013-06-09T08:26:51.000Z</time>
      </trkpt>
      <trkpt lat="48.29298" lon="2.58829">
        <ele>81.400001525879</ele>
        <time>2013-06-09T08:26:55.000Z</time>
      </trkpt>
      <trkpt lat="48.29298" lon="2.58857">
        <ele>81.800003051758</ele>
        <time>2013-06-09T08:26:59.000Z</time>
      </trkpt>
      <trkpt lat="48.29298" lon="2.58864">
        <ele>81.800003051758</ele>
        <time>2013-06-09T08:27:00.000Z</time>
      </trkpt>
      <trkpt lat="48.293" lon="2.58911">
        <ele>82.199996948242</ele>
        <time>2013-06-09T08:27:06.000Z</time>
      </trkpt>
      <trkpt lat="48.293" lon="2.58929">
        <ele>82.199996948242</ele>
        <time>2013-06-09T08:27:08.000Z</time>
      </trkpt>
      <trkpt lat="48.29304" lon="2.58969">
        <ele>81.800003051758</ele>
        <time>2013-06-09T08:27:13.000Z</time>
      </trkpt>
      <trkpt lat="48.29309" lon="2.58994">
        <ele>81.400001525879</ele>
        <time>2013-06-09T08:27:16.000Z</time>
      </trkpt>
      <trkpt lat="48.29324" lon="2.59006">
        <ele>80.400001525879</ele>
        <time>2013-06-09T08:27:21.000Z</time>
      </trkpt>
      <trkpt lat="48.2933" lon="2.58992">
        <ele>80.199996948242</ele>
        <time>2013-06-09T08:27:24.000Z</time>
      </trkpt>
      <trkpt lat="48.29339" lon="2.5898">
        <ele>80</ele>
        <time>2013-06-09T08:27:27.000Z</time>
      </trkpt>
      <trkpt lat="48.29358" lon="2.58966">
        <ele>79.800003051758</ele>
        <time>2013-06-09T08:27:31.000Z</time>
      </trkpt>
      <trkpt lat="48.29382" lon="2.58955">
        <ele>79.599998474121</ele>
        <time>2013-06-09T08:27:36.000Z</time>
      </trkpt>
      <trkpt lat="48.29393" lon="2.58947">
        <ele>79.199996948242</ele>
        <time>2013-06-09T08:27:38.000Z</time>
      </trkpt>
      <trkpt lat="48.29414" lon="2.58925">
        <ele>78.199996948242</ele>
        <time>2013-06-09T08:27:42.000Z</time>
      </trkpt>
      <trkpt lat="48.29436" lon="2.58912">
        <ele>77.400001525879</ele>
        <time>2013-06-09T08:27:47.000Z</time>
      </trkpt>
      <trkpt lat="48.29442" lon="2.5891">
        <ele>77.199996948242</ele>
        <time>2013-06-09T08:27:48.000Z</time>
      </trkpt>
      <trkpt lat="48.29474" lon="2.58896">
        <ele>76.199996948242</ele>
        <time>2013-06-09T08:27:53.000Z</time>
      </trkpt>
      <trkpt lat="48.29511" lon="2.58882">
        <ele>74.400001525879</ele>
        <time>2013-06-09T08:27:59.000Z</time>
      </trkpt>
      <trkpt lat="48.29537" lon="2.58863">
        <ele>72.599998474121</ele>
        <time>2013-06-09T08:28:04.000Z</time>
      </trkpt>
      <trkpt lat="48.2956" lon="2.58858">
        <ele>71.400001525879</ele>
        <time>2013-06-09T08:28:09.000Z</time>
      </trkpt>
      <trkpt lat="48.29563" lon="2.58856">
        <ele>71.400001525879</ele>
        <time>2013-06-09T08:28:12.000Z</time>
      </trkpt>
      <trkpt lat="48.29565" lon="2.58857">
        <ele>71.199996948242</ele>
        <time>2013-06-09T08:28:20.000Z</time>
      </trkpt>
      <trkpt lat="48.29566" lon="2.58854">
        <ele>71.199996948242</ele>
        <time>2013-06-09T08:28:28.000Z</time>
      </trkpt>
      <trkpt lat="48.29568" lon="2.58853">
        <ele>71.199996948242</ele>
        <time>2013-06-09T08:28:52.000Z</time>
      </trkpt>
      <trkpt lat="48.29567" lon="2.58854">
        <ele>71.199996948242</ele>
        <time>2013-06-09T08:28:58.000Z</time>
      </trkpt>
      <trkpt lat="48.2957" lon="2.58855">
        <ele>71</ele>
        <time>2013-06-09T08:29:03.000Z</time>
      </trkpt>
      <trkpt lat="48.29571" lon="2.58854">
        <ele>71</ele>
        <time>2013-06-09T08:29:08.000Z</time>
      </trkpt>
      <trkpt lat="48.29571" lon="2.58854">
        <ele>71</ele>
        <time>2013-06-09T08:29:19.000Z</time>
      </trkpt>
      <trkpt lat="48.29572" lon="2.58853">
        <ele>71</ele>
        <time>2013-06-09T08:29:20.000Z</time>
      </trkpt>
      <trkpt lat="48.29577" lon="2.58838">
        <ele>71</ele>
        <time>2013-06-09T08:29:27.000Z</time>
      </trkpt>
      <trkpt lat="48.29577" lon="2.58832">
        <ele>71.199996948242</ele>
        <time>2013-06-09T08:29:29.000Z</time>
      </trkpt>
      <trkpt lat="48.29572" lon="2.58802">
        <ele>71.800003051758</ele>
        <time>2013-06-09T08:29:36.000Z</time>
      </trkpt>
      <trkpt lat="48.29568" lon="2.58776">
        <ele>72.400001525879</ele>
        <time>2013-06-09T08:29:41.000Z</time>
      </trkpt>
      <trkpt lat="48.29559" lon="2.5875">
        <ele>72.599998474121</ele>
        <time>2013-06-09T08:29:46.000Z</time>
      </trkpt>
      <trkpt lat="48.2955" lon="2.58728">
        <ele>72.599998474121</ele>
        <time>2013-06-09T08:29:51.000Z</time>
      </trkpt>
      <trkpt lat="48.29543" lon="2.58707">
        <ele>72.400001525879</ele>
        <time>2013-06-09T08:29:56.000Z</time>
      </trkpt>
      <trkpt lat="48.29543" lon="2.58692">
        <ele>72.400001525879</ele>
        <time>2013-06-09T08:29:59.000Z</time>
      </trkpt>
      <trkpt lat="48.29543" lon="2.58686">
        <ele>72.400001525879</ele>
        <time>2013-06-09T08:30:05.000Z</time>
      </trkpt>
      <trkpt lat="48.29543" lon="2.58688">
        <ele>72.400001525879</ele>
        <time>2013-06-09T08:30:13.000Z</time>
      </trkpt>
      <trkpt lat="48.29543" lon="2.58692">
        <ele>72.400001525879</ele>
        <time>2013-06-09T08:30:16.000Z</time>
      </trkpt>
      <trkpt lat="48.29541" lon="2.58702">
        <ele>72.400001525879</ele>
        <time>2013-06-09T08:30:19.000Z</time>
      </trkpt>
      <trkpt lat="48.29535" lon="2.5871">
        <ele>72.400001525879</ele>
        <time>2013-06-09T08:30:22.000Z</time>
      </trkpt>
      <trkpt lat="48.29526" lon="2.58703">
        <ele>72.199996948242</ele>
        <time>2013-06-09T08:30:26.000Z</time>
      </trkpt>
      <trkpt lat="48.29512" lon="2.58687">
        <ele>72</ele>
        <time>2013-06-09T08:30:32.000Z</time>
      </trkpt>
      <trkpt lat="48.29506" lon="2.58672">
        <ele>72</ele>
        <time>2013-06-09T08:30:36.000Z</time>
      </trkpt>
      <trkpt lat="48.29497" lon="2.58653">
        <ele>72.199996948242</ele>
        <time>2013-06-09T08:30:42.000Z</time>
      </trkpt>
      <trkpt lat="48.29488" lon="2.58631">
        <ele>73.199996948242</ele>
        <time>2013-06-09T08:30:49.000Z</time>
      </trkpt>
      <trkpt lat="48.2948" lon="2.58618">
        <ele>73.800003051758</ele>
        <time>2013-06-09T08:30:55.000Z</time>
      </trkpt>
      <trkpt lat="48.29473" lon="2.58606">
        <ele>74.400001525879</ele>
        <time>2013-06-09T08:31:00.000Z</time>
      </trkpt>
      <trkpt lat="48.29461" lon="2.58597">
        <ele>75.599998474121</ele>
        <time>2013-06-09T08:31:04.000Z</time>
      </trkpt>
      <trkpt lat="48.29448" lon="2.58579">
        <ele>76.800003051758</ele>
        <time>2013-06-09T08:31:10.000Z</time>
      </trkpt>
      <trkpt lat="48.29442" lon="2.58573">
        <ele>77.199996948242</ele>
        <time>2013-06-09T08:31:15.000Z</time>
      </trkpt>
      <trkpt lat="48.29437" lon="2.58565">
        <ele>77.599998474121</ele>
        <time>2013-06-09T08:31:36.000Z</time>
      </trkpt>
      <trkpt lat="48.29435" lon="2.58564">
        <ele>77.599998474121</ele>
        <time>2013-06-09T08:31:37.000Z</time>
      </trkpt>
      <trkpt lat="48.29422" lon="2.58551">
        <ele>78.599998474121</ele>
        <time>2013-06-09T08:31:43.000Z</time>
      </trkpt>
      <trkpt lat="48.29409" lon="2.58538">
        <ele>79.199996948242</ele>
        <time>2013-06-09T08:31:49.000Z</time>
      </trkpt>
      <trkpt lat="48.29408" lon="2.58536">
        <ele>79.199996948242</ele>
        <time>2013-06-09T08:31:53.000Z</time>
      </trkpt>
      <trkpt lat="48.29404" lon="2.58528">
        <ele>79.199996948242</ele>
        <time>2013-06-09T08:32:07.000Z</time>
      </trkpt>
      <trkpt lat="48.29399" lon="2.58521">
        <ele>79.400001525879</ele>
        <time>2013-06-09T08:32:10.000Z</time>
      </trkpt>
      <trkpt lat="48.29393" lon="2.58515">
        <ele>79.599998474121</ele>
        <time>2013-06-09T08:32:12.000Z</time>
      </trkpt>
      <trkpt lat="48.29375" lon="2.58493">
        <ele>80</ele>
        <time>2013-06-09T08:32:19.000Z</time>
      </trkpt>
      <trkpt lat="48.2936" lon="2.58477">
        <ele>80.800003051758</ele>
        <time>2013-06-09T08:32:24.000Z</time>
      </trkpt>
      <trkpt lat="48.29347" lon="2.58457">
        <ele>81.599998474121</ele>
        <time>2013-06-09T08:32:29.000Z</time>
      </trkpt>
      <trkpt lat="48.29335" lon="2.58433">
        <ele>82.400001525879</ele>
        <time>2013-06-09T08:32:35.000Z</time>
      </trkpt>
      <trkpt lat="48.29324" lon="2.58412">
        <ele>83.400001525879</ele>
        <time>2013-06-09T08:32:40.000Z</time>
      </trkpt>
      <trkpt lat="48.29311" lon="2.58383">
        <ele>84.599998474121</ele>
        <time>2013-06-09T08:32:46.000Z</time>
      </trkpt>
      <trkpt lat="48.29303" lon="2.58358">
        <ele>85.599998474121</ele>
        <time>2013-06-09T08:32:51.000Z</time>
      </trkpt>
      <trkpt lat="48.29286" lon="2.58328">
        <ele>87.199996948242</ele>
        <time>2013-06-09T08:32:58.000Z</time>
      </trkpt>
      <trkpt lat="48.29271" lon="2.58306">
        <ele>88.199996948242</ele>
        <time>2013-06-09T08:33:04.000Z</time>
      </trkpt>
      <trkpt lat="48.29256" lon="2.58284">
        <ele>89.199996948242</ele>
        <time>2013-06-09T08:33:11.000Z</time>
      </trkpt>
      <trkpt lat="48.29249" lon="2.58268">
        <ele>89.800003051758</ele>
        <time>2013-06-09T08:33:16.000Z</time>
      </trkpt>
      <trkpt lat="48.29243" lon="2.58257">
        <ele>90.599998474121</ele>
        <time>2013-06-09T08:33:22.000Z</time>
      </trkpt>
      <trkpt lat="48.29244" lon="2.58256">
        <ele>90.400001525879</ele>
        <time>2013-06-09T08:33:27.000Z</time>
      </trkpt>
      <trkpt lat="48.29241" lon="2.58255">
        <ele>90.800003051758</ele>
        <time>2013-06-09T08:33:37.000Z</time>
      </trkpt>
      <trkpt lat="48.29239" lon="2.58253">
        <ele>91</ele>
        <time>2013-06-09T08:33:46.000Z</time>
      </trkpt>
      <trkpt lat="48.29237" lon="2.58251">
        <ele>91.199996948242</ele>
        <time>2013-06-09T08:33:59.000Z</time>
      </trkpt>
      <trkpt lat="48.29239" lon="2.58253">
        <ele>91</ele>
        <time>2013-06-09T08:34:06.000Z</time>
      </trkpt>
      <trkpt lat="48.29241" lon="2.58255">
        <ele>90.800003051758</ele>
        <time>2013-06-09T08:34:08.000Z</time>
      </trkpt>
      <trkpt lat="48.29252" lon="2.5825">
        <ele>89.800003051758</ele>
        <time>2013-06-09T08:34:12.000Z</time>
      </trkpt>
      <trkpt lat="48.29262" lon="2.58239">
        <ele>89.800003051758</ele>
        <time>2013-06-09T08:34:15.000Z</time>
      </trkpt>
      <trkpt lat="48.29278" lon="2.58227">
        <ele>89.599998474121</ele>
        <time>2013-06-09T08:34:18.000Z</time>
      </trkpt>
      <trkpt lat="48.29299" lon="2.58219">
        <ele>89</ele>
        <time>2013-06-09T08:34:21.000Z</time>
      </trkpt>
      <trkpt lat="48.29312" lon="2.58216">
        <ele>88.599998474121</ele>
        <time>2013-06-09T08:34:23.000Z</time>
      </trkpt>
      <trkpt lat="48.29334" lon="2.58215">
        <ele>87.599998474121</ele>
        <time>2013-06-09T08:34:28.000Z</time>
      </trkpt>
      <trkpt lat="48.29336" lon="2.58216">
        <ele>87.400001525879</ele>
        <time>2013-06-09T08:34:29.000Z</time>
      </trkpt>
      <trkpt lat="48.29352" lon="2.58214">
        <ele>87</ele>
        <time>2013-06-09T08:34:34.000Z</time>
      </trkpt>
      <trkpt lat="48.29365" lon="2.58218">
        <ele>86.599998474121</ele>
        <time>2013-06-09T08:34:38.000Z</time>
      </trkpt>
      <trkpt lat="48.29387" lon="2.5822">
        <ele>85.800003051758</ele>
        <time>2013-06-09T08:34:43.000Z</time>
      </trkpt>
      <trkpt lat="48.2941" lon="2.58226">
        <ele>85</ele>
        <time>2013-06-09T08:34:48.000Z</time>
      </trkpt>
      <trkpt lat="48.29446" lon="2.58231">
        <ele>84.800003051758</ele>
        <time>2013-06-09T08:34:55.000Z</time>
      </trkpt>
      <trkpt lat="48.2947" lon="2.58251">
        <ele>84.599998474121</ele>
        <time>2013-06-09T08:35:00.000Z</time>
      </trkpt>
      <trkpt lat="48.29502" lon="2.58295">
        <ele>82.599998474121</ele>
        <time>2013-06-09T08:35:06.000Z</time>
      </trkpt>
      <trkpt lat="48.29531" lon="2.58341">
        <ele>79.599998474121</ele>
        <time>2013-06-09T08:35:12.000Z</time>
      </trkpt>
      <trkpt lat="48.29546" lon="2.58383">
        <ele>77.800003051758</ele>
        <time>2013-06-09T08:35:16.000Z</time>
      </trkpt>
      <trkpt lat="48.29556" lon="2.58403">
        <ele>77.199996948242</ele>
        <time>2013-06-09T08:35:18.000Z</time>
      </trkpt>
      <trkpt lat="48.29566" lon="2.58422">
        <ele>76.800003051758</ele>
        <time>2013-06-09T08:35:20.000Z</time>
      </trkpt>
      <trkpt lat="48.29586" lon="2.58455">
        <ele>76.400001525879</ele>
        <time>2013-06-09T08:35:24.000Z</time>
      </trkpt>
      <trkpt lat="48.29597" lon="2.58481">
        <ele>76.400001525879</ele>
        <time>2013-06-09T08:35:27.000Z</time>
      </trkpt>
      <trkpt lat="48.29604" lon="2.58506">
        <ele>76.400001525879</ele>
        <time>2013-06-09T08:35:30.000Z</time>
      </trkpt>
      <trkpt lat="48.29609" lon="2.58513">
        <ele>76.400001525879</ele>
        <time>2013-06-09T08:35:34.000Z</time>
      </trkpt>
      <trkpt lat="48.29612" lon="2.58496">
        <ele>76.599998474121</ele>
        <time>2013-06-09T08:35:38.000Z</time>
      </trkpt>
      <trkpt lat="48.29609" lon="2.58461">
        <ele>77</ele>
        <time>2013-06-09T08:35:44.000Z</time>
      </trkpt>
      <trkpt lat="48.29605" lon="2.58427">
        <ele>77.199996948242</ele>
        <time>2013-06-09T08:35:49.000Z</time>
      </trkpt>
      <trkpt lat="48.29605" lon="2.58408">
        <ele>77.599998474121</ele>
        <time>2013-06-09T08:35:52.000Z</time>
      </trkpt>
      <trkpt lat="48.29607" lon="2.58389">
        <ele>77.800003051758</ele>
        <time>2013-06-09T08:35:55.000Z</time>
      </trkpt>
      <trkpt lat="48.29611" lon="2.5835">
        <ele>78.400001525879</ele>
        <time>2013-06-09T08:36:02.000Z</time>
      </trkpt>
      <trkpt lat="48.29617" lon="2.58324">
        <ele>78.800003051758</ele>
        <time>2013-06-09T08:36:06.000Z</time>
      </trkpt>
      <trkpt lat="48.29624" lon="2.58296">
        <ele>79.400001525879</ele>
        <time>2013-06-09T08:36:12.000Z</time>
      </trkpt>
      <trkpt lat="48.2963" lon="2.58276">
        <ele>79.800003051758</ele>
        <time>2013-06-09T08:36:18.000Z</time>
      </trkpt>
      <trkpt lat="48.29635" lon="2.58254">
        <ele>80</ele>
        <time>2013-06-09T08:36:23.000Z</time>
      </trkpt>
      <trkpt lat="48.29648" lon="2.58242">
        <ele>80.599998474121</ele>
        <time>2013-06-09T08:36:29.000Z</time>
      </trkpt>
      <trkpt lat="48.29656" lon="2.58238">
        <ele>81</ele>
        <time>2013-06-09T08:36:32.000Z</time>
      </trkpt>
      <trkpt lat="48.29668" lon="2.5825">
        <ele>80.800003051758</ele>
        <time>2013-06-09T08:36:37.000Z</time>
      </trkpt>
      <trkpt lat="48.29675" lon="2.58258">
        <ele>80.599998474121</ele>
        <time>2013-06-09T08:36:39.000Z</time>
      </trkpt>
      <trkpt lat="48.29689" lon="2.58274">
        <ele>80</ele>
        <time>2013-06-09T08:36:44.000Z</time>
      </trkpt>
      <trkpt lat="48.29691" lon="2.58278">
        <ele>80</ele>
        <time>2013-06-09T08:36:45.000Z</time>
      </trkpt>
      <trkpt lat="48.29691" lon="2.58278">
        <ele>80</ele>
        <time>2013-06-09T08:36:45.000Z</time>
      </trkpt>
      <trkpt lat="48.29707" lon="2.583">
        <ele>79.400001525879</ele>
        <time>2013-06-09T08:36:51.000Z</time>
      </trkpt>
      <trkpt lat="48.29718" lon="2.58314">
        <ele>78.800003051758</ele>
        <time>2013-06-09T08:36:55.000Z</time>
      </trkpt>
      <trkpt lat="48.29726" lon="2.58325">
        <ele>78.599998474121</ele>
        <time>2013-06-09T08:36:57.000Z</time>
      </trkpt>
      <trkpt lat="48.29734" lon="2.58334">
        <ele>78.199996948242</ele>
        <time>2013-06-09T08:36:59.000Z</time>
      </trkpt>
      <trkpt lat="48.29747" lon="2.58352">
        <ele>78.199996948242</ele>
        <time>2013-06-09T08:37:02.000Z</time>
      </trkpt>
      <trkpt lat="48.29755" lon="2.58363">
        <ele>78.400001525879</ele>
        <time>2013-06-09T08:37:04.000Z</time>
      </trkpt>
      <trkpt lat="48.29778" lon="2.58392">
        <ele>79.599998474121</ele>
        <time>2013-06-09T08:37:10.000Z</time>
      </trkpt>
      <trkpt lat="48.29792" lon="2.5841">
        <ele>80.400001525879</ele>
        <time>2013-06-09T08:37:13.000Z</time>
      </trkpt>
      <trkpt lat="48.29804" lon="2.58425">
        <ele>80.599998474121</ele>
        <time>2013-06-09T08:37:16.000Z</time>
      </trkpt>
      <trkpt lat="48.2982" lon="2.58446">
        <ele>80.800003051758</ele>
        <time>2013-06-09T08:37:20.000Z</time>
      </trkpt>
      <trkpt lat="48.29827" lon="2.5846">
        <ele>80.599998474121</ele>
        <time>2013-06-09T08:37:23.000Z</time>
      </trkpt>
      <trkpt lat="48.29834" lon="2.58479">
        <ele>80.400001525879</ele>
        <time>2013-06-09T08:37:27.000Z</time>
      </trkpt>
      <trkpt lat="48.29846" lon="2.58487">
        <ele>79.400001525879</ele>
        <time>2013-06-09T08:37:31.000Z</time>
      </trkpt>
      <trkpt lat="48.29856" lon="2.58495">
        <ele>78.800003051758</ele>
        <time>2013-06-09T08:37:34.000Z</time>
      </trkpt>
      <trkpt lat="48.29864" lon="2.58499">
        <ele>78.199996948242</ele>
        <time>2013-06-09T08:37:37.000Z</time>
      </trkpt>
      <trkpt lat="48.29869" lon="2.5851">
        <ele>77.800003051758</ele>
        <time>2013-06-09T08:37:41.000Z</time>
      </trkpt>
      <trkpt lat="48.29873" lon="2.58522">
        <ele>77.400001525879</ele>
        <time>2013-06-09T08:37:44.000Z</time>
      </trkpt>
      <trkpt lat="48.29884" lon="2.58538">
        <ele>77</ele>
        <time>2013-06-09T08:37:49.000Z</time>
      </trkpt>
      <trkpt lat="48.29897" lon="2.58543">
        <ele>76.400001525879</ele>
        <time>2013-06-09T08:37:54.000Z</time>
      </trkpt>
      <trkpt lat="48.29913" lon="2.58562">
        <ele>75.800003051758</ele>
        <time>2013-06-09T08:37:59.000Z</time>
      </trkpt>
      <trkpt lat="48.29924" lon="2.5857">
        <ele>75.599998474121</ele>
        <time>2013-06-09T08:38:03.000Z</time>
      </trkpt>
      <trkpt lat="48.29928" lon="2.58571">
        <ele>75.400001525879</ele>
        <time>2013-06-09T08:38:08.000Z</time>
      </trkpt>
      <trkpt lat="48.2993" lon="2.5857">
        <ele>75.400001525879</ele>
        <time>2013-06-09T08:38:23.000Z</time>
      </trkpt>
      <trkpt lat="48.29943" lon="2.58556">
        <ele>75</ele>
        <time>2013-06-09T08:38:28.000Z</time>
      </trkpt>
      <trkpt lat="48.29951" lon="2.58549">
        <ele>74.800003051758</ele>
        <time>2013-06-09T08:38:32.000Z</time>
      </trkpt>
      <trkpt lat="48.29956" lon="2.58545">
        <ele>74.599998474121</ele>
        <time>2013-06-09T08:38:36.000Z</time>
      </trkpt>
      <trkpt lat="48.29957" lon="2.58544">
        <ele>74.599998474121</ele>
        <time>2013-06-09T08:38:37.000Z</time>
      </trkpt>
      <trkpt lat="48.2997" lon="2.58536">
        <ele>74.599998474121</ele>
        <time>2013-06-09T08:38:42.000Z</time>
      </trkpt>
      <trkpt lat="48.29974" lon="2.58528">
        <ele>74.599998474121</ele>
        <time>2013-06-09T08:38:45.000Z</time>
      </trkpt>
      <trkpt lat="48.29976" lon="2.58526">
        <ele>74.599998474121</ele>
        <time>2013-06-09T08:38:53.000Z</time>
      </trkpt>
      <trkpt lat="48.29977" lon="2.58523">
        <ele>74.599998474121</ele>
        <time>2013-06-09T08:39:00.000Z</time>
      </trkpt>
      <trkpt lat="48.29979" lon="2.58521">
        <ele>74.599998474121</ele>
        <time>2013-06-09T08:39:16.000Z</time>
      </trkpt>
      <trkpt lat="48.29978" lon="2.58517">
        <ele>74.599998474121</ele>
        <time>2013-06-09T08:39:35.000Z</time>
      </trkpt>
      <trkpt lat="48.29981" lon="2.58519">
        <ele>74.599998474121</ele>
        <time>2013-06-09T08:39:57.000Z</time>
      </trkpt>
      <trkpt lat="48.2998" lon="2.58519">
        <ele>74.599998474121</ele>
        <time>2013-06-09T08:40:07.000Z</time>
      </trkpt>
      <trkpt lat="48.2998" lon="2.58519">
        <ele>74.599998474121</ele>
        <time>2013-06-09T08:40:13.000Z</time>
      </trkpt>
      <trkpt lat="48.29984" lon="2.58516">
        <ele>74.599998474121</ele>
        <time>2013-06-09T08:40:21.000Z</time>
      </trkpt>
      <trkpt lat="48.29986" lon="2.58514">
        <ele>74.599998474121</ele>
        <time>2013-06-09T08:40:26.000Z</time>
      </trkpt>
      <trkpt lat="48.29987" lon="2.58513">
        <ele>74.599998474121</ele>
        <time>2013-06-09T08:40:28.000Z</time>
      </trkpt>
      <trkpt lat="48.29998" lon="2.58499">
        <ele>75</ele>
        <time>2013-06-09T08:40:34.000Z</time>
      </trkpt>
      <trkpt lat="48.30002" lon="2.58494">
        <ele>75</ele>
        <time>2013-06-09T08:40:36.000Z</time>
      </trkpt>
      <trkpt lat="48.30008" lon="2.58484">
        <ele>75.199996948242</ele>
        <time>2013-06-09T08:40:41.000Z</time>
      </trkpt>
      <trkpt lat="48.30019" lon="2.58469">
        <ele>75.599998474121</ele>
        <time>2013-06-09T08:40:47.000Z</time>
      </trkpt>
      <trkpt lat="48.30022" lon="2.58466">
        <ele>75.599998474121</ele>
        <time>2013-06-09T08:40:48.000Z</time>
      </trkpt>
      <trkpt lat="48.30033" lon="2.58469">
        <ele>76</ele>
        <time>2013-06-09T08:40:52.000Z</time>
      </trkpt>
      <trkpt lat="48.30043" lon="2.58471">
        <ele>76.199996948242</ele>
        <time>2013-06-09T08:40:56.000Z</time>
      </trkpt>
      <trkpt lat="48.30056" lon="2.5847">
        <ele>76.800003051758</ele>
        <time>2013-06-09T08:41:02.000Z</time>
      </trkpt>
      <trkpt lat="48.30068" lon="2.58483">
        <ele>76.800003051758</ele>
        <time>2013-06-09T08:41:07.000Z</time>
      </trkpt>
      <trkpt lat="48.30082" lon="2.58491">
        <ele>77</ele>
        <time>2013-06-09T08:41:11.000Z</time>
      </trkpt>
      <trkpt lat="48.30086" lon="2.585">
        <ele>77</ele>
        <time>2013-06-09T08:41:13.000Z</time>
      </trkpt>
      <trkpt lat="48.301" lon="2.58518">
        <ele>77.199996948242</ele>
        <time>2013-06-09T08:41:18.000Z</time>
      </trkpt>
      <trkpt lat="48.30114" lon="2.58532">
        <ele>77.400001525879</ele>
        <time>2013-06-09T08:41:22.000Z</time>
      </trkpt>
      <trkpt lat="48.30122" lon="2.5854">
        <ele>77.599998474121</ele>
        <time>2013-06-09T08:41:24.000Z</time>
      </trkpt>
      <trkpt lat="48.30134" lon="2.58547">
        <ele>77.800003051758</ele>
        <time>2013-06-09T08:41:27.000Z</time>
      </trkpt>
      <trkpt lat="48.30144" lon="2.58557">
        <ele>77.800003051758</ele>
        <time>2013-06-09T08:41:30.000Z</time>
      </trkpt>
      <trkpt lat="48.30151" lon="2.58572">
        <ele>77.800003051758</ele>
        <time>2013-06-09T08:41:33.000Z</time>
      </trkpt>
      <trkpt lat="48.30164" lon="2.58585">
        <ele>77.800003051758</ele>
        <time>2013-06-09T08:41:37.000Z</time>
      </trkpt>
      <trkpt lat="48.30167" lon="2.58586">
        <ele>77.800003051758</ele>
        <time>2013-06-09T08:41:38.000Z</time>
      </trkpt>
      <trkpt lat="48.30178" lon="2.58586">
        <ele>78.599998474121</ele>
        <time>2013-06-09T08:41:44.000Z</time>
      </trkpt>
      <trkpt lat="48.30187" lon="2.58588">
        <ele>79.199996948242</ele>
        <time>2013-06-09T08:41:48.000Z</time>
      </trkpt>
      <trkpt lat="48.302" lon="2.58609">
        <ele>79.800003051758</ele>
        <time>2013-06-09T08:41:54.000Z</time>
      </trkpt>
      <trkpt lat="48.30205" lon="2.58616">
        <ele>80.199996948242</ele>
        <time>2013-06-09T08:41:56.000Z</time>
      </trkpt>
      <trkpt lat="48.3022" lon="2.58632">
        <ele>80.800003051758</ele>
        <time>2013-06-09T08:42:01.000Z</time>
      </trkpt>
      <trkpt lat="48.30222" lon="2.58635">
        <ele>80.800003051758</ele>
        <time>2013-06-09T08:42:02.000Z</time>
      </trkpt>
      <trkpt lat="48.30234" lon="2.58653">
        <ele>81.199996948242</ele>
        <time>2013-06-09T08:42:07.000Z</time>
      </trkpt>
      <trkpt lat="48.30245" lon="2.58677">
        <ele>81.800003051758</ele>
        <time>2013-06-09T08:42:12.000Z</time>
      </trkpt>
      <trkpt lat="48.3025" lon="2.58697">
        <ele>82.199996948242</ele>
        <time>2013-06-09T08:42:15.000Z</time>
      </trkpt>
      <trkpt lat="48.30254" lon="2.58721">
        <ele>82.800003051758</ele>
        <time>2013-06-09T08:42:19.000Z</time>
      </trkpt>
      <trkpt lat="48.30261" lon="2.58746">
        <ele>83.400001525879</ele>
        <time>2013-06-09T08:42:24.000Z</time>
      </trkpt>
      <trkpt lat="48.30271" lon="2.58764">
        <ele>83.599998474121</ele>
        <time>2013-06-09T08:42:27.000Z</time>
      </trkpt>
      <trkpt lat="48.30285" lon="2.58791">
        <ele>83.800003051758</ele>
        <time>2013-06-09T08:42:32.000Z</time>
      </trkpt>
      <trkpt lat="48.3029" lon="2.58799">
        <ele>84</ele>
        <time>2013-06-09T08:42:34.000Z</time>
      </trkpt>
      <trkpt lat="48.30302" lon="2.58823">
        <ele>84</ele>
        <time>2013-06-09T08:42:39.000Z</time>
      </trkpt>
      <trkpt lat="48.30304" lon="2.58829">
        <ele>84</ele>
        <time>2013-06-09T08:42:40.000Z</time>
      </trkpt>
      <trkpt lat="48.30316" lon="2.58855">
        <ele>83.599998474121</ele>
        <time>2013-06-09T08:42:45.000Z</time>
      </trkpt>
      <trkpt lat="48.30319" lon="2.58863">
        <ele>83.599998474121</ele>
        <time>2013-06-09T08:42:48.000Z</time>
      </trkpt>
      <trkpt lat="48.30318" lon="2.58873">
        <ele>83.400001525879</ele>
        <time>2013-06-09T08:43:01.000Z</time>
      </trkpt>
      <trkpt lat="48.30318" lon="2.5888">
        <ele>83</ele>
        <time>2013-06-09T08:43:06.000Z</time>
      </trkpt>
      <trkpt lat="48.30317" lon="2.5888">
        <ele>83</ele>
        <time>2013-06-09T08:43:17.000Z</time>
      </trkpt>
      <trkpt lat="48.30315" lon="2.58879">
        <ele>83</ele>
        <time>2013-06-09T08:43:30.000Z</time>
      </trkpt>
      <trkpt lat="48.30318" lon="2.58883">
        <ele>83</ele>
        <time>2013-06-09T08:43:38.000Z</time>
      </trkpt>
      <trkpt lat="48.3032" lon="2.58889">
        <ele>83</ele>
        <time>2013-06-09T08:43:40.000Z</time>
      </trkpt>
      <trkpt lat="48.30329" lon="2.58913">
        <ele>82.800003051758</ele>
        <time>2013-06-09T08:43:47.000Z</time>
      </trkpt>
      <trkpt lat="48.3033" lon="2.58915">
        <ele>82.800003051758</ele>
        <time>2013-06-09T08:43:48.000Z</time>
      </trkpt>
      <trkpt lat="48.3033" lon="2.58923">
        <ele>83.199996948242</ele>
        <time>2013-06-09T08:43:57.000Z</time>
      </trkpt>
      <trkpt lat="48.30317" lon="2.58933">
        <ele>83</ele>
        <time>2013-06-09T08:44:01.000Z</time>
      </trkpt>
      <trkpt lat="48.30294" lon="2.58954">
        <ele>82.400001525879</ele>
        <time>2013-06-09T08:44:06.000Z</time>
      </trkpt>
      <trkpt lat="48.3028" lon="2.58967">
        <ele>81.800003051758</ele>
        <time>2013-06-09T08:44:09.000Z</time>
      </trkpt>
      <trkpt lat="48.3027" lon="2.58995">
        <ele>81.800003051758</ele>
        <time>2013-06-09T08:44:13.000Z</time>
      </trkpt>
      <trkpt lat="48.30269" lon="2.58999">
        <ele>81.800003051758</ele>
        <time>2013-06-09T08:44:14.000Z</time>
      </trkpt>
      <trkpt lat="48.30265" lon="2.59011">
        <ele>81.400001525879</ele>
        <time>2013-06-09T08:44:16.000Z</time>
      </trkpt>
      <trkpt lat="48.3025" lon="2.59054">
        <ele>80</ele>
        <time>2013-06-09T08:44:22.000Z</time>
      </trkpt>
      <trkpt lat="48.30231" lon="2.59099">
        <ele>78.599998474121</ele>
        <time>2013-06-09T08:44:27.000Z</time>
      </trkpt>
      <trkpt lat="48.30227" lon="2.59107">
        <ele>78.199996948242</ele>
        <time>2013-06-09T08:44:28.000Z</time>
      </trkpt>
      <trkpt lat="48.302" lon="2.59173">
        <ele>75.599998474121</ele>
        <time>2013-06-09T08:44:35.000Z</time>
      </trkpt>
      <trkpt lat="48.30176" lon="2.59226">
        <ele>73.800003051758</ele>
        <time>2013-06-09T08:44:41.000Z</time>
      </trkpt>
      <trkpt lat="48.30157" lon="2.59273">
        <ele>73.400001525879</ele>
        <time>2013-06-09T08:44:46.000Z</time>
      </trkpt>
      <trkpt lat="48.3014" lon="2.59305">
        <ele>74.400001525879</ele>
        <time>2013-06-09T08:44:50.000Z</time>
      </trkpt>
      <trkpt lat="48.30121" lon="2.59362">
        <ele>75.199996948242</ele>
        <time>2013-06-09T08:44:56.000Z</time>
      </trkpt>
      <trkpt lat="48.30109" lon="2.59413">
        <ele>75.400001525879</ele>
        <time>2013-06-09T08:45:01.000Z</time>
      </trkpt>
      <trkpt lat="48.30103" lon="2.59431">
        <ele>75.599998474121</ele>
        <time>2013-06-09T08:45:03.000Z</time>
      </trkpt>
      <trkpt lat="48.30087" lon="2.5946">
        <ele>75.800003051758</ele>
        <time>2013-06-09T08:45:07.000Z</time>
      </trkpt>
      <trkpt lat="48.30064" lon="2.5949">
        <ele>77.599998474121</ele>
        <time>2013-06-09T08:45:13.000Z</time>
      </trkpt>
      <trkpt lat="48.30057" lon="2.595">
        <ele>78</ele>
        <time>2013-06-09T08:45:15.000Z</time>
      </trkpt>
      <trkpt lat="48.30034" lon="2.59535">
        <ele>78.599998474121</ele>
        <time>2013-06-09T08:45:21.000Z</time>
      </trkpt>
      <trkpt lat="48.30023" lon="2.59551">
        <ele>78.599998474121</ele>
        <time>2013-06-09T08:45:24.000Z</time>
      </trkpt>
      <trkpt lat="48.30008" lon="2.59574">
        <ele>78</ele>
        <time>2013-06-09T08:45:29.000Z</time>
      </trkpt>
      <trkpt lat="48.29999" lon="2.59591">
        <ele>77.800003051758</ele>
        <time>2013-06-09T08:45:33.000Z</time>
      </trkpt>
      <trkpt lat="48.29986" lon="2.59616">
        <ele>77.800003051758</ele>
        <time>2013-06-09T08:45:38.000Z</time>
      </trkpt>
      <trkpt lat="48.2997" lon="2.59648">
        <ele>77.599998474121</ele>
        <time>2013-06-09T08:45:43.000Z</time>
      </trkpt>
      <trkpt lat="48.2995" lon="2.59681">
        <ele>77.400001525879</ele>
        <time>2013-06-09T08:45:48.000Z</time>
      </trkpt>
      <trkpt lat="48.29928" lon="2.59723">
        <ele>77.199996948242</ele>
        <time>2013-06-09T08:45:54.000Z</time>
      </trkpt>
      <trkpt lat="48.29913" lon="2.59754">
        <ele>76.599998474121</ele>
        <time>2013-06-09T08:45:58.000Z</time>
      </trkpt>
      <trkpt lat="48.29891" lon="2.59791">
        <ele>75.199996948242</ele>
        <time>2013-06-09T08:46:02.000Z</time>
      </trkpt>
      <trkpt lat="48.29887" lon="2.59799">
        <ele>75</ele>
        <time>2013-06-09T08:46:03.000Z</time>
      </trkpt>
      <trkpt lat="48.29866" lon="2.59818">
        <ele>73.400001525879</ele>
        <time>2013-06-09T08:46:07.000Z</time>
      </trkpt>
      <trkpt lat="48.29855" lon="2.59835">
        <ele>72.400001525879</ele>
        <time>2013-06-09T08:46:11.000Z</time>
      </trkpt>
      <trkpt lat="48.29849" lon="2.59835">
        <ele>72</ele>
        <time>2013-06-09T08:46:15.000Z</time>
      </trkpt>
      <trkpt lat="48.29834" lon="2.59826">
        <ele>71</ele>
        <time>2013-06-09T08:46:19.000Z</time>
      </trkpt>
      <trkpt lat="48.29811" lon="2.59815">
        <ele>70.599998474121</ele>
        <time>2013-06-09T08:46:25.000Z</time>
      </trkpt>
      <trkpt lat="48.29797" lon="2.59806">
        <ele>70.400001525879</ele>
        <time>2013-06-09T08:46:30.000Z</time>
      </trkpt>
      <trkpt lat="48.29792" lon="2.59806">
        <ele>70.199996948242</ele>
        <time>2013-06-09T08:46:35.000Z</time>
      </trkpt>
      <trkpt lat="48.29791" lon="2.59805">
        <ele>70.199996948242</ele>
        <time>2013-06-09T08:46:37.000Z</time>
      </trkpt>
      <trkpt lat="48.29786" lon="2.598">
        <ele>70.199996948242</ele>
        <time>2013-06-09T08:46:45.000Z</time>
      </trkpt>
      <trkpt lat="48.29787" lon="2.59799">
        <ele>70.199996948242</ele>
        <time>2013-06-09T08:46:53.000Z</time>
      </trkpt>
      <trkpt lat="48.29789" lon="2.59796">
        <ele>70.199996948242</ele>
        <time>2013-06-09T08:47:05.000Z</time>
      </trkpt>
      <trkpt lat="48.29789" lon="2.59798">
        <ele>70.199996948242</ele>
        <time>2013-06-09T08:47:12.000Z</time>
      </trkpt>
      <trkpt lat="48.29785" lon="2.59799">
        <ele>70.199996948242</ele>
        <time>2013-06-09T08:47:24.000Z</time>
      </trkpt>
      <trkpt lat="48.29788" lon="2.59801">
        <ele>70.199996948242</ele>
        <time>2013-06-09T08:47:46.000Z</time>
      </trkpt>
      <trkpt lat="48.29787" lon="2.59803">
        <ele>70.199996948242</ele>
        <time>2013-06-09T08:47:55.000Z</time>
      </trkpt>
      <trkpt lat="48.29786" lon="2.59805">
        <ele>70.199996948242</ele>
        <time>2013-06-09T08:48:04.000Z</time>
      </trkpt>
      <trkpt lat="48.29786" lon="2.59809">
        <ele>70</ele>
        <time>2013-06-09T08:48:30.000Z</time>
      </trkpt>
      <trkpt lat="48.29785" lon="2.59804">
        <ele>70</ele>
        <time>2013-06-09T08:48:35.000Z</time>
      </trkpt>
      <trkpt lat="48.29785" lon="2.59806">
        <ele>70</ele>
        <time>2013-06-09T08:48:41.000Z</time>
      </trkpt>
      <trkpt lat="48.29779" lon="2.59807">
        <ele>70</ele>
        <time>2013-06-09T08:48:47.000Z</time>
      </trkpt>
      <trkpt lat="48.29777" lon="2.59812">
        <ele>69.800003051758</ele>
        <time>2013-06-09T08:48:53.000Z</time>
      </trkpt>
      <trkpt lat="48.29777" lon="2.59817">
        <ele>69.800003051758</ele>
        <time>2013-06-09T08:49:00.000Z</time>
      </trkpt>
      <trkpt lat="48.29774" lon="2.59816">
        <ele>69.599998474121</ele>
        <time>2013-06-09T08:49:13.000Z</time>
      </trkpt>
      <trkpt lat="48.29773" lon="2.59813">
        <ele>69.599998474121</ele>
        <time>2013-06-09T08:49:23.000Z</time>
      </trkpt>
      <trkpt lat="48.29772" lon="2.5981">
        <ele>69.800003051758</ele>
        <time>2013-06-09T08:49:35.000Z</time>
      </trkpt>
      <trkpt lat="48.29771" lon="2.59807">
        <ele>69.800003051758</ele>
        <time>2013-06-09T08:49:41.000Z</time>
      </trkpt>
      <trkpt lat="48.29771" lon="2.59802">
        <ele>69.800003051758</ele>
        <time>2013-06-09T08:49:47.000Z</time>
      </trkpt>
      <trkpt lat="48.29775" lon="2.59797">
        <ele>70</ele>
        <time>2013-06-09T08:49:52.000Z</time>
      </trkpt>
      <trkpt lat="48.29776" lon="2.598">
        <ele>70</ele>
        <time>2013-06-09T08:50:09.000Z</time>
      </trkpt>
      <trkpt lat="48.29774" lon="2.59796">
        <ele>70</ele>
        <time>2013-06-09T08:50:17.000Z</time>
      </trkpt>
      <trkpt lat="48.29779" lon="2.59799">
        <ele>70</ele>
        <time>2013-06-09T08:50:29.000Z</time>
      </trkpt>
      <trkpt lat="48.29783" lon="2.59801">
        <ele>70</ele>
        <time>2013-06-09T08:50:42.000Z</time>
      </trkpt>
      <trkpt lat="48.2978" lon="2.59798">
        <ele>70</ele>
        <time>2013-06-09T08:50:52.000Z</time>
      </trkpt>
      <trkpt lat="48.29781" lon="2.59797">
        <ele>70</ele>
        <time>2013-06-09T08:51:04.000Z</time>
      </trkpt>
      <trkpt lat="48.29784" lon="2.59793">
        <ele>70.199996948242</ele>
        <time>2013-06-09T08:51:16.000Z</time>
      </trkpt>
      <trkpt lat="48.29783" lon="2.59798">
        <ele>70.199996948242</ele>
        <time>2013-06-09T08:51:39.000Z</time>
      </trkpt>
      <trkpt lat="48.29781" lon="2.59801">
        <ele>70</ele>
        <time>2013-06-09T08:51:45.000Z</time>
      </trkpt>
      <trkpt lat="48.2978" lon="2.598">
        <ele>70</ele>
        <time>2013-06-09T08:51:53.000Z</time>
      </trkpt>
      <trkpt lat="48.29783" lon="2.59798">
        <ele>70.199996948242</ele>
        <time>2013-06-09T08:52:00.000Z</time>
      </trkpt>
      <trkpt lat="48.29782" lon="2.59795">
        <ele>70.199996948242</ele>
        <time>2013-06-09T08:52:04.000Z</time>
      </trkpt>
      <trkpt lat="48.29782" lon="2.59793">
        <ele>70.199996948242</ele>
        <time>2013-06-09T08:52:12.000Z</time>
      </trkpt>
      <trkpt lat="48.29784" lon="2.59794">
        <ele>70.199996948242</ele>
        <time>2013-06-09T08:52:14.000Z</time>
      </trkpt>
      <trkpt lat="48.29781" lon="2.59796">
        <ele>70.199996948242</ele>
        <time>2013-06-09T08:52:26.000Z</time>
      </trkpt>
      <trkpt lat="48.29778" lon="2.59795">
        <ele>70</ele>
        <time>2013-06-09T08:52:31.000Z</time>
      </trkpt>
      <trkpt lat="48.29775" lon="2.59792">
        <ele>70</ele>
        <time>2013-06-09T08:52:36.000Z</time>
      </trkpt>
      <trkpt lat="48.29775" lon="2.59794">
        <ele>70</ele>
        <time>2013-06-09T08:52:41.000Z</time>
      </trkpt>
      <trkpt lat="48.29774" lon="2.59793">
        <ele>70</ele>
        <time>2013-06-09T08:52:46.000Z</time>
      </trkpt>
      <trkpt lat="48.29775" lon="2.59792">
        <ele>70</ele>
        <time>2013-06-09T08:53:00.000Z</time>
      </trkpt>
      <trkpt lat="48.2977" lon="2.59779">
        <ele>70</ele>
        <time>2013-06-09T08:53:05.000Z</time>
      </trkpt>
      <trkpt lat="48.29771" lon="2.59758">
        <ele>70.400001525879</ele>
        <time>2013-06-09T08:53:11.000Z</time>
      </trkpt>
      <trkpt lat="48.2977" lon="2.59748">
        <ele>70.400001525879</ele>
        <time>2013-06-09T08:53:18.000Z</time>
      </trkpt>
      <trkpt lat="48.29771" lon="2.59744">
        <ele>70.400001525879</ele>
        <time>2013-06-09T08:53:20.000Z</time>
      </trkpt>
      <trkpt lat="48.29777" lon="2.59724">
        <ele>70.800003051758</ele>
        <time>2013-06-09T08:53:26.000Z</time>
      </trkpt>
      <trkpt lat="48.29782" lon="2.597">
        <ele>71</ele>
        <time>2013-06-09T08:53:31.000Z</time>
      </trkpt>
      <trkpt lat="48.29783" lon="2.59676">
        <ele>71.199996948242</ele>
        <time>2013-06-09T08:53:36.000Z</time>
      </trkpt>
      <trkpt lat="48.29783" lon="2.59672">
        <ele>71.199996948242</ele>
        <time>2013-06-09T08:53:37.000Z</time>
      </trkpt>
      <trkpt lat="48.29794" lon="2.59667">
        <ele>71.400001525879</ele>
        <time>2013-06-09T08:53:42.000Z</time>
      </trkpt>
      <trkpt lat="48.29807" lon="2.59663">
        <ele>71.599998474121</ele>
        <time>2013-06-09T08:53:46.000Z</time>
      </trkpt>
      <trkpt lat="48.29818" lon="2.59662">
        <ele>71.800003051758</ele>
        <time>2013-06-09T08:53:50.000Z</time>
      </trkpt>
      <trkpt lat="48.29829" lon="2.59656">
        <ele>72</ele>
        <time>2013-06-09T08:53:56.000Z</time>
      </trkpt>
      <trkpt lat="48.2983" lon="2.59655">
        <ele>72</ele>
        <time>2013-06-09T08:54:08.000Z</time>
      </trkpt>
      <trkpt lat="48.2983" lon="2.59655">
        <ele>72</ele>
        <time>2013-06-09T08:54:16.000Z</time>
      </trkpt>
      <trkpt lat="48.29828" lon="2.5964">
        <ele>72.199996948242</ele>
        <time>2013-06-09T08:54:21.000Z</time>
      </trkpt>
      <trkpt lat="48.29826" lon="2.59635">
        <ele>72.199996948242</ele>
        <time>2013-06-09T08:54:22.000Z</time>
      </trkpt>
      <trkpt lat="48.2982" lon="2.59609">
        <ele>72.400001525879</ele>
        <time>2013-06-09T08:54:28.000Z</time>
      </trkpt>
      <trkpt lat="48.29815" lon="2.59583">
        <ele>72.599998474121</ele>
        <time>2013-06-09T08:54:33.000Z</time>
      </trkpt>
      <trkpt lat="48.29809" lon="2.59557">
        <ele>73.199996948242</ele>
        <time>2013-06-09T08:54:38.000Z</time>
      </trkpt>
      <trkpt lat="48.29803" lon="2.59531">
        <ele>73.599998474121</ele>
        <time>2013-06-09T08:54:43.000Z</time>
      </trkpt>
      <trkpt lat="48.29798" lon="2.59511">
        <ele>73.599998474121</ele>
        <time>2013-06-09T08:54:47.000Z</time>
      </trkpt>
      <trkpt lat="48.29792" lon="2.59488">
        <ele>73.400001525879</ele>
        <time>2013-06-09T08:54:53.000Z</time>
      </trkpt>
      <trkpt lat="48.29786" lon="2.59469">
        <ele>73</ele>
        <time>2013-06-09T08:54:58.000Z</time>
      </trkpt>
      <trkpt lat="48.29782" lon="2.59447">
        <ele>72.800003051758</ele>
        <time>2013-06-09T08:55:03.000Z</time>
      </trkpt>
      <trkpt lat="48.29778" lon="2.59427">
        <ele>72.599998474121</ele>
        <time>2013-06-09T08:55:07.000Z</time>
      </trkpt>
      <trkpt lat="48.29776" lon="2.59409">
        <ele>72.599998474121</ele>
        <time>2013-06-09T08:55:12.000Z</time>
      </trkpt>
      <trkpt lat="48.29775" lon="2.59406">
        <ele>72.599998474121</ele>
        <time>2013-06-09T08:55:13.000Z</time>
      </trkpt>
      <trkpt lat="48.29774" lon="2.59404">
        <ele>72.400001525879</ele>
        <time>2013-06-09T08:55:18.000Z</time>
      </trkpt>
      <trkpt lat="48.29775" lon="2.59413">
        <ele>72.400001525879</ele>
        <time>2013-06-09T08:55:24.000Z</time>
      </trkpt>
      <trkpt lat="48.29776" lon="2.59413">
        <ele>72.599998474121</ele>
        <time>2013-06-09T08:55:33.000Z</time>
      </trkpt>
      <trkpt lat="48.29777" lon="2.5941">
        <ele>72.599998474121</ele>
        <time>2013-06-09T08:55:37.000Z</time>
      </trkpt>
      <trkpt lat="48.29773" lon="2.59383">
        <ele>72.400001525879</ele>
        <time>2013-06-09T08:55:43.000Z</time>
      </trkpt>
      <trkpt lat="48.29772" lon="2.59361">
        <ele>72.400001525879</ele>
        <time>2013-06-09T08:55:47.000Z</time>
      </trkpt>
      <trkpt lat="48.2977" lon="2.59343">
        <ele>72.400001525879</ele>
        <time>2013-06-09T08:55:51.000Z</time>
      </trkpt>
      <trkpt lat="48.29759" lon="2.59341">
        <ele>72.199996948242</ele>
        <time>2013-06-09T08:55:56.000Z</time>
      </trkpt>
      <trkpt lat="48.29752" lon="2.59343">
        <ele>72</ele>
        <time>2013-06-09T08:56:00.000Z</time>
      </trkpt>
      <trkpt lat="48.29743" lon="2.59343">
        <ele>71.800003051758</ele>
        <time>2013-06-09T08:56:04.000Z</time>
      </trkpt>
      <trkpt lat="48.29736" lon="2.59337">
        <ele>71.800003051758</ele>
        <time>2013-06-09T08:56:07.000Z</time>
      </trkpt>
      <trkpt lat="48.29729" lon="2.59335">
        <ele>71.599998474121</ele>
        <time>2013-06-09T08:56:11.000Z</time>
      </trkpt>
      <trkpt lat="48.29726" lon="2.59341">
        <ele>71.599998474121</ele>
        <time>2013-06-09T08:56:15.000Z</time>
      </trkpt>
      <trkpt lat="48.29725" lon="2.59342">
        <ele>71.599998474121</ele>
        <time>2013-06-09T08:56:23.000Z</time>
      </trkpt>
      <trkpt lat="48.29725" lon="2.5934">
        <ele>71.599998474121</ele>
        <time>2013-06-09T08:56:24.000Z</time>
      </trkpt>
      <trkpt lat="48.29739" lon="2.59334">
        <ele>71.800003051758</ele>
        <time>2013-06-09T08:56:29.000Z</time>
      </trkpt>
      <trkpt lat="48.29742" lon="2.59336">
        <ele>71.800003051758</ele>
        <time>2013-06-09T08:56:30.000Z</time>
      </trkpt>
      <trkpt lat="48.29754" lon="2.59338">
        <ele>72</ele>
        <time>2013-06-09T08:56:37.000Z</time>
      </trkpt>
      <trkpt lat="48.29765" lon="2.59332">
        <ele>72.199996948242</ele>
        <time>2013-06-09T08:56:43.000Z</time>
      </trkpt>
      <trkpt lat="48.29769" lon="2.59336">
        <ele>72.400001525879</ele>
        <time>2013-06-09T08:56:45.000Z</time>
      </trkpt>
      <trkpt lat="48.29774" lon="2.59352">
        <ele>72.400001525879</ele>
        <time>2013-06-09T08:56:49.000Z</time>
      </trkpt>
      <trkpt lat="48.29779" lon="2.59383">
        <ele>72.599998474121</ele>
        <time>2013-06-09T08:56:56.000Z</time>
      </trkpt>
      <trkpt lat="48.29781" lon="2.59396">
        <ele>72.599998474121</ele>
        <time>2013-06-09T08:57:01.000Z</time>
      </trkpt>
      <trkpt lat="48.29783" lon="2.59397">
        <ele>72.599998474121</ele>
        <time>2013-06-09T08:57:10.000Z</time>
      </trkpt>
      <trkpt lat="48.29784" lon="2.59403">
        <ele>72.800003051758</ele>
        <time>2013-06-09T08:57:14.000Z</time>
      </trkpt>
      <trkpt lat="48.29785" lon="2.59416">
        <ele>72.800003051758</ele>
        <time>2013-06-09T08:57:17.000Z</time>
      </trkpt>
      <trkpt lat="48.29786" lon="2.59425">
        <ele>72.800003051758</ele>
        <time>2013-06-09T08:57:19.000Z</time>
      </trkpt>
      <trkpt lat="48.29786" lon="2.59425">
        <ele>72.800003051758</ele>
        <time>2013-06-09T08:57:19.000Z</time>
      </trkpt>
      <trkpt lat="48.29795" lon="2.59429">
        <ele>73</ele>
        <time>2013-06-09T08:57:23.000Z</time>
      </trkpt>
      <trkpt lat="48.29797" lon="2.59426">
        <ele>73.199996948242</ele>
        <time>2013-06-09T08:57:24.000Z</time>
      </trkpt>
      <trkpt lat="48.29813" lon="2.5941">
        <ele>73.400001525879</ele>
        <time>2013-06-09T08:57:30.000Z</time>
      </trkpt>
      <trkpt lat="48.29826" lon="2.59398">
        <ele>73.800003051758</ele>
        <time>2013-06-09T08:57:35.000Z</time>
      </trkpt>
      <trkpt lat="48.2984" lon="2.59385">
        <ele>74.599998474121</ele>
        <time>2013-06-09T08:57:40.000Z</time>
      </trkpt>
      <trkpt lat="48.29851" lon="2.59372">
        <ele>75.599998474121</ele>
        <time>2013-06-09T08:57:45.000Z</time>
      </trkpt>
      <trkpt lat="48.29858" lon="2.59364">
        <ele>76</ele>
        <time>2013-06-09T08:57:48.000Z</time>
      </trkpt>
      <trkpt lat="48.29864" lon="2.59359">
        <ele>76.599998474121</ele>
        <time>2013-06-09T08:57:53.000Z</time>
      </trkpt>
      <trkpt lat="48.29868" lon="2.59355">
        <ele>76.800003051758</ele>
        <time>2013-06-09T08:57:55.000Z</time>
      </trkpt>
      <trkpt lat="48.29882" lon="2.59347">
        <ele>77.800003051758</ele>
        <time>2013-06-09T08:58:01.000Z</time>
      </trkpt>
      <trkpt lat="48.29894" lon="2.59338">
        <ele>78.400001525879</ele>
        <time>2013-06-09T08:58:06.000Z</time>
      </trkpt>
      <trkpt lat="48.29906" lon="2.59332">
        <ele>79.199996948242</ele>
        <time>2013-06-09T08:58:11.000Z</time>
      </trkpt>
      <trkpt lat="48.29917" lon="2.59322">
        <ele>79.800003051758</ele>
        <time>2013-06-09T08:58:16.000Z</time>
      </trkpt>
      <trkpt lat="48.29928" lon="2.59308">
        <ele>80.400001525879</ele>
        <time>2013-06-09T08:58:21.000Z</time>
      </trkpt>
      <trkpt lat="48.29938" lon="2.59311">
        <ele>81</ele>
        <time>2013-06-09T08:58:26.000Z</time>
      </trkpt>
      <trkpt lat="48.29955" lon="2.59321">
        <ele>82.599998474121</ele>
        <time>2013-06-09T08:58:33.000Z</time>
      </trkpt>
      <trkpt lat="48.29966" lon="2.59333">
        <ele>84</ele>
        <time>2013-06-09T08:58:39.000Z</time>
      </trkpt>
      <trkpt lat="48.29974" lon="2.59334">
        <ele>84.800003051758</ele>
        <time>2013-06-09T08:58:43.000Z</time>
      </trkpt>
      <trkpt lat="48.29982" lon="2.5933">
        <ele>85.199996948242</ele>
        <time>2013-06-09T08:58:47.000Z</time>
      </trkpt>
      <trkpt lat="48.2999" lon="2.59339">
        <ele>86.199996948242</ele>
        <time>2013-06-09T08:58:51.000Z</time>
      </trkpt>
      <trkpt lat="48.29998" lon="2.59343">
        <ele>87</ele>
        <time>2013-06-09T08:58:55.000Z</time>
      </trkpt>
      <trkpt lat="48.30002" lon="2.59351">
        <ele>87</ele>
        <time>2013-06-09T08:58:59.000Z</time>
      </trkpt>
      <trkpt lat="48.30002" lon="2.59366">
        <ele>87.400001525879</ele>
        <time>2013-06-09T08:59:03.000Z</time>
      </trkpt>
      <trkpt lat="48.30002" lon="2.5937">
        <ele>87.400001525879</ele>
        <time>2013-06-09T08:59:04.000Z</time>
      </trkpt>
      <trkpt lat="48.30003" lon="2.59392">
        <ele>87.800003051758</ele>
        <time>2013-06-09T08:59:10.000Z</time>
      </trkpt>
      <trkpt lat="48.30003" lon="2.59407">
        <ele>88.199996948242</ele>
        <time>2013-06-09T08:59:16.000Z</time>
      </trkpt>
      <trkpt lat="48.30002" lon="2.59415">
        <ele>88.599998474121</ele>
        <time>2013-06-09T08:59:20.000Z</time>
      </trkpt>
      <trkpt lat="48.29997" lon="2.59416">
        <ele>88.800003051758</ele>
        <time>2013-06-09T08:59:24.000Z</time>
      </trkpt>
      <trkpt lat="48.29996" lon="2.5942">
        <ele>88.400001525879</ele>
        <time>2013-06-09T08:59:27.000Z</time>
      </trkpt>
      <trkpt lat="48.29996" lon="2.59423">
        <ele>88.199996948242</ele>
        <time>2013-06-09T08:59:32.000Z</time>
      </trkpt>
      <trkpt lat="48.29999" lon="2.59425">
        <ele>88.199996948242</ele>
        <time>2013-06-09T08:59:37.000Z</time>
      </trkpt>
      <trkpt lat="48.29999" lon="2.59424">
        <ele>88.400001525879</ele>
        <time>2013-06-09T08:59:41.000Z</time>
      </trkpt>
      <trkpt lat="48.29998" lon="2.59423">
        <ele>88.199996948242</ele>
        <time>2013-06-09T08:59:46.000Z</time>
      </trkpt>
      <trkpt lat="48.29998" lon="2.59426">
        <ele>88.199996948242</ele>
        <time>2013-06-09T08:59:52.000Z</time>
      </trkpt>
      <trkpt lat="48.3" lon="2.59424">
        <ele>88.400001525879</ele>
        <time>2013-06-09T09:00:03.000Z</time>
      </trkpt>
      <trkpt lat="48.29999" lon="2.59424">
        <ele>88.199996948242</ele>
        <time>2013-06-09T09:00:13.000Z</time>
      </trkpt>
      <trkpt lat="48.29996" lon="2.5942">
        <ele>88.400001525879</ele>
        <time>2013-06-09T09:00:24.000Z</time>
      </trkpt>
      <trkpt lat="48.30001" lon="2.59417">
        <ele>88.800003051758</ele>
        <time>2013-06-09T09:00:39.000Z</time>
      </trkpt>
      <trkpt lat="48.30004" lon="2.59415">
        <ele>88.199996948242</ele>
        <time>2013-06-09T09:00:51.000Z</time>
      </trkpt>
      <trkpt lat="48.30009" lon="2.59424">
        <ele>87</ele>
        <time>2013-06-09T09:00:55.000Z</time>
      </trkpt>
      <trkpt lat="48.3001" lon="2.59439">
        <ele>86</ele>
        <time>2013-06-09T09:01:01.000Z</time>
      </trkpt>
      <trkpt lat="48.3001" lon="2.5945">
        <ele>85.199996948242</ele>
        <time>2013-06-09T09:01:05.000Z</time>
      </trkpt>
      <trkpt lat="48.30009" lon="2.59455">
        <ele>85</ele>
        <time>2013-06-09T09:01:08.000Z</time>
      </trkpt>
      <trkpt lat="48.30018" lon="2.59465">
        <ele>83.400001525879</ele>
        <time>2013-06-09T09:01:14.000Z</time>
      </trkpt>
      <trkpt lat="48.30018" lon="2.59473">
        <ele>83</ele>
        <time>2013-06-09T09:01:16.000Z</time>
      </trkpt>
      <trkpt lat="48.30021" lon="2.59497">
        <ele>81.400001525879</ele>
        <time>2013-06-09T09:01:22.000Z</time>
      </trkpt>
      <trkpt lat="48.30021" lon="2.59514">
        <ele>80.400001525879</ele>
        <time>2013-06-09T09:01:26.000Z</time>
      </trkpt>
      <trkpt lat="48.30022" lon="2.59531">
        <ele>79.599998474121</ele>
        <time>2013-06-09T09:01:30.000Z</time>
      </trkpt>
      <trkpt lat="48.30023" lon="2.59534">
        <ele>79.400001525879</ele>
        <time>2013-06-09T09:01:31.000Z</time>
      </trkpt>
      <trkpt lat="48.30027" lon="2.59544">
        <ele>78.599998474121</ele>
        <time>2013-06-09T09:01:36.000Z</time>
      </trkpt>
      <trkpt lat="48.30025" lon="2.5955">
        <ele>78.400001525879</ele>
        <time>2013-06-09T09:01:39.000Z</time>
      </trkpt>
      <trkpt lat="48.30025" lon="2.59556">
        <ele>78.199996948242</ele>
        <time>2013-06-09T09:01:45.000Z</time>
      </trkpt>
      <trkpt lat="48.30027" lon="2.59555">
        <ele>78.199996948242</ele>
        <time>2013-06-09T09:01:56.000Z</time>
      </trkpt>
      <trkpt lat="48.30035" lon="2.59541">
        <ele>78.400001525879</ele>
        <time>2013-06-09T09:02:01.000Z</time>
      </trkpt>
      <trkpt lat="48.30037" lon="2.59537">
        <ele>78.400001525879</ele>
        <time>2013-06-09T09:02:03.000Z</time>
      </trkpt>
      <trkpt lat="48.30043" lon="2.59527">
        <ele>78.400001525879</ele>
        <time>2013-06-09T09:02:09.000Z</time>
      </trkpt>
      <trkpt lat="48.30048" lon="2.59517">
        <ele>78.400001525879</ele>
        <time>2013-06-09T09:02:12.000Z</time>
      </trkpt>
      <trkpt lat="48.30058" lon="2.59499">
        <ele>78</ele>
        <time>2013-06-09T09:02:17.000Z</time>
      </trkpt>
      <trkpt lat="48.30067" lon="2.59486">
        <ele>77.599998474121</ele>
        <time>2013-06-09T09:02:22.000Z</time>
      </trkpt>
      <trkpt lat="48.30069" lon="2.59482">
        <ele>77.400001525879</ele>
        <time>2013-06-09T09:02:25.000Z</time>
      </trkpt>
      <trkpt lat="48.30072" lon="2.59485">
        <ele>77</ele>
        <time>2013-06-09T09:02:30.000Z</time>
      </trkpt>
      <trkpt lat="48.30072" lon="2.59482">
        <ele>77</ele>
        <time>2013-06-09T09:02:33.000Z</time>
      </trkpt>
      <trkpt lat="48.3008" lon="2.59469">
        <ele>76.199996948242</ele>
        <time>2013-06-09T09:02:37.000Z</time>
      </trkpt>
      <trkpt lat="48.30091" lon="2.59454">
        <ele>75.800003051758</ele>
        <time>2013-06-09T09:02:41.000Z</time>
      </trkpt>
      <trkpt lat="48.30108" lon="2.59439">
        <ele>75.400001525879</ele>
        <time>2013-06-09T09:02:46.000Z</time>
      </trkpt>
      <trkpt lat="48.3012" lon="2.59428">
        <ele>75.199996948242</ele>
        <time>2013-06-09T09:02:50.000Z</time>
      </trkpt>
      <trkpt lat="48.30133" lon="2.59414">
        <ele>74.800003051758</ele>
        <time>2013-06-09T09:02:55.000Z</time>
      </trkpt>
      <trkpt lat="48.30139" lon="2.59411">
        <ele>74.599998474121</ele>
        <time>2013-06-09T09:02:57.000Z</time>
      </trkpt>
      <trkpt lat="48.30144" lon="2.59416">
        <ele>74.400001525879</ele>
        <time>2013-06-09T09:03:01.000Z</time>
      </trkpt>
      <trkpt lat="48.30146" lon="2.5942">
        <ele>74.400001525879</ele>
        <time>2013-06-09T09:03:08.000Z</time>
      </trkpt>
      <trkpt lat="48.30146" lon="2.5942">
        <ele>74.400001525879</ele>
        <time>2013-06-09T09:03:11.000Z</time>
      </trkpt>
      <trkpt lat="48.3015" lon="2.59426">
        <ele>74.400001525879</ele>
        <time>2013-06-09T09:03:20.000Z</time>
      </trkpt>
      <trkpt lat="48.30149" lon="2.59428">
        <ele>74.599998474121</ele>
        <time>2013-06-09T09:03:23.000Z</time>
      </trkpt>
      <trkpt lat="48.30151" lon="2.59444">
        <ele>74.800003051758</ele>
        <time>2013-06-09T09:03:27.000Z</time>
      </trkpt>
      <trkpt lat="48.30156" lon="2.5947">
        <ele>75.199996948242</ele>
        <time>2013-06-09T09:03:32.000Z</time>
      </trkpt>
      <trkpt lat="48.30159" lon="2.59496">
        <ele>75.800003051758</ele>
        <time>2013-06-09T09:03:37.000Z</time>
      </trkpt>
      <trkpt lat="48.30159" lon="2.59515">
        <ele>76.199996948242</ele>
        <time>2013-06-09T09:03:41.000Z</time>
      </trkpt>
      <trkpt lat="48.30162" lon="2.59537">
        <ele>76.800003051758</ele>
        <time>2013-06-09T09:03:46.000Z</time>
      </trkpt>
      <trkpt lat="48.30163" lon="2.59549">
        <ele>77</ele>
        <time>2013-06-09T09:03:49.000Z</time>
      </trkpt>
      <trkpt lat="48.30166" lon="2.5957">
        <ele>77.599998474121</ele>
        <time>2013-06-09T09:03:54.000Z</time>
      </trkpt>
      <trkpt lat="48.30168" lon="2.59585">
        <ele>78</ele>
        <time>2013-06-09T09:03:58.000Z</time>
      </trkpt>
      <trkpt lat="48.30168" lon="2.59599">
        <ele>78.199996948242</ele>
        <time>2013-06-09T09:04:02.000Z</time>
      </trkpt>
      <trkpt lat="48.30168" lon="2.596">
        <ele>78.199996948242</ele>
        <time>2013-06-09T09:04:03.000Z</time>
      </trkpt>
      <trkpt lat="48.30165" lon="2.59604">
        <ele>78</ele>
        <time>2013-06-09T09:04:17.000Z</time>
      </trkpt>
      <trkpt lat="48.30175" lon="2.59617">
        <ele>79.199996948242</ele>
        <time>2013-06-09T09:04:23.000Z</time>
      </trkpt>
      <trkpt lat="48.30189" lon="2.59637">
        <ele>80.800003051758</ele>
        <time>2013-06-09T09:04:28.000Z</time>
      </trkpt>
      <trkpt lat="48.30199" lon="2.59655">
        <ele>82</ele>
        <time>2013-06-09T09:04:32.000Z</time>
      </trkpt>
      <trkpt lat="48.30211" lon="2.59675">
        <ele>83</ele>
        <time>2013-06-09T09:04:37.000Z</time>
      </trkpt>
      <trkpt lat="48.30221" lon="2.59687">
        <ele>83.599998474121</ele>
        <time>2013-06-09T09:04:41.000Z</time>
      </trkpt>
      <trkpt lat="48.30232" lon="2.597">
        <ele>84.199996948242</ele>
        <time>2013-06-09T09:04:46.000Z</time>
      </trkpt>
      <trkpt lat="48.30243" lon="2.59716">
        <ele>84.599998474121</ele>
        <time>2013-06-09T09:04:51.000Z</time>
      </trkpt>
      <trkpt lat="48.30249" lon="2.59727">
        <ele>84.599998474121</ele>
        <time>2013-06-09T09:04:55.000Z</time>
      </trkpt>
      <trkpt lat="48.30254" lon="2.59734">
        <ele>84.599998474121</ele>
        <time>2013-06-09T09:04:58.000Z</time>
      </trkpt>
      <trkpt lat="48.30254" lon="2.59735">
        <ele>84.599998474121</ele>
        <time>2013-06-09T09:05:03.000Z</time>
      </trkpt>
      <trkpt lat="48.30253" lon="2.59736">
        <ele>84.599998474121</ele>
        <time>2013-06-09T09:05:08.000Z</time>
      </trkpt>
      <trkpt lat="48.30249" lon="2.59733">
        <ele>84.400001525879</ele>
        <time>2013-06-09T09:05:15.000Z</time>
      </trkpt>
      <trkpt lat="48.30248" lon="2.59732">
        <ele>84.400001525879</ele>
        <time>2013-06-09T09:05:18.000Z</time>
      </trkpt>
      <trkpt lat="48.30247" lon="2.59752">
        <ele>83.599998474121</ele>
        <time>2013-06-09T09:05:22.000Z</time>
      </trkpt>
      <trkpt lat="48.30247" lon="2.59761">
        <ele>83.400001525879</ele>
        <time>2013-06-09T09:05:28.000Z</time>
      </trkpt>
      <trkpt lat="48.30245" lon="2.59759">
        <ele>83.199996948242</ele>
        <time>2013-06-09T09:05:33.000Z</time>
      </trkpt>
      <trkpt lat="48.30245" lon="2.59756">
        <ele>83.400001525879</ele>
        <time>2013-06-09T09:05:34.000Z</time>
      </trkpt>
      <trkpt lat="48.30249" lon="2.5974">
        <ele>84.199996948242</ele>
        <time>2013-06-09T09:05:40.000Z</time>
      </trkpt>
      <trkpt lat="48.3025" lon="2.59738">
        <ele>84.400001525879</ele>
        <time>2013-06-09T09:05:41.000Z</time>
      </trkpt>
      <trkpt lat="48.30254" lon="2.59735">
        <ele>84.599998474121</ele>
        <time>2013-06-09T09:05:46.000Z</time>
      </trkpt>
      <trkpt lat="48.30259" lon="2.59721">
        <ele>85.400001525879</ele>
        <time>2013-06-09T09:05:51.000Z</time>
      </trkpt>
      <trkpt lat="48.3026" lon="2.59716">
        <ele>85.599998474121</ele>
        <time>2013-06-09T09:05:53.000Z</time>
      </trkpt>
      <trkpt lat="48.30264" lon="2.59702">
        <ele>86.400001525879</ele>
        <time>2013-06-09T09:06:00.000Z</time>
      </trkpt>
      <trkpt lat="48.30264" lon="2.597">
        <ele>86.400001525879</ele>
        <time>2013-06-09T09:06:01.000Z</time>
      </trkpt>
      <trkpt lat="48.3027" lon="2.59686">
        <ele>87.199996948242</ele>
        <time>2013-06-09T09:06:07.000Z</time>
      </trkpt>
      <trkpt lat="48.30272" lon="2.59684">
        <ele>87.400001525879</ele>
        <time>2013-06-09T09:06:11.000Z</time>
      </trkpt>
      <trkpt lat="48.30274" lon="2.59681">
        <ele>87.800003051758</ele>
        <time>2013-06-09T09:06:16.000Z</time>
      </trkpt>
      <trkpt lat="48.30277" lon="2.59676">
        <ele>88.199996948242</ele>
        <time>2013-06-09T09:06:21.000Z</time>
      </trkpt>
      <trkpt lat="48.30278" lon="2.59675">
        <ele>88.199996948242</ele>
        <time>2013-06-09T09:06:22.000Z</time>
      </trkpt>
      <trkpt lat="48.30277" lon="2.5966">
        <ele>88.800003051758</ele>
        <time>2013-06-09T09:06:28.000Z</time>
      </trkpt>
      <trkpt lat="48.30276" lon="2.59655">
        <ele>88.800003051758</ele>
        <time>2013-06-09T09:06:30.000Z</time>
      </trkpt>
      <trkpt lat="48.30271" lon="2.59651">
        <ele>88.599998474121</ele>
        <time>2013-06-09T09:06:36.000Z</time>
      </trkpt>
      <trkpt lat="48.30272" lon="2.59645">
        <ele>88.800003051758</ele>
        <time>2013-06-09T09:06:42.000Z</time>
      </trkpt>
      <trkpt lat="48.30276" lon="2.59637">
        <ele>89.199996948242</ele>
        <time>2013-06-09T09:06:47.000Z</time>
      </trkpt>
      <trkpt lat="48.30279" lon="2.59635">
        <ele>89.599998474121</ele>
        <time>2013-06-09T09:06:51.000Z</time>
      </trkpt>
      <trkpt lat="48.30278" lon="2.59631">
        <ele>89.599998474121</ele>
        <time>2013-06-09T09:06:54.000Z</time>
      </trkpt>
      <trkpt lat="48.30275" lon="2.59626">
        <ele>89.400001525879</ele>
        <time>2013-06-09T09:07:00.000Z</time>
      </trkpt>
      <trkpt lat="48.30271" lon="2.59623">
        <ele>89.199996948242</ele>
        <time>2013-06-09T09:07:05.000Z</time>
      </trkpt>
      <trkpt lat="48.30269" lon="2.59623">
        <ele>89</ele>
        <time>2013-06-09T09:07:09.000Z</time>
      </trkpt>
      <trkpt lat="48.30268" lon="2.59621">
        <ele>89</ele>
        <time>2013-06-09T09:07:15.000Z</time>
      </trkpt>
      <trkpt lat="48.30267" lon="2.59623">
        <ele>88.800003051758</ele>
        <time>2013-06-09T09:07:20.000Z</time>
      </trkpt>
      <trkpt lat="48.30266" lon="2.59621">
        <ele>88.800003051758</ele>
        <time>2013-06-09T09:07:24.000Z</time>
      </trkpt>
      <trkpt lat="48.30267" lon="2.59615">
        <ele>89</ele>
        <time>2013-06-09T09:07:31.000Z</time>
      </trkpt>
      <trkpt lat="48.30262" lon="2.59611">
        <ele>88.599998474121</ele>
        <time>2013-06-09T09:07:38.000Z</time>
      </trkpt>
      <trkpt lat="48.3026" lon="2.59611">
        <ele>88.400001525879</ele>
        <time>2013-06-09T09:07:49.000Z</time>
      </trkpt>
      <trkpt lat="48.30259" lon="2.59606">
        <ele>88.599998474121</ele>
        <time>2013-06-09T09:07:57.000Z</time>
      </trkpt>
      <trkpt lat="48.30262" lon="2.59606">
        <ele>88.800003051758</ele>
        <time>2013-06-09T09:08:06.000Z</time>
      </trkpt>
      <trkpt lat="48.30264" lon="2.59601">
        <ele>89</ele>
        <time>2013-06-09T09:08:10.000Z</time>
      </trkpt>
      <trkpt lat="48.30264" lon="2.59598">
        <ele>89.199996948242</ele>
        <time>2013-06-09T09:08:15.000Z</time>
      </trkpt>
      <trkpt lat="48.30264" lon="2.59595">
        <ele>89.199996948242</ele>
        <time>2013-06-09T09:08:20.000Z</time>
      </trkpt>
      <trkpt lat="48.30263" lon="2.59593">
        <ele>89.199996948242</ele>
        <time>2013-06-09T09:08:25.000Z</time>
      </trkpt>
      <trkpt lat="48.30262" lon="2.59593">
        <ele>89</ele>
        <time>2013-06-09T09:08:32.000Z</time>
      </trkpt>
      <trkpt lat="48.30264" lon="2.59594">
        <ele>89.199996948242</ele>
        <time>2013-06-09T09:08:39.000Z</time>
      </trkpt>
      <trkpt lat="48.30273" lon="2.59594">
        <ele>90.199996948242</ele>
        <time>2013-06-09T09:08:44.000Z</time>
      </trkpt>
      <trkpt lat="48.30279" lon="2.59596">
        <ele>90.599998474121</ele>
        <time>2013-06-09T09:08:47.000Z</time>
      </trkpt>
      <trkpt lat="48.30284" lon="2.596">
        <ele>91</ele>
        <time>2013-06-09T09:08:53.000Z</time>
      </trkpt>
      <trkpt lat="48.30283" lon="2.59598">
        <ele>91</ele>
        <time>2013-06-09T09:09:00.000Z</time>
      </trkpt>
      <trkpt lat="48.30284" lon="2.59595">
        <ele>91.199996948242</ele>
        <time>2013-06-09T09:09:10.000Z</time>
      </trkpt>
      <trkpt lat="48.30286" lon="2.59593">
        <ele>91.400001525879</ele>
        <time>2013-06-09T09:09:15.000Z</time>
      </trkpt>
      <trkpt lat="48.30288" lon="2.5959">
        <ele>91.800003051758</ele>
        <time>2013-06-09T09:09:18.000Z</time>
      </trkpt>
      <trkpt lat="48.30297" lon="2.59582">
        <ele>93</ele>
        <time>2013-06-09T09:09:22.000Z</time>
      </trkpt>
      <trkpt lat="48.303" lon="2.59578">
        <ele>93.199996948242</ele>
        <time>2013-06-09T09:09:28.000Z</time>
      </trkpt>
      <trkpt lat="48.30304" lon="2.59581">
        <ele>93.599998474121</ele>
        <time>2013-06-09T09:09:36.000Z</time>
      </trkpt>
      <trkpt lat="48.30304" lon="2.59581">
        <ele>93.599998474121</ele>
        <time>2013-06-09T09:09:36.000Z</time>
      </trkpt>
      <trkpt lat="48.30303" lon="2.59578">
        <ele>93.400001525879</ele>
        <time>2013-06-09T09:09:40.000Z</time>
      </trkpt>
      <trkpt lat="48.303" lon="2.59561">
        <ele>92.599998474121</ele>
        <time>2013-06-09T09:09:45.000Z</time>
      </trkpt>
      <trkpt lat="48.30305" lon="2.59532">
        <ele>92.400001525879</ele>
        <time>2013-06-09T09:09:50.000Z</time>
      </trkpt>
      <trkpt lat="48.30317" lon="2.59502">
        <ele>93</ele>
        <time>2013-06-09T09:09:56.000Z</time>
      </trkpt>
      <trkpt lat="48.30324" lon="2.59487">
        <ele>93.800003051758</ele>
        <time>2013-06-09T09:10:00.000Z</time>
      </trkpt>
      <trkpt lat="48.30333" lon="2.59469">
        <ele>95.199996948242</ele>
        <time>2013-06-09T09:10:05.000Z</time>
      </trkpt>
      <trkpt lat="48.30335" lon="2.59458">
        <ele>95.400001525879</ele>
        <time>2013-06-09T09:10:08.000Z</time>
      </trkpt>
      <trkpt lat="48.30334" lon="2.59433">
        <ele>95.800003051758</ele>
        <time>2013-06-09T09:10:14.000Z</time>
      </trkpt>
      <trkpt lat="48.30333" lon="2.5943">
        <ele>95.800003051758</ele>
        <time>2013-06-09T09:10:15.000Z</time>
      </trkpt>
      <trkpt lat="48.30333" lon="2.59407">
        <ele>95.800003051758</ele>
        <time>2013-06-09T09:10:20.000Z</time>
      </trkpt>
      <trkpt lat="48.30332" lon="2.59404">
        <ele>95.599998474121</ele>
        <time>2013-06-09T09:10:21.000Z</time>
      </trkpt>
      <trkpt lat="48.3033" lon="2.59383">
        <ele>94.800003051758</ele>
        <time>2013-06-09T09:10:26.000Z</time>
      </trkpt>
      <trkpt lat="48.30332" lon="2.59353">
        <ele>94.800003051758</ele>
        <time>2013-06-09T09:10:32.000Z</time>
      </trkpt>
      <trkpt lat="48.30334" lon="2.59325">
        <ele>94.400001525879</ele>
        <time>2013-06-09T09:10:37.000Z</time>
      </trkpt>
      <trkpt lat="48.30341" lon="2.59296">
        <ele>93.400001525879</ele>
        <time>2013-06-09T09:10:43.000Z</time>
      </trkpt>
      <trkpt lat="48.30344" lon="2.59281">
        <ele>92.800003051758</ele>
        <time>2013-06-09T09:10:47.000Z</time>
      </trkpt>
      <trkpt lat="48.30345" lon="2.59272">
        <ele>92.400001525879</ele>
        <time>2013-06-09T09:10:49.000Z</time>
      </trkpt>
      <trkpt lat="48.3035" lon="2.59258">
        <ele>92</ele>
        <time>2013-06-09T09:10:53.000Z</time>
      </trkpt>
      <trkpt lat="48.30354" lon="2.59243">
        <ele>91.800003051758</ele>
        <time>2013-06-09T09:10:57.000Z</time>
      </trkpt>
      <trkpt lat="48.30357" lon="2.59228">
        <ele>92</ele>
        <time>2013-06-09T09:11:02.000Z</time>
      </trkpt>
      <trkpt lat="48.30358" lon="2.59217">
        <ele>91.800003051758</ele>
        <time>2013-06-09T09:11:08.000Z</time>
      </trkpt>
      <trkpt lat="48.30358" lon="2.59217">
        <ele>92</ele>
        <time>2013-06-09T09:11:09.000Z</time>
      </trkpt>
      <trkpt lat="48.30353" lon="2.59208">
        <ele>91.599998474121</ele>
        <time>2013-06-09T09:11:14.000Z</time>
      </trkpt>
      <trkpt lat="48.30348" lon="2.59204">
        <ele>91.199996948242</ele>
        <time>2013-06-09T09:11:18.000Z</time>
      </trkpt>
      <trkpt lat="48.30344" lon="2.59196">
        <ele>91</ele>
        <time>2013-06-09T09:11:21.000Z</time>
      </trkpt>
      <trkpt lat="48.30339" lon="2.5919">
        <ele>90.599998474121</ele>
        <time>2013-06-09T09:11:26.000Z</time>
      </trkpt>
      <trkpt lat="48.30342" lon="2.59188">
        <ele>90.800003051758</ele>
        <time>2013-06-09T09:11:34.000Z</time>
      </trkpt>
      <trkpt lat="48.30342" lon="2.59184">
        <ele>90.599998474121</ele>
        <time>2013-06-09T09:11:39.000Z</time>
      </trkpt>
      <trkpt lat="48.3034" lon="2.59181">
        <ele>90.599998474121</ele>
        <time>2013-06-09T09:11:40.000Z</time>
      </trkpt>
      <trkpt lat="48.3034" lon="2.59181">
        <ele>90.599998474121</ele>
        <time>2013-06-09T09:11:40.000Z</time>
      </trkpt>
      <trkpt lat="48.30325" lon="2.59162">
        <ele>88.599998474121</ele>
        <time>2013-06-09T09:11:46.000Z</time>
      </trkpt>
      <trkpt lat="48.30319" lon="2.59157">
        <ele>87.800003051758</ele>
        <time>2013-06-09T09:11:48.000Z</time>
      </trkpt>
      <trkpt lat="48.30308" lon="2.5915">
        <ele>86.400001525879</ele>
        <time>2013-06-09T09:11:52.000Z</time>
      </trkpt>
      <trkpt lat="48.30298" lon="2.59145">
        <ele>85</ele>
        <time>2013-06-09T09:11:55.000Z</time>
      </trkpt>
      <trkpt lat="48.30286" lon="2.59128">
        <ele>83.599998474121</ele>
        <time>2013-06-09T09:12:00.000Z</time>
      </trkpt>
      <trkpt lat="48.30285" lon="2.59125">
        <ele>83.599998474121</ele>
        <time>2013-06-09T09:12:01.000Z</time>
      </trkpt>
      <trkpt lat="48.30287" lon="2.59119">
        <ele>83.800003051758</ele>
        <time>2013-06-09T09:12:06.000Z</time>
      </trkpt>
      <trkpt lat="48.30289" lon="2.59117">
        <ele>84.199996948242</ele>
        <time>2013-06-09T09:12:09.000Z</time>
      </trkpt>
      <trkpt lat="48.30292" lon="2.59113">
        <ele>84.599998474121</ele>
        <time>2013-06-09T09:12:21.000Z</time>
      </trkpt>
      <trkpt lat="48.30294" lon="2.59111">
        <ele>85</ele>
        <time>2013-06-09T09:12:28.000Z</time>
      </trkpt>
      <trkpt lat="48.30296" lon="2.5911">
        <ele>85.199996948242</ele>
        <time>2013-06-09T09:12:29.000Z</time>
      </trkpt>
      <trkpt lat="48.30307" lon="2.59111">
        <ele>86.400001525879</ele>
        <time>2013-06-09T09:12:35.000Z</time>
      </trkpt>
      <trkpt lat="48.30315" lon="2.59109">
        <ele>87.599998474121</ele>
        <time>2013-06-09T09:12:40.000Z</time>
      </trkpt>
      <trkpt lat="48.30322" lon="2.59112">
        <ele>88.400001525879</ele>
        <time>2013-06-09T09:12:45.000Z</time>
      </trkpt>
      <trkpt lat="48.30327" lon="2.59108">
        <ele>89.199996948242</ele>
        <time>2013-06-09T09:12:50.000Z</time>
      </trkpt>
      <trkpt lat="48.30332" lon="2.591">
        <ele>89.599998474121</ele>
        <time>2013-06-09T09:12:56.000Z</time>
      </trkpt>
      <trkpt lat="48.30331" lon="2.59089">
        <ele>89.599998474121</ele>
        <time>2013-06-09T09:13:03.000Z</time>
      </trkpt>
      <trkpt lat="48.30332" lon="2.5909">
        <ele>89.800003051758</ele>
        <time>2013-06-09T09:13:09.000Z</time>
      </trkpt>
      <trkpt lat="48.30333" lon="2.59092">
        <ele>89.800003051758</ele>
        <time>2013-06-09T09:13:10.000Z</time>
      </trkpt>
      <trkpt lat="48.30338" lon="2.59099">
        <ele>90.199996948242</ele>
        <time>2013-06-09T09:13:16.000Z</time>
      </trkpt>
      <trkpt lat="48.30341" lon="2.59096">
        <ele>90.400001525879</ele>
        <time>2013-06-09T09:13:23.000Z</time>
      </trkpt>
      <trkpt lat="48.30342" lon="2.59095">
        <ele>90.400001525879</ele>
        <time>2013-06-09T09:13:24.000Z</time>
      </trkpt>
      <trkpt lat="48.30346" lon="2.59078">
        <ele>90.599998474121</ele>
        <time>2013-06-09T09:13:30.000Z</time>
      </trkpt>
      <trkpt lat="48.3035" lon="2.59069">
        <ele>90.599998474121</ele>
        <time>2013-06-09T09:13:33.000Z</time>
      </trkpt>
      <trkpt lat="48.3036" lon="2.59061">
        <ele>91</ele>
        <time>2013-06-09T09:13:38.000Z</time>
      </trkpt>
      <trkpt lat="48.3037" lon="2.59061">
        <ele>91.599998474121</ele>
        <time>2013-06-09T09:13:43.000Z</time>
      </trkpt>
      <trkpt lat="48.30368" lon="2.59057">
        <ele>91.400001525879</ele>
        <time>2013-06-09T09:13:58.000Z</time>
      </trkpt>
      <trkpt lat="48.30362" lon="2.59057">
        <ele>91</ele>
        <time>2013-06-09T09:14:01.000Z</time>
      </trkpt>
      <trkpt lat="48.30351" lon="2.59064">
        <ele>90.599998474121</ele>
        <time>2013-06-09T09:14:06.000Z</time>
      </trkpt>
      <trkpt lat="48.30348" lon="2.59059">
        <ele>90.199996948242</ele>
        <time>2013-06-09T09:14:10.000Z</time>
      </trkpt>
      <trkpt lat="48.30347" lon="2.59055">
        <ele>90</ele>
        <time>2013-06-09T09:14:11.000Z</time>
      </trkpt>
      <trkpt lat="48.30342" lon="2.59042">
        <ele>89.400001525879</ele>
        <time>2013-06-09T09:14:15.000Z</time>
      </trkpt>
      <trkpt lat="48.30335" lon="2.5903">
        <ele>88.800003051758</ele>
        <time>2013-06-09T09:14:20.000Z</time>
      </trkpt>
      <trkpt lat="48.30335" lon="2.59027">
        <ele>88.599998474121</ele>
        <time>2013-06-09T09:14:21.000Z</time>
      </trkpt>
      <trkpt lat="48.30339" lon="2.59012">
        <ele>88.599998474121</ele>
        <time>2013-06-09T09:14:25.000Z</time>
      </trkpt>
      <trkpt lat="48.30345" lon="2.58995">
        <ele>88.199996948242</ele>
        <time>2013-06-09T09:14:31.000Z</time>
      </trkpt>
      <trkpt lat="48.30352" lon="2.58983">
        <ele>88</ele>
        <time>2013-06-09T09:14:35.000Z</time>
      </trkpt>
      <trkpt lat="48.30353" lon="2.58981">
        <ele>88</ele>
        <time>2013-06-09T09:14:36.000Z</time>
      </trkpt>
      <trkpt lat="48.30359" lon="2.58969">
        <ele>87.599998474121</ele>
        <time>2013-06-09T09:14:41.000Z</time>
      </trkpt>
      <trkpt lat="48.30352" lon="2.58955">
        <ele>86.400001525879</ele>
        <time>2013-06-09T09:14:45.000Z</time>
      </trkpt>
      <trkpt lat="48.30345" lon="2.5894">
        <ele>85</ele>
        <time>2013-06-09T09:14:49.000Z</time>
      </trkpt>
      <trkpt lat="48.30344" lon="2.58923">
        <ele>84</ele>
        <time>2013-06-09T09:14:53.000Z</time>
      </trkpt>
      <trkpt lat="48.30341" lon="2.58916">
        <ele>83.400001525879</ele>
        <time>2013-06-09T09:14:58.000Z</time>
      </trkpt>
      <trkpt lat="48.30343" lon="2.58916">
        <ele>83.599998474121</ele>
        <time>2013-06-09T09:15:02.000Z</time>
      </trkpt>
      <trkpt lat="48.30343" lon="2.58909">
        <ele>83.800003051758</ele>
        <time>2013-06-09T09:15:07.000Z</time>
      </trkpt>
      <trkpt lat="48.30351" lon="2.58898">
        <ele>84.400001525879</ele>
        <time>2013-06-09T09:15:11.000Z</time>
      </trkpt>
      <trkpt lat="48.30368" lon="2.58879">
        <ele>85.599998474121</ele>
        <time>2013-06-09T09:15:17.000Z</time>
      </trkpt>
      <trkpt lat="48.30384" lon="2.58861">
        <ele>86.199996948242</ele>
        <time>2013-06-09T09:15:23.000Z</time>
      </trkpt>
      <trkpt lat="48.30389" lon="2.58853">
        <ele>86.400001525879</ele>
        <time>2013-06-09T09:15:27.000Z</time>
      </trkpt>
      <trkpt lat="48.3039" lon="2.58852">
        <ele>86.400001525879</ele>
        <time>2013-06-09T09:15:29.000Z</time>
      </trkpt>
      <trkpt lat="48.30393" lon="2.58852">
        <ele>86.599998474121</ele>
        <time>2013-06-09T09:15:36.000Z</time>
      </trkpt>
      <trkpt lat="48.30392" lon="2.58854">
        <ele>86.599998474121</ele>
        <time>2013-06-09T09:15:58.000Z</time>
      </trkpt>
      <trkpt lat="48.30395" lon="2.58854">
        <ele>86.599998474121</ele>
        <time>2013-06-09T09:16:34.000Z</time>
      </trkpt>
      <trkpt lat="48.30392" lon="2.58854">
        <ele>86.400001525879</ele>
        <time>2013-06-09T09:16:39.000Z</time>
      </trkpt>
      <trkpt lat="48.30392" lon="2.58852">
        <ele>86.400001525879</ele>
        <time>2013-06-09T09:16:43.000Z</time>
      </trkpt>
      <trkpt lat="48.30391" lon="2.58853">
        <ele>86.400001525879</ele>
        <time>2013-06-09T09:16:56.000Z</time>
      </trkpt>
      <trkpt lat="48.30389" lon="2.58856">
        <ele>86.400001525879</ele>
        <time>2013-06-09T09:17:04.000Z</time>
      </trkpt>
      <trkpt lat="48.30389" lon="2.58857">
        <ele>86.400001525879</ele>
        <time>2013-06-09T09:17:06.000Z</time>
      </trkpt>
      <trkpt lat="48.30381" lon="2.58873">
        <ele>86.199996948242</ele>
        <time>2013-06-09T09:17:11.000Z</time>
      </trkpt>
      <trkpt lat="48.30362" lon="2.58891">
        <ele>85.199996948242</ele>
        <time>2013-06-09T09:17:17.000Z</time>
      </trkpt>
      <trkpt lat="48.30347" lon="2.58904">
        <ele>84</ele>
        <time>2013-06-09T09:17:22.000Z</time>
      </trkpt>
      <trkpt lat="48.30334" lon="2.58919">
        <ele>83</ele>
        <time>2013-06-09T09:17:26.000Z</time>
      </trkpt>
      <trkpt lat="48.30322" lon="2.58931">
        <ele>83.199996948242</ele>
        <time>2013-06-09T09:17:31.000Z</time>
      </trkpt>
      <trkpt lat="48.30307" lon="2.58943">
        <ele>82.800003051758</ele>
        <time>2013-06-09T09:17:35.000Z</time>
      </trkpt>
      <trkpt lat="48.30304" lon="2.58947">
        <ele>82.800003051758</ele>
        <time>2013-06-09T09:17:36.000Z</time>
      </trkpt>
      <trkpt lat="48.30286" lon="2.58959">
        <ele>82</ele>
        <time>2013-06-09T09:17:40.000Z</time>
      </trkpt>
      <trkpt lat="48.30271" lon="2.58974">
        <ele>81.400001525879</ele>
        <time>2013-06-09T09:17:45.000Z</time>
      </trkpt>
      <trkpt lat="48.30263" lon="2.58985">
        <ele>80.800003051758</ele>
        <time>2013-06-09T09:17:49.000Z</time>
      </trkpt>
      <trkpt lat="48.30254" lon="2.58994">
        <ele>80.199996948242</ele>
        <time>2013-06-09T09:17:53.000Z</time>
      </trkpt>
      <trkpt lat="48.30243" lon="2.59003">
        <ele>79.800003051758</ele>
        <time>2013-06-09T09:17:57.000Z</time>
      </trkpt>
      <trkpt lat="48.30237" lon="2.59011">
        <ele>79.599998474121</ele>
        <time>2013-06-09T09:18:01.000Z</time>
      </trkpt>
      <trkpt lat="48.3023" lon="2.59017">
        <ele>79.400001525879</ele>
        <time>2013-06-09T09:18:08.000Z</time>
      </trkpt>
      <trkpt lat="48.30219" lon="2.59027">
        <ele>79</ele>
        <time>2013-06-09T09:18:12.000Z</time>
      </trkpt>
      <trkpt lat="48.30208" lon="2.59037">
        <ele>78.400001525879</ele>
        <time>2013-06-09T09:18:17.000Z</time>
      </trkpt>
      <trkpt lat="48.30198" lon="2.59043">
        <ele>78</ele>
        <time>2013-06-09T09:18:21.000Z</time>
      </trkpt>
      <trkpt lat="48.30197" lon="2.59044">
        <ele>78</ele>
        <time>2013-06-09T09:18:23.000Z</time>
      </trkpt>
      <trkpt lat="48.30201" lon="2.59033">
        <ele>78.199996948242</ele>
        <time>2013-06-09T09:18:27.000Z</time>
      </trkpt>
      <trkpt lat="48.30221" lon="2.59016">
        <ele>79</ele>
        <time>2013-06-09T09:18:33.000Z</time>
      </trkpt>
      <trkpt lat="48.30236" lon="2.59002">
        <ele>79.599998474121</ele>
        <time>2013-06-09T09:18:39.000Z</time>
      </trkpt>
      <trkpt lat="48.30252" lon="2.58988">
        <ele>79.800003051758</ele>
        <time>2013-06-09T09:18:45.000Z</time>
      </trkpt>
      <trkpt lat="48.30261" lon="2.58978">
        <ele>80.599998474121</ele>
        <time>2013-06-09T09:18:50.000Z</time>
      </trkpt>
      <trkpt lat="48.30264" lon="2.58975">
        <ele>80.800003051758</ele>
        <time>2013-06-09T09:18:56.000Z</time>
      </trkpt>
      <trkpt lat="48.30262" lon="2.58973">
        <ele>80.599998474121</ele>
        <time>2013-06-09T09:19:07.000Z</time>
      </trkpt>
      <trkpt lat="48.30262" lon="2.58969">
        <ele>80.400001525879</ele>
        <time>2013-06-09T09:19:10.000Z</time>
      </trkpt>
      <trkpt lat="48.30258" lon="2.58956">
        <ele>80</ele>
        <time>2013-06-09T09:19:15.000Z</time>
      </trkpt>
      <trkpt lat="48.30254" lon="2.5895">
        <ele>79.599998474121</ele>
        <time>2013-06-09T09:19:18.000Z</time>
      </trkpt>
      <trkpt lat="48.3025" lon="2.58935">
        <ele>79.199996948242</ele>
        <time>2013-06-09T09:19:22.000Z</time>
      </trkpt>
      <trkpt lat="48.30237" lon="2.58921">
        <ele>78.800003051758</ele>
        <time>2013-06-09T09:19:28.000Z</time>
      </trkpt>
      <trkpt lat="48.30229" lon="2.58912">
        <ele>78.800003051758</ele>
        <time>2013-06-09T09:19:32.000Z</time>
      </trkpt>
      <trkpt lat="48.30219" lon="2.5889">
        <ele>79.199996948242</ele>
        <time>2013-06-09T09:19:38.000Z</time>
      </trkpt>
      <trkpt lat="48.30218" lon="2.58884">
        <ele>79.400001525879</ele>
        <time>2013-06-09T09:19:40.000Z</time>
      </trkpt>
      <trkpt lat="48.30215" lon="2.58882">
        <ele>79.400001525879</ele>
        <time>2013-06-09T09:19:44.000Z</time>
      </trkpt>
      <trkpt lat="48.30212" lon="2.5888">
        <ele>79.400001525879</ele>
        <time>2013-06-09T09:19:50.000Z</time>
      </trkpt>
      <trkpt lat="48.30209" lon="2.58878">
        <ele>79.400001525879</ele>
        <time>2013-06-09T09:19:56.000Z</time>
      </trkpt>
      <trkpt lat="48.30207" lon="2.58882">
        <ele>79.199996948242</ele>
        <time>2013-06-09T09:20:01.000Z</time>
      </trkpt>
      <trkpt lat="48.30204" lon="2.58881">
        <ele>79.199996948242</ele>
        <time>2013-06-09T09:20:06.000Z</time>
      </trkpt>
      <trkpt lat="48.30196" lon="2.58876">
        <ele>79</ele>
        <time>2013-06-09T09:20:12.000Z</time>
      </trkpt>
      <trkpt lat="48.30195" lon="2.58875">
        <ele>79</ele>
        <time>2013-06-09T09:20:13.000Z</time>
      </trkpt>
      <trkpt lat="48.30192" lon="2.58869">
        <ele>79.199996948242</ele>
        <time>2013-06-09T09:20:19.000Z</time>
      </trkpt>
      <trkpt lat="48.3019" lon="2.58866">
        <ele>79.199996948242</ele>
        <time>2013-06-09T09:20:27.000Z</time>
      </trkpt>
      <trkpt lat="48.30187" lon="2.58868">
        <ele>79</ele>
        <time>2013-06-09T09:20:34.000Z</time>
      </trkpt>
      <trkpt lat="48.30181" lon="2.58871">
        <ele>78.800003051758</ele>
        <time>2013-06-09T09:20:40.000Z</time>
      </trkpt>
      <trkpt lat="48.30178" lon="2.58866">
        <ele>78.800003051758</ele>
        <time>2013-06-09T09:20:45.000Z</time>
      </trkpt>
      <trkpt lat="48.30178" lon="2.58859">
        <ele>79</ele>
        <time>2013-06-09T09:20:50.000Z</time>
      </trkpt>
      <trkpt lat="48.30178" lon="2.58861">
        <ele>78.800003051758</ele>
        <time>2013-06-09T09:20:52.000Z</time>
      </trkpt>
      <trkpt lat="48.30182" lon="2.58873">
        <ele>78.800003051758</ele>
        <time>2013-06-09T09:20:58.000Z</time>
      </trkpt>
      <trkpt lat="48.30183" lon="2.58875">
        <ele>78.800003051758</ele>
        <time>2013-06-09T09:20:59.000Z</time>
      </trkpt>
      <trkpt lat="48.30182" lon="2.58877">
        <ele>78.800003051758</ele>
        <time>2013-06-09T09:21:06.000Z</time>
      </trkpt>
      <trkpt lat="48.3018" lon="2.58875">
        <ele>78.800003051758</ele>
        <time>2013-06-09T09:21:13.000Z</time>
      </trkpt>
      <trkpt lat="48.3018" lon="2.58873">
        <ele>78.800003051758</ele>
        <time>2013-06-09T09:21:14.000Z</time>
      </trkpt>
      <trkpt lat="48.30172" lon="2.5886">
        <ele>78.800003051758</ele>
        <time>2013-06-09T09:21:20.000Z</time>
      </trkpt>
      <trkpt lat="48.30171" lon="2.58861">
        <ele>78.599998474121</ele>
        <time>2013-06-09T09:21:22.000Z</time>
      </trkpt>
      <trkpt lat="48.30165" lon="2.58866">
        <ele>78.400001525879</ele>
        <time>2013-06-09T09:21:28.000Z</time>
      </trkpt>
      <trkpt lat="48.30165" lon="2.58867">
        <ele>78.400001525879</ele>
        <time>2013-06-09T09:21:29.000Z</time>
      </trkpt>
      <trkpt lat="48.30161" lon="2.58871">
        <ele>78.199996948242</ele>
        <time>2013-06-09T09:21:35.000Z</time>
      </trkpt>
      <trkpt lat="48.3016" lon="2.58874">
        <ele>78.199996948242</ele>
        <time>2013-06-09T09:21:41.000Z</time>
      </trkpt>
      <trkpt lat="48.30162" lon="2.58878">
        <ele>78.199996948242</ele>
        <time>2013-06-09T09:21:47.000Z</time>
      </trkpt>
      <trkpt lat="48.30159" lon="2.5888">
        <ele>78</ele>
        <time>2013-06-09T09:21:51.000Z</time>
      </trkpt>
      <trkpt lat="48.30153" lon="2.58877">
        <ele>77.800003051758</ele>
        <time>2013-06-09T09:21:58.000Z</time>
      </trkpt>
      <trkpt lat="48.3015" lon="2.58877">
        <ele>77.599998474121</ele>
        <time>2013-06-09T09:22:04.000Z</time>
      </trkpt>
      <trkpt lat="48.30144" lon="2.58877">
        <ele>77.400001525879</ele>
        <time>2013-06-09T09:22:09.000Z</time>
      </trkpt>
      <trkpt lat="48.30144" lon="2.58878">
        <ele>77.199996948242</ele>
        <time>2013-06-09T09:22:14.000Z</time>
      </trkpt>
      <trkpt lat="48.30144" lon="2.58881">
        <ele>77.199996948242</ele>
        <time>2013-06-09T09:22:19.000Z</time>
      </trkpt>
      <trkpt lat="48.30141" lon="2.58884">
        <ele>77.199996948242</ele>
        <time>2013-06-09T09:22:25.000Z</time>
      </trkpt>
      <trkpt lat="48.30138" lon="2.58886">
        <ele>77</ele>
        <time>2013-06-09T09:22:30.000Z</time>
      </trkpt>
      <trkpt lat="48.30137" lon="2.58891">
        <ele>77</ele>
        <time>2013-06-09T09:22:36.000Z</time>
      </trkpt>
      <trkpt lat="48.30135" lon="2.58897">
        <ele>76.800003051758</ele>
        <time>2013-06-09T09:22:41.000Z</time>
      </trkpt>
      <trkpt lat="48.30136" lon="2.58898">
        <ele>76.800003051758</ele>
        <time>2013-06-09T09:22:45.000Z</time>
      </trkpt>
      <trkpt lat="48.30139" lon="2.58897">
        <ele>77</ele>
        <time>2013-06-09T09:22:50.000Z</time>
      </trkpt>
      <trkpt lat="48.30145" lon="2.58899">
        <ele>77.199996948242</ele>
        <time>2013-06-09T09:22:56.000Z</time>
      </trkpt>
      <trkpt lat="48.30146" lon="2.589">
        <ele>77.199996948242</ele>
        <time>2013-06-09T09:23:03.000Z</time>
      </trkpt>
      <trkpt lat="48.30143" lon="2.58903">
        <ele>77.199996948242</ele>
        <time>2013-06-09T09:23:07.000Z</time>
      </trkpt>
      <trkpt lat="48.3014" lon="2.58906">
        <ele>77</ele>
        <time>2013-06-09T09:23:12.000Z</time>
      </trkpt>
      <trkpt lat="48.30144" lon="2.58903">
        <ele>77.199996948242</ele>
        <time>2013-06-09T09:23:16.000Z</time>
      </trkpt>
      <trkpt lat="48.30146" lon="2.58901">
        <ele>77.199996948242</ele>
        <time>2013-06-09T09:23:18.000Z</time>
      </trkpt>
      <trkpt lat="48.30151" lon="2.58903">
        <ele>77.400001525879</ele>
        <time>2013-06-09T09:23:22.000Z</time>
      </trkpt>
      <trkpt lat="48.30155" lon="2.58902">
        <ele>77.599998474121</ele>
        <time>2013-06-09T09:23:28.000Z</time>
      </trkpt>
      <trkpt lat="48.30157" lon="2.58898">
        <ele>77.800003051758</ele>
        <time>2013-06-09T09:23:33.000Z</time>
      </trkpt>
      <trkpt lat="48.30163" lon="2.58896">
        <ele>78</ele>
        <time>2013-06-09T09:23:39.000Z</time>
      </trkpt>
      <trkpt lat="48.30168" lon="2.58895">
        <ele>78.199996948242</ele>
        <time>2013-06-09T09:23:45.000Z</time>
      </trkpt>
      <trkpt lat="48.30172" lon="2.58896">
        <ele>78.199996948242</ele>
        <time>2013-06-09T09:23:51.000Z</time>
      </trkpt>
      <trkpt lat="48.30178" lon="2.58902">
        <ele>78.199996948242</ele>
        <time>2013-06-09T09:23:57.000Z</time>
      </trkpt>
      <trkpt lat="48.3018" lon="2.58903">
        <ele>78.199996948242</ele>
        <time>2013-06-09T09:23:59.000Z</time>
      </trkpt>
      <trkpt lat="48.30183" lon="2.58905">
        <ele>78.199996948242</ele>
        <time>2013-06-09T09:24:06.000Z</time>
      </trkpt>
      <trkpt lat="48.30183" lon="2.58905">
        <ele>78.199996948242</ele>
        <time>2013-06-09T09:24:11.000Z</time>
      </trkpt>
      <trkpt lat="48.30185" lon="2.58905">
        <ele>78.400001525879</ele>
        <time>2013-06-09T09:24:19.000Z</time>
      </trkpt>
      <trkpt lat="48.30186" lon="2.58912">
        <ele>78.199996948242</ele>
        <time>2013-06-09T09:24:24.000Z</time>
      </trkpt>
      <trkpt lat="48.30199" lon="2.58915">
        <ele>78.400001525879</ele>
        <time>2013-06-09T09:24:30.000Z</time>
      </trkpt>
      <trkpt lat="48.30205" lon="2.58914">
        <ele>78.400001525879</ele>
        <time>2013-06-09T09:24:34.000Z</time>
      </trkpt>
      <trkpt lat="48.30204" lon="2.58914">
        <ele>78.400001525879</ele>
        <time>2013-06-09T09:24:42.000Z</time>
      </trkpt>
      <trkpt lat="48.30208" lon="2.58917">
        <ele>78.400001525879</ele>
        <time>2013-06-09T09:24:47.000Z</time>
      </trkpt>
      <trkpt lat="48.30216" lon="2.58921">
        <ele>78.599998474121</ele>
        <time>2013-06-09T09:24:52.000Z</time>
      </trkpt>
      <trkpt lat="48.30222" lon="2.58927">
        <ele>78.599998474121</ele>
        <time>2013-06-09T09:24:55.000Z</time>
      </trkpt>
      <trkpt lat="48.30224" lon="2.58937">
        <ele>78.800003051758</ele>
        <time>2013-06-09T09:25:01.000Z</time>
      </trkpt>
      <trkpt lat="48.30223" lon="2.58951">
        <ele>78.800003051758</ele>
        <time>2013-06-09T09:25:08.000Z</time>
      </trkpt>
      <trkpt lat="48.30224" lon="2.58954">
        <ele>79</ele>
        <time>2013-06-09T09:25:11.000Z</time>
      </trkpt>
      <trkpt lat="48.30224" lon="2.58955">
        <ele>79</ele>
        <time>2013-06-09T09:25:13.000Z</time>
      </trkpt>
      <trkpt lat="48.30222" lon="2.58957">
        <ele>78.800003051758</ele>
        <time>2013-06-09T09:25:20.000Z</time>
      </trkpt>
      <trkpt lat="48.30222" lon="2.58961">
        <ele>79</ele>
        <time>2013-06-09T09:25:22.000Z</time>
      </trkpt>
      <trkpt lat="48.30223" lon="2.5897">
        <ele>79</ele>
        <time>2013-06-09T09:25:26.000Z</time>
      </trkpt>
      <trkpt lat="48.30228" lon="2.58972">
        <ele>79.199996948242</ele>
        <time>2013-06-09T09:25:31.000Z</time>
      </trkpt>
      <trkpt lat="48.30232" lon="2.58977">
        <ele>79.199996948242</ele>
        <time>2013-06-09T09:25:37.000Z</time>
      </trkpt>
      <trkpt lat="48.30238" lon="2.58988">
        <ele>79.400001525879</ele>
        <time>2013-06-09T09:25:41.000Z</time>
      </trkpt>
      <trkpt lat="48.30241" lon="2.59002">
        <ele>79.599998474121</ele>
        <time>2013-06-09T09:25:46.000Z</time>
      </trkpt>
      <trkpt lat="48.3024" lon="2.59003">
        <ele>79.599998474121</ele>
        <time>2013-06-09T09:25:50.000Z</time>
      </trkpt>
      <trkpt lat="48.30236" lon="2.59005">
        <ele>79.599998474121</ele>
        <time>2013-06-09T09:25:58.000Z</time>
      </trkpt>
      <trkpt lat="48.30232" lon="2.59008">
        <ele>79.400001525879</ele>
        <time>2013-06-09T09:26:14.000Z</time>
      </trkpt>
      <trkpt lat="48.30232" lon="2.59011">
        <ele>79.400001525879</ele>
        <time>2013-06-09T09:26:29.000Z</time>
      </trkpt>
      <trkpt lat="48.30231" lon="2.5901">
        <ele>79.400001525879</ele>
        <time>2013-06-09T09:26:30.000Z</time>
      </trkpt>
      <trkpt lat="48.30231" lon="2.5901">
        <ele>79.400001525879</ele>
        <time>2013-06-09T09:26:30.000Z</time>
      </trkpt>
      <trkpt lat="48.30231" lon="2.5901">
        <ele>79.400001525879</ele>
        <time>2013-06-09T09:26:31.000Z</time>
      </trkpt>
      <trkpt lat="48.30223" lon="2.59015">
        <ele>79.199996948242</ele>
        <time>2013-06-09T09:26:36.000Z</time>
      </trkpt>
      <trkpt lat="48.3021" lon="2.5903">
        <ele>78.599998474121</ele>
        <time>2013-06-09T09:26:41.000Z</time>
      </trkpt>
      <trkpt lat="48.30196" lon="2.59042">
        <ele>78</ele>
        <time>2013-06-09T09:26:45.000Z</time>
      </trkpt>
      <trkpt lat="48.30177" lon="2.59058">
        <ele>77</ele>
        <time>2013-06-09T09:26:50.000Z</time>
      </trkpt>
      <trkpt lat="48.30174" lon="2.5906">
        <ele>76.800003051758</ele>
        <time>2013-06-09T09:26:51.000Z</time>
      </trkpt>
      <trkpt lat="48.30166" lon="2.59066">
        <ele>76.199996948242</ele>
        <time>2013-06-09T09:26:53.000Z</time>
      </trkpt>
      <trkpt lat="48.30149" lon="2.5908">
        <ele>75.800003051758</ele>
        <time>2013-06-09T09:26:58.000Z</time>
      </trkpt>
      <trkpt lat="48.3014" lon="2.59088">
        <ele>75.400001525879</ele>
        <time>2013-06-09T09:27:01.000Z</time>
      </trkpt>
      <trkpt lat="48.30124" lon="2.59107">
        <ele>75</ele>
        <time>2013-06-09T09:27:06.000Z</time>
      </trkpt>
      <trkpt lat="48.30114" lon="2.59111">
        <ele>74.800003051758</ele>
        <time>2013-06-09T09:27:10.000Z</time>
      </trkpt>
      <trkpt lat="48.30113" lon="2.59105">
        <ele>75</ele>
        <time>2013-06-09T09:27:23.000Z</time>
      </trkpt>
      <trkpt lat="48.30115" lon="2.59105">
        <ele>75</ele>
        <time>2013-06-09T09:27:28.000Z</time>
      </trkpt>
      <trkpt lat="48.30114" lon="2.59103">
        <ele>75</ele>
        <time>2013-06-09T09:27:30.000Z</time>
      </trkpt>
      <trkpt lat="48.30108" lon="2.59087">
        <ele>75.199996948242</ele>
        <time>2013-06-09T09:27:35.000Z</time>
      </trkpt>
      <trkpt lat="48.30096" lon="2.59065">
        <ele>75.199996948242</ele>
        <time>2013-06-09T09:27:40.000Z</time>
      </trkpt>
      <trkpt lat="48.30083" lon="2.59036">
        <ele>75</ele>
        <time>2013-06-09T09:27:46.000Z</time>
      </trkpt>
      <trkpt lat="48.30072" lon="2.59013">
        <ele>75.199996948242</ele>
        <time>2013-06-09T09:27:51.000Z</time>
      </trkpt>
      <trkpt lat="48.30059" lon="2.58991">
        <ele>75.199996948242</ele>
        <time>2013-06-09T09:27:56.000Z</time>
      </trkpt>
      <trkpt lat="48.30045" lon="2.58985">
        <ele>75.199996948242</ele>
        <time>2013-06-09T09:28:00.000Z</time>
      </trkpt>
      <trkpt lat="48.30027" lon="2.58978">
        <ele>75.199996948242</ele>
        <time>2013-06-09T09:28:05.000Z</time>
      </trkpt>
      <trkpt lat="48.30017" lon="2.58973">
        <ele>75.199996948242</ele>
        <time>2013-06-09T09:28:08.000Z</time>
      </trkpt>
      <trkpt lat="48.30017" lon="2.58973">
        <ele>75.199996948242</ele>
        <time>2013-06-09T09:28:08.000Z</time>
      </trkpt>
      <trkpt lat="48.30011" lon="2.58972">
        <ele>75.199996948242</ele>
        <time>2013-06-09T09:28:10.000Z</time>
      </trkpt>
      <trkpt lat="48.29998" lon="2.58973">
        <ele>75.199996948242</ele>
        <time>2013-06-09T09:28:14.000Z</time>
      </trkpt>
      <trkpt lat="48.29987" lon="2.58977">
        <ele>75.199996948242</ele>
        <time>2013-06-09T09:28:18.000Z</time>
      </trkpt>
      <trkpt lat="48.29971" lon="2.58979">
        <ele>74.800003051758</ele>
        <time>2013-06-09T09:28:24.000Z</time>
      </trkpt>
      <trkpt lat="48.29959" lon="2.58982">
        <ele>74.599998474121</ele>
        <time>2013-06-09T09:28:29.000Z</time>
      </trkpt>
      <trkpt lat="48.29956" lon="2.58981">
        <ele>74.599998474121</ele>
        <time>2013-06-09T09:28:34.000Z</time>
      </trkpt>
      <trkpt lat="48.29953" lon="2.58975">
        <ele>74.599998474121</ele>
        <time>2013-06-09T09:28:38.000Z</time>
      </trkpt>
      <trkpt lat="48.2994" lon="2.58965">
        <ele>74.199996948242</ele>
        <time>2013-06-09T09:28:44.000Z</time>
      </trkpt>
      <trkpt lat="48.29928" lon="2.58953">
        <ele>74</ele>
        <time>2013-06-09T09:28:49.000Z</time>
      </trkpt>
      <trkpt lat="48.29918" lon="2.58939">
        <ele>74</ele>
        <time>2013-06-09T09:28:54.000Z</time>
      </trkpt>
      <trkpt lat="48.29914" lon="2.58921">
        <ele>73.800003051758</ele>
        <time>2013-06-09T09:28:58.000Z</time>
      </trkpt>
      <trkpt lat="48.29913" lon="2.58918">
        <ele>73.800003051758</ele>
        <time>2013-06-09T09:29:02.000Z</time>
      </trkpt>
      <trkpt lat="48.29913" lon="2.58917">
        <ele>73.800003051758</ele>
        <time>2013-06-09T09:29:15.000Z</time>
      </trkpt>
      <trkpt lat="48.29914" lon="2.58914">
        <ele>73.800003051758</ele>
        <time>2013-06-09T09:29:22.000Z</time>
      </trkpt>
      <trkpt lat="48.2991" lon="2.58908">
        <ele>73.800003051758</ele>
        <time>2013-06-09T09:29:31.000Z</time>
      </trkpt>
      <trkpt lat="48.29904" lon="2.58899">
        <ele>73.800003051758</ele>
        <time>2013-06-09T09:29:36.000Z</time>
      </trkpt>
      <trkpt lat="48.29895" lon="2.58883">
        <ele>73.800003051758</ele>
        <time>2013-06-09T09:29:41.000Z</time>
      </trkpt>
      <trkpt lat="48.2989" lon="2.58873">
        <ele>74</ele>
        <time>2013-06-09T09:29:44.000Z</time>
      </trkpt>
      <trkpt lat="48.2988" lon="2.58855">
        <ele>74.199996948242</ele>
        <time>2013-06-09T09:29:49.000Z</time>
      </trkpt>
      <trkpt lat="48.29873" lon="2.58841">
        <ele>74.400001525879</ele>
        <time>2013-06-09T09:29:53.000Z</time>
      </trkpt>
      <trkpt lat="48.29864" lon="2.58828">
        <ele>74.599998474121</ele>
        <time>2013-06-09T09:29:57.000Z</time>
      </trkpt>
      <trkpt lat="48.2985" lon="2.58816">
        <ele>74.800003051758</ele>
        <time>2013-06-09T09:30:02.000Z</time>
      </trkpt>
      <trkpt lat="48.29847" lon="2.58813">
        <ele>75</ele>
        <time>2013-06-09T09:30:03.000Z</time>
      </trkpt>
      <trkpt lat="48.29839" lon="2.58803">
        <ele>75.199996948242</ele>
        <time>2013-06-09T09:30:07.000Z</time>
      </trkpt>
      <trkpt lat="48.29838" lon="2.588">
        <ele>75.199996948242</ele>
        <time>2013-06-09T09:30:13.000Z</time>
      </trkpt>
      <trkpt lat="48.29838" lon="2.58798">
        <ele>75.199996948242</ele>
        <time>2013-06-09T09:30:20.000Z</time>
      </trkpt>
      <trkpt lat="48.29841" lon="2.58798">
        <ele>75.199996948242</ele>
        <time>2013-06-09T09:30:36.000Z</time>
      </trkpt>
      <trkpt lat="48.29841" lon="2.58798">
        <ele>75.199996948242</ele>
        <time>2013-06-09T09:30:45.000Z</time>
      </trkpt>
      <trkpt lat="48.29844" lon="2.58794">
        <ele>75.199996948242</ele>
        <time>2013-06-09T09:30:56.000Z</time>
      </trkpt>
      <trkpt lat="48.29842" lon="2.58797">
        <ele>75.199996948242</ele>
        <time>2013-06-09T09:31:02.000Z</time>
      </trkpt>
      <trkpt lat="48.29834" lon="2.58821">
        <ele>75</ele>
        <time>2013-06-09T09:31:07.000Z</time>
      </trkpt>
      <trkpt lat="48.2982" lon="2.58838">
        <ele>74.800003051758</ele>
        <time>2013-06-09T09:31:11.000Z</time>
      </trkpt>
      <trkpt lat="48.29806" lon="2.58854">
        <ele>74.400001525879</ele>
        <time>2013-06-09T09:31:15.000Z</time>
      </trkpt>
      <trkpt lat="48.298" lon="2.58878">
        <ele>73.800003051758</ele>
        <time>2013-06-09T09:31:20.000Z</time>
      </trkpt>
      <trkpt lat="48.29798" lon="2.58894">
        <ele>73.400001525879</ele>
        <time>2013-06-09T09:31:23.000Z</time>
      </trkpt>
      <trkpt lat="48.29791" lon="2.58907">
        <ele>73.199996948242</ele>
        <time>2013-06-09T09:31:26.000Z</time>
      </trkpt>
      <trkpt lat="48.29772" lon="2.58922">
        <ele>73</ele>
        <time>2013-06-09T09:31:30.000Z</time>
      </trkpt>
      <trkpt lat="48.29765" lon="2.58927">
        <ele>73</ele>
        <time>2013-06-09T09:31:32.000Z</time>
      </trkpt>
      <trkpt lat="48.29759" lon="2.5895">
        <ele>73</ele>
        <time>2013-06-09T09:31:37.000Z</time>
      </trkpt>
      <trkpt lat="48.29765" lon="2.58979">
        <ele>73</ele>
        <time>2013-06-09T09:31:43.000Z</time>
      </trkpt>
      <trkpt lat="48.29769" lon="2.58997">
        <ele>73</ele>
        <time>2013-06-09T09:31:47.000Z</time>
      </trkpt>
      <trkpt lat="48.29766" lon="2.59017">
        <ele>72.800003051758</ele>
        <time>2013-06-09T09:31:51.000Z</time>
      </trkpt>
      <trkpt lat="48.29761" lon="2.5903">
        <ele>72.599998474121</ele>
        <time>2013-06-09T09:31:55.000Z</time>
      </trkpt>
      <trkpt lat="48.29756" lon="2.59033">
        <ele>72.599998474121</ele>
        <time>2013-06-09T09:31:59.000Z</time>
      </trkpt>
      <trkpt lat="48.29756" lon="2.59031">
        <ele>72.599998474121</ele>
        <time>2013-06-09T09:32:05.000Z</time>
      </trkpt>
      <trkpt lat="48.29757" lon="2.5903">
        <ele>72.599998474121</ele>
        <time>2013-06-09T09:32:11.000Z</time>
      </trkpt>
      <trkpt lat="48.29755" lon="2.59035">
        <ele>72.599998474121</ele>
        <time>2013-06-09T09:32:19.000Z</time>
      </trkpt>
      <trkpt lat="48.29755" lon="2.59035">
        <ele>72.599998474121</ele>
        <time>2013-06-09T09:32:19.000Z</time>
      </trkpt>
      <trkpt lat="48.29754" lon="2.59036">
        <ele>72.599998474121</ele>
        <time>2013-06-09T09:32:20.000Z</time>
      </trkpt>
      <trkpt lat="48.29741" lon="2.59038">
        <ele>72.199996948242</ele>
        <time>2013-06-09T09:32:24.000Z</time>
      </trkpt>
      <trkpt lat="48.29733" lon="2.59035">
        <ele>72</ele>
        <time>2013-06-09T09:32:26.000Z</time>
      </trkpt>
      <trkpt lat="48.29713" lon="2.59019">
        <ele>71.599998474121</ele>
        <time>2013-06-09T09:32:32.000Z</time>
      </trkpt>
      <trkpt lat="48.2971" lon="2.59014">
        <ele>71.400001525879</ele>
        <time>2013-06-09T09:32:33.000Z</time>
      </trkpt>
      <trkpt lat="48.29695" lon="2.58994">
        <ele>71</ele>
        <time>2013-06-09T09:32:39.000Z</time>
      </trkpt>
      <trkpt lat="48.29686" lon="2.58978">
        <ele>70.599998474121</ele>
        <time>2013-06-09T09:32:42.000Z</time>
      </trkpt>
      <trkpt lat="48.29668" lon="2.58967">
        <ele>70</ele>
        <time>2013-06-09T09:32:47.000Z</time>
      </trkpt>
      <trkpt lat="48.2965" lon="2.58956">
        <ele>69.800003051758</ele>
        <time>2013-06-09T09:32:52.000Z</time>
      </trkpt>
      <trkpt lat="48.29636" lon="2.58945">
        <ele>69.800003051758</ele>
        <time>2013-06-09T09:32:56.000Z</time>
      </trkpt>
      <trkpt lat="48.29626" lon="2.58935">
        <ele>69.599998474121</ele>
        <time>2013-06-09T09:33:00.000Z</time>
      </trkpt>
      <trkpt lat="48.29624" lon="2.58933">
        <ele>69.599998474121</ele>
        <time>2013-06-09T09:33:04.000Z</time>
      </trkpt>
      <trkpt lat="48.29622" lon="2.58929">
        <ele>69.599998474121</ele>
        <time>2013-06-09T09:33:06.000Z</time>
      </trkpt>
      <trkpt lat="48.29609" lon="2.58913">
        <ele>69.400001525879</ele>
        <time>2013-06-09T09:33:12.000Z</time>
      </trkpt>
      <trkpt lat="48.29611" lon="2.58905">
        <ele>69.599998474121</ele>
        <time>2013-06-09T09:33:15.000Z</time>
      </trkpt>
      <trkpt lat="48.2962" lon="2.58894">
        <ele>70.199996948242</ele>
        <time>2013-06-09T09:33:20.000Z</time>
      </trkpt>
      <trkpt lat="48.29626" lon="2.58885">
        <ele>70.599998474121</ele>
        <time>2013-06-09T09:33:25.000Z</time>
      </trkpt>
      <trkpt lat="48.29631" lon="2.58878">
        <ele>71</ele>
        <time>2013-06-09T09:33:29.000Z</time>
      </trkpt>
      <trkpt lat="48.29634" lon="2.58875">
        <ele>71.199996948242</ele>
        <time>2013-06-09T09:33:35.000Z</time>
      </trkpt>
      <trkpt lat="48.29638" lon="2.58875">
        <ele>71.199996948242</ele>
        <time>2013-06-09T09:33:41.000Z</time>
      </trkpt>
      <trkpt lat="48.29644" lon="2.58875">
        <ele>71.400001525879</ele>
        <time>2013-06-09T09:33:45.000Z</time>
      </trkpt>
      <trkpt lat="48.29646" lon="2.58877">
        <ele>71.400001525879</ele>
        <time>2013-06-09T09:33:53.000Z</time>
      </trkpt>
      <trkpt lat="48.2965" lon="2.58886">
        <ele>71</ele>
        <time>2013-06-09T09:33:58.000Z</time>
      </trkpt>
      <trkpt lat="48.29647" lon="2.5889">
        <ele>70.800003051758</ele>
        <time>2013-06-09T09:33:59.000Z</time>
      </trkpt>
      <trkpt lat="48.29642" lon="2.58897">
        <ele>70.400001525879</ele>
        <time>2013-06-09T09:34:01.000Z</time>
      </trkpt>
      <trkpt lat="48.29637" lon="2.5891">
        <ele>69.800003051758</ele>
        <time>2013-06-09T09:34:05.000Z</time>
      </trkpt>
      <trkpt lat="48.29631" lon="2.5892">
        <ele>69.599998474121</ele>
        <time>2013-06-09T09:34:10.000Z</time>
      </trkpt>
      <trkpt lat="48.2962" lon="2.58922">
        <ele>69.400001525879</ele>
        <time>2013-06-09T09:34:14.000Z</time>
      </trkpt>
      <trkpt lat="48.29609" lon="2.5891">
        <ele>69.400001525879</ele>
        <time>2013-06-09T09:34:19.000Z</time>
      </trkpt>
      <trkpt lat="48.29606" lon="2.58912">
        <ele>69.400001525879</ele>
        <time>2013-06-09T09:34:23.000Z</time>
      </trkpt>
      <trkpt lat="48.29607" lon="2.58906">
        <ele>69.599998474121</ele>
        <time>2013-06-09T09:34:35.000Z</time>
      </trkpt>
      <trkpt lat="48.296" lon="2.58893">
        <ele>69.800003051758</ele>
        <time>2013-06-09T09:34:39.000Z</time>
      </trkpt>
      <trkpt lat="48.29593" lon="2.5888">
        <ele>70</ele>
        <time>2013-06-09T09:34:42.000Z</time>
      </trkpt>
      <trkpt lat="48.29585" lon="2.58858">
        <ele>70.400001525879</ele>
        <time>2013-06-09T09:34:47.000Z</time>
      </trkpt>
      <trkpt lat="48.29583" lon="2.58853">
        <ele>70.400001525879</ele>
        <time>2013-06-09T09:34:48.000Z</time>
      </trkpt>
      <trkpt lat="48.29583" lon="2.58853">
        <ele>70.400001525879</ele>
        <time>2013-06-09T09:34:48.000Z</time>
      </trkpt>
      <trkpt lat="48.29579" lon="2.58824">
        <ele>71.199996948242</ele>
        <time>2013-06-09T09:34:53.000Z</time>
      </trkpt>
      <trkpt lat="48.29576" lon="2.58816">
        <ele>71.599998474121</ele>
        <time>2013-06-09T09:34:56.000Z</time>
      </trkpt>
      <trkpt lat="48.29578" lon="2.58821">
        <ele>71.400001525879</ele>
        <time>2013-06-09T09:35:01.000Z</time>
      </trkpt>
      <trkpt lat="48.29578" lon="2.58827">
        <ele>71.199996948242</ele>
        <time>2013-06-09T09:35:06.000Z</time>
      </trkpt>
      <trkpt lat="48.29576" lon="2.58827">
        <ele>71.199996948242</ele>
        <time>2013-06-09T09:35:10.000Z</time>
      </trkpt>
      <trkpt lat="48.29572" lon="2.58802">
        <ele>71.800003051758</ele>
        <time>2013-06-09T09:35:16.000Z</time>
      </trkpt>
      <trkpt lat="48.29564" lon="2.58781">
        <ele>72.199996948242</ele>
        <time>2013-06-09T09:35:21.000Z</time>
      </trkpt>
      <trkpt lat="48.29554" lon="2.58755">
        <ele>72.599998474121</ele>
        <time>2013-06-09T09:35:26.000Z</time>
      </trkpt>
      <trkpt lat="48.29551" lon="2.5875">
        <ele>72.599998474121</ele>
        <time>2013-06-09T09:35:27.000Z</time>
      </trkpt>
      <trkpt lat="48.29543" lon="2.5873">
        <ele>72.400001525879</ele>
        <time>2013-06-09T09:35:32.000Z</time>
      </trkpt>
      <trkpt lat="48.29539" lon="2.58725">
        <ele>72.400001525879</ele>
        <time>2013-06-09T09:35:34.000Z</time>
      </trkpt>
      <trkpt lat="48.29528" lon="2.58721">
        <ele>72.199996948242</ele>
        <time>2013-06-09T09:35:37.000Z</time>
      </trkpt>
      <trkpt lat="48.29515" lon="2.58699">
        <ele>72</ele>
        <time>2013-06-09T09:35:42.000Z</time>
      </trkpt>
      <trkpt lat="48.29507" lon="2.58685">
        <ele>72</ele>
        <time>2013-06-09T09:35:46.000Z</time>
      </trkpt>
      <trkpt lat="48.295" lon="2.58673">
        <ele>72</ele>
        <time>2013-06-09T09:35:50.000Z</time>
      </trkpt>
      <trkpt lat="48.2949" lon="2.58655">
        <ele>72.599998474121</ele>
        <time>2013-06-09T09:35:55.000Z</time>
      </trkpt>
      <trkpt lat="48.29487" lon="2.58648">
        <ele>73</ele>
        <time>2013-06-09T09:35:57.000Z</time>
      </trkpt>
      <trkpt lat="48.29476" lon="2.58647">
        <ele>73.599998474121</ele>
        <time>2013-06-09T09:36:02.000Z</time>
      </trkpt>
      <trkpt lat="48.29472" lon="2.58649">
        <ele>73.800003051758</ele>
        <time>2013-06-09T09:36:08.000Z</time>
      </trkpt>
      <trkpt lat="48.29475" lon="2.58646">
        <ele>73.800003051758</ele>
        <time>2013-06-09T09:36:18.000Z</time>
      </trkpt>
      <trkpt lat="48.29475" lon="2.58644">
        <ele>73.800003051758</ele>
        <time>2013-06-09T09:36:20.000Z</time>
      </trkpt>
      <trkpt lat="48.29479" lon="2.58639">
        <ele>73.599998474121</ele>
        <time>2013-06-09T09:36:24.000Z</time>
      </trkpt>
      <trkpt lat="48.2948" lon="2.58639">
        <ele>73.400001525879</ele>
        <time>2013-06-09T09:36:25.000Z</time>
      </trkpt>
      <trkpt lat="48.29485" lon="2.58638">
        <ele>73.199996948242</ele>
        <time>2013-06-09T09:36:29.000Z</time>
      </trkpt>
      <trkpt lat="48.29487" lon="2.58638">
        <ele>73</ele>
        <time>2013-06-09T09:36:41.000Z</time>
      </trkpt>
      <trkpt lat="48.29494" lon="2.58649">
        <ele>72.599998474121</ele>
        <time>2013-06-09T09:36:45.000Z</time>
      </trkpt>
      <trkpt lat="48.29504" lon="2.58666">
        <ele>72</ele>
        <time>2013-06-09T09:36:49.000Z</time>
      </trkpt>
      <trkpt lat="48.29512" lon="2.58686">
        <ele>72</ele>
        <time>2013-06-09T09:36:53.000Z</time>
      </trkpt>
      <trkpt lat="48.29523" lon="2.58699">
        <ele>72.199996948242</ele>
        <time>2013-06-09T09:36:57.000Z</time>
      </trkpt>
      <trkpt lat="48.29533" lon="2.5871">
        <ele>72.199996948242</ele>
        <time>2013-06-09T09:37:01.000Z</time>
      </trkpt>
      <trkpt lat="48.29536" lon="2.58708">
        <ele>72.400001525879</ele>
        <time>2013-06-09T09:37:02.000Z</time>
      </trkpt>
      <trkpt lat="48.29545" lon="2.58694">
        <ele>72.400001525879</ele>
        <time>2013-06-09T09:37:06.000Z</time>
      </trkpt>
      <trkpt lat="48.29545" lon="2.58688">
        <ele>72.400001525879</ele>
        <time>2013-06-09T09:37:07.000Z</time>
      </trkpt>
      <trkpt lat="48.29552" lon="2.58658">
        <ele>72.599998474121</ele>
        <time>2013-06-09T09:37:13.000Z</time>
      </trkpt>
      <trkpt lat="48.29555" lon="2.58638">
        <ele>73.199996948242</ele>
        <time>2013-06-09T09:37:17.000Z</time>
      </trkpt>
      <trkpt lat="48.29561" lon="2.58612">
        <ele>73.800003051758</ele>
        <time>2013-06-09T09:37:22.000Z</time>
      </trkpt>
      <trkpt lat="48.29566" lon="2.58585">
        <ele>74.400001525879</ele>
        <time>2013-06-09T09:37:27.000Z</time>
      </trkpt>
      <trkpt lat="48.29572" lon="2.58566">
        <ele>74.800003051758</ele>
        <time>2013-06-09T09:37:31.000Z</time>
      </trkpt>
      <trkpt lat="48.29575" lon="2.58544">
        <ele>75.199996948242</ele>
        <time>2013-06-09T09:37:35.000Z</time>
      </trkpt>
      <trkpt lat="48.29582" lon="2.58529">
        <ele>75.599998474121</ele>
        <time>2013-06-09T09:37:39.000Z</time>
      </trkpt>
      <trkpt lat="48.29593" lon="2.58513">
        <ele>76</ele>
        <time>2013-06-09T09:37:44.000Z</time>
      </trkpt>
      <trkpt lat="48.29596" lon="2.58505">
        <ele>76.199996948242</ele>
        <time>2013-06-09T09:37:48.000Z</time>
      </trkpt>
      <trkpt lat="48.29597" lon="2.58503">
        <ele>76.199996948242</ele>
        <time>2013-06-09T09:37:54.000Z</time>
      </trkpt>
      <trkpt lat="48.29605" lon="2.585">
        <ele>76.400001525879</ele>
        <time>2013-06-09T09:38:08.000Z</time>
      </trkpt>
      <trkpt lat="48.29613" lon="2.58488">
        <ele>76.800003051758</ele>
        <time>2013-06-09T09:38:13.000Z</time>
      </trkpt>
      <trkpt lat="48.29623" lon="2.5848">
        <ele>77</ele>
        <time>2013-06-09T09:38:18.000Z</time>
      </trkpt>
      <trkpt lat="48.29635" lon="2.5847">
        <ele>77.599998474121</ele>
        <time>2013-06-09T09:38:23.000Z</time>
      </trkpt>
      <trkpt lat="48.29642" lon="2.58455">
        <ele>77.800003051758</ele>
        <time>2013-06-09T09:38:27.000Z</time>
      </trkpt>
      <trkpt lat="48.29649" lon="2.58448">
        <ele>78</ele>
        <time>2013-06-09T09:38:32.000Z</time>
      </trkpt>
      <trkpt lat="48.29647" lon="2.58445">
        <ele>78</ele>
        <time>2013-06-09T09:38:40.000Z</time>
      </trkpt>
      <trkpt lat="48.29643" lon="2.58443">
        <ele>78</ele>
        <time>2013-06-09T09:38:55.000Z</time>
      </trkpt>
      <trkpt lat="48.29653" lon="2.58451">
        <ele>78.199996948242</ele>
        <time>2013-06-09T09:39:23.000Z</time>
      </trkpt>
      <trkpt lat="48.29657" lon="2.58442">
        <ele>78.400001525879</ele>
        <time>2013-06-09T09:39:45.000Z</time>
      </trkpt>
      <trkpt lat="48.29659" lon="2.58442">
        <ele>78.400001525879</ele>
        <time>2013-06-09T09:40:05.000Z</time>
      </trkpt>
      <trkpt lat="48.29651" lon="2.58453">
        <ele>78</ele>
        <time>2013-06-09T09:40:17.000Z</time>
      </trkpt>
      <trkpt lat="48.29641" lon="2.58466">
        <ele>77.599998474121</ele>
        <time>2013-06-09T09:40:22.000Z</time>
      </trkpt>
      <trkpt lat="48.29633" lon="2.5847">
        <ele>77.400001525879</ele>
        <time>2013-06-09T09:40:27.000Z</time>
      </trkpt>
      <trkpt lat="48.29627" lon="2.58473">
        <ele>77.199996948242</ele>
        <time>2013-06-09T09:40:30.000Z</time>
      </trkpt>
      <trkpt lat="48.29616" lon="2.58477">
        <ele>77</ele>
        <time>2013-06-09T09:40:35.000Z</time>
      </trkpt>
      <trkpt lat="48.29609" lon="2.58464">
        <ele>77</ele>
        <time>2013-06-09T09:40:40.000Z</time>
      </trkpt>
      <trkpt lat="48.29607" lon="2.58441">
        <ele>77.199996948242</ele>
        <time>2013-06-09T09:40:46.000Z</time>
      </trkpt>
      <trkpt lat="48.29606" lon="2.5842">
        <ele>77.400001525879</ele>
        <time>2013-06-09T09:40:50.000Z</time>
      </trkpt>
      <trkpt lat="48.29607" lon="2.58398">
        <ele>77.599998474121</ele>
        <time>2013-06-09T09:40:54.000Z</time>
      </trkpt>
      <trkpt lat="48.2961" lon="2.58368">
        <ele>78.199996948242</ele>
        <time>2013-06-09T09:41:00.000Z</time>
      </trkpt>
      <trkpt lat="48.29611" lon="2.58347">
        <ele>78.400001525879</ele>
        <time>2013-06-09T09:41:04.000Z</time>
      </trkpt>
      <trkpt lat="48.29615" lon="2.58313">
        <ele>79</ele>
        <time>2013-06-09T09:41:11.000Z</time>
      </trkpt>
      <trkpt lat="48.29618" lon="2.58296">
        <ele>79.199996948242</ele>
        <time>2013-06-09T09:41:16.000Z</time>
      </trkpt>
      <trkpt lat="48.29618" lon="2.58294">
        <ele>79.199996948242</ele>
        <time>2013-06-09T09:41:17.000Z</time>
      </trkpt>
      <trkpt lat="48.2962" lon="2.58295">
        <ele>79.199996948242</ele>
        <time>2013-06-09T09:41:24.000Z</time>
      </trkpt>
      <trkpt lat="48.29622" lon="2.58288">
        <ele>79.400001525879</ele>
        <time>2013-06-09T09:41:28.000Z</time>
      </trkpt>
      <trkpt lat="48.29628" lon="2.5827">
        <ele>79.800003051758</ele>
        <time>2013-06-09T09:41:33.000Z</time>
      </trkpt>
      <trkpt lat="48.29632" lon="2.58254">
        <ele>80</ele>
        <time>2013-06-09T09:41:37.000Z</time>
      </trkpt>
      <trkpt lat="48.29649" lon="2.58236">
        <ele>80.800003051758</ele>
        <time>2013-06-09T09:41:44.000Z</time>
      </trkpt>
      <trkpt lat="48.29663" lon="2.5823">
        <ele>81.400001525879</ele>
        <time>2013-06-09T09:41:49.000Z</time>
      </trkpt>
      <trkpt lat="48.29677" lon="2.58224">
        <ele>81.400001525879</ele>
        <time>2013-06-09T09:41:54.000Z</time>
      </trkpt>
      <trkpt lat="48.2969" lon="2.58209">
        <ele>81.800003051758</ele>
        <time>2013-06-09T09:42:00.000Z</time>
      </trkpt>
      <trkpt lat="48.29694" lon="2.58187">
        <ele>82.599998474121</ele>
        <time>2013-06-09T09:42:06.000Z</time>
      </trkpt>
      <trkpt lat="48.29694" lon="2.58183">
        <ele>82.599998474121</ele>
        <time>2013-06-09T09:42:07.000Z</time>
      </trkpt>
      <trkpt lat="48.297" lon="2.58172">
        <ele>83.199996948242</ele>
        <time>2013-06-09T09:42:13.000Z</time>
      </trkpt>
      <trkpt lat="48.29705" lon="2.5817">
        <ele>83.199996948242</ele>
        <time>2013-06-09T09:42:17.000Z</time>
      </trkpt>
      <trkpt lat="48.29714" lon="2.58164">
        <ele>83.599998474121</ele>
        <time>2013-06-09T09:42:23.000Z</time>
      </trkpt>
      <trkpt lat="48.29714" lon="2.58163">
        <ele>83.599998474121</ele>
        <time>2013-06-09T09:42:24.000Z</time>
      </trkpt>
      <trkpt lat="48.29715" lon="2.58157">
        <ele>84</ele>
        <time>2013-06-09T09:42:27.000Z</time>
      </trkpt>
      <trkpt lat="48.29716" lon="2.58152">
        <ele>84.199996948242</ele>
        <time>2013-06-09T09:42:29.000Z</time>
      </trkpt>
      <trkpt lat="48.29715" lon="2.58148">
        <ele>84.400001525879</ele>
        <time>2013-06-09T09:42:31.000Z</time>
      </trkpt>
      <trkpt lat="48.29718" lon="2.58141">
        <ele>85</ele>
        <time>2013-06-09T09:42:36.000Z</time>
      </trkpt>
      <trkpt lat="48.29711" lon="2.58132">
        <ele>85.199996948242</ele>
        <time>2013-06-09T09:42:43.000Z</time>
      </trkpt>
      <trkpt lat="48.29711" lon="2.58126">
        <ele>85.400001525879</ele>
        <time>2013-06-09T09:42:47.000Z</time>
      </trkpt>
      <trkpt lat="48.29712" lon="2.58121">
        <ele>85.800003051758</ele>
        <time>2013-06-09T09:42:51.000Z</time>
      </trkpt>
      <trkpt lat="48.29718" lon="2.58116">
        <ele>86.199996948242</ele>
        <time>2013-06-09T09:42:57.000Z</time>
      </trkpt>
      <trkpt lat="48.29719" lon="2.58112">
        <ele>86.599998474121</ele>
        <time>2013-06-09T09:43:01.000Z</time>
      </trkpt>
      <trkpt lat="48.29725" lon="2.58106">
        <ele>87.199996948242</ele>
        <time>2013-06-09T09:43:06.000Z</time>
      </trkpt>
      <trkpt lat="48.29737" lon="2.58101">
        <ele>88</ele>
        <time>2013-06-09T09:43:11.000Z</time>
      </trkpt>
      <trkpt lat="48.29742" lon="2.58099">
        <ele>88.400001525879</ele>
        <time>2013-06-09T09:43:17.000Z</time>
      </trkpt>
      <trkpt lat="48.29742" lon="2.58101">
        <ele>88.199996948242</ele>
        <time>2013-06-09T09:43:27.000Z</time>
      </trkpt>
      <trkpt lat="48.29744" lon="2.58095">
        <ele>88.800003051758</ele>
        <time>2013-06-09T09:43:54.000Z</time>
      </trkpt>
      <trkpt lat="48.29753" lon="2.58092">
        <ele>89.199996948242</ele>
        <time>2013-06-09T09:43:57.000Z</time>
      </trkpt>
      <trkpt lat="48.29763" lon="2.58093">
        <ele>89.199996948242</ele>
        <time>2013-06-09T09:44:02.000Z</time>
      </trkpt>
      <trkpt lat="48.29765" lon="2.58092">
        <ele>89.400001525879</ele>
        <time>2013-06-09T09:44:04.000Z</time>
      </trkpt>
      <trkpt lat="48.29775" lon="2.58082">
        <ele>90</ele>
        <time>2013-06-09T09:44:09.000Z</time>
      </trkpt>
      <trkpt lat="48.29793" lon="2.58075">
        <ele>90.199996948242</ele>
        <time>2013-06-09T09:44:13.000Z</time>
      </trkpt>
      <trkpt lat="48.29802" lon="2.58077">
        <ele>90</ele>
        <time>2013-06-09T09:44:17.000Z</time>
      </trkpt>
      <trkpt lat="48.29804" lon="2.58077">
        <ele>90</ele>
        <time>2013-06-09T09:44:18.000Z</time>
      </trkpt>
      <trkpt lat="48.29808" lon="2.58083">
        <ele>90</ele>
        <time>2013-06-09T09:44:24.000Z</time>
      </trkpt>
      <trkpt lat="48.29809" lon="2.58092">
        <ele>89.400001525879</ele>
        <time>2013-06-09T09:44:29.000Z</time>
      </trkpt>
      <trkpt lat="48.29808" lon="2.58101">
        <ele>89</ele>
        <time>2013-06-09T09:44:34.000Z</time>
      </trkpt>
      <trkpt lat="48.29807" lon="2.58104">
        <ele>88.800003051758</ele>
        <time>2013-06-09T09:44:36.000Z</time>
      </trkpt>
      <trkpt lat="48.29806" lon="2.58111">
        <ele>88.400001525879</ele>
        <time>2013-06-09T09:44:41.000Z</time>
      </trkpt>
      <trkpt lat="48.29808" lon="2.58119">
        <ele>88</ele>
        <time>2013-06-09T09:44:47.000Z</time>
      </trkpt>
      <trkpt lat="48.29808" lon="2.58121">
        <ele>87.800003051758</ele>
        <time>2013-06-09T09:44:54.000Z</time>
      </trkpt>
      <trkpt lat="48.29805" lon="2.58119">
        <ele>88</ele>
        <time>2013-06-09T09:45:00.000Z</time>
      </trkpt>
      <trkpt lat="48.29804" lon="2.58112">
        <ele>88.199996948242</ele>
        <time>2013-06-09T09:45:05.000Z</time>
      </trkpt>
      <trkpt lat="48.29806" lon="2.58108">
        <ele>88.599998474121</ele>
        <time>2013-06-09T09:45:09.000Z</time>
      </trkpt>
      <trkpt lat="48.29808" lon="2.58112">
        <ele>88.400001525879</ele>
        <time>2013-06-09T09:45:13.000Z</time>
      </trkpt>
      <trkpt lat="48.29811" lon="2.58122">
        <ele>87.800003051758</ele>
        <time>2013-06-09T09:45:20.000Z</time>
      </trkpt>
      <trkpt lat="48.29812" lon="2.58128">
        <ele>87.400001525879</ele>
        <time>2013-06-09T09:45:23.000Z</time>
      </trkpt>
      <trkpt lat="48.29813" lon="2.58131">
        <ele>87.400001525879</ele>
        <time>2013-06-09T09:45:31.000Z</time>
      </trkpt>
      <trkpt lat="48.29812" lon="2.58134">
        <ele>87.199996948242</ele>
        <time>2013-06-09T09:45:35.000Z</time>
      </trkpt>
      <trkpt lat="48.29813" lon="2.58134">
        <ele>87.199996948242</ele>
        <time>2013-06-09T09:45:42.000Z</time>
      </trkpt>
      <trkpt lat="48.29815" lon="2.58138">
        <ele>87</ele>
        <time>2013-06-09T09:45:48.000Z</time>
      </trkpt>
      <trkpt lat="48.29815" lon="2.58138">
        <ele>87</ele>
        <time>2013-06-09T09:45:49.000Z</time>
      </trkpt>
      <trkpt lat="48.29815" lon="2.58133">
        <ele>87.199996948242</ele>
        <time>2013-06-09T09:45:53.000Z</time>
      </trkpt>
      <trkpt lat="48.29812" lon="2.58126">
        <ele>87.599998474121</ele>
        <time>2013-06-09T09:45:58.000Z</time>
      </trkpt>
      <trkpt lat="48.29804" lon="2.58124">
        <ele>87.599998474121</ele>
        <time>2013-06-09T09:46:04.000Z</time>
      </trkpt>
      <trkpt lat="48.298" lon="2.5812">
        <ele>87.800003051758</ele>
        <time>2013-06-09T09:46:09.000Z</time>
      </trkpt>
      <trkpt lat="48.29796" lon="2.58122">
        <ele>87.599998474121</ele>
        <time>2013-06-09T09:46:13.000Z</time>
      </trkpt>
      <trkpt lat="48.29796" lon="2.58122">
        <ele>87.599998474121</ele>
        <time>2013-06-09T09:46:15.000Z</time>
      </trkpt>
      <trkpt lat="48.29798" lon="2.5812">
        <ele>87.800003051758</ele>
        <time>2013-06-09T09:46:19.000Z</time>
      </trkpt>
      <trkpt lat="48.298" lon="2.5812">
        <ele>87.800003051758</ele>
        <time>2013-06-09T09:46:25.000Z</time>
      </trkpt>
      <trkpt lat="48.29803" lon="2.58116">
        <ele>88</ele>
        <time>2013-06-09T09:46:29.000Z</time>
      </trkpt>
      <trkpt lat="48.29797" lon="2.58117">
        <ele>88</ele>
        <time>2013-06-09T09:46:43.000Z</time>
      </trkpt>
      <trkpt lat="48.29795" lon="2.58124">
        <ele>87.400001525879</ele>
        <time>2013-06-09T09:47:14.000Z</time>
      </trkpt>
      <trkpt lat="48.298" lon="2.58136">
        <ele>86.800003051758</ele>
        <time>2013-06-09T09:47:20.000Z</time>
      </trkpt>
      <trkpt lat="48.29804" lon="2.58143">
        <ele>86.599998474121</ele>
        <time>2013-06-09T09:47:24.000Z</time>
      </trkpt>
      <trkpt lat="48.29806" lon="2.58145">
        <ele>86.400001525879</ele>
        <time>2013-06-09T09:47:27.000Z</time>
      </trkpt>
      <trkpt lat="48.29807" lon="2.58153">
        <ele>86</ele>
        <time>2013-06-09T09:47:32.000Z</time>
      </trkpt>
      <trkpt lat="48.29808" lon="2.58155">
        <ele>86</ele>
        <time>2013-06-09T09:47:34.000Z</time>
      </trkpt>
      <trkpt lat="48.29817" lon="2.58155">
        <ele>86.199996948242</ele>
        <time>2013-06-09T09:47:39.000Z</time>
      </trkpt>
      <trkpt lat="48.29818" lon="2.58157">
        <ele>86</ele>
        <time>2013-06-09T09:47:46.000Z</time>
      </trkpt>
      <trkpt lat="48.29822" lon="2.58157">
        <ele>86.199996948242</ele>
        <time>2013-06-09T09:47:49.000Z</time>
      </trkpt>
      <trkpt lat="48.29828" lon="2.58158">
        <ele>86.199996948242</ele>
        <time>2013-06-09T09:47:52.000Z</time>
      </trkpt>
      <trkpt lat="48.29846" lon="2.58162">
        <ele>86.199996948242</ele>
        <time>2013-06-09T09:47:58.000Z</time>
      </trkpt>
      <trkpt lat="48.29848" lon="2.58163">
        <ele>86.199996948242</ele>
        <time>2013-06-09T09:47:59.000Z</time>
      </trkpt>
      <trkpt lat="48.29862" lon="2.58183">
        <ele>85.199996948242</ele>
        <time>2013-06-09T09:48:05.000Z</time>
      </trkpt>
      <trkpt lat="48.29865" lon="2.58192">
        <ele>84.800003051758</ele>
        <time>2013-06-09T09:48:07.000Z</time>
      </trkpt>
      <trkpt lat="48.29868" lon="2.58216">
        <ele>83.400001525879</ele>
        <time>2013-06-09T09:48:11.000Z</time>
      </trkpt>
      <trkpt lat="48.29876" lon="2.58244">
        <ele>81.800003051758</ele>
        <time>2013-06-09T09:48:16.000Z</time>
      </trkpt>
      <trkpt lat="48.29878" lon="2.58246">
        <ele>81.599998474121</ele>
        <time>2013-06-09T09:48:20.000Z</time>
      </trkpt>
      <trkpt lat="48.29886" lon="2.58249">
        <ele>81.599998474121</ele>
        <time>2013-06-09T09:48:53.000Z</time>
      </trkpt>
      <trkpt lat="48.29887" lon="2.5825">
        <ele>81.599998474121</ele>
        <time>2013-06-09T09:49:07.000Z</time>
      </trkpt>
      <trkpt lat="48.29885" lon="2.58252">
        <ele>81.400001525879</ele>
        <time>2013-06-09T09:49:23.000Z</time>
      </trkpt>
      <trkpt lat="48.2988" lon="2.58253">
        <ele>81.400001525879</ele>
        <time>2013-06-09T09:49:25.000Z</time>
      </trkpt>
      <trkpt lat="48.29882" lon="2.58271">
        <ele>81.199996948242</ele>
        <time>2013-06-09T09:49:29.000Z</time>
      </trkpt>
      <trkpt lat="48.29887" lon="2.58279">
        <ele>81</ele>
        <time>2013-06-09T09:49:33.000Z</time>
      </trkpt>
      <trkpt lat="48.29889" lon="2.58281">
        <ele>81</ele>
        <time>2013-06-09T09:49:35.000Z</time>
      </trkpt>
      <trkpt lat="48.29897" lon="2.5829">
        <ele>81</ele>
        <time>2013-06-09T09:49:41.000Z</time>
      </trkpt>
      <trkpt lat="48.29897" lon="2.5829">
        <ele>81</ele>
        <time>2013-06-09T09:49:43.000Z</time>
      </trkpt>
      <trkpt lat="48.29906" lon="2.583">
        <ele>80.800003051758</ele>
        <time>2013-06-09T09:49:48.000Z</time>
      </trkpt>
      <trkpt lat="48.29916" lon="2.58313">
        <ele>80.400001525879</ele>
        <time>2013-06-09T09:49:52.000Z</time>
      </trkpt>
      <trkpt lat="48.29932" lon="2.58325">
        <ele>80</ele>
        <time>2013-06-09T09:49:57.000Z</time>
      </trkpt>
      <trkpt lat="48.29944" lon="2.58341">
        <ele>79.400001525879</ele>
        <time>2013-06-09T09:50:02.000Z</time>
      </trkpt>
      <trkpt lat="48.29953" lon="2.58363">
        <ele>78.400001525879</ele>
        <time>2013-06-09T09:50:07.000Z</time>
      </trkpt>
      <trkpt lat="48.29969" lon="2.58377">
        <ele>77.599998474121</ele>
        <time>2013-06-09T09:50:12.000Z</time>
      </trkpt>
      <trkpt lat="48.29985" lon="2.58386">
        <ele>76.800003051758</ele>
        <time>2013-06-09T09:50:17.000Z</time>
      </trkpt>
      <trkpt lat="48.29999" lon="2.58394">
        <ele>76</ele>
        <time>2013-06-09T09:50:22.000Z</time>
      </trkpt>
      <trkpt lat="48.30011" lon="2.584">
        <ele>76.199996948242</ele>
        <time>2013-06-09T09:50:26.000Z</time>
      </trkpt>
      <trkpt lat="48.3002" lon="2.58412">
        <ele>76</ele>
        <time>2013-06-09T09:50:30.000Z</time>
      </trkpt>
      <trkpt lat="48.30023" lon="2.58427">
        <ele>76</ele>
        <time>2013-06-09T09:50:34.000Z</time>
      </trkpt>
      <trkpt lat="48.30026" lon="2.5844">
        <ele>76</ele>
        <time>2013-06-09T09:50:37.000Z</time>
      </trkpt>
      <trkpt lat="48.30017" lon="2.58449">
        <ele>75.599998474121</ele>
        <time>2013-06-09T09:50:40.000Z</time>
      </trkpt>
      <trkpt lat="48.30017" lon="2.58456">
        <ele>75.599998474121</ele>
        <time>2013-06-09T09:50:43.000Z</time>
      </trkpt>
      <trkpt lat="48.30014" lon="2.58465">
        <ele>75.400001525879</ele>
        <time>2013-06-09T09:50:47.000Z</time>
      </trkpt>
      <trkpt lat="48.30009" lon="2.58471">
        <ele>75.199996948242</ele>
        <time>2013-06-09T09:50:51.000Z</time>
      </trkpt>
      <trkpt lat="48.30005" lon="2.58477">
        <ele>75</ele>
        <time>2013-06-09T09:50:56.000Z</time>
      </trkpt>
      <trkpt lat="48.30004" lon="2.58485">
        <ele>75</ele>
        <time>2013-06-09T09:51:01.000Z</time>
      </trkpt>
      <trkpt lat="48.30004" lon="2.58491">
        <ele>75</ele>
        <time>2013-06-09T09:51:05.000Z</time>
      </trkpt>
      <trkpt lat="48.30004" lon="2.58496">
        <ele>75</ele>
        <time>2013-06-09T09:51:11.000Z</time>
      </trkpt>
      <trkpt lat="48.29993" lon="2.58505">
        <ele>74.800003051758</ele>
        <time>2013-06-09T09:51:16.000Z</time>
      </trkpt>
      <trkpt lat="48.29982" lon="2.58519">
        <ele>74.599998474121</ele>
        <time>2013-06-09T09:51:20.000Z</time>
      </trkpt>
      <trkpt lat="48.29972" lon="2.58532">
        <ele>74.599998474121</ele>
        <time>2013-06-09T09:51:24.000Z</time>
      </trkpt>
      <trkpt lat="48.2997" lon="2.58534">
        <ele>74.599998474121</ele>
        <time>2013-06-09T09:51:26.000Z</time>
      </trkpt>
      <trkpt lat="48.2997" lon="2.58535">
        <ele>74.599998474121</ele>
        <time>2013-06-09T09:51:28.000Z</time>
      </trkpt>
      <trkpt lat="48.29964" lon="2.58536">
        <ele>74.599998474121</ele>
        <time>2013-06-09T09:51:33.000Z</time>
      </trkpt>
      <trkpt lat="48.29966" lon="2.58526">
        <ele>74.599998474121</ele>
        <time>2013-06-09T09:51:37.000Z</time>
      </trkpt>
      <trkpt lat="48.29967" lon="2.58524">
        <ele>74.599998474121</ele>
        <time>2013-06-09T09:51:38.000Z</time>
      </trkpt>
      <trkpt lat="48.29968" lon="2.58522">
        <ele>74.599998474121</ele>
        <time>2013-06-09T09:51:46.000Z</time>
      </trkpt>
      <trkpt lat="48.29969" lon="2.58524">
        <ele>74.599998474121</ele>
        <time>2013-06-09T09:52:02.000Z</time>
      </trkpt>
      <trkpt lat="48.29969" lon="2.58522">
        <ele>74.599998474121</ele>
        <time>2013-06-09T09:52:15.000Z</time>
      </trkpt>
      <trkpt lat="48.2997" lon="2.58525">
        <ele>74.599998474121</ele>
        <time>2013-06-09T09:52:30.000Z</time>
      </trkpt>
      <trkpt lat="48.29968" lon="2.58525">
        <ele>74.599998474121</ele>
        <time>2013-06-09T09:53:05.000Z</time>
      </trkpt>
      <trkpt lat="48.29969" lon="2.5852">
        <ele>74.599998474121</ele>
        <time>2013-06-09T09:53:24.000Z</time>
      </trkpt>
      <trkpt lat="48.29968" lon="2.58515">
        <ele>74.800003051758</ele>
        <time>2013-06-09T09:53:28.000Z</time>
      </trkpt>
      <trkpt lat="48.29963" lon="2.58505">
        <ele>74.800003051758</ele>
        <time>2013-06-09T09:53:33.000Z</time>
      </trkpt>
      <trkpt lat="48.2996" lon="2.58501">
        <ele>74.800003051758</ele>
        <time>2013-06-09T09:53:37.000Z</time>
      </trkpt>
      <trkpt lat="48.29954" lon="2.58497">
        <ele>75</ele>
        <time>2013-06-09T09:53:42.000Z</time>
      </trkpt>
      <trkpt lat="48.29948" lon="2.58493">
        <ele>75</ele>
        <time>2013-06-09T09:53:48.000Z</time>
      </trkpt>
      <trkpt lat="48.29943" lon="2.58489">
        <ele>75.199996948242</ele>
        <time>2013-06-09T09:53:52.000Z</time>
      </trkpt>
      <trkpt lat="48.29939" lon="2.58485">
        <ele>75.199996948242</ele>
        <time>2013-06-09T09:53:56.000Z</time>
      </trkpt>
      <trkpt lat="48.29944" lon="2.58474">
        <ele>75.599998474121</ele>
        <time>2013-06-09T09:54:00.000Z</time>
      </trkpt>
      <trkpt lat="48.29951" lon="2.58458">
        <ele>75.800003051758</ele>
        <time>2013-06-09T09:54:04.000Z</time>
      </trkpt>
      <trkpt lat="48.29953" lon="2.58452">
        <ele>75.800003051758</ele>
        <time>2013-06-09T09:54:06.000Z</time>
      </trkpt>
      <trkpt lat="48.29955" lon="2.58445">
        <ele>76</ele>
        <time>2013-06-09T09:54:11.000Z</time>
      </trkpt>
      <trkpt lat="48.29955" lon="2.58449">
        <ele>75.800003051758</ele>
        <time>2013-06-09T09:54:20.000Z</time>
      </trkpt>
      <trkpt lat="48.29959" lon="2.58452">
        <ele>75.800003051758</ele>
        <time>2013-06-09T09:54:23.000Z</time>
      </trkpt>
      <trkpt lat="48.2996" lon="2.58466">
        <ele>75.400001525879</ele>
        <time>2013-06-09T09:54:28.000Z</time>
      </trkpt>
      <trkpt lat="48.29962" lon="2.58472">
        <ele>75.400001525879</ele>
        <time>2013-06-09T09:54:31.000Z</time>
      </trkpt>
      <trkpt lat="48.29966" lon="2.58476">
        <ele>75.199996948242</ele>
        <time>2013-06-09T09:54:34.000Z</time>
      </trkpt>
      <trkpt lat="48.29973" lon="2.58489">
        <ele>75</ele>
        <time>2013-06-09T09:54:40.000Z</time>
      </trkpt>
      <trkpt lat="48.29974" lon="2.58492">
        <ele>75</ele>
        <time>2013-06-09T09:54:41.000Z</time>
      </trkpt>
      <trkpt lat="48.29978" lon="2.58509">
        <ele>74.800003051758</ele>
        <time>2013-06-09T09:54:45.000Z</time>
      </trkpt>
      <trkpt lat="48.29982" lon="2.58517">
        <ele>74.599998474121</ele>
        <time>2013-06-09T09:54:50.000Z</time>
      </trkpt>
      <trkpt lat="48.29983" lon="2.5852">
        <ele>74.599998474121</ele>
        <time>2013-06-09T09:55:00.000Z</time>
      </trkpt>
      <trkpt lat="48.29984" lon="2.58522">
        <ele>74.599998474121</ele>
        <time>2013-06-09T09:55:06.000Z</time>
      </trkpt>
      <trkpt lat="48.29982" lon="2.58525">
        <ele>74.400001525879</ele>
        <time>2013-06-09T09:55:22.000Z</time>
      </trkpt>
      <trkpt lat="48.29973" lon="2.58535">
        <ele>74.400001525879</ele>
        <time>2013-06-09T09:55:27.000Z</time>
      </trkpt>
      <trkpt lat="48.29971" lon="2.58537">
        <ele>74.400001525879</ele>
        <time>2013-06-09T09:55:29.000Z</time>
      </trkpt>
      <trkpt lat="48.29968" lon="2.5854">
        <ele>74.400001525879</ele>
        <time>2013-06-09T09:55:39.000Z</time>
      </trkpt>
      <trkpt lat="48.29966" lon="2.58546">
        <ele>74.400001525879</ele>
        <time>2013-06-09T09:55:52.000Z</time>
      </trkpt>
      <trkpt lat="48.29954" lon="2.58552">
        <ele>74.599998474121</ele>
        <time>2013-06-09T09:55:58.000Z</time>
      </trkpt>
      <trkpt lat="48.29946" lon="2.5856">
        <ele>74.800003051758</ele>
        <time>2013-06-09T09:56:02.000Z</time>
      </trkpt>
      <trkpt lat="48.29941" lon="2.58576">
        <ele>75</ele>
        <time>2013-06-09T09:56:06.000Z</time>
      </trkpt>
      <trkpt lat="48.29941" lon="2.58599">
        <ele>75</ele>
        <time>2013-06-09T09:56:11.000Z</time>
      </trkpt>
      <trkpt lat="48.29946" lon="2.58618">
        <ele>75</ele>
        <time>2013-06-09T09:56:15.000Z</time>
      </trkpt>
      <trkpt lat="48.29957" lon="2.58634">
        <ele>74.800003051758</ele>
        <time>2013-06-09T09:56:18.000Z</time>
      </trkpt>
      <trkpt lat="48.2997" lon="2.58651">
        <ele>74.400001525879</ele>
        <time>2013-06-09T09:56:22.000Z</time>
      </trkpt>
      <trkpt lat="48.2998" lon="2.58652">
        <ele>74.199996948242</ele>
        <time>2013-06-09T09:56:26.000Z</time>
      </trkpt>
      <trkpt lat="48.29987" lon="2.58655">
        <ele>74</ele>
        <time>2013-06-09T09:56:28.000Z</time>
      </trkpt>
      <trkpt lat="48.29994" lon="2.58658">
        <ele>74</ele>
        <time>2013-06-09T09:56:33.000Z</time>
      </trkpt>
      <trkpt lat="48.2999" lon="2.58658">
        <ele>74</ele>
        <time>2013-06-09T09:56:48.000Z</time>
      </trkpt>
      <trkpt lat="48.29989" lon="2.58657">
        <ele>74</ele>
        <time>2013-06-09T09:56:50.000Z</time>
      </trkpt>
      <trkpt lat="48.29982" lon="2.58659">
        <ele>74.199996948242</ele>
        <time>2013-06-09T09:56:55.000Z</time>
      </trkpt>
      <trkpt lat="48.29976" lon="2.58659">
        <ele>74.400001525879</ele>
        <time>2013-06-09T09:56:58.000Z</time>
      </trkpt>
      <trkpt lat="48.29974" lon="2.58659">
        <ele>74.400001525879</ele>
        <time>2013-06-09T09:57:03.000Z</time>
      </trkpt>
      <trkpt lat="48.29973" lon="2.58659">
        <ele>74.400001525879</ele>
        <time>2013-06-09T09:57:15.000Z</time>
      </trkpt>
      <trkpt lat="48.29972" lon="2.58655">
        <ele>74.400001525879</ele>
        <time>2013-06-09T09:57:29.000Z</time>
      </trkpt>
      <trkpt lat="48.29973" lon="2.58658">
        <ele>74.400001525879</ele>
        <time>2013-06-09T09:57:50.000Z</time>
      </trkpt>
      <trkpt lat="48.29973" lon="2.58656">
        <ele>74.400001525879</ele>
        <time>2013-06-09T09:58:08.000Z</time>
      </trkpt>
      <trkpt lat="48.29971" lon="2.58655">
        <ele>74.599998474121</ele>
        <time>2013-06-09T09:58:35.000Z</time>
      </trkpt>
      <trkpt lat="48.29963" lon="2.58646">
        <ele>74.599998474121</ele>
        <time>2013-06-09T09:58:39.000Z</time>
      </trkpt>
      <trkpt lat="48.29959" lon="2.5864">
        <ele>74.800003051758</ele>
        <time>2013-06-09T09:58:44.000Z</time>
      </trkpt>
      <trkpt lat="48.29959" lon="2.5864">
        <ele>74.800003051758</ele>
        <time>2013-06-09T09:58:45.000Z</time>
      </trkpt>
      <trkpt lat="48.29951" lon="2.58626">
        <ele>74.800003051758</ele>
        <time>2013-06-09T09:58:50.000Z</time>
      </trkpt>
      <trkpt lat="48.29944" lon="2.58613">
        <ele>75</ele>
        <time>2013-06-09T09:58:54.000Z</time>
      </trkpt>
      <trkpt lat="48.29933" lon="2.58607">
        <ele>75.400001525879</ele>
        <time>2013-06-09T09:58:59.000Z</time>
      </trkpt>
      <trkpt lat="48.29929" lon="2.58608">
        <ele>75.599998474121</ele>
        <time>2013-06-09T09:59:03.000Z</time>
      </trkpt>
      <trkpt lat="48.29929" lon="2.58609">
        <ele>75.599998474121</ele>
        <time>2013-06-09T09:59:04.000Z</time>
      </trkpt>
      <trkpt lat="48.29925" lon="2.58619">
        <ele>75.599998474121</ele>
        <time>2013-06-09T09:59:09.000Z</time>
      </trkpt>
      <trkpt lat="48.29922" lon="2.58634">
        <ele>75.800003051758</ele>
        <time>2013-06-09T09:59:13.000Z</time>
      </trkpt>
      <trkpt lat="48.29915" lon="2.58651">
        <ele>76</ele>
        <time>2013-06-09T09:59:18.000Z</time>
      </trkpt>
      <trkpt lat="48.29915" lon="2.58651">
        <ele>76</ele>
        <time>2013-06-09T09:59:18.000Z</time>
      </trkpt>
      <trkpt lat="48.29914" lon="2.58652">
        <ele>76</ele>
        <time>2013-06-09T09:59:19.000Z</time>
      </trkpt>
      <trkpt lat="48.29913" lon="2.58656">
        <ele>76</ele>
        <time>2013-06-09T09:59:24.000Z</time>
      </trkpt>
      <trkpt lat="48.29909" lon="2.58659">
        <ele>76.199996948242</ele>
        <time>2013-06-09T09:59:29.000Z</time>
      </trkpt>
      <trkpt lat="48.29909" lon="2.58658">
        <ele>76.199996948242</ele>
        <time>2013-06-09T09:59:35.000Z</time>
      </trkpt>
      <trkpt lat="48.29904" lon="2.58659">
        <ele>76.400001525879</ele>
        <time>2013-06-09T09:59:59.000Z</time>
      </trkpt>
      <trkpt lat="48.29903" lon="2.58661">
        <ele>76.400001525879</ele>
        <time>2013-06-09T10:00:32.000Z</time>
      </trkpt>
      <trkpt lat="48.29898" lon="2.58668">
        <ele>76.599998474121</ele>
        <time>2013-06-09T10:00:37.000Z</time>
      </trkpt>
      <trkpt lat="48.29888" lon="2.58681">
        <ele>76.599998474121</ele>
        <time>2013-06-09T10:00:41.000Z</time>
      </trkpt>
      <trkpt lat="48.29879" lon="2.58695">
        <ele>76.400001525879</ele>
        <time>2013-06-09T10:00:45.000Z</time>
      </trkpt>
      <trkpt lat="48.29868" lon="2.58713">
        <ele>76.199996948242</ele>
        <time>2013-06-09T10:00:49.000Z</time>
      </trkpt>
      <trkpt lat="48.2986" lon="2.58728">
        <ele>76</ele>
        <time>2013-06-09T10:00:53.000Z</time>
      </trkpt>
      <trkpt lat="48.29854" lon="2.58747">
        <ele>75.400001525879</ele>
        <time>2013-06-09T10:00:58.000Z</time>
      </trkpt>
      <trkpt lat="48.29851" lon="2.58765">
        <ele>75.400001525879</ele>
        <time>2013-06-09T10:01:02.000Z</time>
      </trkpt>
      <trkpt lat="48.29845" lon="2.58791">
        <ele>75.199996948242</ele>
        <time>2013-06-09T10:01:07.000Z</time>
      </trkpt>
      <trkpt lat="48.29837" lon="2.58817">
        <ele>75</ele>
        <time>2013-06-09T10:01:12.000Z</time>
      </trkpt>
      <trkpt lat="48.2983" lon="2.5883">
        <ele>75</ele>
        <time>2013-06-09T10:01:15.000Z</time>
      </trkpt>
      <trkpt lat="48.29817" lon="2.58841">
        <ele>74.800003051758</ele>
        <time>2013-06-09T10:01:20.000Z</time>
      </trkpt>
      <trkpt lat="48.2981" lon="2.5885">
        <ele>74.599998474121</ele>
        <time>2013-06-09T10:01:23.000Z</time>
      </trkpt>
      <trkpt lat="48.29799" lon="2.5887">
        <ele>74</ele>
        <time>2013-06-09T10:01:28.000Z</time>
      </trkpt>
      <trkpt lat="48.29793" lon="2.58899">
        <ele>73.400001525879</ele>
        <time>2013-06-09T10:01:34.000Z</time>
      </trkpt>
      <trkpt lat="48.29782" lon="2.58912">
        <ele>73</ele>
        <time>2013-06-09T10:01:38.000Z</time>
      </trkpt>
      <trkpt lat="48.29764" lon="2.58924">
        <ele>73</ele>
        <time>2013-06-09T10:01:44.000Z</time>
      </trkpt>
      <trkpt lat="48.29759" lon="2.5893">
        <ele>73</ele>
        <time>2013-06-09T10:01:47.000Z</time>
      </trkpt>
      <trkpt lat="48.2976" lon="2.58929">
        <ele>73</ele>
        <time>2013-06-09T10:01:55.000Z</time>
      </trkpt>
      <trkpt lat="48.2976" lon="2.5893">
        <ele>73</ele>
        <time>2013-06-09T10:02:02.000Z</time>
      </trkpt>
      <trkpt lat="48.29762" lon="2.58954">
        <ele>73</ele>
        <time>2013-06-09T10:02:08.000Z</time>
      </trkpt>
      <trkpt lat="48.29766" lon="2.58973">
        <ele>73</ele>
        <time>2013-06-09T10:02:12.000Z</time>
      </trkpt>
      <trkpt lat="48.29768" lon="2.59">
        <ele>73</ele>
        <time>2013-06-09T10:02:17.000Z</time>
      </trkpt>
      <trkpt lat="48.29766" lon="2.59022">
        <ele>72.800003051758</ele>
        <time>2013-06-09T10:02:21.000Z</time>
      </trkpt>
      <trkpt lat="48.29757" lon="2.59033">
        <ele>72.599998474121</ele>
        <time>2013-06-09T10:02:24.000Z</time>
      </trkpt>
      <trkpt lat="48.29753" lon="2.59034">
        <ele>72.599998474121</ele>
        <time>2013-06-09T10:02:25.000Z</time>
      </trkpt>
      <trkpt lat="48.29753" lon="2.59034">
        <ele>72.599998474121</ele>
        <time>2013-06-09T10:02:25.000Z</time>
      </trkpt>
      <trkpt lat="48.29745" lon="2.59029">
        <ele>72.400001525879</ele>
        <time>2013-06-09T10:02:28.000Z</time>
      </trkpt>
      <trkpt lat="48.29739" lon="2.59027">
        <ele>72.199996948242</ele>
        <time>2013-06-09T10:02:32.000Z</time>
      </trkpt>
      <trkpt lat="48.29725" lon="2.59018">
        <ele>72</ele>
        <time>2013-06-09T10:02:37.000Z</time>
      </trkpt>
      <trkpt lat="48.29712" lon="2.59007">
        <ele>71.599998474121</ele>
        <time>2013-06-09T10:02:42.000Z</time>
      </trkpt>
      <trkpt lat="48.29703" lon="2.58995">
        <ele>71.199996948242</ele>
        <time>2013-06-09T10:02:46.000Z</time>
      </trkpt>
      <trkpt lat="48.29688" lon="2.58976">
        <ele>70.599998474121</ele>
        <time>2013-06-09T10:02:52.000Z</time>
      </trkpt>
      <trkpt lat="48.29668" lon="2.58964">
        <ele>70</ele>
        <time>2013-06-09T10:02:58.000Z</time>
      </trkpt>
      <trkpt lat="48.29649" lon="2.58951">
        <ele>69.800003051758</ele>
        <time>2013-06-09T10:03:04.000Z</time>
      </trkpt>
      <trkpt lat="48.29634" lon="2.58939">
        <ele>69.800003051758</ele>
        <time>2013-06-09T10:03:10.000Z</time>
      </trkpt>
      <trkpt lat="48.29632" lon="2.58937">
        <ele>69.599998474121</ele>
        <time>2013-06-09T10:03:16.000Z</time>
      </trkpt>
      <trkpt lat="48.29629" lon="2.58935">
        <ele>69.599998474121</ele>
        <time>2013-06-09T10:03:25.000Z</time>
      </trkpt>
      <trkpt lat="48.2962" lon="2.58925">
        <ele>69.400001525879</ele>
        <time>2013-06-09T10:03:29.000Z</time>
      </trkpt>
      <trkpt lat="48.29611" lon="2.58914">
        <ele>69.400001525879</ele>
        <time>2013-06-09T10:03:33.000Z</time>
      </trkpt>
      <trkpt lat="48.296" lon="2.58896">
        <ele>69.599998474121</ele>
        <time>2013-06-09T10:03:39.000Z</time>
      </trkpt>
      <trkpt lat="48.29599" lon="2.58892">
        <ele>69.800003051758</ele>
        <time>2013-06-09T10:03:41.000Z</time>
      </trkpt>
      <trkpt lat="48.29595" lon="2.58882">
        <ele>70</ele>
        <time>2013-06-09T10:03:47.000Z</time>
      </trkpt>
      <trkpt lat="48.29589" lon="2.58867">
        <ele>70.199996948242</ele>
        <time>2013-06-09T10:03:56.000Z</time>
      </trkpt>
      <trkpt lat="48.29586" lon="2.58863">
        <ele>70.199996948242</ele>
        <time>2013-06-09T10:03:59.000Z</time>
      </trkpt>
      <trkpt lat="48.29586" lon="2.58859">
        <ele>70.400001525879</ele>
        <time>2013-06-09T10:04:05.000Z</time>
      </trkpt>
      <trkpt lat="48.29584" lon="2.58855">
        <ele>70.400001525879</ele>
        <time>2013-06-09T10:04:12.000Z</time>
      </trkpt>
      <trkpt lat="48.29584" lon="2.58855">
        <ele>70.400001525879</ele>
        <time>2013-06-09T10:04:12.000Z</time>
      </trkpt>
      <trkpt lat="48.29584" lon="2.58854">
        <ele>70.400001525879</ele>
        <time>2013-06-09T10:04:13.000Z</time>
      </trkpt>
      <trkpt lat="48.29574" lon="2.58852">
        <ele>70.800003051758</ele>
        <time>2013-06-09T10:04:18.000Z</time>
      </trkpt>
      <trkpt lat="48.29566" lon="2.58853">
        <ele>71.199996948242</ele>
        <time>2013-06-09T10:04:21.000Z</time>
      </trkpt>
      <trkpt lat="48.29552" lon="2.58849">
        <ele>72</ele>
        <time>2013-06-09T10:04:26.000Z</time>
      </trkpt>
      <trkpt lat="48.2954" lon="2.58854">
        <ele>72.400001525879</ele>
        <time>2013-06-09T10:04:30.000Z</time>
      </trkpt>
      <trkpt lat="48.29536" lon="2.58859">
        <ele>72.599998474121</ele>
        <time>2013-06-09T10:04:31.000Z</time>
      </trkpt>
      <trkpt lat="48.29524" lon="2.58868">
        <ele>73.400001525879</ele>
        <time>2013-06-09T10:04:36.000Z</time>
      </trkpt>
      <trkpt lat="48.29516" lon="2.58875">
        <ele>74</ele>
        <time>2013-06-09T10:04:40.000Z</time>
      </trkpt>
      <trkpt lat="48.29501" lon="2.58882">
        <ele>75</ele>
        <time>2013-06-09T10:04:46.000Z</time>
      </trkpt>
      <trkpt lat="48.29489" lon="2.5889">
        <ele>75.599998474121</ele>
        <time>2013-06-09T10:04:52.000Z</time>
      </trkpt>
      <trkpt lat="48.29478" lon="2.58894">
        <ele>76</ele>
        <time>2013-06-09T10:04:57.000Z</time>
      </trkpt>
      <trkpt lat="48.29467" lon="2.589">
        <ele>76.400001525879</ele>
        <time>2013-06-09T10:05:01.000Z</time>
      </trkpt>
      <trkpt lat="48.2945" lon="2.58906">
        <ele>77</ele>
        <time>2013-06-09T10:05:06.000Z</time>
      </trkpt>
      <trkpt lat="48.29436" lon="2.5891">
        <ele>77.400001525879</ele>
        <time>2013-06-09T10:05:11.000Z</time>
      </trkpt>
      <trkpt lat="48.29426" lon="2.58919">
        <ele>77.800003051758</ele>
        <time>2013-06-09T10:05:16.000Z</time>
      </trkpt>
      <trkpt lat="48.2942" lon="2.58928">
        <ele>78.199996948242</ele>
        <time>2013-06-09T10:05:20.000Z</time>
      </trkpt>
      <trkpt lat="48.29416" lon="2.58934">
        <ele>78.599998474121</ele>
        <time>2013-06-09T10:05:24.000Z</time>
      </trkpt>
      <trkpt lat="48.29406" lon="2.58943">
        <ele>79</ele>
        <time>2013-06-09T10:05:28.000Z</time>
      </trkpt>
      <trkpt lat="48.29392" lon="2.58954">
        <ele>79.400001525879</ele>
        <time>2013-06-09T10:05:33.000Z</time>
      </trkpt>
      <trkpt lat="48.29384" lon="2.58958">
        <ele>79.599998474121</ele>
        <time>2013-06-09T10:05:36.000Z</time>
      </trkpt>
      <trkpt lat="48.29372" lon="2.58961">
        <ele>79.800003051758</ele>
        <time>2013-06-09T10:05:41.000Z</time>
      </trkpt>
      <trkpt lat="48.29362" lon="2.58965">
        <ele>79.800003051758</ele>
        <time>2013-06-09T10:05:44.000Z</time>
      </trkpt>
      <trkpt lat="48.29345" lon="2.5898">
        <ele>80</ele>
        <time>2013-06-09T10:05:49.000Z</time>
      </trkpt>
      <trkpt lat="48.29336" lon="2.58995">
        <ele>80</ele>
        <time>2013-06-09T10:05:53.000Z</time>
      </trkpt>
      <trkpt lat="48.29327" lon="2.59012">
        <ele>80.199996948242</ele>
        <time>2013-06-09T10:05:58.000Z</time>
      </trkpt>
      <trkpt lat="48.29326" lon="2.59014">
        <ele>80.199996948242</ele>
        <time>2013-06-09T10:05:59.000Z</time>
      </trkpt>
      <trkpt lat="48.29323" lon="2.59015">
        <ele>80.400001525879</ele>
        <time>2013-06-09T10:06:05.000Z</time>
      </trkpt>
      <trkpt lat="48.29325" lon="2.59011">
        <ele>80.400001525879</ele>
        <time>2013-06-09T10:06:11.000Z</time>
      </trkpt>
      <trkpt lat="48.29325" lon="2.59014">
        <ele>80.199996948242</ele>
        <time>2013-06-09T10:06:22.000Z</time>
      </trkpt>
      <trkpt lat="48.29325" lon="2.59014">
        <ele>80.199996948242</ele>
        <time>2013-06-09T10:06:33.000Z</time>
      </trkpt>
      <trkpt lat="48.29325" lon="2.59018">
        <ele>80.199996948242</ele>
        <time>2013-06-09T10:06:48.000Z</time>
      </trkpt>
      <trkpt lat="48.29324" lon="2.59023">
        <ele>80.199996948242</ele>
        <time>2013-06-09T10:06:50.000Z</time>
      </trkpt>
      <trkpt lat="48.29324" lon="2.59049">
        <ele>79.800003051758</ele>
        <time>2013-06-09T10:06:55.000Z</time>
      </trkpt>
      <trkpt lat="48.29323" lon="2.59067">
        <ele>79.599998474121</ele>
        <time>2013-06-09T10:06:59.000Z</time>
      </trkpt>
      <trkpt lat="48.29323" lon="2.59071">
        <ele>79.599998474121</ele>
        <time>2013-06-09T10:07:00.000Z</time>
      </trkpt>
      <trkpt lat="48.29323" lon="2.59071">
        <ele>79.599998474121</ele>
        <time>2013-06-09T10:07:00.000Z</time>
      </trkpt>
      <trkpt lat="48.29314" lon="2.59084">
        <ele>80</ele>
        <time>2013-06-09T10:07:04.000Z</time>
      </trkpt>
      <trkpt lat="48.29303" lon="2.59089">
        <ele>80.800003051758</ele>
        <time>2013-06-09T10:07:07.000Z</time>
      </trkpt>
      <trkpt lat="48.29285" lon="2.59079">
        <ele>81.800003051758</ele>
        <time>2013-06-09T10:07:13.000Z</time>
      </trkpt>
      <trkpt lat="48.29269" lon="2.59066">
        <ele>83</ele>
        <time>2013-06-09T10:07:19.000Z</time>
      </trkpt>
      <trkpt lat="48.29255" lon="2.59052">
        <ele>84</ele>
        <time>2013-06-09T10:07:25.000Z</time>
      </trkpt>
      <trkpt lat="48.29252" lon="2.5905">
        <ele>84.199996948242</ele>
        <time>2013-06-09T10:07:26.000Z</time>
      </trkpt>
      <trkpt lat="48.29243" lon="2.59037">
        <ele>85.400001525879</ele>
        <time>2013-06-09T10:07:31.000Z</time>
      </trkpt>
      <trkpt lat="48.29236" lon="2.59027">
        <ele>86.400001525879</ele>
        <time>2013-06-09T10:07:35.000Z</time>
      </trkpt>
      <trkpt lat="48.29233" lon="2.59019">
        <ele>86.800003051758</ele>
        <time>2013-06-09T10:07:40.000Z</time>
      </trkpt>
      <trkpt lat="48.2923" lon="2.59013">
        <ele>87.199996948242</ele>
        <time>2013-06-09T10:07:45.000Z</time>
      </trkpt>
      <trkpt lat="48.29228" lon="2.59011">
        <ele>87.400001525879</ele>
        <time>2013-06-09T10:07:46.000Z</time>
      </trkpt>
      <trkpt lat="48.29222" lon="2.58999">
        <ele>88.199996948242</ele>
        <time>2013-06-09T10:07:50.000Z</time>
      </trkpt>
      <trkpt lat="48.29211" lon="2.58982">
        <ele>89.599998474121</ele>
        <time>2013-06-09T10:07:54.000Z</time>
      </trkpt>
      <trkpt lat="48.29203" lon="2.58969">
        <ele>90.599998474121</ele>
        <time>2013-06-09T10:07:59.000Z</time>
      </trkpt>
      <trkpt lat="48.29202" lon="2.58965">
        <ele>90.800003051758</ele>
        <time>2013-06-09T10:08:05.000Z</time>
      </trkpt>
      <trkpt lat="48.2919" lon="2.58965">
        <ele>92.199996948242</ele>
        <time>2013-06-09T10:08:10.000Z</time>
      </trkpt>
      <trkpt lat="48.29174" lon="2.58967">
        <ele>94</ele>
        <time>2013-06-09T10:08:16.000Z</time>
      </trkpt>
      <trkpt lat="48.29162" lon="2.58972">
        <ele>95.800003051758</ele>
        <time>2013-06-09T10:08:21.000Z</time>
      </trkpt>
      <trkpt lat="48.29158" lon="2.58973">
        <ele>96.800003051758</ele>
        <time>2013-06-09T10:08:24.000Z</time>
      </trkpt>
      <trkpt lat="48.29146" lon="2.58971">
        <ele>99</ele>
        <time>2013-06-09T10:08:30.000Z</time>
      </trkpt>
      <trkpt lat="48.29139" lon="2.58967">
        <ele>100.59999847412</ele>
        <time>2013-06-09T10:08:37.000Z</time>
      </trkpt>
      <trkpt lat="48.29132" lon="2.58964">
        <ele>102</ele>
        <time>2013-06-09T10:08:47.000Z</time>
      </trkpt>
      <trkpt lat="48.29135" lon="2.58967">
        <ele>101.40000152588</ele>
        <time>2013-06-09T10:08:56.000Z</time>
      </trkpt>
      <trkpt lat="48.29137" lon="2.58967">
        <ele>101</ele>
        <time>2013-06-09T10:09:00.000Z</time>
      </trkpt>
      <trkpt lat="48.29142" lon="2.58977">
        <ele>99.800003051758</ele>
        <time>2013-06-09T10:09:06.000Z</time>
      </trkpt>
      <trkpt lat="48.2914" lon="2.58982">
        <ele>100</ele>
        <time>2013-06-09T10:09:08.000Z</time>
      </trkpt>
      <trkpt lat="48.29135" lon="2.59006">
        <ele>101</ele>
        <time>2013-06-09T10:09:14.000Z</time>
      </trkpt>
      <trkpt lat="48.29132" lon="2.59017">
        <ele>101.59999847412</ele>
        <time>2013-06-09T10:09:18.000Z</time>
      </trkpt>
      <trkpt lat="48.29133" lon="2.59021">
        <ele>101.40000152588</ele>
        <time>2013-06-09T10:09:20.000Z</time>
      </trkpt>
      <trkpt lat="48.29133" lon="2.59022">
        <ele>101.40000152588</ele>
        <time>2013-06-09T10:09:23.000Z</time>
      </trkpt>
      <trkpt lat="48.29128" lon="2.59029">
        <ele>102.19999694824</ele>
        <time>2013-06-09T10:09:28.000Z</time>
      </trkpt>
      <trkpt lat="48.29119" lon="2.59041">
        <ele>104</ele>
        <time>2013-06-09T10:09:34.000Z</time>
      </trkpt>
      <trkpt lat="48.29118" lon="2.5904">
        <ele>104.19999694824</ele>
        <time>2013-06-09T10:09:35.000Z</time>
      </trkpt>
      <trkpt lat="48.2911" lon="2.59037">
        <ele>105.59999847412</ele>
        <time>2013-06-09T10:09:42.000Z</time>
      </trkpt>
      <trkpt lat="48.29108" lon="2.59035">
        <ele>106</ele>
        <time>2013-06-09T10:09:50.000Z</time>
      </trkpt>
      <trkpt lat="48.2911" lon="2.59031">
        <ele>105.59999847412</ele>
        <time>2013-06-09T10:09:55.000Z</time>
      </trkpt>
      <trkpt lat="48.29116" lon="2.59023">
        <ele>104.59999847412</ele>
        <time>2013-06-09T10:10:00.000Z</time>
      </trkpt>
      <trkpt lat="48.29117" lon="2.59013">
        <ele>104.40000152588</ele>
        <time>2013-06-09T10:10:05.000Z</time>
      </trkpt>
      <trkpt lat="48.29125" lon="2.59001">
        <ele>102.80000305176</ele>
        <time>2013-06-09T10:10:11.000Z</time>
      </trkpt>
      <trkpt lat="48.29133" lon="2.58986">
        <ele>101.59999847412</ele>
        <time>2013-06-09T10:10:15.000Z</time>
      </trkpt>
      <trkpt lat="48.29141" lon="2.5897">
        <ele>100</ele>
        <time>2013-06-09T10:10:20.000Z</time>
      </trkpt>
      <trkpt lat="48.29155" lon="2.5896">
        <ele>97.400001525879</ele>
        <time>2013-06-09T10:10:25.000Z</time>
      </trkpt>
      <trkpt lat="48.29166" lon="2.58953">
        <ele>95</ele>
        <time>2013-06-09T10:10:29.000Z</time>
      </trkpt>
      <trkpt lat="48.29182" lon="2.58956">
        <ele>93.199996948242</ele>
        <time>2013-06-09T10:10:33.000Z</time>
      </trkpt>
      <trkpt lat="48.29193" lon="2.58965">
        <ele>92</ele>
        <time>2013-06-09T10:10:37.000Z</time>
      </trkpt>
      <trkpt lat="48.29208" lon="2.58987">
        <ele>90</ele>
        <time>2013-06-09T10:10:43.000Z</time>
      </trkpt>
      <trkpt lat="48.29214" lon="2.58998">
        <ele>89.199996948242</ele>
        <time>2013-06-09T10:10:48.000Z</time>
      </trkpt>
      <trkpt lat="48.29226" lon="2.59016">
        <ele>87.800003051758</ele>
        <time>2013-06-09T10:10:53.000Z</time>
      </trkpt>
      <trkpt lat="48.29242" lon="2.59038">
        <ele>85.400001525879</ele>
        <time>2013-06-09T10:10:59.000Z</time>
      </trkpt>
      <trkpt lat="48.29261" lon="2.5905">
        <ele>83.599998474121</ele>
        <time>2013-06-09T10:11:04.000Z</time>
      </trkpt>
      <trkpt lat="48.29279" lon="2.59063">
        <ele>82.400001525879</ele>
        <time>2013-06-09T10:11:10.000Z</time>
      </trkpt>
      <trkpt lat="48.2929" lon="2.59072">
        <ele>81.599998474121</ele>
        <time>2013-06-09T10:11:14.000Z</time>
      </trkpt>
      <trkpt lat="48.29302" lon="2.59082">
        <ele>80.800003051758</ele>
        <time>2013-06-09T10:11:19.000Z</time>
      </trkpt>
      <trkpt lat="48.29303" lon="2.59083">
        <ele>80.800003051758</ele>
        <time>2013-06-09T10:11:20.000Z</time>
      </trkpt>
      <trkpt lat="48.29303" lon="2.59085">
        <ele>80.800003051758</ele>
        <time>2013-06-09T10:11:26.000Z</time>
      </trkpt>
      <trkpt lat="48.29306" lon="2.59088">
        <ele>80.599998474121</ele>
        <time>2013-06-09T10:11:30.000Z</time>
      </trkpt>
      <trkpt lat="48.29309" lon="2.59088">
        <ele>80.400001525879</ele>
        <time>2013-06-09T10:11:40.000Z</time>
      </trkpt>
      <trkpt lat="48.29311" lon="2.59089">
        <ele>80.199996948242</ele>
        <time>2013-06-09T10:11:47.000Z</time>
      </trkpt>
      <trkpt lat="48.29312" lon="2.59089">
        <ele>80.199996948242</ele>
        <time>2013-06-09T10:11:49.000Z</time>
      </trkpt>
      <trkpt lat="48.29312" lon="2.59089">
        <ele>80.199996948242</ele>
        <time>2013-06-09T10:11:49.000Z</time>
      </trkpt>
      <trkpt lat="48.29315" lon="2.59094">
        <ele>80</ele>
        <time>2013-06-09T10:11:51.000Z</time>
      </trkpt>
      <trkpt lat="48.29321" lon="2.5911">
        <ele>80</ele>
        <time>2013-06-09T10:11:55.000Z</time>
      </trkpt>
      <trkpt lat="48.29329" lon="2.59133">
        <ele>79.800003051758</ele>
        <time>2013-06-09T10:12:00.000Z</time>
      </trkpt>
      <trkpt lat="48.2933" lon="2.59153">
        <ele>80</ele>
        <time>2013-06-09T10:12:04.000Z</time>
      </trkpt>
      <trkpt lat="48.29325" lon="2.59171">
        <ele>80.199996948242</ele>
        <time>2013-06-09T10:12:08.000Z</time>
      </trkpt>
      <trkpt lat="48.29326" lon="2.59191">
        <ele>80</ele>
        <time>2013-06-09T10:12:12.000Z</time>
      </trkpt>
      <trkpt lat="48.29324" lon="2.59202">
        <ele>80</ele>
        <time>2013-06-09T10:12:14.000Z</time>
      </trkpt>
      <trkpt lat="48.29322" lon="2.59213">
        <ele>79.800003051758</ele>
        <time>2013-06-09T10:12:16.000Z</time>
      </trkpt>
      <trkpt lat="48.29322" lon="2.5925">
        <ele>79.400001525879</ele>
        <time>2013-06-09T10:12:23.000Z</time>
      </trkpt>
      <trkpt lat="48.2932" lon="2.59276">
        <ele>80.199996948242</ele>
        <time>2013-06-09T10:12:28.000Z</time>
      </trkpt>
      <trkpt lat="48.29322" lon="2.59302">
        <ele>80.800003051758</ele>
        <time>2013-06-09T10:12:34.000Z</time>
      </trkpt>
      <trkpt lat="48.29321" lon="2.59311">
        <ele>81</ele>
        <time>2013-06-09T10:12:38.000Z</time>
      </trkpt>
      <trkpt lat="48.2932" lon="2.59321">
        <ele>81.199996948242</ele>
        <time>2013-06-09T10:12:43.000Z</time>
      </trkpt>
      <trkpt lat="48.29321" lon="2.5934">
        <ele>81.599998474121</ele>
        <time>2013-06-09T10:12:48.000Z</time>
      </trkpt>
      <trkpt lat="48.29328" lon="2.59363">
        <ele>82.199996948242</ele>
        <time>2013-06-09T10:12:54.000Z</time>
      </trkpt>
      <trkpt lat="48.29325" lon="2.59372">
        <ele>82.199996948242</ele>
        <time>2013-06-09T10:12:56.000Z</time>
      </trkpt>
      <trkpt lat="48.29319" lon="2.59382">
        <ele>82.199996948242</ele>
        <time>2013-06-09T10:12:59.000Z</time>
      </trkpt>
      <trkpt lat="48.29304" lon="2.59395">
        <ele>82</ele>
        <time>2013-06-09T10:13:05.000Z</time>
      </trkpt>
      <trkpt lat="48.29298" lon="2.59397">
        <ele>81.800003051758</ele>
        <time>2013-06-09T10:13:07.000Z</time>
      </trkpt>
      <trkpt lat="48.29293" lon="2.594">
        <ele>81.800003051758</ele>
        <time>2013-06-09T10:13:11.000Z</time>
      </trkpt>
      <trkpt lat="48.29294" lon="2.59416">
        <ele>82</ele>
        <time>2013-06-09T10:13:17.000Z</time>
      </trkpt>
      <trkpt lat="48.29296" lon="2.59425">
        <ele>82</ele>
        <time>2013-06-09T10:13:19.000Z</time>
      </trkpt>
      <trkpt lat="48.29303" lon="2.5944">
        <ele>82</ele>
        <time>2013-06-09T10:13:24.000Z</time>
      </trkpt>
      <trkpt lat="48.29311" lon="2.59451">
        <ele>82.199996948242</ele>
        <time>2013-06-09T10:13:29.000Z</time>
      </trkpt>
      <trkpt lat="48.29311" lon="2.5945">
        <ele>82.199996948242</ele>
        <time>2013-06-09T10:13:38.000Z</time>
      </trkpt>
      <trkpt lat="48.29311" lon="2.59446">
        <ele>82.199996948242</ele>
        <time>2013-06-09T10:13:46.000Z</time>
      </trkpt>
      <trkpt lat="48.29315" lon="2.59442">
        <ele>82.400001525879</ele>
        <time>2013-06-09T10:13:52.000Z</time>
      </trkpt>
      <trkpt lat="48.29315" lon="2.5944">
        <ele>82.400001525879</ele>
        <time>2013-06-09T10:13:53.000Z</time>
      </trkpt>
      <trkpt lat="48.29322" lon="2.59432">
        <ele>82.599998474121</ele>
        <time>2013-06-09T10:14:00.000Z</time>
      </trkpt>
      <trkpt lat="48.29327" lon="2.59431">
        <ele>82.800003051758</ele>
        <time>2013-06-09T10:14:03.000Z</time>
      </trkpt>
      <trkpt lat="48.29329" lon="2.59425">
        <ele>82.800003051758</ele>
        <time>2013-06-09T10:14:08.000Z</time>
      </trkpt>
      <trkpt lat="48.29329" lon="2.59419">
        <ele>82.800003051758</ele>
        <time>2013-06-09T10:14:29.000Z</time>
      </trkpt>
      <trkpt lat="48.29335" lon="2.5941">
        <ele>82.800003051758</ele>
        <time>2013-06-09T10:14:42.000Z</time>
      </trkpt>
      <trkpt lat="48.29337" lon="2.5941">
        <ele>83</ele>
        <time>2013-06-09T10:14:46.000Z</time>
      </trkpt>
      <trkpt lat="48.29338" lon="2.59411">
        <ele>83</ele>
        <time>2013-06-09T10:14:47.000Z</time>
      </trkpt>
      <trkpt lat="48.29338" lon="2.59411">
        <ele>83</ele>
        <time>2013-06-09T10:14:47.000Z</time>
      </trkpt>
      <trkpt lat="48.29336" lon="2.59439">
        <ele>83</ele>
        <time>2013-06-09T10:14:53.000Z</time>
      </trkpt>
      <trkpt lat="48.29334" lon="2.59465">
        <ele>83</ele>
        <time>2013-06-09T10:14:58.000Z</time>
      </trkpt>
      <trkpt lat="48.29333" lon="2.59481">
        <ele>82.800003051758</ele>
        <time>2013-06-09T10:15:01.000Z</time>
      </trkpt>
      <trkpt lat="48.29337" lon="2.59489">
        <ele>83</ele>
        <time>2013-06-09T10:15:06.000Z</time>
      </trkpt>
      <trkpt lat="48.29336" lon="2.59491">
        <ele>83</ele>
        <time>2013-06-09T10:15:07.000Z</time>
      </trkpt>
      <trkpt lat="48.29333" lon="2.59495">
        <ele>83</ele>
        <time>2013-06-09T10:15:16.000Z</time>
      </trkpt>
      <trkpt lat="48.29328" lon="2.595">
        <ele>82.800003051758</ele>
        <time>2013-06-09T10:15:22.000Z</time>
      </trkpt>
      <trkpt lat="48.29327" lon="2.59502">
        <ele>82.599998474121</ele>
        <time>2013-06-09T10:15:23.000Z</time>
      </trkpt>
      <trkpt lat="48.29319" lon="2.59524">
        <ele>80.800003051758</ele>
        <time>2013-06-09T10:15:27.000Z</time>
      </trkpt>
      <trkpt lat="48.29313" lon="2.59545">
        <ele>79.199996948242</ele>
        <time>2013-06-09T10:15:31.000Z</time>
      </trkpt>
      <trkpt lat="48.29303" lon="2.59566">
        <ele>77.599998474121</ele>
        <time>2013-06-09T10:15:35.000Z</time>
      </trkpt>
      <trkpt lat="48.29296" lon="2.59584">
        <ele>76.400001525879</ele>
        <time>2013-06-09T10:15:39.000Z</time>
      </trkpt>
      <trkpt lat="48.29298" lon="2.59599">
        <ele>76</ele>
        <time>2013-06-09T10:15:43.000Z</time>
      </trkpt>
      <trkpt lat="48.29313" lon="2.59607">
        <ele>76</ele>
        <time>2013-06-09T10:15:48.000Z</time>
      </trkpt>
      <trkpt lat="48.29329" lon="2.59616">
        <ele>76</ele>
        <time>2013-06-09T10:15:53.000Z</time>
      </trkpt>
      <trkpt lat="48.29342" lon="2.59628">
        <ele>75.800003051758</ele>
        <time>2013-06-09T10:15:57.000Z</time>
      </trkpt>
      <trkpt lat="48.29353" lon="2.59646">
        <ele>75</ele>
        <time>2013-06-09T10:16:01.000Z</time>
      </trkpt>
      <trkpt lat="48.29371" lon="2.59665">
        <ele>73.599998474121</ele>
        <time>2013-06-09T10:16:07.000Z</time>
      </trkpt>
      <trkpt lat="48.29382" lon="2.59679">
        <ele>73</ele>
        <time>2013-06-09T10:16:12.000Z</time>
      </trkpt>
      <trkpt lat="48.29387" lon="2.59685">
        <ele>72.800003051758</ele>
        <time>2013-06-09T10:16:15.000Z</time>
      </trkpt>
      <trkpt lat="48.29388" lon="2.59688">
        <ele>72.800003051758</ele>
        <time>2013-06-09T10:16:17.000Z</time>
      </trkpt>
      <trkpt lat="48.29389" lon="2.59694">
        <ele>72.599998474121</ele>
        <time>2013-06-09T10:16:21.000Z</time>
      </trkpt>
      <trkpt lat="48.29395" lon="2.59706">
        <ele>72.400001525879</ele>
        <time>2013-06-09T10:16:29.000Z</time>
      </trkpt>
      <trkpt lat="48.29394" lon="2.59706">
        <ele>72.400001525879</ele>
        <time>2013-06-09T10:16:35.000Z</time>
      </trkpt>
      <trkpt lat="48.29392" lon="2.59701">
        <ele>72.599998474121</ele>
        <time>2013-06-09T10:16:50.000Z</time>
      </trkpt>
      <trkpt lat="48.2939" lon="2.597">
        <ele>72.599998474121</ele>
        <time>2013-06-09T10:16:57.000Z</time>
      </trkpt>
      <trkpt lat="48.29388" lon="2.597">
        <ele>72.599998474121</ele>
        <time>2013-06-09T10:17:00.000Z</time>
      </trkpt>
      <trkpt lat="48.29392" lon="2.59702">
        <ele>72.599998474121</ele>
        <time>2013-06-09T10:17:03.000Z</time>
      </trkpt>
      <trkpt lat="48.294" lon="2.59697">
        <ele>72.400001525879</ele>
        <time>2013-06-09T10:17:08.000Z</time>
      </trkpt>
      <trkpt lat="48.2941" lon="2.59689">
        <ele>72.199996948242</ele>
        <time>2013-06-09T10:17:12.000Z</time>
      </trkpt>
      <trkpt lat="48.29417" lon="2.59687">
        <ele>72</ele>
        <time>2013-06-09T10:17:14.000Z</time>
      </trkpt>
      <trkpt lat="48.29437" lon="2.59689">
        <ele>72</ele>
        <time>2013-06-09T10:17:20.000Z</time>
      </trkpt>
      <trkpt lat="48.29443" lon="2.59693">
        <ele>72.199996948242</ele>
        <time>2013-06-09T10:17:26.000Z</time>
      </trkpt>
      <trkpt lat="48.29452" lon="2.59691">
        <ele>72.199996948242</ele>
        <time>2013-06-09T10:17:31.000Z</time>
      </trkpt>
      <trkpt lat="48.29456" lon="2.59692">
        <ele>72.199996948242</ele>
        <time>2013-06-09T10:17:32.000Z</time>
      </trkpt>
      <trkpt lat="48.29473" lon="2.59694">
        <ele>72.400001525879</ele>
        <time>2013-06-09T10:17:37.000Z</time>
      </trkpt>
      <trkpt lat="48.29485" lon="2.59697">
        <ele>72.400001525879</ele>
        <time>2013-06-09T10:17:40.000Z</time>
      </trkpt>
      <trkpt lat="48.29498" lon="2.59704">
        <ele>72.400001525879</ele>
        <time>2013-06-09T10:17:45.000Z</time>
      </trkpt>
      <trkpt lat="48.29509" lon="2.59706">
        <ele>72.199996948242</ele>
        <time>2013-06-09T10:17:49.000Z</time>
      </trkpt>
      <trkpt lat="48.29521" lon="2.59709">
        <ele>71.800003051758</ele>
        <time>2013-06-09T10:17:53.000Z</time>
      </trkpt>
      <trkpt lat="48.29537" lon="2.59714">
        <ele>71.400001525879</ele>
        <time>2013-06-09T10:17:58.000Z</time>
      </trkpt>
      <trkpt lat="48.29552" lon="2.59721">
        <ele>71</ele>
        <time>2013-06-09T10:18:03.000Z</time>
      </trkpt>
      <trkpt lat="48.29562" lon="2.59721">
        <ele>70.800003051758</ele>
        <time>2013-06-09T10:18:07.000Z</time>
      </trkpt>
      <trkpt lat="48.29573" lon="2.59726">
        <ele>70.400001525879</ele>
        <time>2013-06-09T10:18:11.000Z</time>
      </trkpt>
      <trkpt lat="48.29586" lon="2.5973">
        <ele>70.199996948242</ele>
        <time>2013-06-09T10:18:16.000Z</time>
      </trkpt>
      <trkpt lat="48.29589" lon="2.59734">
        <ele>70.199996948242</ele>
        <time>2013-06-09T10:18:22.000Z</time>
      </trkpt>
      <trkpt lat="48.2959" lon="2.59734">
        <ele>70.199996948242</ele>
        <time>2013-06-09T10:18:29.000Z</time>
      </trkpt>
      <trkpt lat="48.2959" lon="2.5972">
        <ele>70.400001525879</ele>
        <time>2013-06-09T10:18:34.000Z</time>
      </trkpt>
      <trkpt lat="48.2959" lon="2.59715">
        <ele>70.400001525879</ele>
        <time>2013-06-09T10:18:38.000Z</time>
      </trkpt>
      <trkpt lat="48.2959" lon="2.59718">
        <ele>70.400001525879</ele>
        <time>2013-06-09T10:18:48.000Z</time>
      </trkpt>
      <trkpt lat="48.29592" lon="2.59718">
        <ele>70.400001525879</ele>
        <time>2013-06-09T10:18:52.000Z</time>
      </trkpt>
      <trkpt lat="48.29594" lon="2.5971">
        <ele>70.400001525879</ele>
        <time>2013-06-09T10:18:59.000Z</time>
      </trkpt>
      <trkpt lat="48.29595" lon="2.5971">
        <ele>70.599998474121</ele>
        <time>2013-06-09T10:19:06.000Z</time>
      </trkpt>
      <trkpt lat="48.296" lon="2.59705">
        <ele>70.599998474121</ele>
        <time>2013-06-09T10:19:21.000Z</time>
      </trkpt>
      <trkpt lat="48.29603" lon="2.59695">
        <ele>70.800003051758</ele>
        <time>2013-06-09T10:19:25.000Z</time>
      </trkpt>
      <trkpt lat="48.29614" lon="2.59686">
        <ele>71.199996948242</ele>
        <time>2013-06-09T10:19:30.000Z</time>
      </trkpt>
      <trkpt lat="48.29624" lon="2.59677">
        <ele>71.599998474121</ele>
        <time>2013-06-09T10:19:34.000Z</time>
      </trkpt>
      <trkpt lat="48.29626" lon="2.59673">
        <ele>71.800003051758</ele>
        <time>2013-06-09T10:19:36.000Z</time>
      </trkpt>
      <trkpt lat="48.29631" lon="2.59665">
        <ele>72</ele>
        <time>2013-06-09T10:19:41.000Z</time>
      </trkpt>
      <trkpt lat="48.29642" lon="2.59663">
        <ele>72.400001525879</ele>
        <time>2013-06-09T10:19:46.000Z</time>
      </trkpt>
      <trkpt lat="48.29662" lon="2.59676">
        <ele>72.400001525879</ele>
        <time>2013-06-09T10:19:52.000Z</time>
      </trkpt>
      <trkpt lat="48.29675" lon="2.59688">
        <ele>72</ele>
        <time>2013-06-09T10:19:56.000Z</time>
      </trkpt>
      <trkpt lat="48.29686" lon="2.59694">
        <ele>71.599998474121</ele>
        <time>2013-06-09T10:20:00.000Z</time>
      </trkpt>
      <trkpt lat="48.29699" lon="2.59704">
        <ele>71.199996948242</ele>
        <time>2013-06-09T10:20:05.000Z</time>
      </trkpt>
      <trkpt lat="48.2971" lon="2.59719">
        <ele>70.599998474121</ele>
        <time>2013-06-09T10:20:09.000Z</time>
      </trkpt>
      <trkpt lat="48.29718" lon="2.59735">
        <ele>70.199996948242</ele>
        <time>2013-06-09T10:20:13.000Z</time>
      </trkpt>
      <trkpt lat="48.29728" lon="2.59743">
        <ele>70</ele>
        <time>2013-06-09T10:20:17.000Z</time>
      </trkpt>
      <trkpt lat="48.2973" lon="2.59744">
        <ele>70</ele>
        <time>2013-06-09T10:20:18.000Z</time>
      </trkpt>
      <trkpt lat="48.2974" lon="2.59755">
        <ele>69.800003051758</ele>
        <time>2013-06-09T10:20:24.000Z</time>
      </trkpt>
      <trkpt lat="48.29752" lon="2.59766">
        <ele>69.800003051758</ele>
        <time>2013-06-09T10:20:29.000Z</time>
      </trkpt>
      <trkpt lat="48.29762" lon="2.59777">
        <ele>69.800003051758</ele>
        <time>2013-06-09T10:20:34.000Z</time>
      </trkpt>
      <trkpt lat="48.2977" lon="2.59784">
        <ele>70</ele>
        <time>2013-06-09T10:20:37.000Z</time>
      </trkpt>
      <trkpt lat="48.29775" lon="2.59796">
        <ele>70</ele>
        <time>2013-06-09T10:20:42.000Z</time>
      </trkpt>
      <trkpt lat="48.29779" lon="2.59806">
        <ele>70</ele>
        <time>2013-06-09T10:20:48.000Z</time>
      </trkpt>
      <trkpt lat="48.29779" lon="2.59814">
        <ele>69.800003051758</ele>
        <time>2013-06-09T10:20:54.000Z</time>
      </trkpt>
      <trkpt lat="48.29781" lon="2.59816">
        <ele>69.800003051758</ele>
        <time>2013-06-09T10:21:04.000Z</time>
      </trkpt>
      <trkpt lat="48.29781" lon="2.59815">
        <ele>69.800003051758</ele>
        <time>2013-06-09T10:21:10.000Z</time>
      </trkpt>
      <trkpt lat="48.29779" lon="2.5981">
        <ele>69.800003051758</ele>
        <time>2013-06-09T10:21:17.000Z</time>
      </trkpt>
      <trkpt lat="48.29779" lon="2.5981">
        <ele>69.800003051758</ele>
        <time>2013-06-09T10:21:18.000Z</time>
      </trkpt>
      <trkpt lat="48.29781" lon="2.59813">
        <ele>69.800003051758</ele>
        <time>2013-06-09T10:21:25.000Z</time>
      </trkpt>
      <trkpt lat="48.29783" lon="2.59816">
        <ele>70</ele>
        <time>2013-06-09T10:21:35.000Z</time>
      </trkpt>
      <trkpt lat="48.29781" lon="2.59812">
        <ele>70</ele>
        <time>2013-06-09T10:21:43.000Z</time>
      </trkpt>
      <trkpt lat="48.29784" lon="2.59803">
        <ele>70</ele>
        <time>2013-06-09T10:21:50.000Z</time>
      </trkpt>
      <trkpt lat="48.29786" lon="2.59799">
        <ele>70.199996948242</ele>
        <time>2013-06-09T10:21:56.000Z</time>
      </trkpt>
      <trkpt lat="48.29784" lon="2.59799">
        <ele>70.199996948242</ele>
        <time>2013-06-09T10:22:01.000Z</time>
      </trkpt>
      <trkpt lat="48.29783" lon="2.59796">
        <ele>70.199996948242</ele>
        <time>2013-06-09T10:22:16.000Z</time>
      </trkpt>
      <trkpt lat="48.29786" lon="2.59796">
        <ele>70.199996948242</ele>
        <time>2013-06-09T10:22:37.000Z</time>
      </trkpt>
      <trkpt lat="48.29782" lon="2.59796">
        <ele>70.199996948242</ele>
        <time>2013-06-09T10:23:02.000Z</time>
      </trkpt>
      <trkpt lat="48.29777" lon="2.59794">
        <ele>70</ele>
        <time>2013-06-09T10:23:08.000Z</time>
      </trkpt>
      <trkpt lat="48.29782" lon="2.59792">
        <ele>70.199996948242</ele>
        <time>2013-06-09T10:23:18.000Z</time>
      </trkpt>
      <trkpt lat="48.29787" lon="2.59791">
        <ele>70.199996948242</ele>
        <time>2013-06-09T10:23:22.000Z</time>
      </trkpt>
      <trkpt lat="48.29792" lon="2.59793">
        <ele>70.400001525879</ele>
        <time>2013-06-09T10:23:35.000Z</time>
      </trkpt>
      <trkpt lat="48.2979" lon="2.59794">
        <ele>70.400001525879</ele>
        <time>2013-06-09T10:23:43.000Z</time>
      </trkpt>
      <trkpt lat="48.29789" lon="2.59794">
        <ele>70.199996948242</ele>
        <time>2013-06-09T10:23:55.000Z</time>
      </trkpt>
      <trkpt lat="48.29787" lon="2.59795">
        <ele>70.199996948242</ele>
        <time>2013-06-09T10:24:08.000Z</time>
      </trkpt>
      <trkpt lat="48.29786" lon="2.59797">
        <ele>70.199996948242</ele>
        <time>2013-06-09T10:24:21.000Z</time>
      </trkpt>
      <trkpt lat="48.29786" lon="2.59797">
        <ele>70.199996948242</ele>
        <time>2013-06-09T10:24:39.000Z</time>
      </trkpt>
      <trkpt lat="48.29786" lon="2.59798">
        <ele>70.199996948242</ele>
        <time>2013-06-09T10:24:51.000Z</time>
      </trkpt>
      <trkpt lat="48.29787" lon="2.59797">
        <ele>70.199996948242</ele>
        <time>2013-06-09T10:25:01.000Z</time>
      </trkpt>
      <trkpt lat="48.29787" lon="2.59797">
        <ele>70.199996948242</ele>
        <time>2013-06-09T10:25:09.000Z</time>
      </trkpt>
      <trkpt lat="48.29787" lon="2.59798">
        <ele>70.199996948242</ele>
        <time>2013-06-09T10:25:22.000Z</time>
      </trkpt>
      <trkpt lat="48.29787" lon="2.59798">
        <ele>70.199996948242</ele>
        <time>2013-06-09T10:25:27.000Z</time>
      </trkpt>
      <trkpt lat="48.29786" lon="2.59798">
        <ele>70.199996948242</ele>
        <time>2013-06-09T10:25:30.000Z</time>
      </trkpt>
      <trkpt lat="48.29781" lon="2.59796">
        <ele>70.199996948242</ele>
        <time>2013-06-09T10:25:48.000Z</time>
      </trkpt>
      <trkpt lat="48.29779" lon="2.59794">
        <ele>70</ele>
        <time>2013-06-09T10:26:08.000Z</time>
      </trkpt>
      <trkpt lat="48.29787" lon="2.59794">
        <ele>70.199996948242</ele>
        <time>2013-06-09T10:26:29.000Z</time>
      </trkpt>
      <trkpt lat="48.29788" lon="2.59795">
        <ele>70.199996948242</ele>
        <time>2013-06-09T10:26:37.000Z</time>
      </trkpt>
      <trkpt lat="48.29787" lon="2.59798">
        <ele>70.199996948242</ele>
        <time>2013-06-09T10:26:50.000Z</time>
      </trkpt>
      <trkpt lat="48.29785" lon="2.59799">
        <ele>70.199996948242</ele>
        <time>2013-06-09T10:27:03.000Z</time>
      </trkpt>
      <trkpt lat="48.29782" lon="2.598">
        <ele>70</ele>
        <time>2013-06-09T10:27:08.000Z</time>
      </trkpt>
      <trkpt lat="48.29782" lon="2.59799">
        <ele>70</ele>
        <time>2013-06-09T10:27:09.000Z</time>
      </trkpt>
      <trkpt lat="48.29779" lon="2.59796">
        <ele>70</ele>
        <time>2013-06-09T10:27:12.000Z</time>
      </trkpt>
      <trkpt lat="48.29772" lon="2.598">
        <ele>69.800003051758</ele>
        <time>2013-06-09T10:27:16.000Z</time>
      </trkpt>
      <trkpt lat="48.29768" lon="2.59815">
        <ele>69.599998474121</ele>
        <time>2013-06-09T10:27:20.000Z</time>
      </trkpt>
      <trkpt lat="48.29758" lon="2.59845">
        <ele>69.199996948242</ele>
        <time>2013-06-09T10:27:26.000Z</time>
      </trkpt>
      <trkpt lat="48.29751" lon="2.59861">
        <ele>69.199996948242</ele>
        <time>2013-06-09T10:27:30.000Z</time>
      </trkpt>
      <trkpt lat="48.29738" lon="2.59864">
        <ele>69</ele>
        <time>2013-06-09T10:27:36.000Z</time>
      </trkpt>
      <trkpt lat="48.29734" lon="2.59862">
        <ele>69</ele>
        <time>2013-06-09T10:27:37.000Z</time>
      </trkpt>
      <trkpt lat="48.29704" lon="2.5985">
        <ele>68.199996948242</ele>
        <time>2013-06-09T10:27:43.000Z</time>
      </trkpt>
      <trkpt lat="48.29677" lon="2.59842">
        <ele>67.400001525879</ele>
        <time>2013-06-09T10:27:48.000Z</time>
      </trkpt>
      <trkpt lat="48.29653" lon="2.59832">
        <ele>67.199996948242</ele>
        <time>2013-06-09T10:27:53.000Z</time>
      </trkpt>
      <trkpt lat="48.29616" lon="2.59817">
        <ele>68.400001525879</ele>
        <time>2013-06-09T10:28:00.000Z</time>
      </trkpt>
      <trkpt lat="48.2961" lon="2.59814">
        <ele>68.599998474121</ele>
        <time>2013-06-09T10:28:01.000Z</time>
      </trkpt>
      <trkpt lat="48.29587" lon="2.59804">
        <ele>69.199996948242</ele>
        <time>2013-06-09T10:28:05.000Z</time>
      </trkpt>
      <trkpt lat="48.29556" lon="2.59789">
        <ele>70</ele>
        <time>2013-06-09T10:28:11.000Z</time>
      </trkpt>
      <trkpt lat="48.29521" lon="2.59775">
        <ele>70.800003051758</ele>
        <time>2013-06-09T10:28:18.000Z</time>
      </trkpt>
      <trkpt lat="48.29504" lon="2.59768">
        <ele>71.400001525879</ele>
        <time>2013-06-09T10:28:22.000Z</time>
      </trkpt>
      <trkpt lat="48.2949" lon="2.59762">
        <ele>71.599998474121</ele>
        <time>2013-06-09T10:28:25.000Z</time>
      </trkpt>
      <trkpt lat="48.29475" lon="2.59769">
        <ele>71.599998474121</ele>
        <time>2013-06-09T10:28:30.000Z</time>
      </trkpt>
      <trkpt lat="48.29475" lon="2.59775">
        <ele>71.599998474121</ele>
        <time>2013-06-09T10:28:33.000Z</time>
      </trkpt>
      <trkpt lat="48.29476" lon="2.59776">
        <ele>71.599998474121</ele>
        <time>2013-06-09T10:28:34.000Z</time>
      </trkpt>
      <trkpt lat="48.29481" lon="2.59774">
        <ele>71.599998474121</ele>
        <time>2013-06-09T10:28:39.000Z</time>
      </trkpt>
      <trkpt lat="48.29483" lon="2.59768">
        <ele>71.599998474121</ele>
        <time>2013-06-09T10:28:44.000Z</time>
      </trkpt>
      <trkpt lat="48.29477" lon="2.59759">
        <ele>71.800003051758</ele>
        <time>2013-06-09T10:28:50.000Z</time>
      </trkpt>
      <trkpt lat="48.29473" lon="2.59757">
        <ele>71.800003051758</ele>
        <time>2013-06-09T10:28:52.000Z</time>
      </trkpt>
      <trkpt lat="48.29452" lon="2.59747">
        <ele>72</ele>
        <time>2013-06-09T10:28:59.000Z</time>
      </trkpt>
      <trkpt lat="48.2943" lon="2.5974">
        <ele>72</ele>
        <time>2013-06-09T10:29:04.000Z</time>
      </trkpt>
      <trkpt lat="48.29425" lon="2.59739">
        <ele>72</ele>
        <time>2013-06-09T10:29:05.000Z</time>
      </trkpt>
      <trkpt lat="48.29409" lon="2.59733">
        <ele>72</ele>
        <time>2013-06-09T10:29:09.000Z</time>
      </trkpt>
      <trkpt lat="48.29384" lon="2.59728">
        <ele>72.400001525879</ele>
        <time>2013-06-09T10:29:15.000Z</time>
      </trkpt>
      <trkpt lat="48.29354" lon="2.59719">
        <ele>73.199996948242</ele>
        <time>2013-06-09T10:29:22.000Z</time>
      </trkpt>
      <trkpt lat="48.29329" lon="2.59713">
        <ele>73.800003051758</ele>
        <time>2013-06-09T10:29:28.000Z</time>
      </trkpt>
      <trkpt lat="48.29304" lon="2.59706">
        <ele>73.400001525879</ele>
        <time>2013-06-09T10:29:35.000Z</time>
      </trkpt>
      <trkpt lat="48.29287" lon="2.59704">
        <ele>73.199996948242</ele>
        <time>2013-06-09T10:29:40.000Z</time>
      </trkpt>
      <trkpt lat="48.29268" lon="2.59699">
        <ele>72.800003051758</ele>
        <time>2013-06-09T10:29:44.000Z</time>
      </trkpt>
      <trkpt lat="48.29262" lon="2.59698">
        <ele>72.800003051758</ele>
        <time>2013-06-09T10:29:45.000Z</time>
      </trkpt>
      <trkpt lat="48.29224" lon="2.59691">
        <ele>72.599998474121</ele>
        <time>2013-06-09T10:29:52.000Z</time>
      </trkpt>
      <trkpt lat="48.29213" lon="2.5969">
        <ele>72.599998474121</ele>
        <time>2013-06-09T10:29:54.000Z</time>
      </trkpt>
      <trkpt lat="48.29185" lon="2.59693">
        <ele>72.400001525879</ele>
        <time>2013-06-09T10:29:59.000Z</time>
      </trkpt>
      <trkpt lat="48.2916" lon="2.59704">
        <ele>72.199996948242</ele>
        <time>2013-06-09T10:30:04.000Z</time>
      </trkpt>
      <trkpt lat="48.29155" lon="2.59706">
        <ele>72.599998474121</ele>
        <time>2013-06-09T10:30:05.000Z</time>
      </trkpt>
      <trkpt lat="48.29143" lon="2.59713">
        <ele>72.800003051758</ele>
        <time>2013-06-09T10:30:08.000Z</time>
      </trkpt>
      <trkpt lat="48.29128" lon="2.59726">
        <ele>72.400001525879</ele>
        <time>2013-06-09T10:30:12.000Z</time>
      </trkpt>
      <trkpt lat="48.29132" lon="2.59735">
        <ele>71.199996948242</ele>
        <time>2013-06-09T10:30:15.000Z</time>
      </trkpt>
      <trkpt lat="48.29149" lon="2.59752">
        <ele>69</ele>
        <time>2013-06-09T10:30:20.000Z</time>
      </trkpt>
      <trkpt lat="48.29169" lon="2.59773">
        <ele>69</ele>
        <time>2013-06-09T10:30:25.000Z</time>
      </trkpt>
      <trkpt lat="48.29172" lon="2.59778">
        <ele>69</ele>
        <time>2013-06-09T10:30:26.000Z</time>
      </trkpt>
      <trkpt lat="48.29193" lon="2.59811">
        <ele>69.199996948242</ele>
        <time>2013-06-09T10:30:32.000Z</time>
      </trkpt>
      <trkpt lat="48.29213" lon="2.59836">
        <ele>68.800003051758</ele>
        <time>2013-06-09T10:30:38.000Z</time>
      </trkpt>
      <trkpt lat="48.29216" lon="2.5984">
        <ele>68.599998474121</ele>
        <time>2013-06-09T10:30:43.000Z</time>
      </trkpt>
      <trkpt lat="48.29225" lon="2.59852">
        <ele>68.400001525879</ele>
        <time>2013-06-09T10:30:47.000Z</time>
      </trkpt>
      <trkpt lat="48.29239" lon="2.59866">
        <ele>67.800003051758</ele>
        <time>2013-06-09T10:30:51.000Z</time>
      </trkpt>
      <trkpt lat="48.29259" lon="2.59885">
        <ele>67.599998474121</ele>
        <time>2013-06-09T10:30:56.000Z</time>
      </trkpt>
      <trkpt lat="48.29287" lon="2.59915">
        <ele>68.199996948242</ele>
        <time>2013-06-09T10:31:03.000Z</time>
      </trkpt>
      <trkpt lat="48.29291" lon="2.59919">
        <ele>68.400001525879</ele>
        <time>2013-06-09T10:31:04.000Z</time>
      </trkpt>
      <trkpt lat="48.29297" lon="2.59929">
        <ele>68.599998474121</ele>
        <time>2013-06-09T10:31:06.000Z</time>
      </trkpt>
      <trkpt lat="48.29304" lon="2.59936">
        <ele>68.800003051758</ele>
        <time>2013-06-09T10:31:09.000Z</time>
      </trkpt>
      <trkpt lat="48.29304" lon="2.5994">
        <ele>68.800003051758</ele>
        <time>2013-06-09T10:31:19.000Z</time>
      </trkpt>
      <trkpt lat="48.29303" lon="2.59942">
        <ele>68.599998474121</ele>
        <time>2013-06-09T10:31:38.000Z</time>
      </trkpt>
      <trkpt lat="48.29303" lon="2.59941">
        <ele>68.800003051758</ele>
        <time>2013-06-09T10:31:44.000Z</time>
      </trkpt>
      <trkpt lat="48.29305" lon="2.5994">
        <ele>68.800003051758</ele>
        <time>2013-06-09T10:31:52.000Z</time>
      </trkpt>
      <trkpt lat="48.29305" lon="2.5994">
        <ele>68.800003051758</ele>
        <time>2013-06-09T10:32:04.000Z</time>
      </trkpt>
      <trkpt lat="48.2932" lon="2.59947">
        <ele>69.400001525879</ele>
        <time>2013-06-09T10:32:09.000Z</time>
      </trkpt>
      <trkpt lat="48.29345" lon="2.59967">
        <ele>70.199996948242</ele>
        <time>2013-06-09T10:32:15.000Z</time>
      </trkpt>
      <trkpt lat="48.29374" lon="2.59997">
        <ele>71</ele>
        <time>2013-06-09T10:32:22.000Z</time>
      </trkpt>
      <trkpt lat="48.29377" lon="2.60001">
        <ele>71</ele>
        <time>2013-06-09T10:32:23.000Z</time>
      </trkpt>
      <trkpt lat="48.29385" lon="2.6001">
        <ele>71.199996948242</ele>
        <time>2013-06-09T10:32:25.000Z</time>
      </trkpt>
      <trkpt lat="48.29406" lon="2.6003">
        <ele>71.599998474121</ele>
        <time>2013-06-09T10:32:30.000Z</time>
      </trkpt>
      <trkpt lat="48.29415" lon="2.60036">
        <ele>72</ele>
        <time>2013-06-09T10:32:32.000Z</time>
      </trkpt>
      <trkpt lat="48.29434" lon="2.60057">
        <ele>71.599998474121</ele>
        <time>2013-06-09T10:32:37.000Z</time>
      </trkpt>
      <trkpt lat="48.29457" lon="2.60075">
        <ele>71.800003051758</ele>
        <time>2013-06-09T10:32:42.000Z</time>
      </trkpt>
      <trkpt lat="48.29465" lon="2.60081">
        <ele>72</ele>
        <time>2013-06-09T10:32:44.000Z</time>
      </trkpt>
      <trkpt lat="48.29478" lon="2.6009">
        <ele>72.199996948242</ele>
        <time>2013-06-09T10:32:47.000Z</time>
      </trkpt>
      <trkpt lat="48.29487" lon="2.60096">
        <ele>72.400001525879</ele>
        <time>2013-06-09T10:32:49.000Z</time>
      </trkpt>
      <trkpt lat="48.29491" lon="2.60098">
        <ele>72.400001525879</ele>
        <time>2013-06-09T10:32:50.000Z</time>
      </trkpt>
      <trkpt lat="48.29495" lon="2.60098">
        <ele>72.599998474121</ele>
        <time>2013-06-09T10:32:51.000Z</time>
      </trkpt>
      <trkpt lat="48.29495" lon="2.60098">
        <ele>72.599998474121</ele>
        <time>2013-06-09T10:32:51.000Z</time>
      </trkpt>
      <trkpt lat="48.29519" lon="2.60119">
        <ele>72</ele>
        <time>2013-06-09T10:32:57.000Z</time>
      </trkpt>
      <trkpt lat="48.29529" lon="2.60128">
        <ele>71.599998474121</ele>
        <time>2013-06-09T10:33:00.000Z</time>
      </trkpt>
      <trkpt lat="48.29547" lon="2.60149">
        <ele>70.599998474121</ele>
        <time>2013-06-09T10:33:07.000Z</time>
      </trkpt>
      <trkpt lat="48.29566" lon="2.60169">
        <ele>69.599998474121</ele>
        <time>2013-06-09T10:33:13.000Z</time>
      </trkpt>
      <trkpt lat="48.29585" lon="2.6019">
        <ele>69</ele>
        <time>2013-06-09T10:33:18.000Z</time>
      </trkpt>
      <trkpt lat="48.29601" lon="2.60206">
        <ele>69.400001525879</ele>
        <time>2013-06-09T10:33:22.000Z</time>
      </trkpt>
      <trkpt lat="48.29623" lon="2.6024">
        <ele>70</ele>
        <time>2013-06-09T10:33:29.000Z</time>
      </trkpt>
      <trkpt lat="48.29629" lon="2.60249">
        <ele>70</ele>
        <time>2013-06-09T10:33:31.000Z</time>
      </trkpt>
      <trkpt lat="48.29642" lon="2.60264">
        <ele>70.199996948242</ele>
        <time>2013-06-09T10:33:35.000Z</time>
      </trkpt>
      <trkpt lat="48.29666" lon="2.60295">
        <ele>69.800003051758</ele>
        <time>2013-06-09T10:33:42.000Z</time>
      </trkpt>
      <trkpt lat="48.29682" lon="2.60319">
        <ele>69.800003051758</ele>
        <time>2013-06-09T10:33:47.000Z</time>
      </trkpt>
      <trkpt lat="48.29704" lon="2.60348">
        <ele>70.199996948242</ele>
        <time>2013-06-09T10:33:53.000Z</time>
      </trkpt>
      <trkpt lat="48.29711" lon="2.60358">
        <ele>70.400001525879</ele>
        <time>2013-06-09T10:33:55.000Z</time>
      </trkpt>
      <trkpt lat="48.29729" lon="2.60384">
        <ele>70.599998474121</ele>
        <time>2013-06-09T10:34:00.000Z</time>
      </trkpt>
      <trkpt lat="48.29751" lon="2.60416">
        <ele>71</ele>
        <time>2013-06-09T10:34:07.000Z</time>
      </trkpt>
      <trkpt lat="48.29758" lon="2.60427">
        <ele>71.199996948242</ele>
        <time>2013-06-09T10:34:10.000Z</time>
      </trkpt>
      <trkpt lat="48.29761" lon="2.60429">
        <ele>71.400001525879</ele>
        <time>2013-06-09T10:34:11.000Z</time>
      </trkpt>
      <trkpt lat="48.29761" lon="2.60429">
        <ele>71.400001525879</ele>
        <time>2013-06-09T10:34:11.000Z</time>
      </trkpt>
      <trkpt lat="48.29773" lon="2.60444">
        <ele>72</ele>
        <time>2013-06-09T10:34:16.000Z</time>
      </trkpt>
      <trkpt lat="48.29779" lon="2.60453">
        <ele>72.199996948242</ele>
        <time>2013-06-09T10:34:19.000Z</time>
      </trkpt>
      <trkpt lat="48.29792" lon="2.60474">
        <ele>72.599998474121</ele>
        <time>2013-06-09T10:34:25.000Z</time>
      </trkpt>
      <trkpt lat="48.29808" lon="2.60498">
        <ele>73</ele>
        <time>2013-06-09T10:34:31.000Z</time>
      </trkpt>
      <trkpt lat="48.29822" lon="2.60517">
        <ele>73.199996948242</ele>
        <time>2013-06-09T10:34:36.000Z</time>
      </trkpt>
      <trkpt lat="48.29834" lon="2.6054">
        <ele>73.400001525879</ele>
        <time>2013-06-09T10:34:41.000Z</time>
      </trkpt>
      <trkpt lat="48.29849" lon="2.60564">
        <ele>73.400001525879</ele>
        <time>2013-06-09T10:34:46.000Z</time>
      </trkpt>
      <trkpt lat="48.29869" lon="2.60591">
        <ele>73.199996948242</ele>
        <time>2013-06-09T10:34:52.000Z</time>
      </trkpt>
      <trkpt lat="48.29889" lon="2.60618">
        <ele>72.800003051758</ele>
        <time>2013-06-09T10:34:58.000Z</time>
      </trkpt>
      <trkpt lat="48.29899" lon="2.60632">
        <ele>72.800003051758</ele>
        <time>2013-06-09T10:35:01.000Z</time>
      </trkpt>
      <trkpt lat="48.29911" lon="2.60651">
        <ele>73</ele>
        <time>2013-06-09T10:35:05.000Z</time>
      </trkpt>
      <trkpt lat="48.29917" lon="2.6066">
        <ele>73</ele>
        <time>2013-06-09T10:35:07.000Z</time>
      </trkpt>
      <trkpt lat="48.29942" lon="2.607">
        <ele>72.400001525879</ele>
        <time>2013-06-09T10:35:15.000Z</time>
      </trkpt>
      <trkpt lat="48.29958" lon="2.60725">
        <ele>72.199996948242</ele>
        <time>2013-06-09T10:35:20.000Z</time>
      </trkpt>
      <trkpt lat="48.2997" lon="2.60736">
        <ele>72</ele>
        <time>2013-06-09T10:35:23.000Z</time>
      </trkpt>
      <trkpt lat="48.29983" lon="2.60751">
        <ele>71.800003051758</ele>
        <time>2013-06-09T10:35:27.000Z</time>
      </trkpt>
      <trkpt lat="48.30002" lon="2.6078">
        <ele>71.800003051758</ele>
        <time>2013-06-09T10:35:33.000Z</time>
      </trkpt>
      <trkpt lat="48.30014" lon="2.608">
        <ele>71.400001525879</ele>
        <time>2013-06-09T10:35:38.000Z</time>
      </trkpt>
      <trkpt lat="48.30025" lon="2.60815">
        <ele>71</ele>
        <time>2013-06-09T10:35:42.000Z</time>
      </trkpt>
      <trkpt lat="48.30028" lon="2.60819">
        <ele>70.800003051758</ele>
        <time>2013-06-09T10:35:43.000Z</time>
      </trkpt>
      <trkpt lat="48.30047" lon="2.6085">
        <ele>69.599998474121</ele>
        <time>2013-06-09T10:35:51.000Z</time>
      </trkpt>
      <trkpt lat="48.30052" lon="2.60857">
        <ele>69.400001525879</ele>
        <time>2013-06-09T10:35:53.000Z</time>
      </trkpt>
      <trkpt lat="48.30055" lon="2.6087">
        <ele>69.199996948242</ele>
        <time>2013-06-09T10:35:57.000Z</time>
      </trkpt>
      <trkpt lat="48.30055" lon="2.6087">
        <ele>69.199996948242</ele>
        <time>2013-06-09T10:35:57.000Z</time>
      </trkpt>
      <trkpt lat="48.30056" lon="2.60872">
        <ele>69</ele>
        <time>2013-06-09T10:35:58.000Z</time>
      </trkpt>
      <trkpt lat="48.3006" lon="2.60878">
        <ele>68.800003051758</ele>
        <time>2013-06-09T10:36:04.000Z</time>
      </trkpt>
      <trkpt lat="48.30062" lon="2.6088">
        <ele>68.800003051758</ele>
        <time>2013-06-09T10:36:17.000Z</time>
      </trkpt>
      <trkpt lat="48.3007" lon="2.60889">
        <ele>68.400001525879</ele>
        <time>2013-06-09T10:36:21.000Z</time>
      </trkpt>
      <trkpt lat="48.30082" lon="2.60905">
        <ele>68</ele>
        <time>2013-06-09T10:36:26.000Z</time>
      </trkpt>
      <trkpt lat="48.30091" lon="2.60916">
        <ele>68.199996948242</ele>
        <time>2013-06-09T10:36:30.000Z</time>
      </trkpt>
      <trkpt lat="48.301" lon="2.60926">
        <ele>69</ele>
        <time>2013-06-09T10:36:35.000Z</time>
      </trkpt>
      <trkpt lat="48.30109" lon="2.60936">
        <ele>69.599998474121</ele>
        <time>2013-06-09T10:36:41.000Z</time>
      </trkpt>
      <trkpt lat="48.30115" lon="2.60943">
        <ele>70</ele>
        <time>2013-06-09T10:36:45.000Z</time>
      </trkpt>
      <trkpt lat="48.30126" lon="2.60953">
        <ele>70.599998474121</ele>
        <time>2013-06-09T10:36:50.000Z</time>
      </trkpt>
      <trkpt lat="48.30132" lon="2.60961">
        <ele>70.800003051758</ele>
        <time>2013-06-09T10:36:53.000Z</time>
      </trkpt>
      <trkpt lat="48.30148" lon="2.60979">
        <ele>71</ele>
        <time>2013-06-09T10:36:59.000Z</time>
      </trkpt>
      <trkpt lat="48.30162" lon="2.60995">
        <ele>71</ele>
        <time>2013-06-09T10:37:04.000Z</time>
      </trkpt>
      <trkpt lat="48.30172" lon="2.61008">
        <ele>71.599998474121</ele>
        <time>2013-06-09T10:37:09.000Z</time>
      </trkpt>
      <trkpt lat="48.30185" lon="2.61026">
        <ele>73</ele>
        <time>2013-06-09T10:37:14.000Z</time>
      </trkpt>
      <trkpt lat="48.30206" lon="2.61046">
        <ele>74.199996948242</ele>
        <time>2013-06-09T10:37:20.000Z</time>
      </trkpt>
      <trkpt lat="48.30224" lon="2.61064">
        <ele>74.800003051758</ele>
        <time>2013-06-09T10:37:25.000Z</time>
      </trkpt>
      <trkpt lat="48.30245" lon="2.61085">
        <ele>74.800003051758</ele>
        <time>2013-06-09T10:37:31.000Z</time>
      </trkpt>
      <trkpt lat="48.3025" lon="2.61093">
        <ele>75</ele>
        <time>2013-06-09T10:37:33.000Z</time>
      </trkpt>
      <trkpt lat="48.3027" lon="2.61113">
        <ele>75.599998474121</ele>
        <time>2013-06-09T10:37:39.000Z</time>
      </trkpt>
      <trkpt lat="48.30286" lon="2.61134">
        <ele>75.800003051758</ele>
        <time>2013-06-09T10:37:44.000Z</time>
      </trkpt>
      <trkpt lat="48.30286" lon="2.61134">
        <ele>75.800003051758</ele>
        <time>2013-06-09T10:37:44.000Z</time>
      </trkpt>
      <trkpt lat="48.30292" lon="2.61141">
        <ele>75.599998474121</ele>
        <time>2013-06-09T10:37:46.000Z</time>
      </trkpt>
      <trkpt lat="48.30295" lon="2.61143">
        <ele>75.599998474121</ele>
        <time>2013-06-09T10:37:47.000Z</time>
      </trkpt>
      <trkpt lat="48.30309" lon="2.61157">
        <ele>75.400001525879</ele>
        <time>2013-06-09T10:37:52.000Z</time>
      </trkpt>
      <trkpt lat="48.30324" lon="2.61169">
        <ele>74.800003051758</ele>
        <time>2013-06-09T10:37:57.000Z</time>
      </trkpt>
      <trkpt lat="48.30345" lon="2.61184">
        <ele>75.400001525879</ele>
        <time>2013-06-09T10:38:04.000Z</time>
      </trkpt>
      <trkpt lat="48.30356" lon="2.61193">
        <ele>75.800003051758</ele>
        <time>2013-06-09T10:38:09.000Z</time>
      </trkpt>
      <trkpt lat="48.30368" lon="2.61191">
        <ele>76.400001525879</ele>
        <time>2013-06-09T10:38:15.000Z</time>
      </trkpt>
      <trkpt lat="48.30371" lon="2.61187">
        <ele>76.599998474121</ele>
        <time>2013-06-09T10:38:17.000Z</time>
      </trkpt>
      <trkpt lat="48.30375" lon="2.61186">
        <ele>76.800003051758</ele>
        <time>2013-06-09T10:38:23.000Z</time>
      </trkpt>
      <trkpt lat="48.30376" lon="2.61185">
        <ele>76.800003051758</ele>
        <time>2013-06-09T10:38:25.000Z</time>
      </trkpt>
      <trkpt lat="48.30376" lon="2.61185">
        <ele>76.800003051758</ele>
        <time>2013-06-09T10:38:25.000Z</time>
      </trkpt>
      <trkpt lat="48.30377" lon="2.61185">
        <ele>77</ele>
        <time>2013-06-09T10:38:28.000Z</time>
      </trkpt>
      <trkpt lat="48.30389" lon="2.61181">
        <ele>77.599998474121</ele>
        <time>2013-06-09T10:38:33.000Z</time>
      </trkpt>
      <trkpt lat="48.30396" lon="2.61176">
        <ele>78.400001525879</ele>
        <time>2013-06-09T10:38:38.000Z</time>
      </trkpt>
      <trkpt lat="48.30405" lon="2.61168">
        <ele>79.199996948242</ele>
        <time>2013-06-09T10:38:43.000Z</time>
      </trkpt>
      <trkpt lat="48.30409" lon="2.61171">
        <ele>79.199996948242</ele>
        <time>2013-06-09T10:38:45.000Z</time>
      </trkpt>
      <trkpt lat="48.30409" lon="2.61171">
        <ele>79.199996948242</ele>
        <time>2013-06-09T10:38:45.000Z</time>
      </trkpt>
      <trkpt lat="48.30428" lon="2.61188">
        <ele>79.400001525879</ele>
        <time>2013-06-09T10:38:51.000Z</time>
      </trkpt>
      <trkpt lat="48.30431" lon="2.61189">
        <ele>79.599998474121</ele>
        <time>2013-06-09T10:38:52.000Z</time>
      </trkpt>
      <trkpt lat="48.30441" lon="2.61195">
        <ele>79.800003051758</ele>
        <time>2013-06-09T10:38:56.000Z</time>
      </trkpt>
      <trkpt lat="48.30446" lon="2.612">
        <ele>79.800003051758</ele>
        <time>2013-06-09T10:39:00.000Z</time>
      </trkpt>
      <trkpt lat="48.30454" lon="2.61203">
        <ele>80.199996948242</ele>
        <time>2013-06-09T10:39:05.000Z</time>
      </trkpt>
      <trkpt lat="48.30455" lon="2.61202">
        <ele>80.199996948242</ele>
        <time>2013-06-09T10:39:06.000Z</time>
      </trkpt>
      <trkpt lat="48.30455" lon="2.61194">
        <ele>80.599998474121</ele>
        <time>2013-06-09T10:39:09.000Z</time>
      </trkpt>
      <trkpt lat="48.30462" lon="2.61182">
        <ele>81.400001525879</ele>
        <time>2013-06-09T10:39:14.000Z</time>
      </trkpt>
      <trkpt lat="48.30479" lon="2.6116">
        <ele>83.400001525879</ele>
        <time>2013-06-09T10:39:21.000Z</time>
      </trkpt>
      <trkpt lat="48.30491" lon="2.61145">
        <ele>85</ele>
        <time>2013-06-09T10:39:27.000Z</time>
      </trkpt>
      <trkpt lat="48.30494" lon="2.61139">
        <ele>85.599998474121</ele>
        <time>2013-06-09T10:39:29.000Z</time>
      </trkpt>
      <trkpt lat="48.305" lon="2.61126">
        <ele>86.800003051758</ele>
        <time>2013-06-09T10:39:34.000Z</time>
      </trkpt>
      <trkpt lat="48.30508" lon="2.61116">
        <ele>88</ele>
        <time>2013-06-09T10:39:40.000Z</time>
      </trkpt>
      <trkpt lat="48.30511" lon="2.61113">
        <ele>88.400001525879</ele>
        <time>2013-06-09T10:39:42.000Z</time>
      </trkpt>
      <trkpt lat="48.30518" lon="2.61099">
        <ele>89.599998474121</ele>
        <time>2013-06-09T10:39:48.000Z</time>
      </trkpt>
      <trkpt lat="48.30523" lon="2.6109">
        <ele>90.599998474121</ele>
        <time>2013-06-09T10:39:52.000Z</time>
      </trkpt>
      <trkpt lat="48.30529" lon="2.61082">
        <ele>91.400001525879</ele>
        <time>2013-06-09T10:39:56.000Z</time>
      </trkpt>
      <trkpt lat="48.30531" lon="2.61078">
        <ele>91.800003051758</ele>
        <time>2013-06-09T10:39:58.000Z</time>
      </trkpt>
      <trkpt lat="48.30541" lon="2.61063">
        <ele>93.599998474121</ele>
        <time>2013-06-09T10:40:04.000Z</time>
      </trkpt>
      <trkpt lat="48.30553" lon="2.61042">
        <ele>96</ele>
        <time>2013-06-09T10:40:12.000Z</time>
      </trkpt>
      <trkpt lat="48.30559" lon="2.6103">
        <ele>97.599998474121</ele>
        <time>2013-06-09T10:40:17.000Z</time>
      </trkpt>
      <trkpt lat="48.30566" lon="2.61012">
        <ele>99.599998474121</ele>
        <time>2013-06-09T10:40:24.000Z</time>
      </trkpt>
      <trkpt lat="48.30566" lon="2.61009">
        <ele>99.800003051758</ele>
        <time>2013-06-09T10:40:25.000Z</time>
      </trkpt>
      <trkpt lat="48.30572" lon="2.60987">
        <ele>101.80000305176</ele>
        <time>2013-06-09T10:40:32.000Z</time>
      </trkpt>
      <trkpt lat="48.30571" lon="2.6098">
        <ele>102.19999694824</ele>
        <time>2013-06-09T10:40:34.000Z</time>
      </trkpt>
      <trkpt lat="48.30575" lon="2.60959">
        <ele>103.80000305176</ele>
        <time>2013-06-09T10:40:40.000Z</time>
      </trkpt>
      <trkpt lat="48.30575" lon="2.60955">
        <ele>104</ele>
        <time>2013-06-09T10:40:41.000Z</time>
      </trkpt>
      <trkpt lat="48.30577" lon="2.60943">
        <ele>105</ele>
        <time>2013-06-09T10:40:45.000Z</time>
      </trkpt>
      <trkpt lat="48.3058" lon="2.60918">
        <ele>106.59999847412</ele>
        <time>2013-06-09T10:40:53.000Z</time>
      </trkpt>
      <trkpt lat="48.30581" lon="2.60895">
        <ele>107.59999847412</ele>
        <time>2013-06-09T10:41:00.000Z</time>
      </trkpt>
      <trkpt lat="48.30584" lon="2.60884">
        <ele>108</ele>
        <time>2013-06-09T10:41:03.000Z</time>
      </trkpt>
      <trkpt lat="48.30585" lon="2.60869">
        <ele>108.80000305176</ele>
        <time>2013-06-09T10:41:08.000Z</time>
      </trkpt>
      <trkpt lat="48.30583" lon="2.60857">
        <ele>109</ele>
        <time>2013-06-09T10:41:12.000Z</time>
      </trkpt>
      <trkpt lat="48.30583" lon="2.60845">
        <ele>109.40000152588</ele>
        <time>2013-06-09T10:41:16.000Z</time>
      </trkpt>
      <trkpt lat="48.30584" lon="2.6083">
        <ele>110</ele>
        <time>2013-06-09T10:41:21.000Z</time>
      </trkpt>
      <trkpt lat="48.3059" lon="2.60818">
        <ele>110.80000305176</ele>
        <time>2013-06-09T10:41:26.000Z</time>
      </trkpt>
      <trkpt lat="48.30602" lon="2.60811">
        <ele>111.80000305176</ele>
        <time>2013-06-09T10:41:32.000Z</time>
      </trkpt>
      <trkpt lat="48.30607" lon="2.60804">
        <ele>112.19999694824</ele>
        <time>2013-06-09T10:41:35.000Z</time>
      </trkpt>
      <trkpt lat="48.30608" lon="2.60799">
        <ele>112.40000152588</ele>
        <time>2013-06-09T10:41:39.000Z</time>
      </trkpt>
      <trkpt lat="48.30607" lon="2.60799">
        <ele>112.40000152588</ele>
        <time>2013-06-09T10:41:42.000Z</time>
      </trkpt>
      <trkpt lat="48.30604" lon="2.60796">
        <ele>112.19999694824</ele>
        <time>2013-06-09T10:42:03.000Z</time>
      </trkpt>
      <trkpt lat="48.306" lon="2.60793">
        <ele>112</ele>
        <time>2013-06-09T10:42:18.000Z</time>
      </trkpt>
      <trkpt lat="48.306" lon="2.60791">
        <ele>112</ele>
        <time>2013-06-09T10:42:22.000Z</time>
      </trkpt>
      <trkpt lat="48.30592" lon="2.60772">
        <ele>112</ele>
        <time>2013-06-09T10:42:28.000Z</time>
      </trkpt>
      <trkpt lat="48.3059" lon="2.60762">
        <ele>112</ele>
        <time>2013-06-09T10:42:30.000Z</time>
      </trkpt>
      <trkpt lat="48.30588" lon="2.60737">
        <ele>112.40000152588</ele>
        <time>2013-06-09T10:42:35.000Z</time>
      </trkpt>
      <trkpt lat="48.30581" lon="2.6071">
        <ele>112.19999694824</ele>
        <time>2013-06-09T10:42:39.000Z</time>
      </trkpt>
      <trkpt lat="48.30582" lon="2.60698">
        <ele>112.40000152588</ele>
        <time>2013-06-09T10:42:41.000Z</time>
      </trkpt>
      <trkpt lat="48.30582" lon="2.60698">
        <ele>112.40000152588</ele>
        <time>2013-06-09T10:42:41.000Z</time>
      </trkpt>
      <trkpt lat="48.30596" lon="2.60695">
        <ele>113.40000152588</ele>
        <time>2013-06-09T10:42:46.000Z</time>
      </trkpt>
      <trkpt lat="48.30601" lon="2.60687">
        <ele>113.80000305176</ele>
        <time>2013-06-09T10:42:49.000Z</time>
      </trkpt>
      <trkpt lat="48.30616" lon="2.60672">
        <ele>115.19999694824</ele>
        <time>2013-06-09T10:42:54.000Z</time>
      </trkpt>
      <trkpt lat="48.30635" lon="2.60661">
        <ele>116.59999847412</ele>
        <time>2013-06-09T10:43:00.000Z</time>
      </trkpt>
      <trkpt lat="48.30649" lon="2.60659">
        <ele>117.80000305176</ele>
        <time>2013-06-09T10:43:05.000Z</time>
      </trkpt>
      <trkpt lat="48.3066" lon="2.60657">
        <ele>118.59999847412</ele>
        <time>2013-06-09T10:43:09.000Z</time>
      </trkpt>
      <trkpt lat="48.30669" lon="2.60651">
        <ele>119.19999694824</ele>
        <time>2013-06-09T10:43:14.000Z</time>
      </trkpt>
      <trkpt lat="48.30681" lon="2.60646">
        <ele>119.40000152588</ele>
        <time>2013-06-09T10:43:20.000Z</time>
      </trkpt>
      <trkpt lat="48.30692" lon="2.60641">
        <ele>119.80000305176</ele>
        <time>2013-06-09T10:43:26.000Z</time>
      </trkpt>
      <trkpt lat="48.30701" lon="2.60635">
        <ele>120.19999694824</ele>
        <time>2013-06-09T10:43:31.000Z</time>
      </trkpt>
      <trkpt lat="48.30707" lon="2.60626">
        <ele>120.40000152588</ele>
        <time>2013-06-09T10:43:36.000Z</time>
      </trkpt>
      <trkpt lat="48.3071" lon="2.60624">
        <ele>120.40000152588</ele>
        <time>2013-06-09T10:43:38.000Z</time>
      </trkpt>
      <trkpt lat="48.30713" lon="2.60623">
        <ele>120.59999847412</ele>
        <time>2013-06-09T10:43:40.000Z</time>
      </trkpt>
      <trkpt lat="48.30717" lon="2.60618">
        <ele>120.59999847412</ele>
        <time>2013-06-09T10:43:44.000Z</time>
      </trkpt>
      <trkpt lat="48.30735" lon="2.60604">
        <ele>121.19999694824</ele>
        <time>2013-06-09T10:43:53.000Z</time>
      </trkpt>
      <trkpt lat="48.30752" lon="2.60594">
        <ele>121.80000305176</ele>
        <time>2013-06-09T10:44:00.000Z</time>
      </trkpt>
      <trkpt lat="48.30769" lon="2.60589">
        <ele>121.59999847412</ele>
        <time>2013-06-09T10:44:06.000Z</time>
      </trkpt>
      <trkpt lat="48.30781" lon="2.60582">
        <ele>121.59999847412</ele>
        <time>2013-06-09T10:44:11.000Z</time>
      </trkpt>
      <trkpt lat="48.30787" lon="2.60575">
        <ele>121.59999847412</ele>
        <time>2013-06-09T10:44:17.000Z</time>
      </trkpt>
      <trkpt lat="48.30788" lon="2.60574">
        <ele>121.40000152588</ele>
        <time>2013-06-09T10:44:18.000Z</time>
      </trkpt>
      <trkpt lat="48.30796" lon="2.60567">
        <ele>121.40000152588</ele>
        <time>2013-06-09T10:44:24.000Z</time>
      </trkpt>
      <trkpt lat="48.30803" lon="2.60559">
        <ele>121.40000152588</ele>
        <time>2013-06-09T10:44:29.000Z</time>
      </trkpt>
      <trkpt lat="48.30812" lon="2.6055">
        <ele>121.40000152588</ele>
        <time>2013-06-09T10:44:34.000Z</time>
      </trkpt>
      <trkpt lat="48.30817" lon="2.60541">
        <ele>121.59999847412</ele>
        <time>2013-06-09T10:44:39.000Z</time>
      </trkpt>
      <trkpt lat="48.30819" lon="2.60536">
        <ele>121.59999847412</ele>
        <time>2013-06-09T10:44:41.000Z</time>
      </trkpt>
      <trkpt lat="48.30819" lon="2.60536">
        <ele>121.59999847412</ele>
        <time>2013-06-09T10:44:41.000Z</time>
      </trkpt>
      <trkpt lat="48.30818" lon="2.6053">
        <ele>121.59999847412</ele>
        <time>2013-06-09T10:44:44.000Z</time>
      </trkpt>
      <trkpt lat="48.30818" lon="2.60528">
        <ele>121.59999847412</ele>
        <time>2013-06-09T10:44:45.000Z</time>
      </trkpt>
      <trkpt lat="48.30816" lon="2.60518">
        <ele>121.80000305176</ele>
        <time>2013-06-09T10:44:53.000Z</time>
      </trkpt>
      <trkpt lat="48.30815" lon="2.60501">
        <ele>121.80000305176</ele>
        <time>2013-06-09T10:44:59.000Z</time>
      </trkpt>
      <trkpt lat="48.30812" lon="2.60492">
        <ele>121.59999847412</ele>
        <time>2013-06-09T10:45:01.000Z</time>
      </trkpt>
      <trkpt lat="48.30789" lon="2.60466">
        <ele>120.80000305176</ele>
        <time>2013-06-09T10:45:07.000Z</time>
      </trkpt>
      <trkpt lat="48.30784" lon="2.60461">
        <ele>120.59999847412</ele>
        <time>2013-06-09T10:45:08.000Z</time>
      </trkpt>
      <trkpt lat="48.30764" lon="2.6044">
        <ele>119.80000305176</ele>
        <time>2013-06-09T10:45:12.000Z</time>
      </trkpt>
      <trkpt lat="48.30745" lon="2.60416">
        <ele>119</ele>
        <time>2013-06-09T10:45:17.000Z</time>
      </trkpt>
      <trkpt lat="48.3074" lon="2.60405">
        <ele>118.59999847412</ele>
        <time>2013-06-09T10:45:19.000Z</time>
      </trkpt>
      <trkpt lat="48.30732" lon="2.60367">
        <ele>116.80000305176</ele>
        <time>2013-06-09T10:45:24.000Z</time>
      </trkpt>
      <trkpt lat="48.30731" lon="2.60357">
        <ele>116.40000152588</ele>
        <time>2013-06-09T10:45:25.000Z</time>
      </trkpt>
      <trkpt lat="48.30732" lon="2.60326">
        <ele>114.59999847412</ele>
        <time>2013-06-09T10:45:28.000Z</time>
      </trkpt>
      <trkpt lat="48.30729" lon="2.60282">
        <ele>112.40000152588</ele>
        <time>2013-06-09T10:45:32.000Z</time>
      </trkpt>
      <trkpt lat="48.30728" lon="2.60232">
        <ele>109.80000305176</ele>
        <time>2013-06-09T10:45:37.000Z</time>
      </trkpt>
      <trkpt lat="48.30734" lon="2.60204">
        <ele>108</ele>
        <time>2013-06-09T10:45:41.000Z</time>
      </trkpt>
      <trkpt lat="48.30721" lon="2.60165">
        <ele>106.59999847412</ele>
        <time>2013-06-09T10:45:46.000Z</time>
      </trkpt>
      <trkpt lat="48.30715" lon="2.60157">
        <ele>106.40000152588</ele>
        <time>2013-06-09T10:45:50.000Z</time>
      </trkpt>
      <trkpt lat="48.30713" lon="2.60149">
        <ele>106.19999694824</ele>
        <time>2013-06-09T10:45:58.000Z</time>
      </trkpt>
      <trkpt lat="48.3071" lon="2.60148">
        <ele>106.19999694824</ele>
        <time>2013-06-09T10:46:00.000Z</time>
      </trkpt>
      <trkpt lat="48.30702" lon="2.60147">
        <ele>106.19999694824</ele>
        <time>2013-06-09T10:46:08.000Z</time>
      </trkpt>
      <trkpt lat="48.30698" lon="2.60139">
        <ele>105.80000305176</ele>
        <time>2013-06-09T10:46:24.000Z</time>
      </trkpt>
      <trkpt lat="48.30696" lon="2.60134">
        <ele>105.59999847412</ele>
        <time>2013-06-09T10:46:28.000Z</time>
      </trkpt>
      <trkpt lat="48.30684" lon="2.60119">
        <ele>104.40000152588</ele>
        <time>2013-06-09T10:46:34.000Z</time>
      </trkpt>
      <trkpt lat="48.3068" lon="2.60115">
        <ele>104</ele>
        <time>2013-06-09T10:46:36.000Z</time>
      </trkpt>
      <trkpt lat="48.30663" lon="2.60097">
        <ele>102</ele>
        <time>2013-06-09T10:46:42.000Z</time>
      </trkpt>
      <trkpt lat="48.30645" lon="2.60084">
        <ele>101</ele>
        <time>2013-06-09T10:46:46.000Z</time>
      </trkpt>
      <trkpt lat="48.30637" lon="2.60084">
        <ele>101</ele>
        <time>2013-06-09T10:46:48.000Z</time>
      </trkpt>
      <trkpt lat="48.30627" lon="2.60082">
        <ele>100.80000305176</ele>
        <time>2013-06-09T10:46:53.000Z</time>
      </trkpt>
      <trkpt lat="48.30619" lon="2.60077">
        <ele>100.40000152588</ele>
        <time>2013-06-09T10:46:59.000Z</time>
      </trkpt>
      <trkpt lat="48.30607" lon="2.6007">
        <ele>99.800003051758</ele>
        <time>2013-06-09T10:47:05.000Z</time>
      </trkpt>
      <trkpt lat="48.30601" lon="2.60065">
        <ele>99.199996948242</ele>
        <time>2013-06-09T10:47:10.000Z</time>
      </trkpt>
      <trkpt lat="48.30589" lon="2.60057">
        <ele>98.400001525879</ele>
        <time>2013-06-09T10:47:15.000Z</time>
      </trkpt>
      <trkpt lat="48.30571" lon="2.60042">
        <ele>96.400001525879</ele>
        <time>2013-06-09T10:47:19.000Z</time>
      </trkpt>
      <trkpt lat="48.30559" lon="2.60031">
        <ele>94.800003051758</ele>
        <time>2013-06-09T10:47:22.000Z</time>
      </trkpt>
      <trkpt lat="48.30552" lon="2.60025">
        <ele>94</ele>
        <time>2013-06-09T10:47:24.000Z</time>
      </trkpt>
      <trkpt lat="48.30543" lon="2.60019">
        <ele>93.199996948242</ele>
        <time>2013-06-09T10:47:29.000Z</time>
      </trkpt>
      <trkpt lat="48.30543" lon="2.60019">
        <ele>93.199996948242</ele>
        <time>2013-06-09T10:47:32.000Z</time>
      </trkpt>
      <trkpt lat="48.30543" lon="2.60019">
        <ele>93.199996948242</ele>
        <time>2013-06-09T10:47:32.000Z</time>
      </trkpt>
      <trkpt lat="48.30544" lon="2.60018">
        <ele>93</ele>
        <time>2013-06-09T10:47:36.000Z</time>
      </trkpt>
      <trkpt lat="48.3054" lon="2.60014">
        <ele>92.599998474121</ele>
        <time>2013-06-09T10:47:44.000Z</time>
      </trkpt>
      <trkpt lat="48.30531" lon="2.59999">
        <ele>91</ele>
        <time>2013-06-09T10:47:51.000Z</time>
      </trkpt>
      <trkpt lat="48.30521" lon="2.59989">
        <ele>89.800003051758</ele>
        <time>2013-06-09T10:47:55.000Z</time>
      </trkpt>
      <trkpt lat="48.30514" lon="2.59978">
        <ele>88.800003051758</ele>
        <time>2013-06-09T10:47:59.000Z</time>
      </trkpt>
      <trkpt lat="48.30511" lon="2.59967">
        <ele>88</ele>
        <time>2013-06-09T10:48:03.000Z</time>
      </trkpt>
      <trkpt lat="48.30499" lon="2.59964">
        <ele>87.400001525879</ele>
        <time>2013-06-09T10:48:08.000Z</time>
      </trkpt>
      <trkpt lat="48.3048" lon="2.59972">
        <ele>86.400001525879</ele>
        <time>2013-06-09T10:48:13.000Z</time>
      </trkpt>
      <trkpt lat="48.30471" lon="2.59977">
        <ele>86</ele>
        <time>2013-06-09T10:48:16.000Z</time>
      </trkpt>
      <trkpt lat="48.30469" lon="2.59965">
        <ele>85.400001525879</ele>
        <time>2013-06-09T10:48:20.000Z</time>
      </trkpt>
      <trkpt lat="48.30464" lon="2.59943">
        <ele>84.199996948242</ele>
        <time>2013-06-09T10:48:25.000Z</time>
      </trkpt>
      <trkpt lat="48.30455" lon="2.59929">
        <ele>83.199996948242</ele>
        <time>2013-06-09T10:48:29.000Z</time>
      </trkpt>
      <trkpt lat="48.30457" lon="2.59924">
        <ele>83.199996948242</ele>
        <time>2013-06-09T10:48:39.000Z</time>
      </trkpt>
      <trkpt lat="48.30454" lon="2.59924">
        <ele>83</ele>
        <time>2013-06-09T10:48:41.000Z</time>
      </trkpt>
      <trkpt lat="48.30454" lon="2.59924">
        <ele>83</ele>
        <time>2013-06-09T10:48:41.000Z</time>
      </trkpt>
      <trkpt lat="48.30446" lon="2.59927">
        <ele>82.800003051758</ele>
        <time>2013-06-09T10:48:44.000Z</time>
      </trkpt>
      <trkpt lat="48.30431" lon="2.59928">
        <ele>82.400001525879</ele>
        <time>2013-06-09T10:48:48.000Z</time>
      </trkpt>
      <trkpt lat="48.30416" lon="2.5993">
        <ele>81.800003051758</ele>
        <time>2013-06-09T10:48:52.000Z</time>
      </trkpt>
      <trkpt lat="48.30394" lon="2.5993">
        <ele>81.400001525879</ele>
        <time>2013-06-09T10:48:57.000Z</time>
      </trkpt>
      <trkpt lat="48.3039" lon="2.59931">
        <ele>81.199996948242</ele>
        <time>2013-06-09T10:48:58.000Z</time>
      </trkpt>
      <trkpt lat="48.30378" lon="2.59927">
        <ele>81</ele>
        <time>2013-06-09T10:49:01.000Z</time>
      </trkpt>
      <trkpt lat="48.30358" lon="2.59922">
        <ele>80.400001525879</ele>
        <time>2013-06-09T10:49:05.000Z</time>
      </trkpt>
      <trkpt lat="48.30358" lon="2.59922">
        <ele>80.400001525879</ele>
        <time>2013-06-09T10:49:05.000Z</time>
      </trkpt>
      <trkpt lat="48.30331" lon="2.5993">
        <ele>79.599998474121</ele>
        <time>2013-06-09T10:49:10.000Z</time>
      </trkpt>
      <trkpt lat="48.30321" lon="2.59944">
        <ele>79.400001525879</ele>
        <time>2013-06-09T10:49:12.000Z</time>
      </trkpt>
      <trkpt lat="48.30311" lon="2.59967">
        <ele>79</ele>
        <time>2013-06-09T10:49:15.000Z</time>
      </trkpt>
      <trkpt lat="48.30297" lon="2.59999">
        <ele>79</ele>
        <time>2013-06-09T10:49:19.000Z</time>
      </trkpt>
      <trkpt lat="48.30278" lon="2.60046">
        <ele>79</ele>
        <time>2013-06-09T10:49:25.000Z</time>
      </trkpt>
      <trkpt lat="48.30273" lon="2.60061">
        <ele>79.199996948242</ele>
        <time>2013-06-09T10:49:27.000Z</time>
      </trkpt>
      <trkpt lat="48.30263" lon="2.60088">
        <ele>79</ele>
        <time>2013-06-09T10:49:30.000Z</time>
      </trkpt>
      <trkpt lat="48.30251" lon="2.60126">
        <ele>79</ele>
        <time>2013-06-09T10:49:35.000Z</time>
      </trkpt>
      <trkpt lat="48.30234" lon="2.60167">
        <ele>79</ele>
        <time>2013-06-09T10:49:41.000Z</time>
      </trkpt>
      <trkpt lat="48.30227" lon="2.60187">
        <ele>79.199996948242</ele>
        <time>2013-06-09T10:49:44.000Z</time>
      </trkpt>
      <trkpt lat="48.3022" lon="2.60205">
        <ele>79.199996948242</ele>
        <time>2013-06-09T10:49:47.000Z</time>
      </trkpt>
      <trkpt lat="48.30215" lon="2.6022">
        <ele>79.199996948242</ele>
        <time>2013-06-09T10:49:49.000Z</time>
      </trkpt>
      <trkpt lat="48.30203" lon="2.6025">
        <ele>78.599998474121</ele>
        <time>2013-06-09T10:49:54.000Z</time>
      </trkpt>
      <trkpt lat="48.30193" lon="2.60278">
        <ele>77.599998474121</ele>
        <time>2013-06-09T10:49:59.000Z</time>
      </trkpt>
      <trkpt lat="48.30193" lon="2.60278">
        <ele>77.599998474121</ele>
        <time>2013-06-09T10:49:59.000Z</time>
      </trkpt>
      <trkpt lat="48.30192" lon="2.60283">
        <ele>77.400001525879</ele>
        <time>2013-06-09T10:50:00.000Z</time>
      </trkpt>
      <trkpt lat="48.30186" lon="2.603">
        <ele>76.599998474121</ele>
        <time>2013-06-09T10:50:05.000Z</time>
      </trkpt>
      <trkpt lat="48.30183" lon="2.60307">
        <ele>76.199996948242</ele>
        <time>2013-06-09T10:50:15.000Z</time>
      </trkpt>
      <trkpt lat="48.30181" lon="2.60324">
        <ele>75.800003051758</ele>
        <time>2013-06-09T10:50:19.000Z</time>
      </trkpt>
      <trkpt lat="48.30167" lon="2.60359">
        <ele>74</ele>
        <time>2013-06-09T10:50:25.000Z</time>
      </trkpt>
      <trkpt lat="48.30158" lon="2.60392">
        <ele>74</ele>
        <time>2013-06-09T10:50:29.000Z</time>
      </trkpt>
      <trkpt lat="48.30147" lon="2.60435">
        <ele>74</ele>
        <time>2013-06-09T10:50:34.000Z</time>
      </trkpt>
      <trkpt lat="48.30134" lon="2.605">
        <ele>73.199996948242</ele>
        <time>2013-06-09T10:50:41.000Z</time>
      </trkpt>
      <trkpt lat="48.30125" lon="2.60545">
        <ele>73.599998474121</ele>
        <time>2013-06-09T10:50:46.000Z</time>
      </trkpt>
      <trkpt lat="48.30121" lon="2.60577">
        <ele>73.800003051758</ele>
        <time>2013-06-09T10:50:50.000Z</time>
      </trkpt>
      <trkpt lat="48.30119" lon="2.60586">
        <ele>73.800003051758</ele>
        <time>2013-06-09T10:50:51.000Z</time>
      </trkpt>
      <trkpt lat="48.30111" lon="2.60612">
        <ele>73.400001525879</ele>
        <time>2013-06-09T10:50:54.000Z</time>
      </trkpt>
      <trkpt lat="48.30095" lon="2.60681">
        <ele>72.599998474121</ele>
        <time>2013-06-09T10:51:01.000Z</time>
      </trkpt>
      <trkpt lat="48.30093" lon="2.60689">
        <ele>72.599998474121</ele>
        <time>2013-06-09T10:51:02.000Z</time>
      </trkpt>
      <trkpt lat="48.30081" lon="2.60751">
        <ele>71.800003051758</ele>
        <time>2013-06-09T10:51:09.000Z</time>
      </trkpt>
      <trkpt lat="48.30063" lon="2.60797">
        <ele>70.199996948242</ele>
        <time>2013-06-09T10:51:15.000Z</time>
      </trkpt>
      <trkpt lat="48.30061" lon="2.60805">
        <ele>70</ele>
        <time>2013-06-09T10:51:16.000Z</time>
      </trkpt>
      <trkpt lat="48.30061" lon="2.60805">
        <ele>70</ele>
        <time>2013-06-09T10:51:16.000Z</time>
      </trkpt>
      <trkpt lat="48.30058" lon="2.60812">
        <ele>69.800003051758</ele>
        <time>2013-06-09T10:51:17.000Z</time>
      </trkpt>
      <trkpt lat="48.30052" lon="2.60842">
        <ele>69.400001525879</ele>
        <time>2013-06-09T10:51:21.000Z</time>
      </trkpt>
      <trkpt lat="48.30047" lon="2.60853">
        <ele>69.599998474121</ele>
        <time>2013-06-09T10:51:23.000Z</time>
      </trkpt>
      <trkpt lat="48.30043" lon="2.60879">
        <ele>69.599998474121</ele>
        <time>2013-06-09T10:51:29.000Z</time>
      </trkpt>
      <trkpt lat="48.3004" lon="2.60911">
        <ele>69.400001525879</ele>
        <time>2013-06-09T10:51:34.000Z</time>
      </trkpt>
      <trkpt lat="48.30039" lon="2.60933">
        <ele>70</ele>
        <time>2013-06-09T10:51:37.000Z</time>
      </trkpt>
      <trkpt lat="48.30034" lon="2.60948">
        <ele>70.800003051758</ele>
        <time>2013-06-09T10:51:39.000Z</time>
      </trkpt>
      <trkpt lat="48.30026" lon="2.60976">
        <ele>71.800003051758</ele>
        <time>2013-06-09T10:51:43.000Z</time>
      </trkpt>
      <trkpt lat="48.30025" lon="2.61002">
        <ele>72.599998474121</ele>
        <time>2013-06-09T10:51:46.000Z</time>
      </trkpt>
      <trkpt lat="48.3002" lon="2.61032">
        <ele>73.599998474121</ele>
        <time>2013-06-09T10:51:50.000Z</time>
      </trkpt>
      <trkpt lat="48.30016" lon="2.61064">
        <ele>74.400001525879</ele>
        <time>2013-06-09T10:51:54.000Z</time>
      </trkpt>
      <trkpt lat="48.30012" lon="2.61085">
        <ele>74.800003051758</ele>
        <time>2013-06-09T10:51:57.000Z</time>
      </trkpt>
      <trkpt lat="48.3001" lon="2.61106">
        <ele>74.400001525879</ele>
        <time>2013-06-09T10:52:00.000Z</time>
      </trkpt>
      <trkpt lat="48.30002" lon="2.61131">
        <ele>73.800003051758</ele>
        <time>2013-06-09T10:52:04.000Z</time>
      </trkpt>
      <trkpt lat="48.29988" lon="2.61163">
        <ele>72.599998474121</ele>
        <time>2013-06-09T10:52:09.000Z</time>
      </trkpt>
      <trkpt lat="48.29977" lon="2.6118">
        <ele>72.599998474121</ele>
        <time>2013-06-09T10:52:13.000Z</time>
      </trkpt>
      <trkpt lat="48.2997" lon="2.61204">
        <ele>73</ele>
        <time>2013-06-09T10:52:17.000Z</time>
      </trkpt>
      <trkpt lat="48.29961" lon="2.61232">
        <ele>73.400001525879</ele>
        <time>2013-06-09T10:52:22.000Z</time>
      </trkpt>
      <trkpt lat="48.29948" lon="2.61262">
        <ele>74</ele>
        <time>2013-06-09T10:52:27.000Z</time>
      </trkpt>
      <trkpt lat="48.2994" lon="2.61284">
        <ele>74</ele>
        <time>2013-06-09T10:52:31.000Z</time>
      </trkpt>
      <trkpt lat="48.29932" lon="2.61315">
        <ele>74</ele>
        <time>2013-06-09T10:52:36.000Z</time>
      </trkpt>
      <trkpt lat="48.29925" lon="2.6134">
        <ele>74</ele>
        <time>2013-06-09T10:52:41.000Z</time>
      </trkpt>
      <trkpt lat="48.29924" lon="2.61355">
        <ele>74</ele>
        <time>2013-06-09T10:52:44.000Z</time>
      </trkpt>
      <trkpt lat="48.29929" lon="2.61367">
        <ele>74.199996948242</ele>
        <time>2013-06-09T10:52:49.000Z</time>
      </trkpt>
      <trkpt lat="48.29931" lon="2.61368">
        <ele>74.199996948242</ele>
        <time>2013-06-09T10:52:59.000Z</time>
      </trkpt>
      <trkpt lat="48.29933" lon="2.61367">
        <ele>74</ele>
        <time>2013-06-09T10:53:30.000Z</time>
      </trkpt>
      <trkpt lat="48.29932" lon="2.61364">
        <ele>74</ele>
        <time>2013-06-09T10:53:51.000Z</time>
      </trkpt>
      <trkpt lat="48.29936" lon="2.61368">
        <ele>74</ele>
        <time>2013-06-09T10:53:55.000Z</time>
      </trkpt>
      <trkpt lat="48.29936" lon="2.6137">
        <ele>74</ele>
        <time>2013-06-09T10:54:01.000Z</time>
      </trkpt>
      <trkpt lat="48.2994" lon="2.61377">
        <ele>74</ele>
        <time>2013-06-09T10:54:07.000Z</time>
      </trkpt>
      <trkpt lat="48.29953" lon="2.61396">
        <ele>73.599998474121</ele>
        <time>2013-06-09T10:54:11.000Z</time>
      </trkpt>
      <trkpt lat="48.2997" lon="2.61423">
        <ele>73</ele>
        <time>2013-06-09T10:54:17.000Z</time>
      </trkpt>
      <trkpt lat="48.29974" lon="2.61428">
        <ele>73</ele>
        <time>2013-06-09T10:54:18.000Z</time>
      </trkpt>
      <trkpt lat="48.29996" lon="2.61471">
        <ele>73.199996948242</ele>
        <time>2013-06-09T10:54:25.000Z</time>
      </trkpt>
      <trkpt lat="48.30014" lon="2.61512">
        <ele>74.199996948242</ele>
        <time>2013-06-09T10:54:31.000Z</time>
      </trkpt>
      <trkpt lat="48.30024" lon="2.61535">
        <ele>74.199996948242</ele>
        <time>2013-06-09T10:54:35.000Z</time>
      </trkpt>
      <trkpt lat="48.30038" lon="2.61549">
        <ele>74.199996948242</ele>
        <time>2013-06-09T10:54:40.000Z</time>
      </trkpt>
      <trkpt lat="48.30054" lon="2.61567">
        <ele>73.800003051758</ele>
        <time>2013-06-09T10:54:46.000Z</time>
      </trkpt>
      <trkpt lat="48.30069" lon="2.61585">
        <ele>73.199996948242</ele>
        <time>2013-06-09T10:54:50.000Z</time>
      </trkpt>
      <trkpt lat="48.30081" lon="2.61596">
        <ele>73.199996948242</ele>
        <time>2013-06-09T10:54:53.000Z</time>
      </trkpt>
      <trkpt lat="48.30098" lon="2.61609">
        <ele>73.800003051758</ele>
        <time>2013-06-09T10:54:57.000Z</time>
      </trkpt>
      <trkpt lat="48.30109" lon="2.6162">
        <ele>74.400001525879</ele>
        <time>2013-06-09T10:55:00.000Z</time>
      </trkpt>
      <trkpt lat="48.30127" lon="2.61641">
        <ele>75.599998474121</ele>
        <time>2013-06-09T10:55:06.000Z</time>
      </trkpt>
      <trkpt lat="48.30132" lon="2.61647">
        <ele>75.800003051758</ele>
        <time>2013-06-09T10:55:08.000Z</time>
      </trkpt>
      <trkpt lat="48.30148" lon="2.61664">
        <ele>77</ele>
        <time>2013-06-09T10:55:14.000Z</time>
      </trkpt>
      <trkpt lat="48.30153" lon="2.61664">
        <ele>77.199996948242</ele>
        <time>2013-06-09T10:55:21.000Z</time>
      </trkpt>
      <trkpt lat="48.30158" lon="2.61669">
        <ele>77.400001525879</ele>
        <time>2013-06-09T10:55:26.000Z</time>
      </trkpt>
      <trkpt lat="48.30168" lon="2.61676">
        <ele>77.800003051758</ele>
        <time>2013-06-09T10:55:30.000Z</time>
      </trkpt>
      <trkpt lat="48.30186" lon="2.61687">
        <ele>77.400001525879</ele>
        <time>2013-06-09T10:55:35.000Z</time>
      </trkpt>
      <trkpt lat="48.30202" lon="2.61698">
        <ele>77</ele>
        <time>2013-06-09T10:55:40.000Z</time>
      </trkpt>
      <trkpt lat="48.30221" lon="2.61709">
        <ele>76.599998474121</ele>
        <time>2013-06-09T10:55:46.000Z</time>
      </trkpt>
      <trkpt lat="48.30238" lon="2.61718">
        <ele>76.199996948242</ele>
        <time>2013-06-09T10:55:52.000Z</time>
      </trkpt>
      <trkpt lat="48.3025" lon="2.61727">
        <ele>76</ele>
        <time>2013-06-09T10:55:56.000Z</time>
      </trkpt>
      <trkpt lat="48.30268" lon="2.61741">
        <ele>76</ele>
        <time>2013-06-09T10:56:02.000Z</time>
      </trkpt>
      <trkpt lat="48.30284" lon="2.61755">
        <ele>76.199996948242</ele>
        <time>2013-06-09T10:56:07.000Z</time>
      </trkpt>
      <trkpt lat="48.303" lon="2.61769">
        <ele>76.400001525879</ele>
        <time>2013-06-09T10:56:11.000Z</time>
      </trkpt>
      <trkpt lat="48.30316" lon="2.61783">
        <ele>76.400001525879</ele>
        <time>2013-06-09T10:56:15.000Z</time>
      </trkpt>
      <trkpt lat="48.30334" lon="2.61797">
        <ele>76.400001525879</ele>
        <time>2013-06-09T10:56:20.000Z</time>
      </trkpt>
      <trkpt lat="48.30356" lon="2.61809">
        <ele>76.800003051758</ele>
        <time>2013-06-09T10:56:25.000Z</time>
      </trkpt>
      <trkpt lat="48.30358" lon="2.6181">
        <ele>76.800003051758</ele>
        <time>2013-06-09T10:56:26.000Z</time>
      </trkpt>
      <trkpt lat="48.3037" lon="2.61817">
        <ele>77</ele>
        <time>2013-06-09T10:56:30.000Z</time>
      </trkpt>
      <trkpt lat="48.30387" lon="2.61829">
        <ele>77.199996948242</ele>
        <time>2013-06-09T10:56:35.000Z</time>
      </trkpt>
      <trkpt lat="48.30397" lon="2.61835">
        <ele>77.400001525879</ele>
        <time>2013-06-09T10:56:38.000Z</time>
      </trkpt>
      <trkpt lat="48.30416" lon="2.61858">
        <ele>77.199996948242</ele>
        <time>2013-06-09T10:56:44.000Z</time>
      </trkpt>
      <trkpt lat="48.3042" lon="2.61863">
        <ele>77.199996948242</ele>
        <time>2013-06-09T10:56:48.000Z</time>
      </trkpt>
      <trkpt lat="48.30426" lon="2.61867">
        <ele>77.199996948242</ele>
        <time>2013-06-09T10:57:00.000Z</time>
      </trkpt>
      <trkpt lat="48.30428" lon="2.6187">
        <ele>77.199996948242</ele>
        <time>2013-06-09T10:57:05.000Z</time>
      </trkpt>
      <trkpt lat="48.30434" lon="2.61878">
        <ele>77.199996948242</ele>
        <time>2013-06-09T10:57:11.000Z</time>
      </trkpt>
      <trkpt lat="48.30447" lon="2.6189">
        <ele>77.400001525879</ele>
        <time>2013-06-09T10:57:16.000Z</time>
      </trkpt>
      <trkpt lat="48.30464" lon="2.61907">
        <ele>78</ele>
        <time>2013-06-09T10:57:21.000Z</time>
      </trkpt>
      <trkpt lat="48.30478" lon="2.61926">
        <ele>78.599998474121</ele>
        <time>2013-06-09T10:57:25.000Z</time>
      </trkpt>
      <trkpt lat="48.30493" lon="2.61948">
        <ele>78.800003051758</ele>
        <time>2013-06-09T10:57:30.000Z</time>
      </trkpt>
      <trkpt lat="48.30501" lon="2.61955">
        <ele>79</ele>
        <time>2013-06-09T10:57:32.000Z</time>
      </trkpt>
      <trkpt lat="48.30513" lon="2.61965">
        <ele>78.800003051758</ele>
        <time>2013-06-09T10:57:35.000Z</time>
      </trkpt>
      <trkpt lat="48.30529" lon="2.61989">
        <ele>78.599998474121</ele>
        <time>2013-06-09T10:57:41.000Z</time>
      </trkpt>
      <trkpt lat="48.30525" lon="2.61991">
        <ele>78.400001525879</ele>
        <time>2013-06-09T10:57:44.000Z</time>
      </trkpt>
      <trkpt lat="48.30519" lon="2.61988">
        <ele>78.400001525879</ele>
        <time>2013-06-09T10:57:57.000Z</time>
      </trkpt>
      <trkpt lat="48.3052" lon="2.61987">
        <ele>78.400001525879</ele>
        <time>2013-06-09T10:58:07.000Z</time>
      </trkpt>
      <trkpt lat="48.30518" lon="2.61986">
        <ele>78.400001525879</ele>
        <time>2013-06-09T10:58:21.000Z</time>
      </trkpt>
      <trkpt lat="48.30511" lon="2.61994">
        <ele>78.199996948242</ele>
        <time>2013-06-09T10:58:25.000Z</time>
      </trkpt>
      <trkpt lat="48.30491" lon="2.62021">
        <ele>77.800003051758</ele>
        <time>2013-06-09T10:58:32.000Z</time>
      </trkpt>
      <trkpt lat="48.30477" lon="2.62046">
        <ele>77.599998474121</ele>
        <time>2013-06-09T10:58:37.000Z</time>
      </trkpt>
      <trkpt lat="48.30474" lon="2.62051">
        <ele>77.400001525879</ele>
        <time>2013-06-09T10:58:38.000Z</time>
      </trkpt>
      <trkpt lat="48.30458" lon="2.62077">
        <ele>77.400001525879</ele>
        <time>2013-06-09T10:58:43.000Z</time>
      </trkpt>
      <trkpt lat="48.30451" lon="2.62088">
        <ele>77.400001525879</ele>
        <time>2013-06-09T10:58:45.000Z</time>
      </trkpt>
      <trkpt lat="48.30431" lon="2.62116">
        <ele>77.199996948242</ele>
        <time>2013-06-09T10:58:50.000Z</time>
      </trkpt>
      <trkpt lat="48.3042" lon="2.62128">
        <ele>77</ele>
        <time>2013-06-09T10:58:53.000Z</time>
      </trkpt>
      <trkpt lat="48.30411" lon="2.62137">
        <ele>76.800003051758</ele>
        <time>2013-06-09T10:58:55.000Z</time>
      </trkpt>
      <trkpt lat="48.30401" lon="2.62156">
        <ele>76.800003051758</ele>
        <time>2013-06-09T10:58:58.000Z</time>
      </trkpt>
      <trkpt lat="48.30392" lon="2.6217">
        <ele>76.599998474121</ele>
        <time>2013-06-09T10:59:01.000Z</time>
      </trkpt>
      <trkpt lat="48.30373" lon="2.62185">
        <ele>76.199996948242</ele>
        <time>2013-06-09T10:59:06.000Z</time>
      </trkpt>
      <trkpt lat="48.30359" lon="2.62199">
        <ele>76</ele>
        <time>2013-06-09T10:59:11.000Z</time>
      </trkpt>
      <trkpt lat="48.30344" lon="2.62207">
        <ele>75.599998474121</ele>
        <time>2013-06-09T10:59:15.000Z</time>
      </trkpt>
      <trkpt lat="48.30342" lon="2.6221">
        <ele>75.599998474121</ele>
        <time>2013-06-09T10:59:16.000Z</time>
      </trkpt>
      <trkpt lat="48.30337" lon="2.62213">
        <ele>75.400001525879</ele>
        <time>2013-06-09T10:59:18.000Z</time>
      </trkpt>
      <trkpt lat="48.30337" lon="2.62212">
        <ele>75.400001525879</ele>
        <time>2013-06-09T10:59:25.000Z</time>
      </trkpt>
      <trkpt lat="48.30339" lon="2.62223">
        <ele>75.400001525879</ele>
        <time>2013-06-09T10:59:50.000Z</time>
      </trkpt>
      <trkpt lat="48.30341" lon="2.62223">
        <ele>75.400001525879</ele>
        <time>2013-06-09T10:59:53.000Z</time>
      </trkpt>
      <trkpt lat="48.30343" lon="2.62226">
        <ele>75.400001525879</ele>
        <time>2013-06-09T10:59:57.000Z</time>
      </trkpt>
      <trkpt lat="48.3035" lon="2.62243">
        <ele>75.400001525879</ele>
        <time>2013-06-09T11:00:03.000Z</time>
      </trkpt>
      <trkpt lat="48.3036" lon="2.62264">
        <ele>75.800003051758</ele>
        <time>2013-06-09T11:00:08.000Z</time>
      </trkpt>
      <trkpt lat="48.30378" lon="2.623">
        <ele>76.199996948242</ele>
        <time>2013-06-09T11:00:15.000Z</time>
      </trkpt>
      <trkpt lat="48.30384" lon="2.62316">
        <ele>76.199996948242</ele>
        <time>2013-06-09T11:00:18.000Z</time>
      </trkpt>
      <trkpt lat="48.30386" lon="2.62321">
        <ele>76.199996948242</ele>
        <time>2013-06-09T11:00:19.000Z</time>
      </trkpt>
      <trkpt lat="48.30386" lon="2.62321">
        <ele>76.199996948242</ele>
        <time>2013-06-09T11:00:19.000Z</time>
      </trkpt>
      <trkpt lat="48.30393" lon="2.62336">
        <ele>76.199996948242</ele>
        <time>2013-06-09T11:00:22.000Z</time>
      </trkpt>
      <trkpt lat="48.30402" lon="2.62358">
        <ele>75.800003051758</ele>
        <time>2013-06-09T11:00:26.000Z</time>
      </trkpt>
      <trkpt lat="48.30409" lon="2.62372">
        <ele>75.599998474121</ele>
        <time>2013-06-09T11:00:29.000Z</time>
      </trkpt>
      <trkpt lat="48.30418" lon="2.62392">
        <ele>75.199996948242</ele>
        <time>2013-06-09T11:00:33.000Z</time>
      </trkpt>
      <trkpt lat="48.30429" lon="2.62413">
        <ele>75.199996948242</ele>
        <time>2013-06-09T11:00:37.000Z</time>
      </trkpt>
      <trkpt lat="48.30436" lon="2.62428">
        <ele>75.599998474121</ele>
        <time>2013-06-09T11:00:40.000Z</time>
      </trkpt>
      <trkpt lat="48.30445" lon="2.62448">
        <ele>76.199996948242</ele>
        <time>2013-06-09T11:00:44.000Z</time>
      </trkpt>
      <trkpt lat="48.30461" lon="2.62483">
        <ele>76.599998474121</ele>
        <time>2013-06-09T11:00:51.000Z</time>
      </trkpt>
      <trkpt lat="48.30467" lon="2.62493">
        <ele>76.599998474121</ele>
        <time>2013-06-09T11:00:53.000Z</time>
      </trkpt>
      <trkpt lat="48.30476" lon="2.62514">
        <ele>76.800003051758</ele>
        <time>2013-06-09T11:00:57.000Z</time>
      </trkpt>
      <trkpt lat="48.30486" lon="2.62536">
        <ele>77</ele>
        <time>2013-06-09T11:01:01.000Z</time>
      </trkpt>
      <trkpt lat="48.30492" lon="2.62549">
        <ele>77.199996948242</ele>
        <time>2013-06-09T11:01:03.000Z</time>
      </trkpt>
      <trkpt lat="48.30498" lon="2.62561">
        <ele>77.400001525879</ele>
        <time>2013-06-09T11:01:05.000Z</time>
      </trkpt>
      <trkpt lat="48.30502" lon="2.62572">
        <ele>77.599998474121</ele>
        <time>2013-06-09T11:01:07.000Z</time>
      </trkpt>
      <trkpt lat="48.30509" lon="2.62593">
        <ele>77.800003051758</ele>
        <time>2013-06-09T11:01:11.000Z</time>
      </trkpt>
      <trkpt lat="48.30516" lon="2.62611">
        <ele>77.800003051758</ele>
        <time>2013-06-09T11:01:14.000Z</time>
      </trkpt>
      <trkpt lat="48.3053" lon="2.62641">
        <ele>77.400001525879</ele>
        <time>2013-06-09T11:01:20.000Z</time>
      </trkpt>
      <trkpt lat="48.30533" lon="2.62652">
        <ele>77.199996948242</ele>
        <time>2013-06-09T11:01:22.000Z</time>
      </trkpt>
      <trkpt lat="48.30543" lon="2.62682">
        <ele>77</ele>
        <time>2013-06-09T11:01:28.000Z</time>
      </trkpt>
      <trkpt lat="48.30552" lon="2.62708">
        <ele>77</ele>
        <time>2013-06-09T11:01:33.000Z</time>
      </trkpt>
      <trkpt lat="48.30554" lon="2.62715">
        <ele>77</ele>
        <time>2013-06-09T11:01:34.000Z</time>
      </trkpt>
      <trkpt lat="48.3056" lon="2.62735">
        <ele>77.199996948242</ele>
        <time>2013-06-09T11:01:37.000Z</time>
      </trkpt>
      <trkpt lat="48.30575" lon="2.6278">
        <ele>78.400001525879</ele>
        <time>2013-06-09T11:01:44.000Z</time>
      </trkpt>
      <trkpt lat="48.30583" lon="2.62803">
        <ele>79.199996948242</ele>
        <time>2013-06-09T11:01:48.000Z</time>
      </trkpt>
      <trkpt lat="48.30592" lon="2.62825">
        <ele>79.599998474121</ele>
        <time>2013-06-09T11:01:52.000Z</time>
      </trkpt>
      <trkpt lat="48.30604" lon="2.62851">
        <ele>79.599998474121</ele>
        <time>2013-06-09T11:01:58.000Z</time>
      </trkpt>
      <trkpt lat="48.30615" lon="2.62876">
        <ele>79.400001525879</ele>
        <time>2013-06-09T11:02:04.000Z</time>
      </trkpt>
      <trkpt lat="48.30621" lon="2.62892">
        <ele>79.400001525879</ele>
        <time>2013-06-09T11:02:08.000Z</time>
      </trkpt>
      <trkpt lat="48.30635" lon="2.62913">
        <ele>79.599998474121</ele>
        <time>2013-06-09T11:02:13.000Z</time>
      </trkpt>
      <trkpt lat="48.30647" lon="2.6294">
        <ele>79.400001525879</ele>
        <time>2013-06-09T11:02:19.000Z</time>
      </trkpt>
      <trkpt lat="48.30655" lon="2.62958">
        <ele>79.199996948242</ele>
        <time>2013-06-09T11:02:25.000Z</time>
      </trkpt>
      <trkpt lat="48.30669" lon="2.6299">
        <ele>79</ele>
        <time>2013-06-09T11:02:31.000Z</time>
      </trkpt>
      <trkpt lat="48.30682" lon="2.6301">
        <ele>78.599998474121</ele>
        <time>2013-06-09T11:02:36.000Z</time>
      </trkpt>
      <trkpt lat="48.30688" lon="2.63022">
        <ele>78.599998474121</ele>
        <time>2013-06-09T11:02:40.000Z</time>
      </trkpt>
      <trkpt lat="48.30681" lon="2.63032">
        <ele>78.400001525879</ele>
        <time>2013-06-09T11:02:46.000Z</time>
      </trkpt>
      <trkpt lat="48.30671" lon="2.63043">
        <ele>78.400001525879</ele>
        <time>2013-06-09T11:02:51.000Z</time>
      </trkpt>
      <trkpt lat="48.30669" lon="2.63049">
        <ele>78.400001525879</ele>
        <time>2013-06-09T11:02:53.000Z</time>
      </trkpt>
      <trkpt lat="48.30658" lon="2.63067">
        <ele>78.199996948242</ele>
        <time>2013-06-09T11:02:57.000Z</time>
      </trkpt>
      <trkpt lat="48.30658" lon="2.63067">
        <ele>78.199996948242</ele>
        <time>2013-06-09T11:02:57.000Z</time>
      </trkpt>
      <trkpt lat="48.30653" lon="2.63076">
        <ele>78.199996948242</ele>
        <time>2013-06-09T11:02:59.000Z</time>
      </trkpt>
      <trkpt lat="48.30643" lon="2.631">
        <ele>78.199996948242</ele>
        <time>2013-06-09T11:03:03.000Z</time>
      </trkpt>
      <trkpt lat="48.30638" lon="2.63114">
        <ele>78.199996948242</ele>
        <time>2013-06-09T11:03:05.000Z</time>
      </trkpt>
      <trkpt lat="48.30623" lon="2.63148">
        <ele>78</ele>
        <time>2013-06-09T11:03:11.000Z</time>
      </trkpt>
      <trkpt lat="48.30617" lon="2.63167">
        <ele>78</ele>
        <time>2013-06-09T11:03:14.000Z</time>
      </trkpt>
      <trkpt lat="48.30603" lon="2.63184">
        <ele>78</ele>
        <time>2013-06-09T11:03:18.000Z</time>
      </trkpt>
      <trkpt lat="48.30594" lon="2.63214">
        <ele>78</ele>
        <time>2013-06-09T11:03:23.000Z</time>
      </trkpt>
      <trkpt lat="48.30593" lon="2.6322">
        <ele>78</ele>
        <time>2013-06-09T11:03:24.000Z</time>
      </trkpt>
      <trkpt lat="48.30593" lon="2.63231">
        <ele>78</ele>
        <time>2013-06-09T11:03:26.000Z</time>
      </trkpt>
      <trkpt lat="48.30589" lon="2.63243">
        <ele>78</ele>
        <time>2013-06-09T11:03:31.000Z</time>
      </trkpt>
      <trkpt lat="48.30586" lon="2.63248">
        <ele>78</ele>
        <time>2013-06-09T11:03:34.000Z</time>
      </trkpt>
      <trkpt lat="48.30593" lon="2.63252">
        <ele>78</ele>
        <time>2013-06-09T11:03:42.000Z</time>
      </trkpt>
      <trkpt lat="48.30601" lon="2.6325">
        <ele>78.199996948242</ele>
        <time>2013-06-09T11:03:51.000Z</time>
      </trkpt>
      <trkpt lat="48.30602" lon="2.63259">
        <ele>78.199996948242</ele>
        <time>2013-06-09T11:04:00.000Z</time>
      </trkpt>
      <trkpt lat="48.30595" lon="2.63273">
        <ele>78.400001525879</ele>
        <time>2013-06-09T11:04:04.000Z</time>
      </trkpt>
      <trkpt lat="48.30592" lon="2.63283">
        <ele>78.400001525879</ele>
        <time>2013-06-09T11:04:06.000Z</time>
      </trkpt>
      <trkpt lat="48.30589" lon="2.6329">
        <ele>78.400001525879</ele>
        <time>2013-06-09T11:04:10.000Z</time>
      </trkpt>
      <trkpt lat="48.3059" lon="2.63303">
        <ele>78.599998474121</ele>
        <time>2013-06-09T11:04:22.000Z</time>
      </trkpt>
      <trkpt lat="48.30587" lon="2.63325">
        <ele>78.800003051758</ele>
        <time>2013-06-09T11:04:27.000Z</time>
      </trkpt>
      <trkpt lat="48.3058" lon="2.63347">
        <ele>78.800003051758</ele>
        <time>2013-06-09T11:04:31.000Z</time>
      </trkpt>
      <trkpt lat="48.30575" lon="2.63365">
        <ele>78.599998474121</ele>
        <time>2013-06-09T11:04:33.000Z</time>
      </trkpt>
      <trkpt lat="48.30568" lon="2.6338">
        <ele>78.599998474121</ele>
        <time>2013-06-09T11:04:35.000Z</time>
      </trkpt>
      <trkpt lat="48.30552" lon="2.63405">
        <ele>78.400001525879</ele>
        <time>2013-06-09T11:04:39.000Z</time>
      </trkpt>
      <trkpt lat="48.30538" lon="2.63441">
        <ele>78</ele>
        <time>2013-06-09T11:04:44.000Z</time>
      </trkpt>
      <trkpt lat="48.30533" lon="2.63458">
        <ele>77.800003051758</ele>
        <time>2013-06-09T11:04:46.000Z</time>
      </trkpt>
      <trkpt lat="48.3053" lon="2.63473">
        <ele>77.599998474121</ele>
        <time>2013-06-09T11:04:48.000Z</time>
      </trkpt>
      <trkpt lat="48.30527" lon="2.63487">
        <ele>77.400001525879</ele>
        <time>2013-06-09T11:04:50.000Z</time>
      </trkpt>
      <trkpt lat="48.30516" lon="2.63509">
        <ele>77.599998474121</ele>
        <time>2013-06-09T11:04:54.000Z</time>
      </trkpt>
      <trkpt lat="48.30503" lon="2.63531">
        <ele>77.800003051758</ele>
        <time>2013-06-09T11:04:58.000Z</time>
      </trkpt>
      <trkpt lat="48.30499" lon="2.63541">
        <ele>77.800003051758</ele>
        <time>2013-06-09T11:05:00.000Z</time>
      </trkpt>
      <trkpt lat="48.30481" lon="2.63571">
        <ele>77.599998474121</ele>
        <time>2013-06-09T11:05:06.000Z</time>
      </trkpt>
      <trkpt lat="48.30471" lon="2.6359">
        <ele>77.599998474121</ele>
        <time>2013-06-09T11:05:09.000Z</time>
      </trkpt>
      <trkpt lat="48.3046" lon="2.6361">
        <ele>77.199996948242</ele>
        <time>2013-06-09T11:05:12.000Z</time>
      </trkpt>
      <trkpt lat="48.30448" lon="2.63631">
        <ele>77</ele>
        <time>2013-06-09T11:05:16.000Z</time>
      </trkpt>
      <trkpt lat="48.30434" lon="2.63652">
        <ele>76.400001525879</ele>
        <time>2013-06-09T11:05:21.000Z</time>
      </trkpt>
      <trkpt lat="48.30408" lon="2.63694">
        <ele>76</ele>
        <time>2013-06-09T11:05:30.000Z</time>
      </trkpt>
      <trkpt lat="48.304" lon="2.63706">
        <ele>76</ele>
        <time>2013-06-09T11:05:35.000Z</time>
      </trkpt>
      <trkpt lat="48.30392" lon="2.63716">
        <ele>76</ele>
        <time>2013-06-09T11:05:40.000Z</time>
      </trkpt>
      <trkpt lat="48.30385" lon="2.6372">
        <ele>75.800003051758</ele>
        <time>2013-06-09T11:05:58.000Z</time>
      </trkpt>
      <trkpt lat="48.30381" lon="2.63717">
        <ele>75.800003051758</ele>
        <time>2013-06-09T11:06:05.000Z</time>
      </trkpt>
      <trkpt lat="48.30381" lon="2.63721">
        <ele>75.800003051758</ele>
        <time>2013-06-09T11:06:10.000Z</time>
      </trkpt>
      <trkpt lat="48.30381" lon="2.63723">
        <ele>75.800003051758</ele>
        <time>2013-06-09T11:06:16.000Z</time>
      </trkpt>
      <trkpt lat="48.30381" lon="2.63724">
        <ele>76</ele>
        <time>2013-06-09T11:06:19.000Z</time>
      </trkpt>
      <trkpt lat="48.30377" lon="2.63739">
        <ele>76.199996948242</ele>
        <time>2013-06-09T11:06:24.000Z</time>
      </trkpt>
      <trkpt lat="48.3037" lon="2.6376">
        <ele>76.400001525879</ele>
        <time>2013-06-09T11:06:29.000Z</time>
      </trkpt>
      <trkpt lat="48.30359" lon="2.63783">
        <ele>76.800003051758</ele>
        <time>2013-06-09T11:06:34.000Z</time>
      </trkpt>
      <trkpt lat="48.30346" lon="2.63806">
        <ele>77.199996948242</ele>
        <time>2013-06-09T11:06:39.000Z</time>
      </trkpt>
      <trkpt lat="48.3034" lon="2.63817">
        <ele>77.400001525879</ele>
        <time>2013-06-09T11:06:41.000Z</time>
      </trkpt>
      <trkpt lat="48.30326" lon="2.63851">
        <ele>78.199996948242</ele>
        <time>2013-06-09T11:06:47.000Z</time>
      </trkpt>
      <trkpt lat="48.30324" lon="2.63856">
        <ele>78.199996948242</ele>
        <time>2013-06-09T11:06:48.000Z</time>
      </trkpt>
      <trkpt lat="48.30319" lon="2.63866">
        <ele>78.400001525879</ele>
        <time>2013-06-09T11:06:50.000Z</time>
      </trkpt>
      <trkpt lat="48.30319" lon="2.63866">
        <ele>78.400001525879</ele>
        <time>2013-06-09T11:06:50.000Z</time>
      </trkpt>
      <trkpt lat="48.30317" lon="2.63871">
        <ele>78.599998474121</ele>
        <time>2013-06-09T11:06:51.000Z</time>
      </trkpt>
      <trkpt lat="48.30309" lon="2.63886">
        <ele>78.599998474121</ele>
        <time>2013-06-09T11:06:54.000Z</time>
      </trkpt>
      <trkpt lat="48.30293" lon="2.63916">
        <ele>79</ele>
        <time>2013-06-09T11:07:00.000Z</time>
      </trkpt>
      <trkpt lat="48.30283" lon="2.63936">
        <ele>79.400001525879</ele>
        <time>2013-06-09T11:07:04.000Z</time>
      </trkpt>
      <trkpt lat="48.30275" lon="2.63953">
        <ele>79.599998474121</ele>
        <time>2013-06-09T11:07:07.000Z</time>
      </trkpt>
      <trkpt lat="48.30262" lon="2.63984">
        <ele>80.400001525879</ele>
        <time>2013-06-09T11:07:12.000Z</time>
      </trkpt>
      <trkpt lat="48.30248" lon="2.64011">
        <ele>81</ele>
        <time>2013-06-09T11:07:17.000Z</time>
      </trkpt>
      <trkpt lat="48.30237" lon="2.64032">
        <ele>81.199996948242</ele>
        <time>2013-06-09T11:07:21.000Z</time>
      </trkpt>
      <trkpt lat="48.30218" lon="2.64066">
        <ele>81.599998474121</ele>
        <time>2013-06-09T11:07:27.000Z</time>
      </trkpt>
      <trkpt lat="48.30211" lon="2.64076">
        <ele>81.800003051758</ele>
        <time>2013-06-09T11:07:29.000Z</time>
      </trkpt>
      <trkpt lat="48.30196" lon="2.64105">
        <ele>81.199996948242</ele>
        <time>2013-06-09T11:07:34.000Z</time>
      </trkpt>
      <trkpt lat="48.30187" lon="2.64122">
        <ele>80.400001525879</ele>
        <time>2013-06-09T11:07:37.000Z</time>
      </trkpt>
      <trkpt lat="48.30169" lon="2.64149">
        <ele>78.800003051758</ele>
        <time>2013-06-09T11:07:42.000Z</time>
      </trkpt>
      <trkpt lat="48.30149" lon="2.6418">
        <ele>77</ele>
        <time>2013-06-09T11:07:49.000Z</time>
      </trkpt>
      <trkpt lat="48.30141" lon="2.64193">
        <ele>76.599998474121</ele>
        <time>2013-06-09T11:07:52.000Z</time>
      </trkpt>
      <trkpt lat="48.30115" lon="2.64229">
        <ele>75</ele>
        <time>2013-06-09T11:08:00.000Z</time>
      </trkpt>
      <trkpt lat="48.301" lon="2.64252">
        <ele>74</ele>
        <time>2013-06-09T11:08:05.000Z</time>
      </trkpt>
      <trkpt lat="48.30088" lon="2.64271">
        <ele>73.400001525879</ele>
        <time>2013-06-09T11:08:09.000Z</time>
      </trkpt>
      <trkpt lat="48.30076" lon="2.64294">
        <ele>73.800003051758</ele>
        <time>2013-06-09T11:08:13.000Z</time>
      </trkpt>
      <trkpt lat="48.30055" lon="2.64325">
        <ele>75</ele>
        <time>2013-06-09T11:08:19.000Z</time>
      </trkpt>
      <trkpt lat="48.30042" lon="2.64346">
        <ele>75.800003051758</ele>
        <time>2013-06-09T11:08:23.000Z</time>
      </trkpt>
      <trkpt lat="48.30025" lon="2.64372">
        <ele>76.800003051758</ele>
        <time>2013-06-09T11:08:28.000Z</time>
      </trkpt>
      <trkpt lat="48.30008" lon="2.64396">
        <ele>77.599998474121</ele>
        <time>2013-06-09T11:08:33.000Z</time>
      </trkpt>
      <trkpt lat="48.29992" lon="2.64426">
        <ele>78</ele>
        <time>2013-06-09T11:08:38.000Z</time>
      </trkpt>
      <trkpt lat="48.29971" lon="2.64457">
        <ele>78</ele>
        <time>2013-06-09T11:08:44.000Z</time>
      </trkpt>
      <trkpt lat="48.29968" lon="2.64461">
        <ele>78</ele>
        <time>2013-06-09T11:08:45.000Z</time>
      </trkpt>
      <trkpt lat="48.29951" lon="2.64483">
        <ele>77.800003051758</ele>
        <time>2013-06-09T11:08:50.000Z</time>
      </trkpt>
      <trkpt lat="48.29936" lon="2.64507">
        <ele>77.800003051758</ele>
        <time>2013-06-09T11:08:55.000Z</time>
      </trkpt>
      <trkpt lat="48.29919" lon="2.64537">
        <ele>78.199996948242</ele>
        <time>2013-06-09T11:09:01.000Z</time>
      </trkpt>
      <trkpt lat="48.29914" lon="2.64547">
        <ele>78.599998474121</ele>
        <time>2013-06-09T11:09:03.000Z</time>
      </trkpt>
      <trkpt lat="48.2991" lon="2.64556">
        <ele>79</ele>
        <time>2013-06-09T11:09:05.000Z</time>
      </trkpt>
      <trkpt lat="48.29912" lon="2.64565">
        <ele>79.199996948242</ele>
        <time>2013-06-09T11:09:09.000Z</time>
      </trkpt>
      <trkpt lat="48.29912" lon="2.64565">
        <ele>79.199996948242</ele>
        <time>2013-06-09T11:09:10.000Z</time>
      </trkpt>
      <trkpt lat="48.29912" lon="2.64565">
        <ele>79.199996948242</ele>
        <time>2013-06-09T11:09:10.000Z</time>
      </trkpt>
      <trkpt lat="48.29917" lon="2.64575">
        <ele>79.599998474121</ele>
        <time>2013-06-09T11:09:37.000Z</time>
      </trkpt>
      <trkpt lat="48.29924" lon="2.64574">
        <ele>79.400001525879</ele>
        <time>2013-06-09T11:09:41.000Z</time>
      </trkpt>
      <trkpt lat="48.29943" lon="2.64571">
        <ele>79</ele>
        <time>2013-06-09T11:09:47.000Z</time>
      </trkpt>
      <trkpt lat="48.2997" lon="2.64568">
        <ele>78.599998474121</ele>
        <time>2013-06-09T11:09:53.000Z</time>
      </trkpt>
      <trkpt lat="48.29975" lon="2.64567">
        <ele>78.599998474121</ele>
        <time>2013-06-09T11:09:54.000Z</time>
      </trkpt>
      <trkpt lat="48.29994" lon="2.64562">
        <ele>78.400001525879</ele>
        <time>2013-06-09T11:09:58.000Z</time>
      </trkpt>
      <trkpt lat="48.30023" lon="2.64552">
        <ele>77.800003051758</ele>
        <time>2013-06-09T11:10:04.000Z</time>
      </trkpt>
      <trkpt lat="48.30042" lon="2.64548">
        <ele>77.400001525879</ele>
        <time>2013-06-09T11:10:08.000Z</time>
      </trkpt>
      <trkpt lat="48.3007" lon="2.6454">
        <ele>76.800003051758</ele>
        <time>2013-06-09T11:10:14.000Z</time>
      </trkpt>
      <trkpt lat="48.30079" lon="2.64535">
        <ele>77</ele>
        <time>2013-06-09T11:10:17.000Z</time>
      </trkpt>
      <trkpt lat="48.30097" lon="2.64529">
        <ele>77</ele>
        <time>2013-06-09T11:10:23.000Z</time>
      </trkpt>
      <trkpt lat="48.30118" lon="2.6453">
        <ele>76.800003051758</ele>
        <time>2013-06-09T11:10:27.000Z</time>
      </trkpt>
      <trkpt lat="48.30127" lon="2.64529">
        <ele>76.800003051758</ele>
        <time>2013-06-09T11:10:29.000Z</time>
      </trkpt>
      <trkpt lat="48.30139" lon="2.64528">
        <ele>76.800003051758</ele>
        <time>2013-06-09T11:10:32.000Z</time>
      </trkpt>
      <trkpt lat="48.30156" lon="2.64526">
        <ele>76.800003051758</ele>
        <time>2013-06-09T11:10:38.000Z</time>
      </trkpt>
      <trkpt lat="48.30167" lon="2.64535">
        <ele>76.199996948242</ele>
        <time>2013-06-09T11:10:42.000Z</time>
      </trkpt>
      <trkpt lat="48.30169" lon="2.64538">
        <ele>76</ele>
        <time>2013-06-09T11:10:43.000Z</time>
      </trkpt>
      <trkpt lat="48.3018" lon="2.64551">
        <ele>75.199996948242</ele>
        <time>2013-06-09T11:10:47.000Z</time>
      </trkpt>
      <trkpt lat="48.30193" lon="2.64568">
        <ele>74.400001525879</ele>
        <time>2013-06-09T11:10:52.000Z</time>
      </trkpt>
      <trkpt lat="48.30208" lon="2.64585">
        <ele>73.800003051758</ele>
        <time>2013-06-09T11:10:57.000Z</time>
      </trkpt>
      <trkpt lat="48.30221" lon="2.64603">
        <ele>73.800003051758</ele>
        <time>2013-06-09T11:11:01.000Z</time>
      </trkpt>
      <trkpt lat="48.30237" lon="2.64628">
        <ele>73.400001525879</ele>
        <time>2013-06-09T11:11:06.000Z</time>
      </trkpt>
      <trkpt lat="48.30241" lon="2.64632">
        <ele>73.400001525879</ele>
        <time>2013-06-09T11:11:07.000Z</time>
      </trkpt>
      <trkpt lat="48.3025" lon="2.64641">
        <ele>73.199996948242</ele>
        <time>2013-06-09T11:11:09.000Z</time>
      </trkpt>
      <trkpt lat="48.30267" lon="2.64665">
        <ele>73.199996948242</ele>
        <time>2013-06-09T11:11:14.000Z</time>
      </trkpt>
      <trkpt lat="48.30277" lon="2.64686">
        <ele>72.800003051758</ele>
        <time>2013-06-09T11:11:19.000Z</time>
      </trkpt>
      <trkpt lat="48.30302" lon="2.64717">
        <ele>72.800003051758</ele>
        <time>2013-06-09T11:11:26.000Z</time>
      </trkpt>
      <trkpt lat="48.30309" lon="2.64726">
        <ele>73</ele>
        <time>2013-06-09T11:11:28.000Z</time>
      </trkpt>
      <trkpt lat="48.30323" lon="2.64745">
        <ele>73.400001525879</ele>
        <time>2013-06-09T11:11:32.000Z</time>
      </trkpt>
      <trkpt lat="48.30332" lon="2.64751">
        <ele>73.800003051758</ele>
        <time>2013-06-09T11:11:37.000Z</time>
      </trkpt>
      <trkpt lat="48.30336" lon="2.64751">
        <ele>74</ele>
        <time>2013-06-09T11:11:44.000Z</time>
      </trkpt>
      <trkpt lat="48.30338" lon="2.64743">
        <ele>74</ele>
        <time>2013-06-09T11:11:47.000Z</time>
      </trkpt>
      <trkpt lat="48.30345" lon="2.6473">
        <ele>74.199996948242</ele>
        <time>2013-06-09T11:11:51.000Z</time>
      </trkpt>
      <trkpt lat="48.30356" lon="2.64723">
        <ele>74.599998474121</ele>
        <time>2013-06-09T11:11:57.000Z</time>
      </trkpt>
      <trkpt lat="48.30357" lon="2.64723">
        <ele>74.599998474121</ele>
        <time>2013-06-09T11:11:58.000Z</time>
      </trkpt>
      <trkpt lat="48.30366" lon="2.64713">
        <ele>74.800003051758</ele>
        <time>2013-06-09T11:12:03.000Z</time>
      </trkpt>
      <trkpt lat="48.30366" lon="2.64706">
        <ele>74.800003051758</ele>
        <time>2013-06-09T11:12:05.000Z</time>
      </trkpt>
      <trkpt lat="48.30365" lon="2.64689">
        <ele>74.800003051758</ele>
        <time>2013-06-09T11:12:11.000Z</time>
      </trkpt>
      <trkpt lat="48.30363" lon="2.64684">
        <ele>74.599998474121</ele>
        <time>2013-06-09T11:12:13.000Z</time>
      </trkpt>
      <trkpt lat="48.3036" lon="2.64673">
        <ele>74.599998474121</ele>
        <time>2013-06-09T11:12:16.000Z</time>
      </trkpt>
      <trkpt lat="48.3036" lon="2.6466">
        <ele>74.599998474121</ele>
        <time>2013-06-09T11:12:22.000Z</time>
      </trkpt>
      <trkpt lat="48.3036" lon="2.64646">
        <ele>74.599998474121</ele>
        <time>2013-06-09T11:12:26.000Z</time>
      </trkpt>
      <trkpt lat="48.30363" lon="2.64638">
        <ele>74.599998474121</ele>
        <time>2013-06-09T11:12:28.000Z</time>
      </trkpt>
      <trkpt lat="48.30374" lon="2.64608">
        <ele>74.800003051758</ele>
        <time>2013-06-09T11:12:34.000Z</time>
      </trkpt>
      <trkpt lat="48.30388" lon="2.64587">
        <ele>75.199996948242</ele>
        <time>2013-06-09T11:12:38.000Z</time>
      </trkpt>
      <trkpt lat="48.30397" lon="2.64582">
        <ele>75.400001525879</ele>
        <time>2013-06-09T11:12:42.000Z</time>
      </trkpt>
      <trkpt lat="48.30402" lon="2.6456">
        <ele>75.599998474121</ele>
        <time>2013-06-09T11:12:48.000Z</time>
      </trkpt>
      <trkpt lat="48.30407" lon="2.64551">
        <ele>75.800003051758</ele>
        <time>2013-06-09T11:12:51.000Z</time>
      </trkpt>
      <trkpt lat="48.30415" lon="2.64537">
        <ele>75.800003051758</ele>
        <time>2013-06-09T11:12:56.000Z</time>
      </trkpt>
      <trkpt lat="48.30424" lon="2.6454">
        <ele>76.199996948242</ele>
        <time>2013-06-09T11:13:00.000Z</time>
      </trkpt>
      <trkpt lat="48.30426" lon="2.64541">
        <ele>76.400001525879</ele>
        <time>2013-06-09T11:13:01.000Z</time>
      </trkpt>
      <trkpt lat="48.30438" lon="2.64545">
        <ele>77</ele>
        <time>2013-06-09T11:13:07.000Z</time>
      </trkpt>
      <trkpt lat="48.30446" lon="2.64554">
        <ele>77.400001525879</ele>
        <time>2013-06-09T11:13:12.000Z</time>
      </trkpt>
      <trkpt lat="48.30449" lon="2.64562">
        <ele>77.400001525879</ele>
        <time>2013-06-09T11:13:18.000Z</time>
      </trkpt>
      <trkpt lat="48.30452" lon="2.64571">
        <ele>77.599998474121</ele>
        <time>2013-06-09T11:13:32.000Z</time>
      </trkpt>
      <trkpt lat="48.30444" lon="2.64582">
        <ele>77.199996948242</ele>
        <time>2013-06-09T11:13:36.000Z</time>
      </trkpt>
      <trkpt lat="48.30439" lon="2.64586">
        <ele>77</ele>
        <time>2013-06-09T11:13:40.000Z</time>
      </trkpt>
      <trkpt lat="48.30438" lon="2.64591">
        <ele>76.800003051758</ele>
        <time>2013-06-09T11:13:46.000Z</time>
      </trkpt>
      <trkpt lat="48.30444" lon="2.64603">
        <ele>77</ele>
        <time>2013-06-09T11:13:51.000Z</time>
      </trkpt>
      <trkpt lat="48.30446" lon="2.64607">
        <ele>77.199996948242</ele>
        <time>2013-06-09T11:13:53.000Z</time>
      </trkpt>
      <trkpt lat="48.30448" lon="2.64616">
        <ele>77.199996948242</ele>
        <time>2013-06-09T11:13:58.000Z</time>
      </trkpt>
      <trkpt lat="48.3045" lon="2.64623">
        <ele>77.199996948242</ele>
        <time>2013-06-09T11:14:04.000Z</time>
      </trkpt>
      <trkpt lat="48.30448" lon="2.64632">
        <ele>77</ele>
        <time>2013-06-09T11:14:10.000Z</time>
      </trkpt>
      <trkpt lat="48.30447" lon="2.64645">
        <ele>76.800003051758</ele>
        <time>2013-06-09T11:14:15.000Z</time>
      </trkpt>
      <trkpt lat="48.30448" lon="2.64648">
        <ele>76.800003051758</ele>
        <time>2013-06-09T11:14:16.000Z</time>
      </trkpt>
      <trkpt lat="48.30447" lon="2.64655">
        <ele>76.800003051758</ele>
        <time>2013-06-09T11:14:23.000Z</time>
      </trkpt>
      <trkpt lat="48.30448" lon="2.64663">
        <ele>76.599998474121</ele>
        <time>2013-06-09T11:14:38.000Z</time>
      </trkpt>
      <trkpt lat="48.3045" lon="2.64686">
        <ele>76.599998474121</ele>
        <time>2013-06-09T11:14:44.000Z</time>
      </trkpt>
      <trkpt lat="48.30447" lon="2.64711">
        <ele>76.599998474121</ele>
        <time>2013-06-09T11:14:49.000Z</time>
      </trkpt>
      <trkpt lat="48.30445" lon="2.64735">
        <ele>76.599998474121</ele>
        <time>2013-06-09T11:14:54.000Z</time>
      </trkpt>
      <trkpt lat="48.30449" lon="2.6476">
        <ele>76.599998474121</ele>
        <time>2013-06-09T11:14:58.000Z</time>
      </trkpt>
      <trkpt lat="48.30453" lon="2.64776">
        <ele>76.800003051758</ele>
        <time>2013-06-09T11:15:01.000Z</time>
      </trkpt>
      <trkpt lat="48.30457" lon="2.64781">
        <ele>76.800003051758</ele>
        <time>2013-06-09T11:15:04.000Z</time>
      </trkpt>
      <trkpt lat="48.3046" lon="2.64786">
        <ele>76.800003051758</ele>
        <time>2013-06-09T11:15:10.000Z</time>
      </trkpt>
      <trkpt lat="48.30464" lon="2.64792">
        <ele>76.800003051758</ele>
        <time>2013-06-09T11:15:15.000Z</time>
      </trkpt>
      <trkpt lat="48.30465" lon="2.64798">
        <ele>76.800003051758</ele>
        <time>2013-06-09T11:15:20.000Z</time>
      </trkpt>
      <trkpt lat="48.30462" lon="2.64807">
        <ele>77</ele>
        <time>2013-06-09T11:15:29.000Z</time>
      </trkpt>
      <trkpt lat="48.30461" lon="2.64811">
        <ele>77</ele>
        <time>2013-06-09T11:15:30.000Z</time>
      </trkpt>
      <trkpt lat="48.30462" lon="2.64819">
        <ele>77.199996948242</ele>
        <time>2013-06-09T11:15:35.000Z</time>
      </trkpt>
      <trkpt lat="48.30463" lon="2.64823">
        <ele>77.199996948242</ele>
        <time>2013-06-09T11:15:46.000Z</time>
      </trkpt>
      <trkpt lat="48.30468" lon="2.64831">
        <ele>77.199996948242</ele>
        <time>2013-06-09T11:16:03.000Z</time>
      </trkpt>
      <trkpt lat="48.30465" lon="2.6484">
        <ele>77.400001525879</ele>
        <time>2013-06-09T11:16:09.000Z</time>
      </trkpt>
      <trkpt lat="48.30463" lon="2.64845">
        <ele>77.599998474121</ele>
        <time>2013-06-09T11:16:11.000Z</time>
      </trkpt>
      <trkpt lat="48.30465" lon="2.64856">
        <ele>77.800003051758</ele>
        <time>2013-06-09T11:16:16.000Z</time>
      </trkpt>
      <trkpt lat="48.30463" lon="2.64861">
        <ele>78</ele>
        <time>2013-06-09T11:16:19.000Z</time>
      </trkpt>
      <trkpt lat="48.30455" lon="2.64867">
        <ele>78.199996948242</ele>
        <time>2013-06-09T11:16:26.000Z</time>
      </trkpt>
      <trkpt lat="48.30446" lon="2.6487">
        <ele>78.400001525879</ele>
        <time>2013-06-09T11:16:30.000Z</time>
      </trkpt>
      <trkpt lat="48.30444" lon="2.64871">
        <ele>78.400001525879</ele>
        <time>2013-06-09T11:16:31.000Z</time>
      </trkpt>
      <trkpt lat="48.30434" lon="2.64875">
        <ele>78.599998474121</ele>
        <time>2013-06-09T11:16:36.000Z</time>
      </trkpt>
      <trkpt lat="48.3043" lon="2.64874">
        <ele>78.800003051758</ele>
        <time>2013-06-09T11:16:40.000Z</time>
      </trkpt>
      <trkpt lat="48.30417" lon="2.64889">
        <ele>79.199996948242</ele>
        <time>2013-06-09T11:17:10.000Z</time>
      </trkpt>
      <trkpt lat="48.30406" lon="2.64902">
        <ele>79.199996948242</ele>
        <time>2013-06-09T11:17:15.000Z</time>
      </trkpt>
      <trkpt lat="48.30404" lon="2.64905">
        <ele>79.199996948242</ele>
        <time>2013-06-09T11:17:16.000Z</time>
      </trkpt>
      <trkpt lat="48.30395" lon="2.64923">
        <ele>79.199996948242</ele>
        <time>2013-06-09T11:17:21.000Z</time>
      </trkpt>
      <trkpt lat="48.30393" lon="2.64927">
        <ele>79.400001525879</ele>
        <time>2013-06-09T11:17:22.000Z</time>
      </trkpt>
      <trkpt lat="48.30381" lon="2.6495">
        <ele>79.599998474121</ele>
        <time>2013-06-09T11:17:27.000Z</time>
      </trkpt>
      <trkpt lat="48.30369" lon="2.64973">
        <ele>80</ele>
        <time>2013-06-09T11:17:32.000Z</time>
      </trkpt>
      <trkpt lat="48.30356" lon="2.64996">
        <ele>80.400001525879</ele>
        <time>2013-06-09T11:17:37.000Z</time>
      </trkpt>
      <trkpt lat="48.3035" lon="2.65006">
        <ele>80.400001525879</ele>
        <time>2013-06-09T11:17:39.000Z</time>
      </trkpt>
      <trkpt lat="48.30341" lon="2.65018">
        <ele>80.199996948242</ele>
        <time>2013-06-09T11:17:42.000Z</time>
      </trkpt>
      <trkpt lat="48.30336" lon="2.65028">
        <ele>80.199996948242</ele>
        <time>2013-06-09T11:17:44.000Z</time>
      </trkpt>
      <trkpt lat="48.30323" lon="2.65046">
        <ele>80.199996948242</ele>
        <time>2013-06-09T11:17:48.000Z</time>
      </trkpt>
      <trkpt lat="48.3031" lon="2.65072">
        <ele>80</ele>
        <time>2013-06-09T11:17:53.000Z</time>
      </trkpt>
      <trkpt lat="48.30305" lon="2.65084">
        <ele>79.800003051758</ele>
        <time>2013-06-09T11:17:57.000Z</time>
      </trkpt>
      <trkpt lat="48.30302" lon="2.65084">
        <ele>79.800003051758</ele>
        <time>2013-06-09T11:18:08.000Z</time>
      </trkpt>
      <trkpt lat="48.30298" lon="2.65085">
        <ele>79.599998474121</ele>
        <time>2013-06-09T11:18:22.000Z</time>
      </trkpt>
      <trkpt lat="48.30292" lon="2.6509">
        <ele>79.400001525879</ele>
        <time>2013-06-09T11:18:33.000Z</time>
      </trkpt>
      <trkpt lat="48.30282" lon="2.65108">
        <ele>79.400001525879</ele>
        <time>2013-06-09T11:18:37.000Z</time>
      </trkpt>
      <trkpt lat="48.30263" lon="2.6514">
        <ele>79.599998474121</ele>
        <time>2013-06-09T11:18:43.000Z</time>
      </trkpt>
      <trkpt lat="48.30251" lon="2.65164">
        <ele>79.800003051758</ele>
        <time>2013-06-09T11:18:47.000Z</time>
      </trkpt>
      <trkpt lat="48.30233" lon="2.65192">
        <ele>80.199996948242</ele>
        <time>2013-06-09T11:18:53.000Z</time>
      </trkpt>
      <trkpt lat="48.30229" lon="2.652">
        <ele>80.199996948242</ele>
        <time>2013-06-09T11:18:57.000Z</time>
      </trkpt>
      <trkpt lat="48.30222" lon="2.65218">
        <ele>80.400001525879</ele>
        <time>2013-06-09T11:19:02.000Z</time>
      </trkpt>
      <trkpt lat="48.30216" lon="2.65228">
        <ele>80.400001525879</ele>
        <time>2013-06-09T11:19:04.000Z</time>
      </trkpt>
      <trkpt lat="48.30201" lon="2.6525">
        <ele>80.400001525879</ele>
        <time>2013-06-09T11:19:09.000Z</time>
      </trkpt>
      <trkpt lat="48.30184" lon="2.65265">
        <ele>80.400001525879</ele>
        <time>2013-06-09T11:19:15.000Z</time>
      </trkpt>
      <trkpt lat="48.30169" lon="2.65277">
        <ele>80.199996948242</ele>
        <time>2013-06-09T11:19:19.000Z</time>
      </trkpt>
      <trkpt lat="48.30159" lon="2.65295">
        <ele>79.800003051758</ele>
        <time>2013-06-09T11:19:23.000Z</time>
      </trkpt>
      <trkpt lat="48.30149" lon="2.65314">
        <ele>79.599998474121</ele>
        <time>2013-06-09T11:19:28.000Z</time>
      </trkpt>
      <trkpt lat="48.30141" lon="2.65325">
        <ele>79.400001525879</ele>
        <time>2013-06-09T11:19:31.000Z</time>
      </trkpt>
      <trkpt lat="48.30121" lon="2.65342">
        <ele>79.599998474121</ele>
        <time>2013-06-09T11:19:36.000Z</time>
      </trkpt>
      <trkpt lat="48.30101" lon="2.65361">
        <ele>80</ele>
        <time>2013-06-09T11:19:40.000Z</time>
      </trkpt>
      <trkpt lat="48.30091" lon="2.65373">
        <ele>80.400001525879</ele>
        <time>2013-06-09T11:19:42.000Z</time>
      </trkpt>
      <trkpt lat="48.30076" lon="2.65389">
        <ele>80.400001525879</ele>
        <time>2013-06-09T11:19:45.000Z</time>
      </trkpt>
      <trkpt lat="48.30061" lon="2.654">
        <ele>80.199996948242</ele>
        <time>2013-06-09T11:19:48.000Z</time>
      </trkpt>
      <trkpt lat="48.30035" lon="2.65424">
        <ele>80</ele>
        <time>2013-06-09T11:19:54.000Z</time>
      </trkpt>
      <trkpt lat="48.30021" lon="2.65432">
        <ele>79.800003051758</ele>
        <time>2013-06-09T11:19:58.000Z</time>
      </trkpt>
      <trkpt lat="48.30018" lon="2.65435">
        <ele>79.800003051758</ele>
        <time>2013-06-09T11:19:59.000Z</time>
      </trkpt>
      <trkpt lat="48.29993" lon="2.65457">
        <ele>79.800003051758</ele>
        <time>2013-06-09T11:20:05.000Z</time>
      </trkpt>
      <trkpt lat="48.29989" lon="2.65463">
        <ele>79.800003051758</ele>
        <time>2013-06-09T11:20:06.000Z</time>
      </trkpt>
      <trkpt lat="48.29977" lon="2.65478">
        <ele>79.800003051758</ele>
        <time>2013-06-09T11:20:11.000Z</time>
      </trkpt>
      <trkpt lat="48.29973" lon="2.6548">
        <ele>79.800003051758</ele>
        <time>2013-06-09T11:20:18.000Z</time>
      </trkpt>
      <trkpt lat="48.29969" lon="2.65486">
        <ele>79.800003051758</ele>
        <time>2013-06-09T11:20:24.000Z</time>
      </trkpt>
      <trkpt lat="48.29967" lon="2.65488">
        <ele>79.800003051758</ele>
        <time>2013-06-09T11:20:32.000Z</time>
      </trkpt>
      <trkpt lat="48.29966" lon="2.6549">
        <ele>79.800003051758</ele>
        <time>2013-06-09T11:20:34.000Z</time>
      </trkpt>
      <trkpt lat="48.29955" lon="2.65494">
        <ele>79.599998474121</ele>
        <time>2013-06-09T11:20:39.000Z</time>
      </trkpt>
      <trkpt lat="48.29952" lon="2.65498">
        <ele>79.800003051758</ele>
        <time>2013-06-09T11:20:44.000Z</time>
      </trkpt>
      <trkpt lat="48.29955" lon="2.65502">
        <ele>79.800003051758</ele>
        <time>2013-06-09T11:20:55.000Z</time>
      </trkpt>
      <trkpt lat="48.29952" lon="2.65505">
        <ele>79.800003051758</ele>
        <time>2013-06-09T11:20:59.000Z</time>
      </trkpt>
      <trkpt lat="48.29945" lon="2.65505">
        <ele>79.599998474121</ele>
        <time>2013-06-09T11:21:05.000Z</time>
      </trkpt>
      <trkpt lat="48.29936" lon="2.65515">
        <ele>79.400001525879</ele>
        <time>2013-06-09T11:21:09.000Z</time>
      </trkpt>
      <trkpt lat="48.29927" lon="2.65534">
        <ele>79.199996948242</ele>
        <time>2013-06-09T11:21:14.000Z</time>
      </trkpt>
      <trkpt lat="48.29917" lon="2.65545">
        <ele>79</ele>
        <time>2013-06-09T11:21:18.000Z</time>
      </trkpt>
      <trkpt lat="48.29916" lon="2.65563">
        <ele>78.800003051758</ele>
        <time>2013-06-09T11:21:22.000Z</time>
      </trkpt>
      <trkpt lat="48.29919" lon="2.65575">
        <ele>79</ele>
        <time>2013-06-09T11:21:27.000Z</time>
      </trkpt>
      <trkpt lat="48.29927" lon="2.65597">
        <ele>79</ele>
        <time>2013-06-09T11:21:32.000Z</time>
      </trkpt>
      <trkpt lat="48.29936" lon="2.65623">
        <ele>79</ele>
        <time>2013-06-09T11:21:37.000Z</time>
      </trkpt>
      <trkpt lat="48.29943" lon="2.6564">
        <ele>78.800003051758</ele>
        <time>2013-06-09T11:21:40.000Z</time>
      </trkpt>
      <trkpt lat="48.29942" lon="2.65659">
        <ele>78.599998474121</ele>
        <time>2013-06-09T11:21:45.000Z</time>
      </trkpt>
      <trkpt lat="48.29939" lon="2.65671">
        <ele>78.599998474121</ele>
        <time>2013-06-09T11:21:49.000Z</time>
      </trkpt>
      <trkpt lat="48.29932" lon="2.65681">
        <ele>78.800003051758</ele>
        <time>2013-06-09T11:21:52.000Z</time>
      </trkpt>
      <trkpt lat="48.29915" lon="2.65703">
        <ele>79</ele>
        <time>2013-06-09T11:21:58.000Z</time>
      </trkpt>
      <trkpt lat="48.29897" lon="2.65725">
        <ele>79.599998474121</ele>
        <time>2013-06-09T11:22:04.000Z</time>
      </trkpt>
      <trkpt lat="48.29879" lon="2.6575">
        <ele>80.199996948242</ele>
        <time>2013-06-09T11:22:10.000Z</time>
      </trkpt>
      <trkpt lat="48.29856" lon="2.65781">
        <ele>81.599998474121</ele>
        <time>2013-06-09T11:22:19.000Z</time>
      </trkpt>
      <trkpt lat="48.29842" lon="2.65799">
        <ele>82.599998474121</ele>
        <time>2013-06-09T11:22:25.000Z</time>
      </trkpt>
      <trkpt lat="48.29831" lon="2.65814">
        <ele>83.400001525879</ele>
        <time>2013-06-09T11:22:30.000Z</time>
      </trkpt>
      <trkpt lat="48.2982" lon="2.65832">
        <ele>84.199996948242</ele>
        <time>2013-06-09T11:22:35.000Z</time>
      </trkpt>
      <trkpt lat="48.29806" lon="2.65849">
        <ele>84.400001525879</ele>
        <time>2013-06-09T11:22:41.000Z</time>
      </trkpt>
      <trkpt lat="48.29796" lon="2.65863">
        <ele>84.800003051758</ele>
        <time>2013-06-09T11:22:45.000Z</time>
      </trkpt>
      <trkpt lat="48.29775" lon="2.65891">
        <ele>85.599998474121</ele>
        <time>2013-06-09T11:22:52.000Z</time>
      </trkpt>
      <trkpt lat="48.29774" lon="2.65894">
        <ele>85.599998474121</ele>
        <time>2013-06-09T11:22:53.000Z</time>
      </trkpt>
      <trkpt lat="48.2976" lon="2.65909">
        <ele>86.400001525879</ele>
        <time>2013-06-09T11:22:59.000Z</time>
      </trkpt>
      <trkpt lat="48.29743" lon="2.6593">
        <ele>87</ele>
        <time>2013-06-09T11:23:06.000Z</time>
      </trkpt>
      <trkpt lat="48.29733" lon="2.65945">
        <ele>87</ele>
        <time>2013-06-09T11:23:11.000Z</time>
      </trkpt>
      <trkpt lat="48.29725" lon="2.65952">
        <ele>87</ele>
        <time>2013-06-09T11:23:17.000Z</time>
      </trkpt>
      <trkpt lat="48.29718" lon="2.65961">
        <ele>87</ele>
        <time>2013-06-09T11:23:23.000Z</time>
      </trkpt>
      <trkpt lat="48.29708" lon="2.65974">
        <ele>87</ele>
        <time>2013-06-09T11:23:29.000Z</time>
      </trkpt>
      <trkpt lat="48.29697" lon="2.6599">
        <ele>87.199996948242</ele>
        <time>2013-06-09T11:23:35.000Z</time>
      </trkpt>
      <trkpt lat="48.2969" lon="2.65999">
        <ele>87.199996948242</ele>
        <time>2013-06-09T11:23:40.000Z</time>
      </trkpt>
      <trkpt lat="48.29677" lon="2.66018">
        <ele>86.800003051758</ele>
        <time>2013-06-09T11:23:48.000Z</time>
      </trkpt>
      <trkpt lat="48.29663" lon="2.66037">
        <ele>86.400001525879</ele>
        <time>2013-06-09T11:23:55.000Z</time>
      </trkpt>
      <trkpt lat="48.29654" lon="2.6605">
        <ele>86</ele>
        <time>2013-06-09T11:23:59.000Z</time>
      </trkpt>
      <trkpt lat="48.2964" lon="2.66069">
        <ele>85.599998474121</ele>
        <time>2013-06-09T11:24:04.000Z</time>
      </trkpt>
      <trkpt lat="48.29625" lon="2.66089">
        <ele>85.400001525879</ele>
        <time>2013-06-09T11:24:09.000Z</time>
      </trkpt>
      <trkpt lat="48.29613" lon="2.66104">
        <ele>85.599998474121</ele>
        <time>2013-06-09T11:24:13.000Z</time>
      </trkpt>
      <trkpt lat="48.29586" lon="2.66137">
        <ele>86.199996948242</ele>
        <time>2013-06-09T11:24:20.000Z</time>
      </trkpt>
      <trkpt lat="48.29576" lon="2.66153">
        <ele>86.400001525879</ele>
        <time>2013-06-09T11:24:23.000Z</time>
      </trkpt>
      <trkpt lat="48.29553" lon="2.66184">
        <ele>85.599998474121</ele>
        <time>2013-06-09T11:24:29.000Z</time>
      </trkpt>
      <trkpt lat="48.29538" lon="2.66204">
        <ele>85</ele>
        <time>2013-06-09T11:24:33.000Z</time>
      </trkpt>
      <trkpt lat="48.29515" lon="2.66228">
        <ele>84.800003051758</ele>
        <time>2013-06-09T11:24:39.000Z</time>
      </trkpt>
      <trkpt lat="48.29509" lon="2.66237">
        <ele>84.800003051758</ele>
        <time>2013-06-09T11:24:41.000Z</time>
      </trkpt>
      <trkpt lat="48.29485" lon="2.66268">
        <ele>85</ele>
        <time>2013-06-09T11:24:48.000Z</time>
      </trkpt>
      <trkpt lat="48.29478" lon="2.66277">
        <ele>85</ele>
        <time>2013-06-09T11:24:50.000Z</time>
      </trkpt>
      <trkpt lat="48.29457" lon="2.66305">
        <ele>86</ele>
        <time>2013-06-09T11:24:56.000Z</time>
      </trkpt>
      <trkpt lat="48.29452" lon="2.66312">
        <ele>86.400001525879</ele>
        <time>2013-06-09T11:24:58.000Z</time>
      </trkpt>
      <trkpt lat="48.29434" lon="2.66339">
        <ele>88.199996948242</ele>
        <time>2013-06-09T11:25:05.000Z</time>
      </trkpt>
      <trkpt lat="48.29424" lon="2.66353">
        <ele>88.800003051758</ele>
        <time>2013-06-09T11:25:09.000Z</time>
      </trkpt>
      <trkpt lat="48.29409" lon="2.66373">
        <ele>89.400001525879</ele>
        <time>2013-06-09T11:25:14.000Z</time>
      </trkpt>
      <trkpt lat="48.29394" lon="2.66395">
        <ele>89.800003051758</ele>
        <time>2013-06-09T11:25:19.000Z</time>
      </trkpt>
      <trkpt lat="48.29387" lon="2.66405">
        <ele>90</ele>
        <time>2013-06-09T11:25:21.000Z</time>
      </trkpt>
      <trkpt lat="48.29368" lon="2.6643">
        <ele>90.599998474121</ele>
        <time>2013-06-09T11:25:27.000Z</time>
      </trkpt>
      <trkpt lat="48.29362" lon="2.66437">
        <ele>90.800003051758</ele>
        <time>2013-06-09T11:25:29.000Z</time>
      </trkpt>
      <trkpt lat="48.29351" lon="2.66452">
        <ele>91.199996948242</ele>
        <time>2013-06-09T11:25:34.000Z</time>
      </trkpt>
      <trkpt lat="48.29337" lon="2.66472">
        <ele>92.199996948242</ele>
        <time>2013-06-09T11:25:41.000Z</time>
      </trkpt>
      <trkpt lat="48.29329" lon="2.66483">
        <ele>92.400001525879</ele>
        <time>2013-06-09T11:25:46.000Z</time>
      </trkpt>
      <trkpt lat="48.29318" lon="2.66499">
        <ele>92.599998474121</ele>
        <time>2013-06-09T11:25:51.000Z</time>
      </trkpt>
      <trkpt lat="48.293" lon="2.6652">
        <ele>92.199996948242</ele>
        <time>2013-06-09T11:25:57.000Z</time>
      </trkpt>
      <trkpt lat="48.29284" lon="2.66541">
        <ele>92</ele>
        <time>2013-06-09T11:26:02.000Z</time>
      </trkpt>
      <trkpt lat="48.2927" lon="2.66559">
        <ele>92</ele>
        <time>2013-06-09T11:26:07.000Z</time>
      </trkpt>
      <trkpt lat="48.29258" lon="2.66575">
        <ele>92</ele>
        <time>2013-06-09T11:26:12.000Z</time>
      </trkpt>
      <trkpt lat="48.29237" lon="2.66604">
        <ele>91.599998474121</ele>
        <time>2013-06-09T11:26:19.000Z</time>
      </trkpt>
      <trkpt lat="48.29223" lon="2.66624">
        <ele>91.400001525879</ele>
        <time>2013-06-09T11:26:24.000Z</time>
      </trkpt>
      <trkpt lat="48.29208" lon="2.66647">
        <ele>91.199996948242</ele>
        <time>2013-06-09T11:26:29.000Z</time>
      </trkpt>
      <trkpt lat="48.29198" lon="2.66659">
        <ele>91.199996948242</ele>
        <time>2013-06-09T11:26:32.000Z</time>
      </trkpt>
      <trkpt lat="48.29189" lon="2.6667">
        <ele>91.199996948242</ele>
        <time>2013-06-09T11:26:35.000Z</time>
      </trkpt>
      <trkpt lat="48.29179" lon="2.66682">
        <ele>91</ele>
        <time>2013-06-09T11:26:38.000Z</time>
      </trkpt>
      <trkpt lat="48.29166" lon="2.66702">
        <ele>90.800003051758</ele>
        <time>2013-06-09T11:26:45.000Z</time>
      </trkpt>
      <trkpt lat="48.29153" lon="2.66719">
        <ele>90.800003051758</ele>
        <time>2013-06-09T11:26:50.000Z</time>
      </trkpt>
      <trkpt lat="48.29141" lon="2.66735">
        <ele>91</ele>
        <time>2013-06-09T11:26:54.000Z</time>
      </trkpt>
      <trkpt lat="48.29124" lon="2.66757">
        <ele>91.599998474121</ele>
        <time>2013-06-09T11:27:00.000Z</time>
      </trkpt>
      <trkpt lat="48.29108" lon="2.66778">
        <ele>92.199996948242</ele>
        <time>2013-06-09T11:27:06.000Z</time>
      </trkpt>
      <trkpt lat="48.29087" lon="2.66805">
        <ele>93.199996948242</ele>
        <time>2013-06-09T11:27:12.000Z</time>
      </trkpt>
      <trkpt lat="48.29076" lon="2.66818">
        <ele>93.199996948242</ele>
        <time>2013-06-09T11:27:15.000Z</time>
      </trkpt>
      <trkpt lat="48.29065" lon="2.66835">
        <ele>93</ele>
        <time>2013-06-09T11:27:19.000Z</time>
      </trkpt>
      <trkpt lat="48.29048" lon="2.66858">
        <ele>92.199996948242</ele>
        <time>2013-06-09T11:27:26.000Z</time>
      </trkpt>
      <trkpt lat="48.29037" lon="2.66873">
        <ele>91.800003051758</ele>
        <time>2013-06-09T11:27:32.000Z</time>
      </trkpt>
      <trkpt lat="48.29025" lon="2.66888">
        <ele>91.599998474121</ele>
        <time>2013-06-09T11:27:38.000Z</time>
      </trkpt>
      <trkpt lat="48.29015" lon="2.669">
        <ele>91.599998474121</ele>
        <time>2013-06-09T11:27:43.000Z</time>
      </trkpt>
      <trkpt lat="48.28999" lon="2.66921">
        <ele>92</ele>
        <time>2013-06-09T11:27:51.000Z</time>
      </trkpt>
      <trkpt lat="48.28993" lon="2.66938">
        <ele>92</ele>
        <time>2013-06-09T11:27:56.000Z</time>
      </trkpt>
      <trkpt lat="48.28993" lon="2.66947">
        <ele>92</ele>
        <time>2013-06-09T11:27:58.000Z</time>
      </trkpt>
      <trkpt lat="48.28997" lon="2.66981">
        <ele>92</ele>
        <time>2013-06-09T11:28:06.000Z</time>
      </trkpt>
      <trkpt lat="48.29" lon="2.6701">
        <ele>91.400001525879</ele>
        <time>2013-06-09T11:28:12.000Z</time>
      </trkpt>
      <trkpt lat="48.29007" lon="2.67031">
        <ele>90.400001525879</ele>
        <time>2013-06-09T11:28:17.000Z</time>
      </trkpt>
      <trkpt lat="48.2901" lon="2.67059">
        <ele>89.199996948242</ele>
        <time>2013-06-09T11:28:22.000Z</time>
      </trkpt>
      <trkpt lat="48.29016" lon="2.67093">
        <ele>88</ele>
        <time>2013-06-09T11:28:28.000Z</time>
      </trkpt>
      <trkpt lat="48.29022" lon="2.6712">
        <ele>87.800003051758</ele>
        <time>2013-06-09T11:28:33.000Z</time>
      </trkpt>
      <trkpt lat="48.2903" lon="2.67145">
        <ele>87.800003051758</ele>
        <time>2013-06-09T11:28:38.000Z</time>
      </trkpt>
      <trkpt lat="48.2903" lon="2.67172">
        <ele>87.599998474121</ele>
        <time>2013-06-09T11:28:43.000Z</time>
      </trkpt>
      <trkpt lat="48.29029" lon="2.6718">
        <ele>87.400001525879</ele>
        <time>2013-06-09T11:28:45.000Z</time>
      </trkpt>
      <trkpt lat="48.29018" lon="2.67183">
        <ele>87.199996948242</ele>
        <time>2013-06-09T11:28:50.000Z</time>
      </trkpt>
      <trkpt lat="48.29001" lon="2.67181">
        <ele>87</ele>
        <time>2013-06-09T11:28:56.000Z</time>
      </trkpt>
      <trkpt lat="48.28983" lon="2.67184">
        <ele>87.599998474121</ele>
        <time>2013-06-09T11:29:01.000Z</time>
      </trkpt>
      <trkpt lat="48.28959" lon="2.67185">
        <ele>88.400001525879</ele>
        <time>2013-06-09T11:29:06.000Z</time>
      </trkpt>
      <trkpt lat="48.28926" lon="2.6719">
        <ele>89.800003051758</ele>
        <time>2013-06-09T11:29:13.000Z</time>
      </trkpt>
      <trkpt lat="48.28921" lon="2.6719">
        <ele>90</ele>
        <time>2013-06-09T11:29:14.000Z</time>
      </trkpt>
      <trkpt lat="48.28902" lon="2.67191">
        <ele>90.800003051758</ele>
        <time>2013-06-09T11:29:18.000Z</time>
      </trkpt>
      <trkpt lat="48.28886" lon="2.67196">
        <ele>91.400001525879</ele>
        <time>2013-06-09T11:29:22.000Z</time>
      </trkpt>
      <trkpt lat="48.28868" lon="2.672">
        <ele>92.199996948242</ele>
        <time>2013-06-09T11:29:26.000Z</time>
      </trkpt>
      <trkpt lat="48.28845" lon="2.67205">
        <ele>93</ele>
        <time>2013-06-09T11:29:31.000Z</time>
      </trkpt>
      <trkpt lat="48.28829" lon="2.67211">
        <ele>93.400001525879</ele>
        <time>2013-06-09T11:29:35.000Z</time>
      </trkpt>
      <trkpt lat="48.28814" lon="2.67213">
        <ele>93.400001525879</ele>
        <time>2013-06-09T11:29:38.000Z</time>
      </trkpt>
      <trkpt lat="48.28796" lon="2.67214">
        <ele>93.400001525879</ele>
        <time>2013-06-09T11:29:42.000Z</time>
      </trkpt>
      <trkpt lat="48.28779" lon="2.67217">
        <ele>93.199996948242</ele>
        <time>2013-06-09T11:29:46.000Z</time>
      </trkpt>
      <trkpt lat="48.28765" lon="2.67219">
        <ele>93.199996948242</ele>
        <time>2013-06-09T11:29:50.000Z</time>
      </trkpt>
      <trkpt lat="48.28749" lon="2.67219">
        <ele>93.199996948242</ele>
        <time>2013-06-09T11:29:54.000Z</time>
      </trkpt>
      <trkpt lat="48.28731" lon="2.67221">
        <ele>93.199996948242</ele>
        <time>2013-06-09T11:29:58.000Z</time>
      </trkpt>
      <trkpt lat="48.28723" lon="2.67221">
        <ele>93.199996948242</ele>
        <time>2013-06-09T11:30:00.000Z</time>
      </trkpt>
      <trkpt lat="48.28705" lon="2.67221">
        <ele>93</ele>
        <time>2013-06-09T11:30:04.000Z</time>
      </trkpt>
      <trkpt lat="48.28688" lon="2.67222">
        <ele>93</ele>
        <time>2013-06-09T11:30:08.000Z</time>
      </trkpt>
      <trkpt lat="48.28668" lon="2.67226">
        <ele>93</ele>
        <time>2013-06-09T11:30:13.000Z</time>
      </trkpt>
      <trkpt lat="48.28651" lon="2.67231">
        <ele>92.800003051758</ele>
        <time>2013-06-09T11:30:18.000Z</time>
      </trkpt>
      <trkpt lat="48.28634" lon="2.67234">
        <ele>92.400001525879</ele>
        <time>2013-06-09T11:30:22.000Z</time>
      </trkpt>
      <trkpt lat="48.28616" lon="2.6724">
        <ele>92</ele>
        <time>2013-06-09T11:30:27.000Z</time>
      </trkpt>
      <trkpt lat="48.286" lon="2.67248">
        <ele>91.400001525879</ele>
        <time>2013-06-09T11:30:31.000Z</time>
      </trkpt>
      <trkpt lat="48.28592" lon="2.67254">
        <ele>91.199996948242</ele>
        <time>2013-06-09T11:30:33.000Z</time>
      </trkpt>
      <trkpt lat="48.28571" lon="2.67263">
        <ele>89.800003051758</ele>
        <time>2013-06-09T11:30:38.000Z</time>
      </trkpt>
      <trkpt lat="48.28552" lon="2.67266">
        <ele>88</ele>
        <time>2013-06-09T11:30:42.000Z</time>
      </trkpt>
      <trkpt lat="48.28541" lon="2.6727">
        <ele>87</ele>
        <time>2013-06-09T11:30:45.000Z</time>
      </trkpt>
      <trkpt lat="48.28534" lon="2.67275">
        <ele>86.400001525879</ele>
        <time>2013-06-09T11:30:47.000Z</time>
      </trkpt>
      <trkpt lat="48.2851" lon="2.67292">
        <ele>84.400001525879</ele>
        <time>2013-06-09T11:30:55.000Z</time>
      </trkpt>
      <trkpt lat="48.28493" lon="2.67299">
        <ele>83.400001525879</ele>
        <time>2013-06-09T11:31:01.000Z</time>
      </trkpt>
      <trkpt lat="48.28474" lon="2.67313">
        <ele>82.800003051758</ele>
        <time>2013-06-09T11:31:07.000Z</time>
      </trkpt>
      <trkpt lat="48.28449" lon="2.67329">
        <ele>82</ele>
        <time>2013-06-09T11:31:14.000Z</time>
      </trkpt>
      <trkpt lat="48.28425" lon="2.67343">
        <ele>81.199996948242</ele>
        <time>2013-06-09T11:31:21.000Z</time>
      </trkpt>
      <trkpt lat="48.28407" lon="2.67351">
        <ele>80.800003051758</ele>
        <time>2013-06-09T11:31:27.000Z</time>
      </trkpt>
      <trkpt lat="48.28399" lon="2.67352">
        <ele>80.800003051758</ele>
        <time>2013-06-09T11:31:32.000Z</time>
      </trkpt>
      <trkpt lat="48.28399" lon="2.67352">
        <ele>80.800003051758</ele>
        <time>2013-06-09T11:31:37.000Z</time>
      </trkpt>
      <trkpt lat="48.28397" lon="2.67351">
        <ele>80.800003051758</ele>
        <time>2013-06-09T11:31:49.000Z</time>
      </trkpt>
      <trkpt lat="48.28397" lon="2.67351">
        <ele>80.800003051758</ele>
        <time>2013-06-09T11:31:55.000Z</time>
      </trkpt>
      <trkpt lat="48.28398" lon="2.6735">
        <ele>80.800003051758</ele>
        <time>2013-06-09T11:32:02.000Z</time>
      </trkpt>
      <trkpt lat="48.28399" lon="2.67352">
        <ele>80.800003051758</ele>
        <time>2013-06-09T11:32:21.000Z</time>
      </trkpt>
      <trkpt lat="48.28398" lon="2.67352">
        <ele>80.800003051758</ele>
        <time>2013-06-09T11:32:27.000Z</time>
      </trkpt>
      <trkpt lat="48.28398" lon="2.67351">
        <ele>80.800003051758</ele>
        <time>2013-06-09T11:32:32.000Z</time>
      </trkpt>
      <trkpt lat="48.28398" lon="2.67352">
        <ele>80.800003051758</ele>
        <time>2013-06-09T11:32:42.000Z</time>
      </trkpt>
      <trkpt lat="48.28398" lon="2.67351">
        <ele>80.800003051758</ele>
        <time>2013-06-09T11:32:58.000Z</time>
      </trkpt>
      <trkpt lat="48.28398" lon="2.67351">
        <ele>80.800003051758</ele>
        <time>2013-06-09T11:33:03.000Z</time>
      </trkpt>
      <trkpt lat="48.28397" lon="2.6735">
        <ele>80.800003051758</ele>
        <time>2013-06-09T11:33:09.000Z</time>
      </trkpt>
      <trkpt lat="48.28397" lon="2.67351">
        <ele>80.800003051758</ele>
        <time>2013-06-09T11:33:16.000Z</time>
      </trkpt>
      <trkpt lat="48.28397" lon="2.67351">
        <ele>80.800003051758</ele>
        <time>2013-06-09T11:33:27.000Z</time>
      </trkpt>
      <trkpt lat="48.28397" lon="2.67352">
        <ele>80.800003051758</ele>
        <time>2013-06-09T11:33:37.000Z</time>
      </trkpt>
      <trkpt lat="48.28398" lon="2.67352">
        <ele>80.800003051758</ele>
        <time>2013-06-09T11:33:48.000Z</time>
      </trkpt>
      <trkpt lat="48.28397" lon="2.67352">
        <ele>80.800003051758</ele>
        <time>2013-06-09T11:33:56.000Z</time>
      </trkpt>
      <trkpt lat="48.28397" lon="2.67352">
        <ele>80.800003051758</ele>
        <time>2013-06-09T11:34:06.000Z</time>
      </trkpt>
      <trkpt lat="48.28397" lon="2.67352">
        <ele>80.800003051758</ele>
        <time>2013-06-09T11:34:14.000Z</time>
      </trkpt>
      <trkpt lat="48.28398" lon="2.67352">
        <ele>80.800003051758</ele>
        <time>2013-06-09T11:34:21.000Z</time>
      </trkpt>
      <trkpt lat="48.28397" lon="2.67355">
        <ele>80.800003051758</ele>
        <time>2013-06-09T11:34:27.000Z</time>
      </trkpt>
      <trkpt lat="48.28394" lon="2.67361">
        <ele>80.800003051758</ele>
        <time>2013-06-09T11:34:32.000Z</time>
      </trkpt>
      <trkpt lat="48.2839" lon="2.67363">
        <ele>80.599998474121</ele>
        <time>2013-06-09T11:34:37.000Z</time>
      </trkpt>
      <trkpt lat="48.28381" lon="2.67371">
        <ele>80.599998474121</ele>
        <time>2013-06-09T11:34:44.000Z</time>
      </trkpt>
      <trkpt lat="48.28374" lon="2.67375">
        <ele>80.400001525879</ele>
        <time>2013-06-09T11:34:50.000Z</time>
      </trkpt>
      <trkpt lat="48.28369" lon="2.67378">
        <ele>80.199996948242</ele>
        <time>2013-06-09T11:34:58.000Z</time>
      </trkpt>
      <trkpt lat="48.28366" lon="2.67378">
        <ele>80.199996948242</ele>
        <time>2013-06-09T11:35:04.000Z</time>
      </trkpt>
      <trkpt lat="48.28367" lon="2.67377">
        <ele>80.199996948242</ele>
        <time>2013-06-09T11:35:16.000Z</time>
      </trkpt>
      <trkpt lat="48.28369" lon="2.67378">
        <ele>80.199996948242</ele>
        <time>2013-06-09T11:35:21.000Z</time>
      </trkpt>
      <trkpt lat="48.28369" lon="2.6738">
        <ele>80.199996948242</ele>
        <time>2013-06-09T11:35:27.000Z</time>
      </trkpt>
      <trkpt lat="48.28369" lon="2.67381">
        <ele>80.199996948242</ele>
        <time>2013-06-09T11:35:40.000Z</time>
      </trkpt>
      <trkpt lat="48.2837" lon="2.67381">
        <ele>80.199996948242</ele>
        <time>2013-06-09T11:36:00.000Z</time>
      </trkpt>
      <trkpt lat="48.28371" lon="2.67381">
        <ele>80.199996948242</ele>
        <time>2013-06-09T11:36:20.000Z</time>
      </trkpt>
      <trkpt lat="48.2837" lon="2.6738">
        <ele>80.199996948242</ele>
        <time>2013-06-09T11:36:29.000Z</time>
      </trkpt>
      <trkpt lat="48.28371" lon="2.6738">
        <ele>80.199996948242</ele>
        <time>2013-06-09T11:36:34.000Z</time>
      </trkpt>
      <trkpt lat="48.28372" lon="2.67379">
        <ele>80.400001525879</ele>
        <time>2013-06-09T11:36:42.000Z</time>
      </trkpt>
      <trkpt lat="48.28372" lon="2.67379">
        <ele>80.400001525879</ele>
        <time>2013-06-09T11:36:48.000Z</time>
      </trkpt>
      <trkpt lat="48.28371" lon="2.67378">
        <ele>80.400001525879</ele>
        <time>2013-06-09T11:37:00.000Z</time>
      </trkpt>
      <trkpt lat="48.28368" lon="2.67378">
        <ele>80.199996948242</ele>
        <time>2013-06-09T11:37:07.000Z</time>
      </trkpt>
      <trkpt lat="48.28367" lon="2.67377">
        <ele>80.199996948242</ele>
        <time>2013-06-09T11:37:14.000Z</time>
      </trkpt>
      <trkpt lat="48.28369" lon="2.67377">
        <ele>80.400001525879</ele>
        <time>2013-06-09T11:37:24.000Z</time>
      </trkpt>
      <trkpt lat="48.28369" lon="2.67377">
        <ele>80.400001525879</ele>
        <time>2013-06-09T11:37:33.000Z</time>
      </trkpt>
      <trkpt lat="48.28368" lon="2.67377">
        <ele>80.199996948242</ele>
        <time>2013-06-09T11:37:41.000Z</time>
      </trkpt>
      <trkpt lat="48.28368" lon="2.67376">
        <ele>80.400001525879</ele>
        <time>2013-06-09T11:37:48.000Z</time>
      </trkpt>
      <trkpt lat="48.28372" lon="2.67377">
        <ele>80.400001525879</ele>
        <time>2013-06-09T11:37:55.000Z</time>
      </trkpt>
      <trkpt lat="48.28373" lon="2.67377">
        <ele>80.400001525879</ele>
        <time>2013-06-09T11:38:00.000Z</time>
      </trkpt>
      <trkpt lat="48.28374" lon="2.67377">
        <ele>80.400001525879</ele>
        <time>2013-06-09T11:38:11.000Z</time>
      </trkpt>
      <trkpt lat="48.28374" lon="2.67377">
        <ele>80.400001525879</ele>
        <time>2013-06-09T11:38:17.000Z</time>
      </trkpt>
      <trkpt lat="48.28374" lon="2.67377">
        <ele>80.400001525879</ele>
        <time>2013-06-09T11:38:35.000Z</time>
      </trkpt>
      <trkpt lat="48.28373" lon="2.67377">
        <ele>80.400001525879</ele>
        <time>2013-06-09T11:38:42.000Z</time>
      </trkpt>
      <trkpt lat="48.28372" lon="2.67376">
        <ele>80.400001525879</ele>
        <time>2013-06-09T11:38:55.000Z</time>
      </trkpt>
      <trkpt lat="48.28373" lon="2.67376">
        <ele>80.400001525879</ele>
        <time>2013-06-09T11:39:02.000Z</time>
      </trkpt>
      <trkpt lat="48.28374" lon="2.67379">
        <ele>80.400001525879</ele>
        <time>2013-06-09T11:39:07.000Z</time>
      </trkpt>
      <trkpt lat="48.28373" lon="2.67378">
        <ele>80.400001525879</ele>
        <time>2013-06-09T11:39:13.000Z</time>
      </trkpt>
      <trkpt lat="48.28373" lon="2.67377">
        <ele>80.400001525879</ele>
        <time>2013-06-09T11:39:19.000Z</time>
      </trkpt>
      <trkpt lat="48.28374" lon="2.67375">
        <ele>80.400001525879</ele>
        <time>2013-06-09T11:39:23.000Z</time>
      </trkpt>
      <trkpt lat="48.28375" lon="2.67372">
        <ele>80.400001525879</ele>
        <time>2013-06-09T11:39:26.000Z</time>
      </trkpt>
      <trkpt lat="48.28386" lon="2.67364">
        <ele>80.599998474121</ele>
        <time>2013-06-09T11:39:35.000Z</time>
      </trkpt>
      <trkpt lat="48.28394" lon="2.6736">
        <ele>80.800003051758</ele>
        <time>2013-06-09T11:39:42.000Z</time>
      </trkpt>
      <trkpt lat="48.28395" lon="2.67359">
        <ele>80.800003051758</ele>
        <time>2013-06-09T11:39:43.000Z</time>
      </trkpt>
      <trkpt lat="48.28397" lon="2.67354">
        <ele>80.800003051758</ele>
        <time>2013-06-09T11:39:48.000Z</time>
      </trkpt>
      <trkpt lat="48.28396" lon="2.67358">
        <ele>80.800003051758</ele>
        <time>2013-06-09T11:39:52.000Z</time>
      </trkpt>
      <trkpt lat="48.28392" lon="2.67362">
        <ele>80.800003051758</ele>
        <time>2013-06-09T11:39:55.000Z</time>
      </trkpt>
      <trkpt lat="48.2838" lon="2.67367">
        <ele>80.599998474121</ele>
        <time>2013-06-09T11:40:06.000Z</time>
      </trkpt>
      <trkpt lat="48.28376" lon="2.67367">
        <ele>80.599998474121</ele>
        <time>2013-06-09T11:40:10.000Z</time>
      </trkpt>
      <trkpt lat="48.28375" lon="2.67367">
        <ele>80.599998474121</ele>
        <time>2013-06-09T11:40:24.000Z</time>
      </trkpt>
      <trkpt lat="48.28376" lon="2.67367">
        <ele>80.599998474121</ele>
        <time>2013-06-09T11:41:01.000Z</time>
      </trkpt>
      <trkpt lat="48.28375" lon="2.67368">
        <ele>80.400001525879</ele>
        <time>2013-06-09T11:41:20.000Z</time>
      </trkpt>
      <trkpt lat="48.28375" lon="2.67367">
        <ele>80.400001525879</ele>
        <time>2013-06-09T11:41:24.000Z</time>
      </trkpt>
      <trkpt lat="48.28375" lon="2.67367">
        <ele>80.400001525879</ele>
        <time>2013-06-09T11:41:31.000Z</time>
      </trkpt>
      <trkpt lat="48.28375" lon="2.67366">
        <ele>80.599998474121</ele>
        <time>2013-06-09T11:41:47.000Z</time>
      </trkpt>
      <trkpt lat="48.28375" lon="2.67366">
        <ele>80.599998474121</ele>
        <time>2013-06-09T11:42:01.000Z</time>
      </trkpt>
      <trkpt lat="48.28375" lon="2.67366">
        <ele>80.599998474121</ele>
        <time>2013-06-09T11:42:10.000Z</time>
      </trkpt>
      <trkpt lat="48.28375" lon="2.67367">
        <ele>80.400001525879</ele>
        <time>2013-06-09T11:42:17.000Z</time>
      </trkpt>
      <trkpt lat="48.28354" lon="2.67375">
        <ele>80.199996948242</ele>
        <time>2013-06-09T11:42:23.000Z</time>
      </trkpt>
      <trkpt lat="48.2834" lon="2.67381">
        <ele>79.800003051758</ele>
        <time>2013-06-09T11:42:27.000Z</time>
      </trkpt>
      <trkpt lat="48.28321" lon="2.67388">
        <ele>79.800003051758</ele>
        <time>2013-06-09T11:42:32.000Z</time>
      </trkpt>
      <trkpt lat="48.28303" lon="2.67391">
        <ele>79.800003051758</ele>
        <time>2013-06-09T11:42:37.000Z</time>
      </trkpt>
      <trkpt lat="48.28285" lon="2.67391">
        <ele>80.199996948242</ele>
        <time>2013-06-09T11:42:42.000Z</time>
      </trkpt>
      <trkpt lat="48.2827" lon="2.6739">
        <ele>80.400001525879</ele>
        <time>2013-06-09T11:42:46.000Z</time>
      </trkpt>
      <trkpt lat="48.28253" lon="2.6739">
        <ele>80.599998474121</ele>
        <time>2013-06-09T11:42:51.000Z</time>
      </trkpt>
      <trkpt lat="48.28239" lon="2.67388">
        <ele>80.599998474121</ele>
        <time>2013-06-09T11:42:55.000Z</time>
      </trkpt>
      <trkpt lat="48.28222" lon="2.67385">
        <ele>80.400001525879</ele>
        <time>2013-06-09T11:43:00.000Z</time>
      </trkpt>
      <trkpt lat="48.28205" lon="2.67382">
        <ele>80.199996948242</ele>
        <time>2013-06-09T11:43:05.000Z</time>
      </trkpt>
      <trkpt lat="48.28189" lon="2.67378">
        <ele>80.199996948242</ele>
        <time>2013-06-09T11:43:10.000Z</time>
      </trkpt>
      <trkpt lat="48.28177" lon="2.67364">
        <ele>80</ele>
        <time>2013-06-09T11:43:15.000Z</time>
      </trkpt>
      <trkpt lat="48.28173" lon="2.67339">
        <ele>80</ele>
        <time>2013-06-09T11:43:20.000Z</time>
      </trkpt>
      <trkpt lat="48.28169" lon="2.67308">
        <ele>80.599998474121</ele>
        <time>2013-06-09T11:43:26.000Z</time>
      </trkpt>
      <trkpt lat="48.28163" lon="2.6728">
        <ele>81.199996948242</ele>
        <time>2013-06-09T11:43:32.000Z</time>
      </trkpt>
      <trkpt lat="48.28157" lon="2.67254">
        <ele>81.800003051758</ele>
        <time>2013-06-09T11:43:38.000Z</time>
      </trkpt>
      <trkpt lat="48.28156" lon="2.67244">
        <ele>82</ele>
        <time>2013-06-09T11:43:42.000Z</time>
      </trkpt>
      <trkpt lat="48.28161" lon="2.67247">
        <ele>82</ele>
        <time>2013-06-09T11:44:10.000Z</time>
      </trkpt>
      <trkpt lat="48.28161" lon="2.67245">
        <ele>82</ele>
        <time>2013-06-09T11:44:14.000Z</time>
      </trkpt>
      <trkpt lat="48.28158" lon="2.67227">
        <ele>82.199996948242</ele>
        <time>2013-06-09T11:44:18.000Z</time>
      </trkpt>
      <trkpt lat="48.28158" lon="2.67221">
        <ele>82.199996948242</ele>
        <time>2013-06-09T11:44:19.000Z</time>
      </trkpt>
      <trkpt lat="48.28154" lon="2.67188">
        <ele>82.800003051758</ele>
        <time>2013-06-09T11:44:25.000Z</time>
      </trkpt>
      <trkpt lat="48.28151" lon="2.6716">
        <ele>83.199996948242</ele>
        <time>2013-06-09T11:44:30.000Z</time>
      </trkpt>
      <trkpt lat="48.28148" lon="2.67133">
        <ele>83.599998474121</ele>
        <time>2013-06-09T11:44:35.000Z</time>
      </trkpt>
      <trkpt lat="48.28143" lon="2.67105">
        <ele>84</ele>
        <time>2013-06-09T11:44:40.000Z</time>
      </trkpt>
      <trkpt lat="48.28139" lon="2.67079">
        <ele>84</ele>
        <time>2013-06-09T11:44:45.000Z</time>
      </trkpt>
      <trkpt lat="48.28137" lon="2.67054">
        <ele>83.199996948242</ele>
        <time>2013-06-09T11:44:50.000Z</time>
      </trkpt>
      <trkpt lat="48.28135" lon="2.67034">
        <ele>82.599998474121</ele>
        <time>2013-06-09T11:44:54.000Z</time>
      </trkpt>
      <trkpt lat="48.2813" lon="2.67007">
        <ele>81.599998474121</ele>
        <time>2013-06-09T11:44:59.000Z</time>
      </trkpt>
      <trkpt lat="48.28126" lon="2.66981">
        <ele>81.199996948242</ele>
        <time>2013-06-09T11:45:04.000Z</time>
      </trkpt>
      <trkpt lat="48.28121" lon="2.66947">
        <ele>80.800003051758</ele>
        <time>2013-06-09T11:45:10.000Z</time>
      </trkpt>
      <trkpt lat="48.28117" lon="2.6692">
        <ele>80.599998474121</ele>
        <time>2013-06-09T11:45:15.000Z</time>
      </trkpt>
      <trkpt lat="48.28113" lon="2.66893">
        <ele>81</ele>
        <time>2013-06-09T11:45:20.000Z</time>
      </trkpt>
      <trkpt lat="48.2811" lon="2.66874">
        <ele>81.400001525879</ele>
        <time>2013-06-09T11:45:24.000Z</time>
      </trkpt>
      <trkpt lat="48.28109" lon="2.66869">
        <ele>81.599998474121</ele>
        <time>2013-06-09T11:45:25.000Z</time>
      </trkpt>
      <trkpt lat="48.28103" lon="2.66844">
        <ele>82</ele>
        <time>2013-06-09T11:45:30.000Z</time>
      </trkpt>
      <trkpt lat="48.28101" lon="2.66824">
        <ele>82</ele>
        <time>2013-06-09T11:45:34.000Z</time>
      </trkpt>
      <trkpt lat="48.28095" lon="2.66796">
        <ele>81.199996948242</ele>
        <time>2013-06-09T11:45:40.000Z</time>
      </trkpt>
      <trkpt lat="48.28092" lon="2.66771">
        <ele>80.599998474121</ele>
        <time>2013-06-09T11:45:45.000Z</time>
      </trkpt>
      <trkpt lat="48.28089" lon="2.66748">
        <ele>80</ele>
        <time>2013-06-09T11:45:50.000Z</time>
      </trkpt>
      <trkpt lat="48.28084" lon="2.66722">
        <ele>80</ele>
        <time>2013-06-09T11:45:55.000Z</time>
      </trkpt>
      <trkpt lat="48.2808" lon="2.66704">
        <ele>80</ele>
        <time>2013-06-09T11:45:59.000Z</time>
      </trkpt>
      <trkpt lat="48.28074" lon="2.66678">
        <ele>80.199996948242</ele>
        <time>2013-06-09T11:46:04.000Z</time>
      </trkpt>
      <trkpt lat="48.28067" lon="2.66656">
        <ele>80.400001525879</ele>
        <time>2013-06-09T11:46:09.000Z</time>
      </trkpt>
      <trkpt lat="48.28057" lon="2.6663">
        <ele>80.800003051758</ele>
        <time>2013-06-09T11:46:15.000Z</time>
      </trkpt>
      <trkpt lat="48.28048" lon="2.66605">
        <ele>81.400001525879</ele>
        <time>2013-06-09T11:46:20.000Z</time>
      </trkpt>
      <trkpt lat="48.28039" lon="2.66584">
        <ele>82</ele>
        <time>2013-06-09T11:46:25.000Z</time>
      </trkpt>
      <trkpt lat="48.28029" lon="2.6656">
        <ele>83</ele>
        <time>2013-06-09T11:46:31.000Z</time>
      </trkpt>
      <trkpt lat="48.28027" lon="2.66556">
        <ele>83.199996948242</ele>
        <time>2013-06-09T11:46:32.000Z</time>
      </trkpt>
      <trkpt lat="48.28022" lon="2.6654">
        <ele>83.599998474121</ele>
        <time>2013-06-09T11:46:36.000Z</time>
      </trkpt>
      <trkpt lat="48.28013" lon="2.66522">
        <ele>84.199996948242</ele>
        <time>2013-06-09T11:46:41.000Z</time>
      </trkpt>
      <trkpt lat="48.28005" lon="2.66506">
        <ele>84.599998474121</ele>
        <time>2013-06-09T11:46:46.000Z</time>
      </trkpt>
      <trkpt lat="48.28" lon="2.66488">
        <ele>85</ele>
        <time>2013-06-09T11:46:50.000Z</time>
      </trkpt>
      <trkpt lat="48.27993" lon="2.66464">
        <ele>85.400001525879</ele>
        <time>2013-06-09T11:46:55.000Z</time>
      </trkpt>
      <trkpt lat="48.27991" lon="2.66456">
        <ele>85.400001525879</ele>
        <time>2013-06-09T11:46:57.000Z</time>
      </trkpt>
      <trkpt lat="48.27987" lon="2.66432">
        <ele>85.599998474121</ele>
        <time>2013-06-09T11:47:02.000Z</time>
      </trkpt>
      <trkpt lat="48.27979" lon="2.66412">
        <ele>85.599998474121</ele>
        <time>2013-06-09T11:47:07.000Z</time>
      </trkpt>
      <trkpt lat="48.27975" lon="2.66375">
        <ele>86</ele>
        <time>2013-06-09T11:47:15.000Z</time>
      </trkpt>
      <trkpt lat="48.2797" lon="2.66357">
        <ele>86</ele>
        <time>2013-06-09T11:47:19.000Z</time>
      </trkpt>
      <trkpt lat="48.27967" lon="2.6634">
        <ele>86</ele>
        <time>2013-06-09T11:47:23.000Z</time>
      </trkpt>
      <trkpt lat="48.2796" lon="2.66316">
        <ele>85.800003051758</ele>
        <time>2013-06-09T11:47:28.000Z</time>
      </trkpt>
      <trkpt lat="48.27954" lon="2.66294">
        <ele>85.599998474121</ele>
        <time>2013-06-09T11:47:33.000Z</time>
      </trkpt>
      <trkpt lat="48.27948" lon="2.66268">
        <ele>85.400001525879</ele>
        <time>2013-06-09T11:47:39.000Z</time>
      </trkpt>
      <trkpt lat="48.27944" lon="2.66243">
        <ele>85.199996948242</ele>
        <time>2013-06-09T11:47:44.000Z</time>
      </trkpt>
      <trkpt lat="48.27943" lon="2.66221">
        <ele>85.199996948242</ele>
        <time>2013-06-09T11:47:48.000Z</time>
      </trkpt>
      <trkpt lat="48.27937" lon="2.66198">
        <ele>85</ele>
        <time>2013-06-09T11:47:53.000Z</time>
      </trkpt>
      <trkpt lat="48.27933" lon="2.66176">
        <ele>84.800003051758</ele>
        <time>2013-06-09T11:47:58.000Z</time>
      </trkpt>
      <trkpt lat="48.2793" lon="2.6615">
        <ele>84.800003051758</ele>
        <time>2013-06-09T11:48:03.000Z</time>
      </trkpt>
      <trkpt lat="48.27927" lon="2.66121">
        <ele>84.800003051758</ele>
        <time>2013-06-09T11:48:09.000Z</time>
      </trkpt>
      <trkpt lat="48.27924" lon="2.661">
        <ele>85</ele>
        <time>2013-06-09T11:48:14.000Z</time>
      </trkpt>
      <trkpt lat="48.2792" lon="2.66083">
        <ele>85</ele>
        <time>2013-06-09T11:48:18.000Z</time>
      </trkpt>
      <trkpt lat="48.27918" lon="2.66064">
        <ele>84.800003051758</ele>
        <time>2013-06-09T11:48:22.000Z</time>
      </trkpt>
      <trkpt lat="48.27913" lon="2.66047">
        <ele>84.400001525879</ele>
        <time>2013-06-09T11:48:26.000Z</time>
      </trkpt>
      <trkpt lat="48.27907" lon="2.66028">
        <ele>84.199996948242</ele>
        <time>2013-06-09T11:48:31.000Z</time>
      </trkpt>
      <trkpt lat="48.27902" lon="2.65998">
        <ele>84</ele>
        <time>2013-06-09T11:48:37.000Z</time>
      </trkpt>
      <trkpt lat="48.279" lon="2.65971">
        <ele>84</ele>
        <time>2013-06-09T11:48:42.000Z</time>
      </trkpt>
      <trkpt lat="48.27902" lon="2.65946">
        <ele>84.199996948242</ele>
        <time>2013-06-09T11:48:47.000Z</time>
      </trkpt>
      <trkpt lat="48.27906" lon="2.65924">
        <ele>84.199996948242</ele>
        <time>2013-06-09T11:48:52.000Z</time>
      </trkpt>
      <trkpt lat="48.27911" lon="2.65906">
        <ele>84.199996948242</ele>
        <time>2013-06-09T11:48:56.000Z</time>
      </trkpt>
      <trkpt lat="48.27913" lon="2.65886">
        <ele>84.800003051758</ele>
        <time>2013-06-09T11:49:00.000Z</time>
      </trkpt>
      <trkpt lat="48.27921" lon="2.65866">
        <ele>85</ele>
        <time>2013-06-09T11:49:05.000Z</time>
      </trkpt>
      <trkpt lat="48.27936" lon="2.6585">
        <ele>85.400001525879</ele>
        <time>2013-06-09T11:49:11.000Z</time>
      </trkpt>
      <trkpt lat="48.27946" lon="2.65838">
        <ele>85.400001525879</ele>
        <time>2013-06-09T11:49:15.000Z</time>
      </trkpt>
      <trkpt lat="48.27955" lon="2.65827">
        <ele>85.400001525879</ele>
        <time>2013-06-09T11:49:19.000Z</time>
      </trkpt>
      <trkpt lat="48.27964" lon="2.65811">
        <ele>85.400001525879</ele>
        <time>2013-06-09T11:49:24.000Z</time>
      </trkpt>
      <trkpt lat="48.27974" lon="2.65797">
        <ele>85.400001525879</ele>
        <time>2013-06-09T11:49:29.000Z</time>
      </trkpt>
      <trkpt lat="48.27975" lon="2.65794">
        <ele>85.400001525879</ele>
        <time>2013-06-09T11:49:30.000Z</time>
      </trkpt>
      <trkpt lat="48.27979" lon="2.65786">
        <ele>85.199996948242</ele>
        <time>2013-06-09T11:49:34.000Z</time>
      </trkpt>
      <trkpt lat="48.27989" lon="2.65772">
        <ele>85.199996948242</ele>
        <time>2013-06-09T11:49:40.000Z</time>
      </trkpt>
      <trkpt lat="48.28001" lon="2.65758">
        <ele>85</ele>
        <time>2013-06-09T11:49:45.000Z</time>
      </trkpt>
      <trkpt lat="48.28013" lon="2.65745">
        <ele>84.800003051758</ele>
        <time>2013-06-09T11:49:50.000Z</time>
      </trkpt>
      <trkpt lat="48.28025" lon="2.6573">
        <ele>84.800003051758</ele>
        <time>2013-06-09T11:49:55.000Z</time>
      </trkpt>
      <trkpt lat="48.28037" lon="2.65721">
        <ele>84.800003051758</ele>
        <time>2013-06-09T11:49:59.000Z</time>
      </trkpt>
      <trkpt lat="48.28044" lon="2.65713">
        <ele>84.599998474121</ele>
        <time>2013-06-09T11:50:03.000Z</time>
      </trkpt>
      <trkpt lat="48.28047" lon="2.65706">
        <ele>84.599998474121</ele>
        <time>2013-06-09T11:50:07.000Z</time>
      </trkpt>
      <trkpt lat="48.28053" lon="2.65696">
        <ele>84.400001525879</ele>
        <time>2013-06-09T11:50:13.000Z</time>
      </trkpt>
      <trkpt lat="48.28066" lon="2.65674">
        <ele>84.199996948242</ele>
        <time>2013-06-09T11:50:19.000Z</time>
      </trkpt>
      <trkpt lat="48.28077" lon="2.65658">
        <ele>84</ele>
        <time>2013-06-09T11:50:23.000Z</time>
      </trkpt>
      <trkpt lat="48.28089" lon="2.65642">
        <ele>84</ele>
        <time>2013-06-09T11:50:28.000Z</time>
      </trkpt>
      <trkpt lat="48.28101" lon="2.65629">
        <ele>84</ele>
        <time>2013-06-09T11:50:33.000Z</time>
      </trkpt>
      <trkpt lat="48.28111" lon="2.65615">
        <ele>84</ele>
        <time>2013-06-09T11:50:38.000Z</time>
      </trkpt>
      <trkpt lat="48.28123" lon="2.656">
        <ele>84</ele>
        <time>2013-06-09T11:50:43.000Z</time>
      </trkpt>
      <trkpt lat="48.28136" lon="2.65585">
        <ele>84</ele>
        <time>2013-06-09T11:50:48.000Z</time>
      </trkpt>
      <trkpt lat="48.28145" lon="2.65572">
        <ele>84</ele>
        <time>2013-06-09T11:50:52.000Z</time>
      </trkpt>
      <trkpt lat="48.28154" lon="2.65561">
        <ele>84</ele>
        <time>2013-06-09T11:50:57.000Z</time>
      </trkpt>
      <trkpt lat="48.28159" lon="2.6556">
        <ele>84.199996948242</ele>
        <time>2013-06-09T11:51:02.000Z</time>
      </trkpt>
      <trkpt lat="48.28162" lon="2.65562">
        <ele>84.199996948242</ele>
        <time>2013-06-09T11:51:12.000Z</time>
      </trkpt>
      <trkpt lat="48.28166" lon="2.65563">
        <ele>84.199996948242</ele>
        <time>2013-06-09T11:51:22.000Z</time>
      </trkpt>
      <trkpt lat="48.28168" lon="2.65559">
        <ele>84.199996948242</ele>
        <time>2013-06-09T11:51:28.000Z</time>
      </trkpt>
      <trkpt lat="48.28171" lon="2.65554">
        <ele>84.400001525879</ele>
        <time>2013-06-09T11:51:35.000Z</time>
      </trkpt>
      <trkpt lat="48.2817" lon="2.65551">
        <ele>84.400001525879</ele>
        <time>2013-06-09T11:51:40.000Z</time>
      </trkpt>
      <trkpt lat="48.2817" lon="2.6555">
        <ele>84.400001525879</ele>
        <time>2013-06-09T11:51:46.000Z</time>
      </trkpt>
      <trkpt lat="48.28169" lon="2.65553">
        <ele>84.400001525879</ele>
        <time>2013-06-09T11:52:04.000Z</time>
      </trkpt>
      <trkpt lat="48.28166" lon="2.65545">
        <ele>84.400001525879</ele>
        <time>2013-06-09T11:52:56.000Z</time>
      </trkpt>
      <trkpt lat="48.28168" lon="2.65541">
        <ele>84.400001525879</ele>
        <time>2013-06-09T11:53:10.000Z</time>
      </trkpt>
      <trkpt lat="48.28178" lon="2.65527">
        <ele>84.800003051758</ele>
        <time>2013-06-09T11:53:16.000Z</time>
      </trkpt>
      <trkpt lat="48.28186" lon="2.65521">
        <ele>85.199996948242</ele>
        <time>2013-06-09T11:53:19.000Z</time>
      </trkpt>
      <trkpt lat="48.282" lon="2.65509">
        <ele>85.599998474121</ele>
        <time>2013-06-09T11:53:25.000Z</time>
      </trkpt>
      <trkpt lat="48.28211" lon="2.65495">
        <ele>86</ele>
        <time>2013-06-09T11:53:29.000Z</time>
      </trkpt>
      <trkpt lat="48.2822" lon="2.6548">
        <ele>85.800003051758</ele>
        <time>2013-06-09T11:53:33.000Z</time>
      </trkpt>
      <trkpt lat="48.28233" lon="2.65461">
        <ele>85.800003051758</ele>
        <time>2013-06-09T11:53:38.000Z</time>
      </trkpt>
      <trkpt lat="48.28246" lon="2.65448">
        <ele>85.599998474121</ele>
        <time>2013-06-09T11:53:43.000Z</time>
      </trkpt>
      <trkpt lat="48.28258" lon="2.6543">
        <ele>85.400001525879</ele>
        <time>2013-06-09T11:53:48.000Z</time>
      </trkpt>
      <trkpt lat="48.28267" lon="2.65416">
        <ele>85.400001525879</ele>
        <time>2013-06-09T11:53:52.000Z</time>
      </trkpt>
      <trkpt lat="48.28279" lon="2.65401">
        <ele>85.599998474121</ele>
        <time>2013-06-09T11:53:56.000Z</time>
      </trkpt>
      <trkpt lat="48.28295" lon="2.65381">
        <ele>85.800003051758</ele>
        <time>2013-06-09T11:54:02.000Z</time>
      </trkpt>
      <trkpt lat="48.28308" lon="2.65362">
        <ele>85.800003051758</ele>
        <time>2013-06-09T11:54:07.000Z</time>
      </trkpt>
      <trkpt lat="48.2832" lon="2.65345">
        <ele>85.800003051758</ele>
        <time>2013-06-09T11:54:12.000Z</time>
      </trkpt>
      <trkpt lat="48.28327" lon="2.65337">
        <ele>85.800003051758</ele>
        <time>2013-06-09T11:54:15.000Z</time>
      </trkpt>
      <trkpt lat="48.28338" lon="2.65321">
        <ele>86</ele>
        <time>2013-06-09T11:54:20.000Z</time>
      </trkpt>
      <trkpt lat="48.28353" lon="2.653">
        <ele>86</ele>
        <time>2013-06-09T11:54:26.000Z</time>
      </trkpt>
      <trkpt lat="48.2837" lon="2.65285">
        <ele>85.800003051758</ele>
        <time>2013-06-09T11:54:32.000Z</time>
      </trkpt>
      <trkpt lat="48.28389" lon="2.6526">
        <ele>85.400001525879</ele>
        <time>2013-06-09T11:54:39.000Z</time>
      </trkpt>
      <trkpt lat="48.28401" lon="2.65242">
        <ele>85</ele>
        <time>2013-06-09T11:54:44.000Z</time>
      </trkpt>
      <trkpt lat="48.28412" lon="2.65228">
        <ele>84.599998474121</ele>
        <time>2013-06-09T11:54:48.000Z</time>
      </trkpt>
      <trkpt lat="48.28424" lon="2.65212">
        <ele>84.599998474121</ele>
        <time>2013-06-09T11:54:53.000Z</time>
      </trkpt>
      <trkpt lat="48.28437" lon="2.65198">
        <ele>84.400001525879</ele>
        <time>2013-06-09T11:54:58.000Z</time>
      </trkpt>
      <trkpt lat="48.28448" lon="2.65183">
        <ele>84.199996948242</ele>
        <time>2013-06-09T11:55:03.000Z</time>
      </trkpt>
      <trkpt lat="48.28459" lon="2.6517">
        <ele>84</ele>
        <time>2013-06-09T11:55:08.000Z</time>
      </trkpt>
      <trkpt lat="48.28475" lon="2.65156">
        <ele>84</ele>
        <time>2013-06-09T11:55:14.000Z</time>
      </trkpt>
      <trkpt lat="48.2849" lon="2.65137">
        <ele>84</ele>
        <time>2013-06-09T11:55:20.000Z</time>
      </trkpt>
      <trkpt lat="48.28498" lon="2.65123">
        <ele>84</ele>
        <time>2013-06-09T11:55:25.000Z</time>
      </trkpt>
      <trkpt lat="48.28509" lon="2.65108">
        <ele>84.199996948242</ele>
        <time>2013-06-09T11:55:30.000Z</time>
      </trkpt>
      <trkpt lat="48.28521" lon="2.6509">
        <ele>84.400001525879</ele>
        <time>2013-06-09T11:55:35.000Z</time>
      </trkpt>
      <trkpt lat="48.28527" lon="2.6508">
        <ele>84.599998474121</ele>
        <time>2013-06-09T11:55:38.000Z</time>
      </trkpt>
      <trkpt lat="48.28531" lon="2.65076">
        <ele>84.599998474121</ele>
        <time>2013-06-09T11:55:41.000Z</time>
      </trkpt>
      <trkpt lat="48.28533" lon="2.6507">
        <ele>84.599998474121</ele>
        <time>2013-06-09T11:55:49.000Z</time>
      </trkpt>
      <trkpt lat="48.28534" lon="2.65069">
        <ele>84.800003051758</ele>
        <time>2013-06-09T11:55:50.000Z</time>
      </trkpt>
      <trkpt lat="48.28547" lon="2.6506">
        <ele>85</ele>
        <time>2013-06-09T11:55:55.000Z</time>
      </trkpt>
      <trkpt lat="48.28558" lon="2.65049">
        <ele>85.199996948242</ele>
        <time>2013-06-09T11:55:59.000Z</time>
      </trkpt>
      <trkpt lat="48.28572" lon="2.65032">
        <ele>85.599998474121</ele>
        <time>2013-06-09T11:56:03.000Z</time>
      </trkpt>
      <trkpt lat="48.28588" lon="2.65015">
        <ele>85.800003051758</ele>
        <time>2013-06-09T11:56:07.000Z</time>
      </trkpt>
      <trkpt lat="48.286" lon="2.65023">
        <ele>85.400001525879</ele>
        <time>2013-06-09T11:56:10.000Z</time>
      </trkpt>
      <trkpt lat="48.28613" lon="2.65047">
        <ele>84.800003051758</ele>
        <time>2013-06-09T11:56:15.000Z</time>
      </trkpt>
      <trkpt lat="48.28615" lon="2.65055">
        <ele>84.800003051758</ele>
        <time>2013-06-09T11:56:16.000Z</time>
      </trkpt>
      <trkpt lat="48.28622" lon="2.65101">
        <ele>84.599998474121</ele>
        <time>2013-06-09T11:56:22.000Z</time>
      </trkpt>
      <trkpt lat="48.2863" lon="2.65131">
        <ele>84.599998474121</ele>
        <time>2013-06-09T11:56:26.000Z</time>
      </trkpt>
      <trkpt lat="48.28635" lon="2.65154">
        <ele>84.599998474121</ele>
        <time>2013-06-09T11:56:30.000Z</time>
      </trkpt>
      <trkpt lat="48.28637" lon="2.65164">
        <ele>84.599998474121</ele>
        <time>2013-06-09T11:56:32.000Z</time>
      </trkpt>
      <trkpt lat="48.28644" lon="2.65195">
        <ele>84.400001525879</ele>
        <time>2013-06-09T11:56:37.000Z</time>
      </trkpt>
      <trkpt lat="48.28646" lon="2.65203">
        <ele>84.199996948242</ele>
        <time>2013-06-09T11:56:38.000Z</time>
      </trkpt>
      <trkpt lat="48.28648" lon="2.65219">
        <ele>84.199996948242</ele>
        <time>2013-06-09T11:56:40.000Z</time>
      </trkpt>
      <trkpt lat="48.28652" lon="2.65244">
        <ele>84</ele>
        <time>2013-06-09T11:56:45.000Z</time>
      </trkpt>
      <trkpt lat="48.28653" lon="2.65247">
        <ele>84</ele>
        <time>2013-06-09T11:56:47.000Z</time>
      </trkpt>
      <trkpt lat="48.28652" lon="2.65241">
        <ele>84</ele>
        <time>2013-06-09T11:56:52.000Z</time>
      </trkpt>
      <trkpt lat="48.28646" lon="2.65215">
        <ele>84.199996948242</ele>
        <time>2013-06-09T11:56:58.000Z</time>
      </trkpt>
      <trkpt lat="48.28645" lon="2.65211">
        <ele>84.199996948242</ele>
        <time>2013-06-09T11:57:01.000Z</time>
      </trkpt>
      <trkpt lat="48.28641" lon="2.65204">
        <ele>84.400001525879</ele>
        <time>2013-06-09T11:57:12.000Z</time>
      </trkpt>
      <trkpt lat="48.28638" lon="2.65186">
        <ele>84.599998474121</ele>
        <time>2013-06-09T11:57:16.000Z</time>
      </trkpt>
      <trkpt lat="48.28634" lon="2.65165">
        <ele>84.599998474121</ele>
        <time>2013-06-09T11:57:20.000Z</time>
      </trkpt>
      <trkpt lat="48.28629" lon="2.65138">
        <ele>84.599998474121</ele>
        <time>2013-06-09T11:57:25.000Z</time>
      </trkpt>
      <trkpt lat="48.28625" lon="2.65123">
        <ele>84.599998474121</ele>
        <time>2013-06-09T11:57:28.000Z</time>
      </trkpt>
      <trkpt lat="48.28618" lon="2.65093">
        <ele>84.599998474121</ele>
        <time>2013-06-09T11:57:35.000Z</time>
      </trkpt>
      <trkpt lat="48.28612" lon="2.65072">
        <ele>84.800003051758</ele>
        <time>2013-06-09T11:57:39.000Z</time>
      </trkpt>
      <trkpt lat="48.28606" lon="2.65048">
        <ele>85</ele>
        <time>2013-06-09T11:57:43.000Z</time>
      </trkpt>
      <trkpt lat="48.28603" lon="2.65034">
        <ele>85.199996948242</ele>
        <time>2013-06-09T11:57:45.000Z</time>
      </trkpt>
      <trkpt lat="48.28589" lon="2.65017">
        <ele>85.599998474121</ele>
        <time>2013-06-09T11:57:49.000Z</time>
      </trkpt>
      <trkpt lat="48.2857" lon="2.65025">
        <ele>85.599998474121</ele>
        <time>2013-06-09T11:57:54.000Z</time>
      </trkpt>
      <trkpt lat="48.2856" lon="2.6504">
        <ele>85.400001525879</ele>
        <time>2013-06-09T11:57:57.000Z</time>
      </trkpt>
      <trkpt lat="48.28544" lon="2.6506">
        <ele>85</ele>
        <time>2013-06-09T11:58:02.000Z</time>
      </trkpt>
      <trkpt lat="48.28532" lon="2.65068">
        <ele>84.599998474121</ele>
        <time>2013-06-09T11:58:07.000Z</time>
      </trkpt>
      <trkpt lat="48.28528" lon="2.65063">
        <ele>84.599998474121</ele>
        <time>2013-06-09T11:58:09.000Z</time>
      </trkpt>
      <trkpt lat="48.28524" lon="2.65039">
        <ele>84.400001525879</ele>
        <time>2013-06-09T11:58:14.000Z</time>
      </trkpt>
      <trkpt lat="48.28519" lon="2.65013">
        <ele>84.400001525879</ele>
        <time>2013-06-09T11:58:18.000Z</time>
      </trkpt>
      <trkpt lat="48.28518" lon="2.64999">
        <ele>84.400001525879</ele>
        <time>2013-06-09T11:58:20.000Z</time>
      </trkpt>
      <trkpt lat="48.28514" lon="2.64977">
        <ele>84</ele>
        <time>2013-06-09T11:58:23.000Z</time>
      </trkpt>
      <trkpt lat="48.28511" lon="2.64936">
        <ele>83.199996948242</ele>
        <time>2013-06-09T11:58:28.000Z</time>
      </trkpt>
      <trkpt lat="48.28508" lon="2.64912">
        <ele>83</ele>
        <time>2013-06-09T11:58:32.000Z</time>
      </trkpt>
      <trkpt lat="48.28506" lon="2.64908">
        <ele>83</ele>
        <time>2013-06-09T11:58:37.000Z</time>
      </trkpt>
      <trkpt lat="48.285" lon="2.64891">
        <ele>82.800003051758</ele>
        <time>2013-06-09T11:58:46.000Z</time>
      </trkpt>
      <trkpt lat="48.28494" lon="2.64861">
        <ele>82.800003051758</ele>
        <time>2013-06-09T11:58:52.000Z</time>
      </trkpt>
      <trkpt lat="48.2849" lon="2.64836">
        <ele>82.800003051758</ele>
        <time>2013-06-09T11:58:57.000Z</time>
      </trkpt>
      <trkpt lat="48.28485" lon="2.6481">
        <ele>82.400001525879</ele>
        <time>2013-06-09T11:59:02.000Z</time>
      </trkpt>
      <trkpt lat="48.2848" lon="2.64779">
        <ele>81.800003051758</ele>
        <time>2013-06-09T11:59:07.000Z</time>
      </trkpt>
      <trkpt lat="48.28477" lon="2.64755">
        <ele>81.400001525879</ele>
        <time>2013-06-09T11:59:12.000Z</time>
      </trkpt>
      <trkpt lat="48.28474" lon="2.64736">
        <ele>81.199996948242</ele>
        <time>2013-06-09T11:59:16.000Z</time>
      </trkpt>
      <trkpt lat="48.28472" lon="2.64714">
        <ele>81</ele>
        <time>2013-06-09T11:59:20.000Z</time>
      </trkpt>
      <trkpt lat="48.28467" lon="2.64684">
        <ele>80.599998474121</ele>
        <time>2013-06-09T11:59:25.000Z</time>
      </trkpt>
      <trkpt lat="48.28463" lon="2.64656">
        <ele>80.599998474121</ele>
        <time>2013-06-09T11:59:30.000Z</time>
      </trkpt>
      <trkpt lat="48.28459" lon="2.64638">
        <ele>81</ele>
        <time>2013-06-09T11:59:34.000Z</time>
      </trkpt>
      <trkpt lat="48.28458" lon="2.6462">
        <ele>81.199996948242</ele>
        <time>2013-06-09T11:59:38.000Z</time>
      </trkpt>
      <trkpt lat="48.28456" lon="2.64594">
        <ele>81.599998474121</ele>
        <time>2013-06-09T11:59:43.000Z</time>
      </trkpt>
      <trkpt lat="48.28454" lon="2.64575">
        <ele>81.599998474121</ele>
        <time>2013-06-09T11:59:48.000Z</time>
      </trkpt>
      <trkpt lat="48.2845" lon="2.64552">
        <ele>81.400001525879</ele>
        <time>2013-06-09T11:59:53.000Z</time>
      </trkpt>
      <trkpt lat="48.2845" lon="2.6455">
        <ele>81.199996948242</ele>
        <time>2013-06-09T11:59:54.000Z</time>
      </trkpt>
      <trkpt lat="48.28448" lon="2.6453">
        <ele>81</ele>
        <time>2013-06-09T11:59:59.000Z</time>
      </trkpt>
      <trkpt lat="48.28443" lon="2.64509">
        <ele>80.599998474121</ele>
        <time>2013-06-09T12:00:04.000Z</time>
      </trkpt>
      <trkpt lat="48.28439" lon="2.64481">
        <ele>80.199996948242</ele>
        <time>2013-06-09T12:00:10.000Z</time>
      </trkpt>
      <trkpt lat="48.28439" lon="2.64474">
        <ele>80.199996948242</ele>
        <time>2013-06-09T12:00:12.000Z</time>
      </trkpt>
      <trkpt lat="48.28442" lon="2.64466">
        <ele>80.199996948242</ele>
        <time>2013-06-09T12:00:18.000Z</time>
      </trkpt>
      <trkpt lat="48.28445" lon="2.64463">
        <ele>80.199996948242</ele>
        <time>2013-06-09T12:00:24.000Z</time>
      </trkpt>
      <trkpt lat="48.28445" lon="2.64463">
        <ele>80.199996948242</ele>
        <time>2013-06-09T12:00:25.000Z</time>
      </trkpt>
      <trkpt lat="48.28446" lon="2.64455">
        <ele>80</ele>
        <time>2013-06-09T12:00:28.000Z</time>
      </trkpt>
      <trkpt lat="48.28441" lon="2.64438">
        <ele>79.800003051758</ele>
        <time>2013-06-09T12:00:32.000Z</time>
      </trkpt>
      <trkpt lat="48.28435" lon="2.64418">
        <ele>79.599998474121</ele>
        <time>2013-06-09T12:00:37.000Z</time>
      </trkpt>
      <trkpt lat="48.28436" lon="2.64404">
        <ele>79.400001525879</ele>
        <time>2013-06-09T12:00:41.000Z</time>
      </trkpt>
      <trkpt lat="48.28441" lon="2.64396">
        <ele>79.199996948242</ele>
        <time>2013-06-09T12:00:45.000Z</time>
      </trkpt>
      <trkpt lat="48.28443" lon="2.64395">
        <ele>79.199996948242</ele>
        <time>2013-06-09T12:00:51.000Z</time>
      </trkpt>
      <trkpt lat="48.28445" lon="2.64398">
        <ele>79.199996948242</ele>
        <time>2013-06-09T12:01:03.000Z</time>
      </trkpt>
      <trkpt lat="48.2845" lon="2.64398">
        <ele>79.199996948242</ele>
        <time>2013-06-09T12:01:10.000Z</time>
      </trkpt>
      <trkpt lat="48.28461" lon="2.64391">
        <ele>79</ele>
        <time>2013-06-09T12:01:14.000Z</time>
      </trkpt>
      <trkpt lat="48.28466" lon="2.64388">
        <ele>78.800003051758</ele>
        <time>2013-06-09T12:01:16.000Z</time>
      </trkpt>
      <trkpt lat="48.28483" lon="2.64381">
        <ele>78.599998474121</ele>
        <time>2013-06-09T12:01:22.000Z</time>
      </trkpt>
      <trkpt lat="48.2849" lon="2.64381">
        <ele>78.599998474121</ele>
        <time>2013-06-09T12:01:24.000Z</time>
      </trkpt>
      <trkpt lat="48.28506" lon="2.64374">
        <ele>78.599998474121</ele>
        <time>2013-06-09T12:01:29.000Z</time>
      </trkpt>
      <trkpt lat="48.28521" lon="2.64364">
        <ele>78.599998474121</ele>
        <time>2013-06-09T12:01:34.000Z</time>
      </trkpt>
      <trkpt lat="48.28537" lon="2.6436">
        <ele>78.800003051758</ele>
        <time>2013-06-09T12:01:39.000Z</time>
      </trkpt>
      <trkpt lat="48.28555" lon="2.64352">
        <ele>79</ele>
        <time>2013-06-09T12:01:45.000Z</time>
      </trkpt>
      <trkpt lat="48.2857" lon="2.64345">
        <ele>79</ele>
        <time>2013-06-09T12:01:50.000Z</time>
      </trkpt>
      <trkpt lat="48.2858" lon="2.64343">
        <ele>79</ele>
        <time>2013-06-09T12:01:54.000Z</time>
      </trkpt>
      <trkpt lat="48.28595" lon="2.64338">
        <ele>79</ele>
        <time>2013-06-09T12:01:59.000Z</time>
      </trkpt>
      <trkpt lat="48.28608" lon="2.64331">
        <ele>78.800003051758</ele>
        <time>2013-06-09T12:02:04.000Z</time>
      </trkpt>
      <trkpt lat="48.28623" lon="2.64327">
        <ele>78.800003051758</ele>
        <time>2013-06-09T12:02:08.000Z</time>
      </trkpt>
      <trkpt lat="48.28634" lon="2.64322">
        <ele>78.800003051758</ele>
        <time>2013-06-09T12:02:12.000Z</time>
      </trkpt>
      <trkpt lat="48.28636" lon="2.64322">
        <ele>78.800003051758</ele>
        <time>2013-06-09T12:02:13.000Z</time>
      </trkpt>
      <trkpt lat="48.28641" lon="2.64319">
        <ele>78.599998474121</ele>
        <time>2013-06-09T12:02:18.000Z</time>
      </trkpt>
      <trkpt lat="48.28642" lon="2.64321">
        <ele>78.800003051758</ele>
        <time>2013-06-09T12:02:27.000Z</time>
      </trkpt>
      <trkpt lat="48.28644" lon="2.64322">
        <ele>78.800003051758</ele>
        <time>2013-06-09T12:02:33.000Z</time>
      </trkpt>
      <trkpt lat="48.28645" lon="2.64329">
        <ele>78.800003051758</ele>
        <time>2013-06-09T12:02:44.000Z</time>
      </trkpt>
      <trkpt lat="48.28648" lon="2.64329">
        <ele>78.800003051758</ele>
        <time>2013-06-09T12:03:05.000Z</time>
      </trkpt>
      <trkpt lat="48.28661" lon="2.64317">
        <ele>78.599998474121</ele>
        <time>2013-06-09T12:03:10.000Z</time>
      </trkpt>
      <trkpt lat="48.28673" lon="2.64307">
        <ele>78.599998474121</ele>
        <time>2013-06-09T12:03:14.000Z</time>
      </trkpt>
      <trkpt lat="48.28688" lon="2.64291">
        <ele>78.599998474121</ele>
        <time>2013-06-09T12:03:19.000Z</time>
      </trkpt>
      <trkpt lat="48.28699" lon="2.6428">
        <ele>78.599998474121</ele>
        <time>2013-06-09T12:03:23.000Z</time>
      </trkpt>
      <trkpt lat="48.2871" lon="2.64271">
        <ele>78.599998474121</ele>
        <time>2013-06-09T12:03:27.000Z</time>
      </trkpt>
      <trkpt lat="48.28721" lon="2.64265">
        <ele>78.800003051758</ele>
        <time>2013-06-09T12:03:31.000Z</time>
      </trkpt>
      <trkpt lat="48.28732" lon="2.64256">
        <ele>78.800003051758</ele>
        <time>2013-06-09T12:03:35.000Z</time>
      </trkpt>
      <trkpt lat="48.28749" lon="2.64241">
        <ele>78.800003051758</ele>
        <time>2013-06-09T12:03:41.000Z</time>
      </trkpt>
      <trkpt lat="48.28763" lon="2.64229">
        <ele>78.800003051758</ele>
        <time>2013-06-09T12:03:46.000Z</time>
      </trkpt>
      <trkpt lat="48.28777" lon="2.64214">
        <ele>78.800003051758</ele>
        <time>2013-06-09T12:03:51.000Z</time>
      </trkpt>
      <trkpt lat="48.28791" lon="2.64204">
        <ele>78.800003051758</ele>
        <time>2013-06-09T12:03:56.000Z</time>
      </trkpt>
      <trkpt lat="48.28802" lon="2.64195">
        <ele>78.599998474121</ele>
        <time>2013-06-09T12:04:00.000Z</time>
      </trkpt>
      <trkpt lat="48.2882" lon="2.64182">
        <ele>78.400001525879</ele>
        <time>2013-06-09T12:04:06.000Z</time>
      </trkpt>
      <trkpt lat="48.28832" lon="2.64173">
        <ele>78.199996948242</ele>
        <time>2013-06-09T12:04:10.000Z</time>
      </trkpt>
      <trkpt lat="48.28837" lon="2.64167">
        <ele>78</ele>
        <time>2013-06-09T12:04:12.000Z</time>
      </trkpt>
      <trkpt lat="48.28849" lon="2.64161">
        <ele>77.800003051758</ele>
        <time>2013-06-09T12:04:17.000Z</time>
      </trkpt>
      <trkpt lat="48.28856" lon="2.64157">
        <ele>77.800003051758</ele>
        <time>2013-06-09T12:04:20.000Z</time>
      </trkpt>
      <trkpt lat="48.28864" lon="2.64154">
        <ele>77.800003051758</ele>
        <time>2013-06-09T12:04:23.000Z</time>
      </trkpt>
      <trkpt lat="48.28878" lon="2.64138">
        <ele>77.599998474121</ele>
        <time>2013-06-09T12:04:29.000Z</time>
      </trkpt>
      <trkpt lat="48.28891" lon="2.64127">
        <ele>77.599998474121</ele>
        <time>2013-06-09T12:04:34.000Z</time>
      </trkpt>
      <trkpt lat="48.289" lon="2.64126">
        <ele>77.599998474121</ele>
        <time>2013-06-09T12:04:37.000Z</time>
      </trkpt>
      <trkpt lat="48.28905" lon="2.64132">
        <ele>77.800003051758</ele>
        <time>2013-06-09T12:04:43.000Z</time>
      </trkpt>
      <trkpt lat="48.2891" lon="2.64136">
        <ele>77.800003051758</ele>
        <time>2013-06-09T12:04:48.000Z</time>
      </trkpt>
      <trkpt lat="48.28914" lon="2.64142">
        <ele>77.800003051758</ele>
        <time>2013-06-09T12:04:53.000Z</time>
      </trkpt>
      <trkpt lat="48.28915" lon="2.64151">
        <ele>77.800003051758</ele>
        <time>2013-06-09T12:04:57.000Z</time>
      </trkpt>
      <trkpt lat="48.2892" lon="2.64173">
        <ele>78</ele>
        <time>2013-06-09T12:05:03.000Z</time>
      </trkpt>
      <trkpt lat="48.28922" lon="2.64183">
        <ele>78</ele>
        <time>2013-06-09T12:05:05.000Z</time>
      </trkpt>
      <trkpt lat="48.28927" lon="2.64207">
        <ele>78.199996948242</ele>
        <time>2013-06-09T12:05:10.000Z</time>
      </trkpt>
      <trkpt lat="48.28932" lon="2.64236">
        <ele>78.400001525879</ele>
        <time>2013-06-09T12:05:15.000Z</time>
      </trkpt>
      <trkpt lat="48.28939" lon="2.64266">
        <ele>78.599998474121</ele>
        <time>2013-06-09T12:05:21.000Z</time>
      </trkpt>
      <trkpt lat="48.28943" lon="2.64291">
        <ele>78.599998474121</ele>
        <time>2013-06-09T12:05:26.000Z</time>
      </trkpt>
      <trkpt lat="48.28946" lon="2.64317">
        <ele>78.800003051758</ele>
        <time>2013-06-09T12:05:30.000Z</time>
      </trkpt>
      <trkpt lat="48.28949" lon="2.64344">
        <ele>78.800003051758</ele>
        <time>2013-06-09T12:05:35.000Z</time>
      </trkpt>
      <trkpt lat="48.28953" lon="2.6437">
        <ele>78.599998474121</ele>
        <time>2013-06-09T12:05:41.000Z</time>
      </trkpt>
      <trkpt lat="48.28959" lon="2.64399">
        <ele>78.400001525879</ele>
        <time>2013-06-09T12:05:47.000Z</time>
      </trkpt>
      <trkpt lat="48.28962" lon="2.64431">
        <ele>78.199996948242</ele>
        <time>2013-06-09T12:05:53.000Z</time>
      </trkpt>
      <trkpt lat="48.28964" lon="2.64453">
        <ele>78.199996948242</ele>
        <time>2013-06-09T12:05:57.000Z</time>
      </trkpt>
      <trkpt lat="48.28974" lon="2.64477">
        <ele>77.800003051758</ele>
        <time>2013-06-09T12:06:02.000Z</time>
      </trkpt>
      <trkpt lat="48.28989" lon="2.64498">
        <ele>77.400001525879</ele>
        <time>2013-06-09T12:06:08.000Z</time>
      </trkpt>
      <trkpt lat="48.29001" lon="2.64521">
        <ele>77.599998474121</ele>
        <time>2013-06-09T12:06:14.000Z</time>
      </trkpt>
      <trkpt lat="48.29019" lon="2.64538">
        <ele>78</ele>
        <time>2013-06-09T12:06:19.000Z</time>
      </trkpt>
      <trkpt lat="48.2903" lon="2.64547">
        <ele>78</ele>
        <time>2013-06-09T12:06:22.000Z</time>
      </trkpt>
      <trkpt lat="48.29045" lon="2.64559">
        <ele>78.199996948242</ele>
        <time>2013-06-09T12:06:26.000Z</time>
      </trkpt>
      <trkpt lat="48.29054" lon="2.64567">
        <ele>78.199996948242</ele>
        <time>2013-06-09T12:06:28.000Z</time>
      </trkpt>
      <trkpt lat="48.29063" lon="2.64583">
        <ele>78.400001525879</ele>
        <time>2013-06-09T12:06:31.000Z</time>
      </trkpt>
      <trkpt lat="48.29078" lon="2.646">
        <ele>78.400001525879</ele>
        <time>2013-06-09T12:06:36.000Z</time>
      </trkpt>
      <trkpt lat="48.29082" lon="2.64601">
        <ele>78.400001525879</ele>
        <time>2013-06-09T12:06:37.000Z</time>
      </trkpt>
      <trkpt lat="48.29101" lon="2.64614">
        <ele>78.800003051758</ele>
        <time>2013-06-09T12:06:43.000Z</time>
      </trkpt>
      <trkpt lat="48.29107" lon="2.64619">
        <ele>79</ele>
        <time>2013-06-09T12:06:49.000Z</time>
      </trkpt>
      <trkpt lat="48.2911" lon="2.64622">
        <ele>79</ele>
        <time>2013-06-09T12:06:54.000Z</time>
      </trkpt>
      <trkpt lat="48.29121" lon="2.64628">
        <ele>79.199996948242</ele>
        <time>2013-06-09T12:06:58.000Z</time>
      </trkpt>
      <trkpt lat="48.29132" lon="2.64631">
        <ele>79.199996948242</ele>
        <time>2013-06-09T12:07:02.000Z</time>
      </trkpt>
      <trkpt lat="48.29144" lon="2.64634">
        <ele>79.400001525879</ele>
        <time>2013-06-09T12:07:06.000Z</time>
      </trkpt>
      <trkpt lat="48.29155" lon="2.6464">
        <ele>79.599998474121</ele>
        <time>2013-06-09T12:07:10.000Z</time>
      </trkpt>
      <trkpt lat="48.29176" lon="2.64646">
        <ele>79.400001525879</ele>
        <time>2013-06-09T12:07:16.000Z</time>
      </trkpt>
      <trkpt lat="48.29192" lon="2.6465">
        <ele>79.199996948242</ele>
        <time>2013-06-09T12:07:21.000Z</time>
      </trkpt>
      <trkpt lat="48.29206" lon="2.64653">
        <ele>79</ele>
        <time>2013-06-09T12:07:26.000Z</time>
      </trkpt>
      <trkpt lat="48.29219" lon="2.64654">
        <ele>78.599998474121</ele>
        <time>2013-06-09T12:07:30.000Z</time>
      </trkpt>
      <trkpt lat="48.29233" lon="2.64654">
        <ele>78.400001525879</ele>
        <time>2013-06-09T12:07:34.000Z</time>
      </trkpt>
      <trkpt lat="48.29246" lon="2.64654">
        <ele>78.199996948242</ele>
        <time>2013-06-09T12:07:38.000Z</time>
      </trkpt>
      <trkpt lat="48.2926" lon="2.64655">
        <ele>78</ele>
        <time>2013-06-09T12:07:42.000Z</time>
      </trkpt>
      <trkpt lat="48.29272" lon="2.64659">
        <ele>78</ele>
        <time>2013-06-09T12:07:46.000Z</time>
      </trkpt>
      <trkpt lat="48.29289" lon="2.64662">
        <ele>78</ele>
        <time>2013-06-09T12:07:51.000Z</time>
      </trkpt>
      <trkpt lat="48.29304" lon="2.64667">
        <ele>78</ele>
        <time>2013-06-09T12:07:56.000Z</time>
      </trkpt>
      <trkpt lat="48.29317" lon="2.64672">
        <ele>78</ele>
        <time>2013-06-09T12:08:01.000Z</time>
      </trkpt>
      <trkpt lat="48.29319" lon="2.64674">
        <ele>78</ele>
        <time>2013-06-09T12:08:02.000Z</time>
      </trkpt>
      <trkpt lat="48.29324" lon="2.64686">
        <ele>78.199996948242</ele>
        <time>2013-06-09T12:08:07.000Z</time>
      </trkpt>
      <trkpt lat="48.29322" lon="2.64696">
        <ele>78.199996948242</ele>
        <time>2013-06-09T12:08:10.000Z</time>
      </trkpt>
      <trkpt lat="48.29312" lon="2.64719">
        <ele>78.599998474121</ele>
        <time>2013-06-09T12:08:15.000Z</time>
      </trkpt>
      <trkpt lat="48.29304" lon="2.64736">
        <ele>78.800003051758</ele>
        <time>2013-06-09T12:08:20.000Z</time>
      </trkpt>
      <trkpt lat="48.29297" lon="2.64753">
        <ele>79</ele>
        <time>2013-06-09T12:08:25.000Z</time>
      </trkpt>
      <trkpt lat="48.29297" lon="2.64755">
        <ele>79</ele>
        <time>2013-06-09T12:08:27.000Z</time>
      </trkpt>
      <trkpt lat="48.29309" lon="2.64759">
        <ele>79</ele>
        <time>2013-06-09T12:08:33.000Z</time>
      </trkpt>
      <trkpt lat="48.29315" lon="2.64765">
        <ele>79</ele>
        <time>2013-06-09T12:08:36.000Z</time>
      </trkpt>
      <trkpt lat="48.29326" lon="2.64771">
        <ele>79.199996948242</ele>
        <time>2013-06-09T12:08:40.000Z</time>
      </trkpt>
      <trkpt lat="48.29333" lon="2.64776">
        <ele>79.199996948242</ele>
        <time>2013-06-09T12:08:43.000Z</time>
      </trkpt>
      <trkpt lat="48.29336" lon="2.64781">
        <ele>79.199996948242</ele>
        <time>2013-06-09T12:08:48.000Z</time>
      </trkpt>
      <trkpt lat="48.2934" lon="2.64785">
        <ele>79.400001525879</ele>
        <time>2013-06-09T12:08:55.000Z</time>
      </trkpt>
      <trkpt lat="48.29346" lon="2.64781">
        <ele>79.400001525879</ele>
        <time>2013-06-09T12:09:08.000Z</time>
      </trkpt>
      <trkpt lat="48.29345" lon="2.64781">
        <ele>79.400001525879</ele>
        <time>2013-06-09T12:09:25.000Z</time>
      </trkpt>
      <trkpt lat="48.29334" lon="2.64781">
        <ele>79.199996948242</ele>
        <time>2013-06-09T12:09:46.000Z</time>
      </trkpt>
      <trkpt lat="48.29329" lon="2.64786">
        <ele>79.400001525879</ele>
        <time>2013-06-09T12:09:51.000Z</time>
      </trkpt>
      <trkpt lat="48.29317" lon="2.6478">
        <ele>79.199996948242</ele>
        <time>2013-06-09T12:09:56.000Z</time>
      </trkpt>
      <trkpt lat="48.29304" lon="2.6477">
        <ele>79</ele>
        <time>2013-06-09T12:10:01.000Z</time>
      </trkpt>
      <trkpt lat="48.29295" lon="2.64768">
        <ele>79</ele>
        <time>2013-06-09T12:10:05.000Z</time>
      </trkpt>
      <trkpt lat="48.29289" lon="2.6476">
        <ele>79</ele>
        <time>2013-06-09T12:10:10.000Z</time>
      </trkpt>
      <trkpt lat="48.29289" lon="2.64758">
        <ele>79</ele>
        <time>2013-06-09T12:10:17.000Z</time>
      </trkpt>
      <trkpt lat="48.29287" lon="2.64753">
        <ele>79</ele>
        <time>2013-06-09T12:10:19.000Z</time>
      </trkpt>
      <trkpt lat="48.29288" lon="2.64754">
        <ele>79</ele>
        <time>2013-06-09T12:10:25.000Z</time>
      </trkpt>
      <trkpt lat="48.29288" lon="2.64753">
        <ele>79</ele>
        <time>2013-06-09T12:10:27.000Z</time>
      </trkpt>
      <trkpt lat="48.293" lon="2.64757">
        <ele>79</ele>
        <time>2013-06-09T12:10:32.000Z</time>
      </trkpt>
      <trkpt lat="48.29319" lon="2.64771">
        <ele>79.199996948242</ele>
        <time>2013-06-09T12:10:37.000Z</time>
      </trkpt>
      <trkpt lat="48.29333" lon="2.64782">
        <ele>79.199996948242</ele>
        <time>2013-06-09T12:10:41.000Z</time>
      </trkpt>
      <trkpt lat="48.29347" lon="2.64789">
        <ele>79.400001525879</ele>
        <time>2013-06-09T12:10:46.000Z</time>
      </trkpt>
      <trkpt lat="48.29365" lon="2.64792">
        <ele>79.599998474121</ele>
        <time>2013-06-09T12:10:50.000Z</time>
      </trkpt>
      <trkpt lat="48.29375" lon="2.64802">
        <ele>79.800003051758</ele>
        <time>2013-06-09T12:10:53.000Z</time>
      </trkpt>
      <trkpt lat="48.29383" lon="2.64818">
        <ele>79.800003051758</ele>
        <time>2013-06-09T12:10:58.000Z</time>
      </trkpt>
      <trkpt lat="48.29389" lon="2.64819">
        <ele>79.800003051758</ele>
        <time>2013-06-09T12:11:01.000Z</time>
      </trkpt>
      <trkpt lat="48.29391" lon="2.64823">
        <ele>79.800003051758</ele>
        <time>2013-06-09T12:11:10.000Z</time>
      </trkpt>
      <trkpt lat="48.29386" lon="2.64827">
        <ele>79.800003051758</ele>
        <time>2013-06-09T12:11:16.000Z</time>
      </trkpt>
      <trkpt lat="48.29372" lon="2.64821">
        <ele>79.800003051758</ele>
        <time>2013-06-09T12:11:21.000Z</time>
      </trkpt>
      <trkpt lat="48.2937" lon="2.64816">
        <ele>79.800003051758</ele>
        <time>2013-06-09T12:11:22.000Z</time>
      </trkpt>
      <trkpt lat="48.29355" lon="2.64804">
        <ele>79.599998474121</ele>
        <time>2013-06-09T12:11:27.000Z</time>
      </trkpt>
      <trkpt lat="48.2934" lon="2.64797">
        <ele>79.400001525879</ele>
        <time>2013-06-09T12:11:32.000Z</time>
      </trkpt>
      <trkpt lat="48.29325" lon="2.64793">
        <ele>79.400001525879</ele>
        <time>2013-06-09T12:11:36.000Z</time>
      </trkpt>
      <trkpt lat="48.29311" lon="2.64784">
        <ele>79.199996948242</ele>
        <time>2013-06-09T12:11:40.000Z</time>
      </trkpt>
      <trkpt lat="48.29297" lon="2.64772">
        <ele>79</ele>
        <time>2013-06-09T12:11:45.000Z</time>
      </trkpt>
      <trkpt lat="48.2929" lon="2.64764">
        <ele>79</ele>
        <time>2013-06-09T12:11:50.000Z</time>
      </trkpt>
      <trkpt lat="48.29288" lon="2.64763">
        <ele>79</ele>
        <time>2013-06-09T12:11:57.000Z</time>
      </trkpt>
      <trkpt lat="48.29286" lon="2.64763">
        <ele>79</ele>
        <time>2013-06-09T12:12:01.000Z</time>
      </trkpt>
      <trkpt lat="48.29277" lon="2.64773">
        <ele>79</ele>
        <time>2013-06-09T12:12:06.000Z</time>
      </trkpt>
      <trkpt lat="48.29272" lon="2.6478">
        <ele>79</ele>
        <time>2013-06-09T12:12:08.000Z</time>
      </trkpt>
      <trkpt lat="48.29252" lon="2.64808">
        <ele>79</ele>
        <time>2013-06-09T12:12:15.000Z</time>
      </trkpt>
      <trkpt lat="48.29235" lon="2.64833">
        <ele>78.800003051758</ele>
        <time>2013-06-09T12:12:21.000Z</time>
      </trkpt>
      <trkpt lat="48.29221" lon="2.64854">
        <ele>78.800003051758</ele>
        <time>2013-06-09T12:12:26.000Z</time>
      </trkpt>
      <trkpt lat="48.29208" lon="2.64876">
        <ele>79</ele>
        <time>2013-06-09T12:12:31.000Z</time>
      </trkpt>
      <trkpt lat="48.29196" lon="2.64897">
        <ele>79</ele>
        <time>2013-06-09T12:12:36.000Z</time>
      </trkpt>
      <trkpt lat="48.29183" lon="2.64917">
        <ele>79</ele>
        <time>2013-06-09T12:12:42.000Z</time>
      </trkpt>
      <trkpt lat="48.29172" lon="2.64933">
        <ele>79.199996948242</ele>
        <time>2013-06-09T12:12:47.000Z</time>
      </trkpt>
      <trkpt lat="48.29154" lon="2.6496">
        <ele>79.400001525879</ele>
        <time>2013-06-09T12:12:55.000Z</time>
      </trkpt>
      <trkpt lat="48.29139" lon="2.64984">
        <ele>79.400001525879</ele>
        <time>2013-06-09T12:13:02.000Z</time>
      </trkpt>
      <trkpt lat="48.29127" lon="2.65002">
        <ele>79.400001525879</ele>
        <time>2013-06-09T12:13:08.000Z</time>
      </trkpt>
      <trkpt lat="48.29112" lon="2.65024">
        <ele>79.800003051758</ele>
        <time>2013-06-09T12:13:15.000Z</time>
      </trkpt>
      <trkpt lat="48.291" lon="2.65046">
        <ele>80.400001525879</ele>
        <time>2013-06-09T12:13:22.000Z</time>
      </trkpt>
      <trkpt lat="48.29099" lon="2.65047">
        <ele>80.400001525879</ele>
        <time>2013-06-09T12:13:23.000Z</time>
      </trkpt>
      <trkpt lat="48.29086" lon="2.65068">
        <ele>81.199996948242</ele>
        <time>2013-06-09T12:13:30.000Z</time>
      </trkpt>
      <trkpt lat="48.29067" lon="2.65098">
        <ele>83.199996948242</ele>
        <time>2013-06-09T12:13:40.000Z</time>
      </trkpt>
      <trkpt lat="48.29056" lon="2.65113">
        <ele>84.199996948242</ele>
        <time>2013-06-09T12:13:46.000Z</time>
      </trkpt>
      <trkpt lat="48.29045" lon="2.65129">
        <ele>85.199996948242</ele>
        <time>2013-06-09T12:13:52.000Z</time>
      </trkpt>
      <trkpt lat="48.29036" lon="2.65146">
        <ele>86</ele>
        <time>2013-06-09T12:13:58.000Z</time>
      </trkpt>
      <trkpt lat="48.29023" lon="2.65164">
        <ele>87</ele>
        <time>2013-06-09T12:14:05.000Z</time>
      </trkpt>
      <trkpt lat="48.29014" lon="2.65179">
        <ele>87.800003051758</ele>
        <time>2013-06-09T12:14:11.000Z</time>
      </trkpt>
      <trkpt lat="48.29011" lon="2.65184">
        <ele>88</ele>
        <time>2013-06-09T12:14:13.000Z</time>
      </trkpt>
      <trkpt lat="48.29005" lon="2.65195">
        <ele>88.400001525879</ele>
        <time>2013-06-09T12:14:17.000Z</time>
      </trkpt>
      <trkpt lat="48.28999" lon="2.65206">
        <ele>88.800003051758</ele>
        <time>2013-06-09T12:14:22.000Z</time>
      </trkpt>
      <trkpt lat="48.2899" lon="2.65221">
        <ele>89.199996948242</ele>
        <time>2013-06-09T12:14:27.000Z</time>
      </trkpt>
      <trkpt lat="48.28979" lon="2.65235">
        <ele>89.400001525879</ele>
        <time>2013-06-09T12:14:32.000Z</time>
      </trkpt>
      <trkpt lat="48.28965" lon="2.65255">
        <ele>89.599998474121</ele>
        <time>2013-06-09T12:14:37.000Z</time>
      </trkpt>
      <trkpt lat="48.28951" lon="2.65272">
        <ele>89.599998474121</ele>
        <time>2013-06-09T12:14:42.000Z</time>
      </trkpt>
      <trkpt lat="48.28933" lon="2.653">
        <ele>89.599998474121</ele>
        <time>2013-06-09T12:14:48.000Z</time>
      </trkpt>
      <trkpt lat="48.28916" lon="2.65324">
        <ele>89.800003051758</ele>
        <time>2013-06-09T12:14:53.000Z</time>
      </trkpt>
      <trkpt lat="48.28913" lon="2.6533">
        <ele>89.599998474121</ele>
        <time>2013-06-09T12:14:54.000Z</time>
      </trkpt>
      <trkpt lat="48.289" lon="2.65351">
        <ele>88.599998474121</ele>
        <time>2013-06-09T12:14:59.000Z</time>
      </trkpt>
      <trkpt lat="48.28891" lon="2.65363">
        <ele>88</ele>
        <time>2013-06-09T12:15:02.000Z</time>
      </trkpt>
      <trkpt lat="48.28879" lon="2.65383">
        <ele>87.199996948242</ele>
        <time>2013-06-09T12:15:07.000Z</time>
      </trkpt>
      <trkpt lat="48.28865" lon="2.65404">
        <ele>86.199996948242</ele>
        <time>2013-06-09T12:15:12.000Z</time>
      </trkpt>
      <trkpt lat="48.28845" lon="2.65435">
        <ele>85</ele>
        <time>2013-06-09T12:15:18.000Z</time>
      </trkpt>
      <trkpt lat="48.28826" lon="2.65464">
        <ele>84.199996948242</ele>
        <time>2013-06-09T12:15:23.000Z</time>
      </trkpt>
      <trkpt lat="48.28819" lon="2.65475">
        <ele>84.199996948242</ele>
        <time>2013-06-09T12:15:25.000Z</time>
      </trkpt>
      <trkpt lat="48.28803" lon="2.65495">
        <ele>84</ele>
        <time>2013-06-09T12:15:30.000Z</time>
      </trkpt>
      <trkpt lat="48.28797" lon="2.65505">
        <ele>84</ele>
        <time>2013-06-09T12:15:33.000Z</time>
      </trkpt>
      <trkpt lat="48.28786" lon="2.65524">
        <ele>84</ele>
        <time>2013-06-09T12:15:39.000Z</time>
      </trkpt>
      <trkpt lat="48.28775" lon="2.65538">
        <ele>84</ele>
        <time>2013-06-09T12:15:44.000Z</time>
      </trkpt>
      <trkpt lat="48.28765" lon="2.65551">
        <ele>84</ele>
        <time>2013-06-09T12:15:50.000Z</time>
      </trkpt>
      <trkpt lat="48.28758" lon="2.65563">
        <ele>84</ele>
        <time>2013-06-09T12:15:56.000Z</time>
      </trkpt>
      <trkpt lat="48.28749" lon="2.65578">
        <ele>84</ele>
        <time>2013-06-09T12:16:02.000Z</time>
      </trkpt>
      <trkpt lat="48.2874" lon="2.65592">
        <ele>84.199996948242</ele>
        <time>2013-06-09T12:16:06.000Z</time>
      </trkpt>
      <trkpt lat="48.28723" lon="2.65615">
        <ele>84.599998474121</ele>
        <time>2013-06-09T12:16:12.000Z</time>
      </trkpt>
      <trkpt lat="48.2871" lon="2.65633">
        <ele>84.800003051758</ele>
        <time>2013-06-09T12:16:17.000Z</time>
      </trkpt>
      <trkpt lat="48.28705" lon="2.65639">
        <ele>85</ele>
        <time>2013-06-09T12:16:21.000Z</time>
      </trkpt>
      <trkpt lat="48.28707" lon="2.65642">
        <ele>85</ele>
        <time>2013-06-09T12:16:31.000Z</time>
      </trkpt>
      <trkpt lat="48.28708" lon="2.65644">
        <ele>85</ele>
        <time>2013-06-09T12:16:32.000Z</time>
      </trkpt>
      <trkpt lat="48.28713" lon="2.65659">
        <ele>84.800003051758</ele>
        <time>2013-06-09T12:16:36.000Z</time>
      </trkpt>
      <trkpt lat="48.28722" lon="2.65687">
        <ele>84.800003051758</ele>
        <time>2013-06-09T12:16:42.000Z</time>
      </trkpt>
      <trkpt lat="48.28734" lon="2.65709">
        <ele>84.800003051758</ele>
        <time>2013-06-09T12:16:47.000Z</time>
      </trkpt>
      <trkpt lat="48.28741" lon="2.65727">
        <ele>84.800003051758</ele>
        <time>2013-06-09T12:16:51.000Z</time>
      </trkpt>
      <trkpt lat="48.28747" lon="2.65741">
        <ele>84.800003051758</ele>
        <time>2013-06-09T12:16:55.000Z</time>
      </trkpt>
      <trkpt lat="48.28755" lon="2.65756">
        <ele>84.800003051758</ele>
        <time>2013-06-09T12:16:59.000Z</time>
      </trkpt>
      <trkpt lat="48.28762" lon="2.65771">
        <ele>84.400001525879</ele>
        <time>2013-06-09T12:17:03.000Z</time>
      </trkpt>
      <trkpt lat="48.28771" lon="2.65789">
        <ele>84.199996948242</ele>
        <time>2013-06-09T12:17:08.000Z</time>
      </trkpt>
      <trkpt lat="48.28779" lon="2.65807">
        <ele>84</ele>
        <time>2013-06-09T12:17:13.000Z</time>
      </trkpt>
      <trkpt lat="48.28788" lon="2.65824">
        <ele>84</ele>
        <time>2013-06-09T12:17:18.000Z</time>
      </trkpt>
      <trkpt lat="48.28795" lon="2.65845">
        <ele>84</ele>
        <time>2013-06-09T12:17:23.000Z</time>
      </trkpt>
      <trkpt lat="48.28797" lon="2.65855">
        <ele>84</ele>
        <time>2013-06-09T12:17:25.000Z</time>
      </trkpt>
      <trkpt lat="48.28805" lon="2.65873">
        <ele>83.800003051758</ele>
        <time>2013-06-09T12:17:30.000Z</time>
      </trkpt>
      <trkpt lat="48.28818" lon="2.65891">
        <ele>83.800003051758</ele>
        <time>2013-06-09T12:17:36.000Z</time>
      </trkpt>
      <trkpt lat="48.28825" lon="2.6591">
        <ele>84</ele>
        <time>2013-06-09T12:17:41.000Z</time>
      </trkpt>
      <trkpt lat="48.2883" lon="2.65935">
        <ele>84.400001525879</ele>
        <time>2013-06-09T12:17:47.000Z</time>
      </trkpt>
      <trkpt lat="48.28834" lon="2.65952">
        <ele>84.800003051758</ele>
        <time>2013-06-09T12:17:52.000Z</time>
      </trkpt>
      <trkpt lat="48.28834" lon="2.65956">
        <ele>84.800003051758</ele>
        <time>2013-06-09T12:17:55.000Z</time>
      </trkpt>
      <trkpt lat="48.28822" lon="2.6596">
        <ele>85</ele>
        <time>2013-06-09T12:18:00.000Z</time>
      </trkpt>
      <trkpt lat="48.28816" lon="2.65963">
        <ele>85.199996948242</ele>
        <time>2013-06-09T12:18:02.000Z</time>
      </trkpt>
      <trkpt lat="48.28797" lon="2.65972">
        <ele>85.599998474121</ele>
        <time>2013-06-09T12:18:08.000Z</time>
      </trkpt>
      <trkpt lat="48.28782" lon="2.65977">
        <ele>85.599998474121</ele>
        <time>2013-06-09T12:18:13.000Z</time>
      </trkpt>
      <trkpt lat="48.28781" lon="2.65981">
        <ele>85.800003051758</ele>
        <time>2013-06-09T12:18:19.000Z</time>
      </trkpt>
      <trkpt lat="48.28787" lon="2.65976">
        <ele>85.599998474121</ele>
        <time>2013-06-09T12:18:30.000Z</time>
      </trkpt>
      <trkpt lat="48.28789" lon="2.65975">
        <ele>85.599998474121</ele>
        <time>2013-06-09T12:18:32.000Z</time>
      </trkpt>
      <trkpt lat="48.28804" lon="2.65968">
        <ele>85.400001525879</ele>
        <time>2013-06-09T12:18:39.000Z</time>
      </trkpt>
      <trkpt lat="48.28813" lon="2.65965">
        <ele>85.199996948242</ele>
        <time>2013-06-09T12:18:43.000Z</time>
      </trkpt>
      <trkpt lat="48.28824" lon="2.65959">
        <ele>85</ele>
        <time>2013-06-09T12:18:47.000Z</time>
      </trkpt>
      <trkpt lat="48.28835" lon="2.65963">
        <ele>85</ele>
        <time>2013-06-09T12:18:52.000Z</time>
      </trkpt>
      <trkpt lat="48.28844" lon="2.65974">
        <ele>85</ele>
        <time>2013-06-09T12:18:57.000Z</time>
      </trkpt>
      <trkpt lat="48.28852" lon="2.6599">
        <ele>85.400001525879</ele>
        <time>2013-06-09T12:19:01.000Z</time>
      </trkpt>
      <trkpt lat="48.28863" lon="2.66008">
        <ele>85.599998474121</ele>
        <time>2013-06-09T12:19:06.000Z</time>
      </trkpt>
      <trkpt lat="48.28873" lon="2.66029">
        <ele>85.800003051758</ele>
        <time>2013-06-09T12:19:11.000Z</time>
      </trkpt>
      <trkpt lat="48.28882" lon="2.66044">
        <ele>86</ele>
        <time>2013-06-09T12:19:15.000Z</time>
      </trkpt>
      <trkpt lat="48.28891" lon="2.66058">
        <ele>86.199996948242</ele>
        <time>2013-06-09T12:19:19.000Z</time>
      </trkpt>
      <trkpt lat="48.28897" lon="2.66073">
        <ele>86.400001525879</ele>
        <time>2013-06-09T12:19:23.000Z</time>
      </trkpt>
      <trkpt lat="48.28902" lon="2.6609">
        <ele>86.800003051758</ele>
        <time>2013-06-09T12:19:28.000Z</time>
      </trkpt>
      <trkpt lat="48.28904" lon="2.66101">
        <ele>87.199996948242</ele>
        <time>2013-06-09T12:19:31.000Z</time>
      </trkpt>
      <trkpt lat="48.28909" lon="2.66129">
        <ele>87.800003051758</ele>
        <time>2013-06-09T12:19:37.000Z</time>
      </trkpt>
      <trkpt lat="48.28913" lon="2.66148">
        <ele>88.400001525879</ele>
        <time>2013-06-09T12:19:41.000Z</time>
      </trkpt>
      <trkpt lat="48.28918" lon="2.66169">
        <ele>88.800003051758</ele>
        <time>2013-06-09T12:19:46.000Z</time>
      </trkpt>
      <trkpt lat="48.28925" lon="2.6619">
        <ele>89</ele>
        <time>2013-06-09T12:19:51.000Z</time>
      </trkpt>
      <trkpt lat="48.28929" lon="2.66207">
        <ele>89.199996948242</ele>
        <time>2013-06-09T12:19:55.000Z</time>
      </trkpt>
      <trkpt lat="48.28932" lon="2.66228">
        <ele>89.400001525879</ele>
        <time>2013-06-09T12:20:00.000Z</time>
      </trkpt>
      <trkpt lat="48.28934" lon="2.66231">
        <ele>89.400001525879</ele>
        <time>2013-06-09T12:20:01.000Z</time>
      </trkpt>
      <trkpt lat="48.28943" lon="2.66259">
        <ele>89.199996948242</ele>
        <time>2013-06-09T12:20:08.000Z</time>
      </trkpt>
      <trkpt lat="48.28949" lon="2.66279">
        <ele>88.599998474121</ele>
        <time>2013-06-09T12:20:12.000Z</time>
      </trkpt>
      <trkpt lat="48.28954" lon="2.66299">
        <ele>88</ele>
        <time>2013-06-09T12:20:17.000Z</time>
      </trkpt>
      <trkpt lat="48.28956" lon="2.6632">
        <ele>87.400001525879</ele>
        <time>2013-06-09T12:20:22.000Z</time>
      </trkpt>
      <trkpt lat="48.2896" lon="2.66343">
        <ele>86.800003051758</ele>
        <time>2013-06-09T12:20:28.000Z</time>
      </trkpt>
      <trkpt lat="48.28963" lon="2.66364">
        <ele>86.800003051758</ele>
        <time>2013-06-09T12:20:34.000Z</time>
      </trkpt>
      <trkpt lat="48.28968" lon="2.66385">
        <ele>86.800003051758</ele>
        <time>2013-06-09T12:20:41.000Z</time>
      </trkpt>
      <trkpt lat="48.2897" lon="2.66391">
        <ele>86.800003051758</ele>
        <time>2013-06-09T12:20:45.000Z</time>
      </trkpt>
      <trkpt lat="48.28968" lon="2.66404">
        <ele>86.800003051758</ele>
        <time>2013-06-09T12:20:58.000Z</time>
      </trkpt>
      <trkpt lat="48.28968" lon="2.66406">
        <ele>86.800003051758</ele>
        <time>2013-06-09T12:21:15.000Z</time>
      </trkpt>
      <trkpt lat="48.28968" lon="2.66428">
        <ele>86.800003051758</ele>
        <time>2013-06-09T12:21:21.000Z</time>
      </trkpt>
      <trkpt lat="48.28969" lon="2.66451">
        <ele>87</ele>
        <time>2013-06-09T12:21:26.000Z</time>
      </trkpt>
      <trkpt lat="48.28972" lon="2.66466">
        <ele>87.199996948242</ele>
        <time>2013-06-09T12:21:30.000Z</time>
      </trkpt>
      <trkpt lat="48.28973" lon="2.66476">
        <ele>87.199996948242</ele>
        <time>2013-06-09T12:21:34.000Z</time>
      </trkpt>
      <trkpt lat="48.28967" lon="2.6649">
        <ele>87.599998474121</ele>
        <time>2013-06-09T12:21:40.000Z</time>
      </trkpt>
      <trkpt lat="48.2896" lon="2.66513">
        <ele>88</ele>
        <time>2013-06-09T12:21:47.000Z</time>
      </trkpt>
      <trkpt lat="48.28957" lon="2.66522">
        <ele>88.199996948242</ele>
        <time>2013-06-09T12:21:50.000Z</time>
      </trkpt>
      <trkpt lat="48.28951" lon="2.66537">
        <ele>88.400001525879</ele>
        <time>2013-06-09T12:21:55.000Z</time>
      </trkpt>
      <trkpt lat="48.28947" lon="2.66547">
        <ele>88.599998474121</ele>
        <time>2013-06-09T12:21:59.000Z</time>
      </trkpt>
      <trkpt lat="48.28941" lon="2.66566">
        <ele>88.800003051758</ele>
        <time>2013-06-09T12:22:04.000Z</time>
      </trkpt>
      <trkpt lat="48.28935" lon="2.66592">
        <ele>89</ele>
        <time>2013-06-09T12:22:10.000Z</time>
      </trkpt>
      <trkpt lat="48.2893" lon="2.66607">
        <ele>89.400001525879</ele>
        <time>2013-06-09T12:22:14.000Z</time>
      </trkpt>
      <trkpt lat="48.28927" lon="2.66613">
        <ele>89.599998474121</ele>
        <time>2013-06-09T12:22:16.000Z</time>
      </trkpt>
      <trkpt lat="48.28917" lon="2.66628">
        <ele>90</ele>
        <time>2013-06-09T12:22:22.000Z</time>
      </trkpt>
      <trkpt lat="48.28908" lon="2.66641">
        <ele>90.400001525879</ele>
        <time>2013-06-09T12:22:27.000Z</time>
      </trkpt>
      <trkpt lat="48.28892" lon="2.66661">
        <ele>90.800003051758</ele>
        <time>2013-06-09T12:22:33.000Z</time>
      </trkpt>
      <trkpt lat="48.28884" lon="2.66669">
        <ele>91</ele>
        <time>2013-06-09T12:22:37.000Z</time>
      </trkpt>
      <trkpt lat="48.28878" lon="2.66674">
        <ele>91</ele>
        <time>2013-06-09T12:22:42.000Z</time>
      </trkpt>
      <trkpt lat="48.28871" lon="2.66684">
        <ele>91.199996948242</ele>
        <time>2013-06-09T12:22:46.000Z</time>
      </trkpt>
      <trkpt lat="48.2887" lon="2.66687">
        <ele>91.199996948242</ele>
        <time>2013-06-09T12:22:47.000Z</time>
      </trkpt>
      <trkpt lat="48.28856" lon="2.66706">
        <ele>91.400001525879</ele>
        <time>2013-06-09T12:22:54.000Z</time>
      </trkpt>
      <trkpt lat="48.28847" lon="2.66717">
        <ele>91.599998474121</ele>
        <time>2013-06-09T12:22:59.000Z</time>
      </trkpt>
      <trkpt lat="48.28843" lon="2.66728">
        <ele>91.599998474121</ele>
        <time>2013-06-09T12:23:03.000Z</time>
      </trkpt>
      <trkpt lat="48.28835" lon="2.66732">
        <ele>91.599998474121</ele>
        <time>2013-06-09T12:23:07.000Z</time>
      </trkpt>
      <trkpt lat="48.28825" lon="2.66746">
        <ele>91.599998474121</ele>
        <time>2013-06-09T12:23:12.000Z</time>
      </trkpt>
      <trkpt lat="48.28814" lon="2.66771">
        <ele>91.199996948242</ele>
        <time>2013-06-09T12:23:18.000Z</time>
      </trkpt>
      <trkpt lat="48.28806" lon="2.66787">
        <ele>90.599998474121</ele>
        <time>2013-06-09T12:23:22.000Z</time>
      </trkpt>
      <trkpt lat="48.28796" lon="2.66807">
        <ele>90</ele>
        <time>2013-06-09T12:23:27.000Z</time>
      </trkpt>
      <trkpt lat="48.28785" lon="2.6683">
        <ele>89.199996948242</ele>
        <time>2013-06-09T12:23:32.000Z</time>
      </trkpt>
      <trkpt lat="48.28777" lon="2.66848">
        <ele>89.199996948242</ele>
        <time>2013-06-09T12:23:36.000Z</time>
      </trkpt>
      <trkpt lat="48.28768" lon="2.6687">
        <ele>89.400001525879</ele>
        <time>2013-06-09T12:23:41.000Z</time>
      </trkpt>
      <trkpt lat="48.28757" lon="2.66894">
        <ele>89.599998474121</ele>
        <time>2013-06-09T12:23:47.000Z</time>
      </trkpt>
      <trkpt lat="48.28744" lon="2.66925">
        <ele>89.800003051758</ele>
        <time>2013-06-09T12:23:54.000Z</time>
      </trkpt>
      <trkpt lat="48.28734" lon="2.66948">
        <ele>89.599998474121</ele>
        <time>2013-06-09T12:24:00.000Z</time>
      </trkpt>
      <trkpt lat="48.2873" lon="2.66957">
        <ele>89.599998474121</ele>
        <time>2013-06-09T12:24:04.000Z</time>
      </trkpt>
      <trkpt lat="48.28729" lon="2.66961">
        <ele>89.599998474121</ele>
        <time>2013-06-09T12:24:09.000Z</time>
      </trkpt>
      <trkpt lat="48.28726" lon="2.66967">
        <ele>89.400001525879</ele>
        <time>2013-06-09T12:24:13.000Z</time>
      </trkpt>
      <trkpt lat="48.28716" lon="2.66988">
        <ele>89.199996948242</ele>
        <time>2013-06-09T12:24:19.000Z</time>
      </trkpt>
      <trkpt lat="48.28707" lon="2.67002">
        <ele>88.800003051758</ele>
        <time>2013-06-09T12:24:24.000Z</time>
      </trkpt>
      <trkpt lat="48.28701" lon="2.67014">
        <ele>88.800003051758</ele>
        <time>2013-06-09T12:24:28.000Z</time>
      </trkpt>
      <trkpt lat="48.28689" lon="2.67035">
        <ele>88.400001525879</ele>
        <time>2013-06-09T12:24:33.000Z</time>
      </trkpt>
      <trkpt lat="48.28677" lon="2.67059">
        <ele>88.400001525879</ele>
        <time>2013-06-09T12:24:38.000Z</time>
      </trkpt>
      <trkpt lat="48.28666" lon="2.67079">
        <ele>88.800003051758</ele>
        <time>2013-06-09T12:24:43.000Z</time>
      </trkpt>
      <trkpt lat="48.28654" lon="2.671">
        <ele>89.400001525879</ele>
        <time>2013-06-09T12:24:48.000Z</time>
      </trkpt>
      <trkpt lat="48.2864" lon="2.67126">
        <ele>90</ele>
        <time>2013-06-09T12:24:54.000Z</time>
      </trkpt>
      <trkpt lat="48.28627" lon="2.67152">
        <ele>90.599998474121</ele>
        <time>2013-06-09T12:25:00.000Z</time>
      </trkpt>
      <trkpt lat="48.28616" lon="2.67171">
        <ele>91</ele>
        <time>2013-06-09T12:25:05.000Z</time>
      </trkpt>
      <trkpt lat="48.28606" lon="2.67192">
        <ele>91.199996948242</ele>
        <time>2013-06-09T12:25:10.000Z</time>
      </trkpt>
      <trkpt lat="48.28594" lon="2.67213">
        <ele>91.199996948242</ele>
        <time>2013-06-09T12:25:15.000Z</time>
      </trkpt>
      <trkpt lat="48.28585" lon="2.67228">
        <ele>91</ele>
        <time>2013-06-09T12:25:19.000Z</time>
      </trkpt>
      <trkpt lat="48.28572" lon="2.6724">
        <ele>89.800003051758</ele>
        <time>2013-06-09T12:25:23.000Z</time>
      </trkpt>
      <trkpt lat="48.28559" lon="2.67255">
        <ele>88.599998474121</ele>
        <time>2013-06-09T12:25:28.000Z</time>
      </trkpt>
      <trkpt lat="48.28554" lon="2.67261">
        <ele>88.199996948242</ele>
        <time>2013-06-09T12:25:32.000Z</time>
      </trkpt>
      <trkpt lat="48.28553" lon="2.67265">
        <ele>88</ele>
        <time>2013-06-09T12:25:39.000Z</time>
      </trkpt>
      <trkpt lat="48.28552" lon="2.67265">
        <ele>88</ele>
        <time>2013-06-09T12:25:40.000Z</time>
      </trkpt>
      <trkpt lat="48.28543" lon="2.67276">
        <ele>87.199996948242</ele>
        <time>2013-06-09T12:25:45.000Z</time>
      </trkpt>
      <trkpt lat="48.2853" lon="2.67285">
        <ele>86</ele>
        <time>2013-06-09T12:25:50.000Z</time>
      </trkpt>
      <trkpt lat="48.28515" lon="2.67293">
        <ele>84.800003051758</ele>
        <time>2013-06-09T12:25:55.000Z</time>
      </trkpt>
      <trkpt lat="48.28498" lon="2.67301">
        <ele>83.400001525879</ele>
        <time>2013-06-09T12:26:00.000Z</time>
      </trkpt>
      <trkpt lat="48.28483" lon="2.67314">
        <ele>83.199996948242</ele>
        <time>2013-06-09T12:26:05.000Z</time>
      </trkpt>
      <trkpt lat="48.28468" lon="2.67322">
        <ele>82.800003051758</ele>
        <time>2013-06-09T12:26:10.000Z</time>
      </trkpt>
      <trkpt lat="48.28452" lon="2.67331">
        <ele>82.199996948242</ele>
        <time>2013-06-09T12:26:15.000Z</time>
      </trkpt>
      <trkpt lat="48.28437" lon="2.6734">
        <ele>81.599998474121</ele>
        <time>2013-06-09T12:26:20.000Z</time>
      </trkpt>
      <trkpt lat="48.28418" lon="2.67349">
        <ele>81</ele>
        <time>2013-06-09T12:26:27.000Z</time>
      </trkpt>
      <trkpt lat="48.28403" lon="2.67355">
        <ele>80.800003051758</ele>
        <time>2013-06-09T12:26:33.000Z</time>
      </trkpt>
      <trkpt lat="48.28397" lon="2.67359">
        <ele>80.800003051758</ele>
        <time>2013-06-09T12:26:37.000Z</time>
      </trkpt>
      <trkpt lat="48.28394" lon="2.67361">
        <ele>80.800003051758</ele>
        <time>2013-06-09T12:26:44.000Z</time>
      </trkpt>
      <trkpt lat="48.28394" lon="2.67359">
        <ele>80.800003051758</ele>
        <time>2013-06-09T12:26:50.000Z</time>
      </trkpt>
      <trkpt lat="48.28396" lon="2.67358">
        <ele>80.800003051758</ele>
        <time>2013-06-09T12:26:55.000Z</time>
      </trkpt>
      <trkpt lat="48.28396" lon="2.67353">
        <ele>80.800003051758</ele>
        <time>2013-06-09T12:26:59.000Z</time>
      </trkpt>
      <trkpt lat="48.28396" lon="2.67353">
        <ele>80.800003051758</ele>
        <time>2013-06-09T12:27:03.000Z</time>
      </trkpt>
      <trkpt lat="48.28395" lon="2.67352">
        <ele>80.800003051758</ele>
        <time>2013-06-09T12:27:18.000Z</time>
      </trkpt>
      <trkpt lat="48.28394" lon="2.67354">
        <ele>80.800003051758</ele>
        <time>2013-06-09T12:27:22.000Z</time>
      </trkpt>
      <trkpt lat="48.28394" lon="2.67354">
        <ele>80.800003051758</ele>
        <time>2013-06-09T12:27:30.000Z</time>
      </trkpt>
      <trkpt lat="48.28394" lon="2.67354">
        <ele>80.800003051758</ele>
        <time>2013-06-09T12:27:37.000Z</time>
      </trkpt>
      <trkpt lat="48.28394" lon="2.67353">
        <ele>80.800003051758</ele>
        <time>2013-06-09T12:27:47.000Z</time>
      </trkpt>
      <trkpt lat="48.28397" lon="2.67351">
        <ele>80.800003051758</ele>
        <time>2013-06-09T12:28:04.000Z</time>
      </trkpt>
      <trkpt lat="48.28397" lon="2.67351">
        <ele>80.800003051758</ele>
        <time>2013-06-09T12:28:19.000Z</time>
      </trkpt>
      <trkpt lat="48.28396" lon="2.67352">
        <ele>80.800003051758</ele>
        <time>2013-06-09T12:28:34.000Z</time>
      </trkpt>
      <trkpt lat="48.28396" lon="2.67352">
        <ele>80.800003051758</ele>
        <time>2013-06-09T12:28:43.000Z</time>
      </trkpt>
      <trkpt lat="48.28396" lon="2.67352">
        <ele>80.800003051758</ele>
        <time>2013-06-09T12:28:57.000Z</time>
      </trkpt>
      <trkpt lat="48.28396" lon="2.67352">
        <ele>80.800003051758</ele>
        <time>2013-06-09T12:29:05.000Z</time>
      </trkpt>
      <trkpt lat="48.28396" lon="2.67353">
        <ele>80.800003051758</ele>
        <time>2013-06-09T12:29:11.000Z</time>
      </trkpt>
      <trkpt lat="48.28396" lon="2.67354">
        <ele>80.800003051758</ele>
        <time>2013-06-09T12:29:16.000Z</time>
      </trkpt>
      <trkpt lat="48.28397" lon="2.67356">
        <ele>80.800003051758</ele>
        <time>2013-06-09T12:29:21.000Z</time>
      </trkpt>
      <trkpt lat="48.28393" lon="2.67361">
        <ele>80.800003051758</ele>
        <time>2013-06-09T12:29:29.000Z</time>
      </trkpt>
      <trkpt lat="48.28382" lon="2.6737">
        <ele>80.599998474121</ele>
        <time>2013-06-09T12:29:38.000Z</time>
      </trkpt>
      <trkpt lat="48.28374" lon="2.67376">
        <ele>80.400001525879</ele>
        <time>2013-06-09T12:29:47.000Z</time>
      </trkpt>
      <trkpt lat="48.28373" lon="2.67376">
        <ele>80.400001525879</ele>
        <time>2013-06-09T12:29:55.000Z</time>
      </trkpt>
      <trkpt lat="48.28373" lon="2.67376">
        <ele>80.400001525879</ele>
        <time>2013-06-09T12:30:26.000Z</time>
      </trkpt>
      <trkpt lat="48.28372" lon="2.67377">
        <ele>80.400001525879</ele>
        <time>2013-06-09T12:30:34.000Z</time>
      </trkpt>
      <trkpt lat="48.28372" lon="2.67377">
        <ele>80.400001525879</ele>
        <time>2013-06-09T12:30:42.000Z</time>
      </trkpt>
      <trkpt lat="48.28371" lon="2.67377">
        <ele>80.400001525879</ele>
        <time>2013-06-09T12:30:43.000Z</time>
      </trkpt>
      <trkpt lat="48.28366" lon="2.67376">
        <ele>80.199996948242</ele>
        <time>2013-06-09T12:30:46.000Z</time>
      </trkpt>
      <trkpt lat="48.28356" lon="2.67375">
        <ele>80.199996948242</ele>
        <time>2013-06-09T12:30:50.000Z</time>
      </trkpt>
      <trkpt lat="48.28338" lon="2.67382">
        <ele>79.800003051758</ele>
        <time>2013-06-09T12:30:56.000Z</time>
      </trkpt>
      <trkpt lat="48.28316" lon="2.67389">
        <ele>79.800003051758</ele>
        <time>2013-06-09T12:31:03.000Z</time>
      </trkpt>
      <trkpt lat="48.28294" lon="2.67393">
        <ele>80</ele>
        <time>2013-06-09T12:31:09.000Z</time>
      </trkpt>
      <trkpt lat="48.28266" lon="2.67391">
        <ele>80.400001525879</ele>
        <time>2013-06-09T12:31:16.000Z</time>
      </trkpt>
      <trkpt lat="48.2823" lon="2.67387">
        <ele>80.400001525879</ele>
        <time>2013-06-09T12:31:23.000Z</time>
      </trkpt>
      <trkpt lat="48.28193" lon="2.67378">
        <ele>80.199996948242</ele>
        <time>2013-06-09T12:31:30.000Z</time>
      </trkpt>
      <trkpt lat="48.28184" lon="2.67372">
        <ele>80.199996948242</ele>
        <time>2013-06-09T12:31:32.000Z</time>
      </trkpt>
      <trkpt lat="48.28184" lon="2.67372">
        <ele>80.199996948242</ele>
        <time>2013-06-09T12:31:32.000Z</time>
      </trkpt>
      <trkpt lat="48.28181" lon="2.67368">
        <ele>80</ele>
        <time>2013-06-09T12:31:33.000Z</time>
      </trkpt>
      <trkpt lat="48.28175" lon="2.67348">
        <ele>80</ele>
        <time>2013-06-09T12:31:37.000Z</time>
      </trkpt>
      <trkpt lat="48.2817" lon="2.67307">
        <ele>80.599998474121</ele>
        <time>2013-06-09T12:31:44.000Z</time>
      </trkpt>
      <trkpt lat="48.28162" lon="2.6727">
        <ele>81.400001525879</ele>
        <time>2013-06-09T12:31:50.000Z</time>
      </trkpt>
      <trkpt lat="48.28161" lon="2.67263">
        <ele>81.599998474121</ele>
        <time>2013-06-09T12:31:51.000Z</time>
      </trkpt>
      <trkpt lat="48.28152" lon="2.6719">
        <ele>82.800003051758</ele>
        <time>2013-06-09T12:32:01.000Z</time>
      </trkpt>
      <trkpt lat="48.2815" lon="2.67177">
        <ele>83</ele>
        <time>2013-06-09T12:32:03.000Z</time>
      </trkpt>
      <trkpt lat="48.28145" lon="2.67123">
        <ele>83.599998474121</ele>
        <time>2013-06-09T12:32:11.000Z</time>
      </trkpt>
      <trkpt lat="48.28135" lon="2.67065">
        <ele>83.599998474121</ele>
        <time>2013-06-09T12:32:19.000Z</time>
      </trkpt>
      <trkpt lat="48.28129" lon="2.6702">
        <ele>82</ele>
        <time>2013-06-09T12:32:26.000Z</time>
      </trkpt>
      <trkpt lat="48.28122" lon="2.66979">
        <ele>81.199996948242</ele>
        <time>2013-06-09T12:32:33.000Z</time>
      </trkpt>
      <trkpt lat="48.28114" lon="2.66916">
        <ele>80.599998474121</ele>
        <time>2013-06-09T12:32:42.000Z</time>
      </trkpt>
      <trkpt lat="48.28104" lon="2.66851">
        <ele>81.800003051758</ele>
        <time>2013-06-09T12:32:51.000Z</time>
      </trkpt>
      <trkpt lat="48.28093" lon="2.66791">
        <ele>81</ele>
        <time>2013-06-09T12:33:00.000Z</time>
      </trkpt>
      <trkpt lat="48.28091" lon="2.66776">
        <ele>80.599998474121</ele>
        <time>2013-06-09T12:33:02.000Z</time>
      </trkpt>
      <trkpt lat="48.28081" lon="2.66721">
        <ele>80</ele>
        <time>2013-06-09T12:33:09.000Z</time>
      </trkpt>
      <trkpt lat="48.28069" lon="2.66666">
        <ele>80.199996948242</ele>
        <time>2013-06-09T12:33:16.000Z</time>
      </trkpt>
      <trkpt lat="48.28064" lon="2.66651">
        <ele>80.400001525879</ele>
        <time>2013-06-09T12:33:18.000Z</time>
      </trkpt>
      <trkpt lat="48.28049" lon="2.66604">
        <ele>81.400001525879</ele>
        <time>2013-06-09T12:33:24.000Z</time>
      </trkpt>
      <trkpt lat="48.28037" lon="2.66569">
        <ele>82.400001525879</ele>
        <time>2013-06-09T12:33:29.000Z</time>
      </trkpt>
      <trkpt lat="48.28034" lon="2.66564">
        <ele>82.599998474121</ele>
        <time>2013-06-09T12:33:32.000Z</time>
      </trkpt>
      <trkpt lat="48.28034" lon="2.66564">
        <ele>82.599998474121</ele>
        <time>2013-06-09T12:33:32.000Z</time>
      </trkpt>
      <trkpt lat="48.28031" lon="2.66563">
        <ele>82.800003051758</ele>
        <time>2013-06-09T12:33:34.000Z</time>
      </trkpt>
      <trkpt lat="48.28018" lon="2.66561">
        <ele>83.400001525879</ele>
        <time>2013-06-09T12:33:39.000Z</time>
      </trkpt>
      <trkpt lat="48.28008" lon="2.66556">
        <ele>83.800003051758</ele>
        <time>2013-06-09T12:33:44.000Z</time>
      </trkpt>
      <trkpt lat="48.28003" lon="2.6655">
        <ele>84.199996948242</ele>
        <time>2013-06-09T12:34:03.000Z</time>
      </trkpt>
      <trkpt lat="48.27996" lon="2.6655">
        <ele>84.400001525879</ele>
        <time>2013-06-09T12:34:07.000Z</time>
      </trkpt>
      <trkpt lat="48.27985" lon="2.66548">
        <ele>84.599998474121</ele>
        <time>2013-06-09T12:34:12.000Z</time>
      </trkpt>
      <trkpt lat="48.27976" lon="2.66545">
        <ele>84.800003051758</ele>
        <time>2013-06-09T12:34:16.000Z</time>
      </trkpt>
      <trkpt lat="48.27968" lon="2.66547">
        <ele>85</ele>
        <time>2013-06-09T12:34:18.000Z</time>
      </trkpt>
      <trkpt lat="48.27952" lon="2.66546">
        <ele>85.199996948242</ele>
        <time>2013-06-09T12:34:23.000Z</time>
      </trkpt>
      <trkpt lat="48.27941" lon="2.66554">
        <ele>85.400001525879</ele>
        <time>2013-06-09T12:34:27.000Z</time>
      </trkpt>
      <trkpt lat="48.27936" lon="2.66559">
        <ele>85.599998474121</ele>
        <time>2013-06-09T12:34:29.000Z</time>
      </trkpt>
      <trkpt lat="48.27918" lon="2.66568">
        <ele>85.800003051758</ele>
        <time>2013-06-09T12:34:34.000Z</time>
      </trkpt>
      <trkpt lat="48.27905" lon="2.66576">
        <ele>86</ele>
        <time>2013-06-09T12:34:38.000Z</time>
      </trkpt>
      <trkpt lat="48.27892" lon="2.66588">
        <ele>85.800003051758</ele>
        <time>2013-06-09T12:34:42.000Z</time>
      </trkpt>
      <trkpt lat="48.27881" lon="2.66595">
        <ele>85.599998474121</ele>
        <time>2013-06-09T12:34:45.000Z</time>
      </trkpt>
      <trkpt lat="48.27862" lon="2.66589">
        <ele>85.800003051758</ele>
        <time>2013-06-09T12:34:50.000Z</time>
      </trkpt>
      <trkpt lat="48.27857" lon="2.66589">
        <ele>85.800003051758</ele>
        <time>2013-06-09T12:34:52.000Z</time>
      </trkpt>
      <trkpt lat="48.27842" lon="2.66599">
        <ele>85.599998474121</ele>
        <time>2013-06-09T12:34:57.000Z</time>
      </trkpt>
      <trkpt lat="48.27826" lon="2.6661">
        <ele>85.800003051758</ele>
        <time>2013-06-09T12:35:02.000Z</time>
      </trkpt>
      <trkpt lat="48.27819" lon="2.66614">
        <ele>86</ele>
        <time>2013-06-09T12:35:06.000Z</time>
      </trkpt>
      <trkpt lat="48.27808" lon="2.66627">
        <ele>86.199996948242</ele>
        <time>2013-06-09T12:35:10.000Z</time>
      </trkpt>
      <trkpt lat="48.27798" lon="2.66648">
        <ele>86.400001525879</ele>
        <time>2013-06-09T12:35:15.000Z</time>
      </trkpt>
      <trkpt lat="48.27792" lon="2.66655">
        <ele>86.400001525879</ele>
        <time>2013-06-09T12:35:17.000Z</time>
      </trkpt>
      <trkpt lat="48.27771" lon="2.66672">
        <ele>86.800003051758</ele>
        <time>2013-06-09T12:35:23.000Z</time>
      </trkpt>
      <trkpt lat="48.27752" lon="2.66676">
        <ele>87.199996948242</ele>
        <time>2013-06-09T12:35:28.000Z</time>
      </trkpt>
      <trkpt lat="48.27748" lon="2.66676">
        <ele>87.199996948242</ele>
        <time>2013-06-09T12:35:29.000Z</time>
      </trkpt>
      <trkpt lat="48.27739" lon="2.66676">
        <ele>87</ele>
        <time>2013-06-09T12:35:31.000Z</time>
      </trkpt>
      <trkpt lat="48.27717" lon="2.66684">
        <ele>86.199996948242</ele>
        <time>2013-06-09T12:35:37.000Z</time>
      </trkpt>
      <trkpt lat="48.27711" lon="2.66681">
        <ele>86.199996948242</ele>
        <time>2013-06-09T12:35:40.000Z</time>
      </trkpt>
      <trkpt lat="48.27711" lon="2.66681">
        <ele>86.199996948242</ele>
        <time>2013-06-09T12:35:40.000Z</time>
      </trkpt>
      <trkpt lat="48.27711" lon="2.66676">
        <ele>86.400001525879</ele>
        <time>2013-06-09T12:35:42.000Z</time>
      </trkpt>
      <trkpt lat="48.2771" lon="2.66676">
        <ele>86.400001525879</ele>
        <time>2013-06-09T12:35:47.000Z</time>
      </trkpt>
      <trkpt lat="48.27708" lon="2.66661">
        <ele>87</ele>
        <time>2013-06-09T12:35:56.000Z</time>
      </trkpt>
      <trkpt lat="48.27699" lon="2.66631">
        <ele>87</ele>
        <time>2013-06-09T12:36:02.000Z</time>
      </trkpt>
      <trkpt lat="48.27696" lon="2.66611">
        <ele>87</ele>
        <time>2013-06-09T12:36:06.000Z</time>
      </trkpt>
      <trkpt lat="48.27688" lon="2.66593">
        <ele>87</ele>
        <time>2013-06-09T12:36:09.000Z</time>
      </trkpt>
      <trkpt lat="48.27678" lon="2.66566">
        <ele>87.400001525879</ele>
        <time>2013-06-09T12:36:13.000Z</time>
      </trkpt>
      <trkpt lat="48.27671" lon="2.66544">
        <ele>87.800003051758</ele>
        <time>2013-06-09T12:36:17.000Z</time>
      </trkpt>
      <trkpt lat="48.27663" lon="2.66506">
        <ele>88.599998474121</ele>
        <time>2013-06-09T12:36:24.000Z</time>
      </trkpt>
      <trkpt lat="48.27654" lon="2.66479">
        <ele>88.199996948242</ele>
        <time>2013-06-09T12:36:29.000Z</time>
      </trkpt>
      <trkpt lat="48.27646" lon="2.66468">
        <ele>88</ele>
        <time>2013-06-09T12:36:32.000Z</time>
      </trkpt>
      <trkpt lat="48.27643" lon="2.66466">
        <ele>87.800003051758</ele>
        <time>2013-06-09T12:36:33.000Z</time>
      </trkpt>
      <trkpt lat="48.27643" lon="2.66466">
        <ele>87.800003051758</ele>
        <time>2013-06-09T12:36:33.000Z</time>
      </trkpt>
      <trkpt lat="48.2764" lon="2.66463">
        <ele>87.800003051758</ele>
        <time>2013-06-09T12:36:34.000Z</time>
      </trkpt>
      <trkpt lat="48.27638" lon="2.66434">
        <ele>88</ele>
        <time>2013-06-09T12:36:40.000Z</time>
      </trkpt>
      <trkpt lat="48.27636" lon="2.66425">
        <ele>88</ele>
        <time>2013-06-09T12:36:42.000Z</time>
      </trkpt>
      <trkpt lat="48.27628" lon="2.66385">
        <ele>87.800003051758</ele>
        <time>2013-06-09T12:36:49.000Z</time>
      </trkpt>
      <trkpt lat="48.27623" lon="2.66363">
        <ele>87.599998474121</ele>
        <time>2013-06-09T12:36:53.000Z</time>
      </trkpt>
      <trkpt lat="48.27619" lon="2.66339">
        <ele>87.400001525879</ele>
        <time>2013-06-09T12:36:57.000Z</time>
      </trkpt>
      <trkpt lat="48.2762" lon="2.66311">
        <ele>87.199996948242</ele>
        <time>2013-06-09T12:37:01.000Z</time>
      </trkpt>
      <trkpt lat="48.27618" lon="2.663">
        <ele>87</ele>
        <time>2013-06-09T12:37:03.000Z</time>
      </trkpt>
      <trkpt lat="48.27619" lon="2.66284">
        <ele>86.800003051758</ele>
        <time>2013-06-09T12:37:06.000Z</time>
      </trkpt>
      <trkpt lat="48.27619" lon="2.6627">
        <ele>86.599998474121</ele>
        <time>2013-06-09T12:37:08.000Z</time>
      </trkpt>
      <trkpt lat="48.27615" lon="2.66246">
        <ele>86.400001525879</ele>
        <time>2013-06-09T12:37:12.000Z</time>
      </trkpt>
      <trkpt lat="48.27618" lon="2.66212">
        <ele>86.599998474121</ele>
        <time>2013-06-09T12:37:18.000Z</time>
      </trkpt>
      <trkpt lat="48.27626" lon="2.66193">
        <ele>86.800003051758</ele>
        <time>2013-06-09T12:37:22.000Z</time>
      </trkpt>
      <trkpt lat="48.27627" lon="2.66187">
        <ele>86.800003051758</ele>
        <time>2013-06-09T12:37:23.000Z</time>
      </trkpt>
      <trkpt lat="48.27632" lon="2.66151">
        <ele>87.199996948242</ele>
        <time>2013-06-09T12:37:29.000Z</time>
      </trkpt>
      <trkpt lat="48.2764" lon="2.66125">
        <ele>87.800003051758</ele>
        <time>2013-06-09T12:37:34.000Z</time>
      </trkpt>
      <trkpt lat="48.2765" lon="2.66091">
        <ele>88</ele>
        <time>2013-06-09T12:37:38.000Z</time>
      </trkpt>
      <trkpt lat="48.27645" lon="2.66065">
        <ele>88</ele>
        <time>2013-06-09T12:37:42.000Z</time>
      </trkpt>
      <trkpt lat="48.27645" lon="2.6605">
        <ele>87.800003051758</ele>
        <time>2013-06-09T12:37:45.000Z</time>
      </trkpt>
      <trkpt lat="48.27642" lon="2.66033">
        <ele>87.599998474121</ele>
        <time>2013-06-09T12:37:50.000Z</time>
      </trkpt>
      <trkpt lat="48.27638" lon="2.66031">
        <ele>87.599998474121</ele>
        <time>2013-06-09T12:37:52.000Z</time>
      </trkpt>
      <trkpt lat="48.27633" lon="2.66022">
        <ele>87.599998474121</ele>
        <time>2013-06-09T12:37:58.000Z</time>
      </trkpt>
      <trkpt lat="48.27632" lon="2.66014">
        <ele>87.400001525879</ele>
        <time>2013-06-09T12:38:01.000Z</time>
      </trkpt>
      <trkpt lat="48.2763" lon="2.65997">
        <ele>87.199996948242</ele>
        <time>2013-06-09T12:38:06.000Z</time>
      </trkpt>
      <trkpt lat="48.27625" lon="2.65968">
        <ele>87</ele>
        <time>2013-06-09T12:38:13.000Z</time>
      </trkpt>
      <trkpt lat="48.2762" lon="2.65942">
        <ele>86.800003051758</ele>
        <time>2013-06-09T12:38:19.000Z</time>
      </trkpt>
      <trkpt lat="48.27621" lon="2.65923">
        <ele>86.599998474121</ele>
        <time>2013-06-09T12:38:24.000Z</time>
      </trkpt>
      <trkpt lat="48.27622" lon="2.65918">
        <ele>86.400001525879</ele>
        <time>2013-06-09T12:38:25.000Z</time>
      </trkpt>
      <trkpt lat="48.27622" lon="2.65918">
        <ele>86.400001525879</ele>
        <time>2013-06-09T12:38:25.000Z</time>
      </trkpt>
      <trkpt lat="48.27625" lon="2.65896">
        <ele>86.199996948242</ele>
        <time>2013-06-09T12:38:30.000Z</time>
      </trkpt>
      <trkpt lat="48.27623" lon="2.65878">
        <ele>86.199996948242</ele>
        <time>2013-06-09T12:38:34.000Z</time>
      </trkpt>
      <trkpt lat="48.27627" lon="2.6586">
        <ele>86</ele>
        <time>2013-06-09T12:38:38.000Z</time>
      </trkpt>
      <trkpt lat="48.27631" lon="2.65836">
        <ele>85.599998474121</ele>
        <time>2013-06-09T12:38:42.000Z</time>
      </trkpt>
      <trkpt lat="48.27625" lon="2.65805">
        <ele>85.199996948242</ele>
        <time>2013-06-09T12:38:47.000Z</time>
      </trkpt>
      <trkpt lat="48.27623" lon="2.65797">
        <ele>85.199996948242</ele>
        <time>2013-06-09T12:38:48.000Z</time>
      </trkpt>
      <trkpt lat="48.27623" lon="2.65797">
        <ele>85.199996948242</ele>
        <time>2013-06-09T12:38:48.000Z</time>
      </trkpt>
      <trkpt lat="48.27614" lon="2.65774">
        <ele>85</ele>
        <time>2013-06-09T12:38:52.000Z</time>
      </trkpt>
      <trkpt lat="48.276" lon="2.65747">
        <ele>85</ele>
        <time>2013-06-09T12:38:57.000Z</time>
      </trkpt>
      <trkpt lat="48.27581" lon="2.65716">
        <ele>84.800003051758</ele>
        <time>2013-06-09T12:39:03.000Z</time>
      </trkpt>
      <trkpt lat="48.27578" lon="2.65712">
        <ele>84.599998474121</ele>
        <time>2013-06-09T12:39:04.000Z</time>
      </trkpt>
      <trkpt lat="48.27572" lon="2.65703">
        <ele>84.400001525879</ele>
        <time>2013-06-09T12:39:06.000Z</time>
      </trkpt>
      <trkpt lat="48.27566" lon="2.65692">
        <ele>84.199996948242</ele>
        <time>2013-06-09T12:39:08.000Z</time>
      </trkpt>
      <trkpt lat="48.2756" lon="2.65687">
        <ele>84.199996948242</ele>
        <time>2013-06-09T12:39:10.000Z</time>
      </trkpt>
      <trkpt lat="48.27536" lon="2.65678">
        <ele>84.400001525879</ele>
        <time>2013-06-09T12:39:15.000Z</time>
      </trkpt>
      <trkpt lat="48.27521" lon="2.65666">
        <ele>84.400001525879</ele>
        <time>2013-06-09T12:39:18.000Z</time>
      </trkpt>
      <trkpt lat="48.27493" lon="2.65655">
        <ele>84.400001525879</ele>
        <time>2013-06-09T12:39:22.000Z</time>
      </trkpt>
      <trkpt lat="48.27444" lon="2.65632">
        <ele>83.800003051758</ele>
        <time>2013-06-09T12:39:28.000Z</time>
      </trkpt>
      <trkpt lat="48.274" lon="2.65609">
        <ele>83.199996948242</ele>
        <time>2013-06-09T12:39:34.000Z</time>
      </trkpt>
      <trkpt lat="48.27373" lon="2.65596">
        <ele>82.599998474121</ele>
        <time>2013-06-09T12:39:38.000Z</time>
      </trkpt>
      <trkpt lat="48.27359" lon="2.65588">
        <ele>82.199996948242</ele>
        <time>2013-06-09T12:39:40.000Z</time>
      </trkpt>
      <trkpt lat="48.27351" lon="2.65598">
        <ele>82.199996948242</ele>
        <time>2013-06-09T12:39:44.000Z</time>
      </trkpt>
      <trkpt lat="48.27352" lon="2.65602">
        <ele>82.199996948242</ele>
        <time>2013-06-09T12:39:45.000Z</time>
      </trkpt>
      <trkpt lat="48.27356" lon="2.65616">
        <ele>82.400001525879</ele>
        <time>2013-06-09T12:39:48.000Z</time>
      </trkpt>
      <trkpt lat="48.27358" lon="2.65631">
        <ele>82.599998474121</ele>
        <time>2013-06-09T12:39:51.000Z</time>
      </trkpt>
      <trkpt lat="48.2736" lon="2.65658">
        <ele>82.800003051758</ele>
        <time>2013-06-09T12:39:56.000Z</time>
      </trkpt>
      <trkpt lat="48.27367" lon="2.65677">
        <ele>83</ele>
        <time>2013-06-09T12:40:00.000Z</time>
      </trkpt>
      <trkpt lat="48.27375" lon="2.65705">
        <ele>83.400001525879</ele>
        <time>2013-06-09T12:40:06.000Z</time>
      </trkpt>
      <trkpt lat="48.27382" lon="2.6573">
        <ele>83.800003051758</ele>
        <time>2013-06-09T12:40:10.000Z</time>
      </trkpt>
      <trkpt lat="48.27388" lon="2.65752">
        <ele>84.199996948242</ele>
        <time>2013-06-09T12:40:14.000Z</time>
      </trkpt>
      <trkpt lat="48.27389" lon="2.65759">
        <ele>84.400001525879</ele>
        <time>2013-06-09T12:40:15.000Z</time>
      </trkpt>
      <trkpt lat="48.27392" lon="2.65786">
        <ele>84.800003051758</ele>
        <time>2013-06-09T12:40:21.000Z</time>
      </trkpt>
      <trkpt lat="48.2739" lon="2.65805">
        <ele>84.800003051758</ele>
        <time>2013-06-09T12:40:27.000Z</time>
      </trkpt>
      <trkpt lat="48.27388" lon="2.65822">
        <ele>84.800003051758</ele>
        <time>2013-06-09T12:40:31.000Z</time>
      </trkpt>
      <trkpt lat="48.27384" lon="2.65843">
        <ele>84.599998474121</ele>
        <time>2013-06-09T12:40:36.000Z</time>
      </trkpt>
      <trkpt lat="48.27379" lon="2.65861">
        <ele>84.400001525879</ele>
        <time>2013-06-09T12:40:40.000Z</time>
      </trkpt>
      <trkpt lat="48.27377" lon="2.65886">
        <ele>84.599998474121</ele>
        <time>2013-06-09T12:40:44.000Z</time>
      </trkpt>
      <trkpt lat="48.2738" lon="2.65911">
        <ele>85</ele>
        <time>2013-06-09T12:40:48.000Z</time>
      </trkpt>
      <trkpt lat="48.27381" lon="2.65933">
        <ele>84.800003051758</ele>
        <time>2013-06-09T12:40:52.000Z</time>
      </trkpt>
      <trkpt lat="48.27382" lon="2.65948">
        <ele>84.800003051758</ele>
        <time>2013-06-09T12:40:54.000Z</time>
      </trkpt>
      <trkpt lat="48.27384" lon="2.65977">
        <ele>84.599998474121</ele>
        <time>2013-06-09T12:41:00.000Z</time>
      </trkpt>
      <trkpt lat="48.27387" lon="2.65998">
        <ele>84.199996948242</ele>
        <time>2013-06-09T12:41:04.000Z</time>
      </trkpt>
      <trkpt lat="48.27393" lon="2.6602">
        <ele>83.800003051758</ele>
        <time>2013-06-09T12:41:08.000Z</time>
      </trkpt>
      <trkpt lat="48.27397" lon="2.6604">
        <ele>83.199996948242</ele>
        <time>2013-06-09T12:41:11.000Z</time>
      </trkpt>
      <trkpt lat="48.27404" lon="2.66085">
        <ele>82.199996948242</ele>
        <time>2013-06-09T12:41:16.000Z</time>
      </trkpt>
      <trkpt lat="48.27405" lon="2.66095">
        <ele>82.199996948242</ele>
        <time>2013-06-09T12:41:17.000Z</time>
      </trkpt>
      <trkpt lat="48.27411" lon="2.6613">
        <ele>82.599998474121</ele>
        <time>2013-06-09T12:41:21.000Z</time>
      </trkpt>
      <trkpt lat="48.27413" lon="2.66176">
        <ele>83</ele>
        <time>2013-06-09T12:41:27.000Z</time>
      </trkpt>
      <trkpt lat="48.27414" lon="2.66183">
        <ele>83</ele>
        <time>2013-06-09T12:41:28.000Z</time>
      </trkpt>
      <trkpt lat="48.27415" lon="2.66209">
        <ele>83</ele>
        <time>2013-06-09T12:41:32.000Z</time>
      </trkpt>
      <trkpt lat="48.27413" lon="2.66239">
        <ele>83</ele>
        <time>2013-06-09T12:41:36.000Z</time>
      </trkpt>
      <trkpt lat="48.27416" lon="2.66274">
        <ele>83.400001525879</ele>
        <time>2013-06-09T12:41:40.000Z</time>
      </trkpt>
      <trkpt lat="48.27416" lon="2.66295">
        <ele>84</ele>
        <time>2013-06-09T12:41:44.000Z</time>
      </trkpt>
      <trkpt lat="48.27416" lon="2.66326">
        <ele>84.800003051758</ele>
        <time>2013-06-09T12:41:49.000Z</time>
      </trkpt>
      <trkpt lat="48.27416" lon="2.66359">
        <ele>85.800003051758</ele>
        <time>2013-06-09T12:41:55.000Z</time>
      </trkpt>
      <trkpt lat="48.27419" lon="2.66383">
        <ele>86.599998474121</ele>
        <time>2013-06-09T12:41:59.000Z</time>
      </trkpt>
      <trkpt lat="48.27424" lon="2.66409">
        <ele>87.599998474121</ele>
        <time>2013-06-09T12:42:03.000Z</time>
      </trkpt>
      <trkpt lat="48.27429" lon="2.66429">
        <ele>88</ele>
        <time>2013-06-09T12:42:06.000Z</time>
      </trkpt>
      <trkpt lat="48.27435" lon="2.66456">
        <ele>88.199996948242</ele>
        <time>2013-06-09T12:42:10.000Z</time>
      </trkpt>
      <trkpt lat="48.27439" lon="2.66474">
        <ele>88.400001525879</ele>
        <time>2013-06-09T12:42:13.000Z</time>
      </trkpt>
      <trkpt lat="48.27442" lon="2.665">
        <ele>88.599998474121</ele>
        <time>2013-06-09T12:42:17.000Z</time>
      </trkpt>
      <trkpt lat="48.27443" lon="2.66533">
        <ele>87.800003051758</ele>
        <time>2013-06-09T12:42:23.000Z</time>
      </trkpt>
      <trkpt lat="48.27443" lon="2.66559">
        <ele>87.199996948242</ele>
        <time>2013-06-09T12:42:27.000Z</time>
      </trkpt>
      <trkpt lat="48.27443" lon="2.66586">
        <ele>86.599998474121</ele>
        <time>2013-06-09T12:42:31.000Z</time>
      </trkpt>
      <trkpt lat="48.27443" lon="2.6659">
        <ele>86.599998474121</ele>
        <time>2013-06-09T12:42:35.000Z</time>
      </trkpt>
      <trkpt lat="48.27443" lon="2.6659">
        <ele>86.599998474121</ele>
        <time>2013-06-09T12:42:35.000Z</time>
      </trkpt>
      <trkpt lat="48.27442" lon="2.66591">
        <ele>86.599998474121</ele>
        <time>2013-06-09T12:42:36.000Z</time>
      </trkpt>
      <trkpt lat="48.27443" lon="2.66601">
        <ele>86.599998474121</ele>
        <time>2013-06-09T12:42:57.000Z</time>
      </trkpt>
      <trkpt lat="48.27442" lon="2.66601">
        <ele>86.599998474121</ele>
        <time>2013-06-09T12:42:58.000Z</time>
      </trkpt>
      <trkpt lat="48.27429" lon="2.6661">
        <ele>87</ele>
        <time>2013-06-09T12:43:03.000Z</time>
      </trkpt>
      <trkpt lat="48.27425" lon="2.6661">
        <ele>87.199996948242</ele>
        <time>2013-06-09T12:43:04.000Z</time>
      </trkpt>
      <trkpt lat="48.27398" lon="2.66613">
        <ele>87.199996948242</ele>
        <time>2013-06-09T12:43:10.000Z</time>
      </trkpt>
      <trkpt lat="48.27387" lon="2.66622">
        <ele>86.800003051758</ele>
        <time>2013-06-09T12:43:13.000Z</time>
      </trkpt>
      <trkpt lat="48.27366" lon="2.66638">
        <ele>86.400001525879</ele>
        <time>2013-06-09T12:43:18.000Z</time>
      </trkpt>
      <trkpt lat="48.27358" lon="2.66645">
        <ele>86.199996948242</ele>
        <time>2013-06-09T12:43:20.000Z</time>
      </trkpt>
      <trkpt lat="48.27345" lon="2.66654">
        <ele>86</ele>
        <time>2013-06-09T12:43:24.000Z</time>
      </trkpt>
      <trkpt lat="48.27328" lon="2.66657">
        <ele>85.599998474121</ele>
        <time>2013-06-09T12:43:28.000Z</time>
      </trkpt>
      <trkpt lat="48.27309" lon="2.66666">
        <ele>85</ele>
        <time>2013-06-09T12:43:34.000Z</time>
      </trkpt>
      <trkpt lat="48.27302" lon="2.66682">
        <ele>84.800003051758</ele>
        <time>2013-06-09T12:43:38.000Z</time>
      </trkpt>
      <trkpt lat="48.27302" lon="2.66686">
        <ele>85</ele>
        <time>2013-06-09T12:43:39.000Z</time>
      </trkpt>
      <trkpt lat="48.27301" lon="2.66732">
        <ele>85.199996948242</ele>
        <time>2013-06-09T12:43:47.000Z</time>
      </trkpt>
      <trkpt lat="48.27304" lon="2.66745">
        <ele>85.400001525879</ele>
        <time>2013-06-09T12:43:49.000Z</time>
      </trkpt>
      <trkpt lat="48.27313" lon="2.66784">
        <ele>85</ele>
        <time>2013-06-09T12:43:54.000Z</time>
      </trkpt>
      <trkpt lat="48.27315" lon="2.66812">
        <ele>84.400001525879</ele>
        <time>2013-06-09T12:43:59.000Z</time>
      </trkpt>
      <trkpt lat="48.27313" lon="2.66831">
        <ele>83.800003051758</ele>
        <time>2013-06-09T12:44:04.000Z</time>
      </trkpt>
      <trkpt lat="48.27315" lon="2.66858">
        <ele>83.599998474121</ele>
        <time>2013-06-09T12:44:09.000Z</time>
      </trkpt>
      <trkpt lat="48.27317" lon="2.6688">
        <ele>83.400001525879</ele>
        <time>2013-06-09T12:44:13.000Z</time>
      </trkpt>
      <trkpt lat="48.27318" lon="2.66901">
        <ele>83.199996948242</ele>
        <time>2013-06-09T12:44:16.000Z</time>
      </trkpt>
      <trkpt lat="48.27323" lon="2.66922">
        <ele>83.400001525879</ele>
        <time>2013-06-09T12:44:19.000Z</time>
      </trkpt>
      <trkpt lat="48.27326" lon="2.66956">
        <ele>84</ele>
        <time>2013-06-09T12:44:24.000Z</time>
      </trkpt>
      <trkpt lat="48.27327" lon="2.66977">
        <ele>84.400001525879</ele>
        <time>2013-06-09T12:44:28.000Z</time>
      </trkpt>
      <trkpt lat="48.27323" lon="2.66991">
        <ele>84.400001525879</ele>
        <time>2013-06-09T12:44:34.000Z</time>
      </trkpt>
      <trkpt lat="48.27322" lon="2.66993">
        <ele>84.400001525879</ele>
        <time>2013-06-09T12:44:36.000Z</time>
      </trkpt>
      <trkpt lat="48.27321" lon="2.67003">
        <ele>84.400001525879</ele>
        <time>2013-06-09T12:44:53.000Z</time>
      </trkpt>
      <trkpt lat="48.27314" lon="2.67015">
        <ele>84</ele>
        <time>2013-06-09T12:44:58.000Z</time>
      </trkpt>
      <trkpt lat="48.27308" lon="2.67037">
        <ele>83.400001525879</ele>
        <time>2013-06-09T12:45:03.000Z</time>
      </trkpt>
      <trkpt lat="48.27305" lon="2.67042">
        <ele>83.199996948242</ele>
        <time>2013-06-09T12:45:04.000Z</time>
      </trkpt>
      <trkpt lat="48.27298" lon="2.6707">
        <ele>82.400001525879</ele>
        <time>2013-06-09T12:45:09.000Z</time>
      </trkpt>
      <trkpt lat="48.27292" lon="2.67097">
        <ele>82.199996948242</ele>
        <time>2013-06-09T12:45:14.000Z</time>
      </trkpt>
      <trkpt lat="48.27286" lon="2.67121">
        <ele>82.400001525879</ele>
        <time>2013-06-09T12:45:19.000Z</time>
      </trkpt>
      <trkpt lat="48.27277" lon="2.67151">
        <ele>82.599998474121</ele>
        <time>2013-06-09T12:45:24.000Z</time>
      </trkpt>
      <trkpt lat="48.27273" lon="2.67163">
        <ele>82.599998474121</ele>
        <time>2013-06-09T12:45:26.000Z</time>
      </trkpt>
      <trkpt lat="48.2726" lon="2.67192">
        <ele>83.400001525879</ele>
        <time>2013-06-09T12:45:31.000Z</time>
      </trkpt>
      <trkpt lat="48.27255" lon="2.67211">
        <ele>84</ele>
        <time>2013-06-09T12:45:35.000Z</time>
      </trkpt>
      <trkpt lat="48.27246" lon="2.67226">
        <ele>84.599998474121</ele>
        <time>2013-06-09T12:45:39.000Z</time>
      </trkpt>
      <trkpt lat="48.27234" lon="2.67245">
        <ele>85.199996948242</ele>
        <time>2013-06-09T12:45:44.000Z</time>
      </trkpt>
      <trkpt lat="48.27222" lon="2.67261">
        <ele>85</ele>
        <time>2013-06-09T12:45:49.000Z</time>
      </trkpt>
      <trkpt lat="48.27221" lon="2.67262">
        <ele>84.800003051758</ele>
        <time>2013-06-09T12:45:50.000Z</time>
      </trkpt>
      <trkpt lat="48.27216" lon="2.67267">
        <ele>84.800003051758</ele>
        <time>2013-06-09T12:45:59.000Z</time>
      </trkpt>
      <trkpt lat="48.27215" lon="2.67267">
        <ele>84.800003051758</ele>
        <time>2013-06-09T12:46:00.000Z</time>
      </trkpt>
      <trkpt lat="48.27215" lon="2.67267">
        <ele>84.800003051758</ele>
        <time>2013-06-09T12:46:00.000Z</time>
      </trkpt>
      <trkpt lat="48.2721" lon="2.67268">
        <ele>84.599998474121</ele>
        <time>2013-06-09T12:46:06.000Z</time>
      </trkpt>
      <trkpt lat="48.27207" lon="2.67271">
        <ele>84.400001525879</ele>
        <time>2013-06-09T12:46:10.000Z</time>
      </trkpt>
      <trkpt lat="48.27204" lon="2.67282">
        <ele>84.400001525879</ele>
        <time>2013-06-09T12:46:16.000Z</time>
      </trkpt>
      <trkpt lat="48.27203" lon="2.67284">
        <ele>84.400001525879</ele>
        <time>2013-06-09T12:46:17.000Z</time>
      </trkpt>
      <trkpt lat="48.27201" lon="2.67288">
        <ele>84.400001525879</ele>
        <time>2013-06-09T12:46:23.000Z</time>
      </trkpt>
      <trkpt lat="48.272" lon="2.67288">
        <ele>84.400001525879</ele>
        <time>2013-06-09T12:46:25.000Z</time>
      </trkpt>
      <trkpt lat="48.27198" lon="2.6729">
        <ele>84.400001525879</ele>
        <time>2013-06-09T12:46:29.000Z</time>
      </trkpt>
      <trkpt lat="48.27195" lon="2.6729">
        <ele>84.199996948242</ele>
        <time>2013-06-09T12:46:34.000Z</time>
      </trkpt>
      <trkpt lat="48.27194" lon="2.6729">
        <ele>84.199996948242</ele>
        <time>2013-06-09T12:46:36.000Z</time>
      </trkpt>
      <trkpt lat="48.27181" lon="2.67279">
        <ele>83.599998474121</ele>
        <time>2013-06-09T12:46:42.000Z</time>
      </trkpt>
      <trkpt lat="48.27162" lon="2.67279">
        <ele>83</ele>
        <time>2013-06-09T12:46:47.000Z</time>
      </trkpt>
      <trkpt lat="48.27152" lon="2.6728">
        <ele>82.599998474121</ele>
        <time>2013-06-09T12:46:50.000Z</time>
      </trkpt>
      <trkpt lat="48.27151" lon="2.67279">
        <ele>82.599998474121</ele>
        <time>2013-06-09T12:46:51.000Z</time>
      </trkpt>
      <trkpt lat="48.2715" lon="2.67282">
        <ele>82.599998474121</ele>
        <time>2013-06-09T12:47:02.000Z</time>
      </trkpt>
      <trkpt lat="48.27143" lon="2.67281">
        <ele>82.199996948242</ele>
        <time>2013-06-09T12:47:19.000Z</time>
      </trkpt>
      <trkpt lat="48.27128" lon="2.67281">
        <ele>81.599998474121</ele>
        <time>2013-06-09T12:47:24.000Z</time>
      </trkpt>
      <trkpt lat="48.27127" lon="2.67281">
        <ele>81.400001525879</ele>
        <time>2013-06-09T12:47:25.000Z</time>
      </trkpt>
      <trkpt lat="48.27121" lon="2.67284">
        <ele>81.199996948242</ele>
        <time>2013-06-09T12:47:33.000Z</time>
      </trkpt>
      <trkpt lat="48.27122" lon="2.67286">
        <ele>81.199996948242</ele>
        <time>2013-06-09T12:47:46.000Z</time>
      </trkpt>
      <trkpt lat="48.27126" lon="2.67302">
        <ele>81.400001525879</ele>
        <time>2013-06-09T12:47:51.000Z</time>
      </trkpt>
      <trkpt lat="48.27128" lon="2.67313">
        <ele>81.599998474121</ele>
        <time>2013-06-09T12:47:53.000Z</time>
      </trkpt>
      <trkpt lat="48.27128" lon="2.67318">
        <ele>81.599998474121</ele>
        <time>2013-06-09T12:47:54.000Z</time>
      </trkpt>
      <trkpt lat="48.27128" lon="2.67318">
        <ele>81.599998474121</ele>
        <time>2013-06-09T12:47:54.000Z</time>
      </trkpt>
      <trkpt lat="48.2713" lon="2.67343">
        <ele>81.599998474121</ele>
        <time>2013-06-09T12:47:58.000Z</time>
      </trkpt>
      <trkpt lat="48.27132" lon="2.67367">
        <ele>81.199996948242</ele>
        <time>2013-06-09T12:48:02.000Z</time>
      </trkpt>
      <trkpt lat="48.27137" lon="2.67393">
        <ele>81.199996948242</ele>
        <time>2013-06-09T12:48:07.000Z</time>
      </trkpt>
      <trkpt lat="48.2714" lon="2.67423">
        <ele>81</ele>
        <time>2013-06-09T12:48:11.000Z</time>
      </trkpt>
      <trkpt lat="48.27145" lon="2.67464">
        <ele>80.599998474121</ele>
        <time>2013-06-09T12:48:17.000Z</time>
      </trkpt>
      <trkpt lat="48.27145" lon="2.67468">
        <ele>80.599998474121</ele>
        <time>2013-06-09T12:48:18.000Z</time>
      </trkpt>
      <trkpt lat="48.27137" lon="2.67493">
        <ele>79.599998474121</ele>
        <time>2013-06-09T12:48:23.000Z</time>
      </trkpt>
      <trkpt lat="48.27126" lon="2.6751">
        <ele>78.400001525879</ele>
        <time>2013-06-09T12:48:27.000Z</time>
      </trkpt>
      <trkpt lat="48.27122" lon="2.67512">
        <ele>78.199996948242</ele>
        <time>2013-06-09T12:48:28.000Z</time>
      </trkpt>
      <trkpt lat="48.27122" lon="2.67512">
        <ele>78.199996948242</ele>
        <time>2013-06-09T12:48:28.000Z</time>
      </trkpt>
      <trkpt lat="48.27095" lon="2.67524">
        <ele>76.199996948242</ele>
        <time>2013-06-09T12:48:34.000Z</time>
      </trkpt>
      <trkpt lat="48.27057" lon="2.67536">
        <ele>75</ele>
        <time>2013-06-09T12:48:41.000Z</time>
      </trkpt>
      <trkpt lat="48.27015" lon="2.67546">
        <ele>73.800003051758</ele>
        <time>2013-06-09T12:48:48.000Z</time>
      </trkpt>
      <trkpt lat="48.26979" lon="2.67554">
        <ele>73.199996948242</ele>
        <time>2013-06-09T12:48:54.000Z</time>
      </trkpt>
      <trkpt lat="48.26956" lon="2.6756">
        <ele>73.199996948242</ele>
        <time>2013-06-09T12:48:58.000Z</time>
      </trkpt>
      <trkpt lat="48.26935" lon="2.67563">
        <ele>73.199996948242</ele>
        <time>2013-06-09T12:49:02.000Z</time>
      </trkpt>
      <trkpt lat="48.26929" lon="2.67561">
        <ele>73.199996948242</ele>
        <time>2013-06-09T12:49:03.000Z</time>
      </trkpt>
      <trkpt lat="48.2692" lon="2.67556">
        <ele>73.199996948242</ele>
        <time>2013-06-09T12:49:05.000Z</time>
      </trkpt>
      <trkpt lat="48.2688" lon="2.67537">
        <ele>73</ele>
        <time>2013-06-09T12:49:13.000Z</time>
      </trkpt>
      <trkpt lat="48.26869" lon="2.67531">
        <ele>73</ele>
        <time>2013-06-09T12:49:15.000Z</time>
      </trkpt>
      <trkpt lat="48.26847" lon="2.67533">
        <ele>72.599998474121</ele>
        <time>2013-06-09T12:49:19.000Z</time>
      </trkpt>
      <trkpt lat="48.26821" lon="2.67536">
        <ele>72.599998474121</ele>
        <time>2013-06-09T12:49:23.000Z</time>
      </trkpt>
      <trkpt lat="48.26808" lon="2.67537">
        <ele>72.800003051758</ele>
        <time>2013-06-09T12:49:25.000Z</time>
      </trkpt>
      <trkpt lat="48.26763" lon="2.67538">
        <ele>73.199996948242</ele>
        <time>2013-06-09T12:49:32.000Z</time>
      </trkpt>
      <trkpt lat="48.26713" lon="2.67539">
        <ele>73.400001525879</ele>
        <time>2013-06-09T12:49:40.000Z</time>
      </trkpt>
      <trkpt lat="48.26674" lon="2.6754">
        <ele>73.400001525879</ele>
        <time>2013-06-09T12:49:47.000Z</time>
      </trkpt>
      <trkpt lat="48.26663" lon="2.6755">
        <ele>73.400001525879</ele>
        <time>2013-06-09T12:49:51.000Z</time>
      </trkpt>
      <trkpt lat="48.26657" lon="2.67561">
        <ele>73.400001525879</ele>
        <time>2013-06-09T12:49:53.000Z</time>
      </trkpt>
      <trkpt lat="48.26657" lon="2.67561">
        <ele>73.400001525879</ele>
        <time>2013-06-09T12:49:53.000Z</time>
      </trkpt>
      <trkpt lat="48.26652" lon="2.67562">
        <ele>73.400001525879</ele>
        <time>2013-06-09T12:49:54.000Z</time>
      </trkpt>
      <trkpt lat="48.26632" lon="2.6756">
        <ele>74</ele>
        <time>2013-06-09T12:49:58.000Z</time>
      </trkpt>
      <trkpt lat="48.26585" lon="2.67566">
        <ele>74.800003051758</ele>
        <time>2013-06-09T12:50:06.000Z</time>
      </trkpt>
      <trkpt lat="48.26543" lon="2.67568">
        <ele>74.599998474121</ele>
        <time>2013-06-09T12:50:13.000Z</time>
      </trkpt>
      <trkpt lat="48.26524" lon="2.67564">
        <ele>74.400001525879</ele>
        <time>2013-06-09T12:50:17.000Z</time>
      </trkpt>
      <trkpt lat="48.26517" lon="2.67563">
        <ele>74.400001525879</ele>
        <time>2013-06-09T12:50:21.000Z</time>
      </trkpt>
      <trkpt lat="48.26516" lon="2.67563">
        <ele>74.400001525879</ele>
        <time>2013-06-09T12:50:26.000Z</time>
      </trkpt>
      <trkpt lat="48.26507" lon="2.67555">
        <ele>74</ele>
        <time>2013-06-09T12:50:31.000Z</time>
      </trkpt>
      <trkpt lat="48.26505" lon="2.67553">
        <ele>73.800003051758</ele>
        <time>2013-06-09T12:50:32.000Z</time>
      </trkpt>
      <trkpt lat="48.26505" lon="2.67553">
        <ele>73.800003051758</ele>
        <time>2013-06-09T12:50:32.000Z</time>
      </trkpt>
      <trkpt lat="48.2649" lon="2.67542">
        <ele>73.400001525879</ele>
        <time>2013-06-09T12:50:38.000Z</time>
      </trkpt>
      <trkpt lat="48.26474" lon="2.67539">
        <ele>73.199996948242</ele>
        <time>2013-06-09T12:50:42.000Z</time>
      </trkpt>
      <trkpt lat="48.26449" lon="2.67542">
        <ele>73</ele>
        <time>2013-06-09T12:50:47.000Z</time>
      </trkpt>
      <trkpt lat="48.26445" lon="2.67542">
        <ele>73</ele>
        <time>2013-06-09T12:50:48.000Z</time>
      </trkpt>
      <trkpt lat="48.26428" lon="2.67546">
        <ele>73</ele>
        <time>2013-06-09T12:50:52.000Z</time>
      </trkpt>
      <trkpt lat="48.26419" lon="2.67549">
        <ele>73</ele>
        <time>2013-06-09T12:50:54.000Z</time>
      </trkpt>
      <trkpt lat="48.26399" lon="2.67552">
        <ele>73.800003051758</ele>
        <time>2013-06-09T12:50:59.000Z</time>
      </trkpt>
      <trkpt lat="48.26386" lon="2.67544">
        <ele>74.400001525879</ele>
        <time>2013-06-09T12:51:03.000Z</time>
      </trkpt>
      <trkpt lat="48.26384" lon="2.67528">
        <ele>74.599998474121</ele>
        <time>2013-06-09T12:51:07.000Z</time>
      </trkpt>
      <trkpt lat="48.26384" lon="2.67518">
        <ele>74.599998474121</ele>
        <time>2013-06-09T12:51:09.000Z</time>
      </trkpt>
      <trkpt lat="48.26384" lon="2.67518">
        <ele>74.599998474121</ele>
        <time>2013-06-09T12:51:09.000Z</time>
      </trkpt>
      <trkpt lat="48.26379" lon="2.67496">
        <ele>75.199996948242</ele>
        <time>2013-06-09T12:51:13.000Z</time>
      </trkpt>
      <trkpt lat="48.26368" lon="2.67488">
        <ele>76.199996948242</ele>
        <time>2013-06-09T12:51:16.000Z</time>
      </trkpt>
      <trkpt lat="48.2634" lon="2.67483">
        <ele>78.199996948242</ele>
        <time>2013-06-09T12:51:23.000Z</time>
      </trkpt>
      <trkpt lat="48.26328" lon="2.67482">
        <ele>79</ele>
        <time>2013-06-09T12:51:26.000Z</time>
      </trkpt>
      <trkpt lat="48.26294" lon="2.67471">
        <ele>81.199996948242</ele>
        <time>2013-06-09T12:51:34.000Z</time>
      </trkpt>
      <trkpt lat="48.26276" lon="2.67461">
        <ele>82.800003051758</ele>
        <time>2013-06-09T12:51:39.000Z</time>
      </trkpt>
      <trkpt lat="48.26245" lon="2.67456">
        <ele>84.800003051758</ele>
        <time>2013-06-09T12:51:47.000Z</time>
      </trkpt>
      <trkpt lat="48.26222" lon="2.67455">
        <ele>86.199996948242</ele>
        <time>2013-06-09T12:51:54.000Z</time>
      </trkpt>
      <trkpt lat="48.262" lon="2.67452">
        <ele>87.400001525879</ele>
        <time>2013-06-09T12:52:01.000Z</time>
      </trkpt>
      <trkpt lat="48.26184" lon="2.67451">
        <ele>88.400001525879</ele>
        <time>2013-06-09T12:52:06.000Z</time>
      </trkpt>
      <trkpt lat="48.26165" lon="2.67451">
        <ele>89.400001525879</ele>
        <time>2013-06-09T12:52:12.000Z</time>
      </trkpt>
      <trkpt lat="48.26143" lon="2.67464">
        <ele>87.800003051758</ele>
        <time>2013-06-09T12:52:19.000Z</time>
      </trkpt>
      <trkpt lat="48.26126" lon="2.67475">
        <ele>86.400001525879</ele>
        <time>2013-06-09T12:52:23.000Z</time>
      </trkpt>
      <trkpt lat="48.26117" lon="2.67481">
        <ele>85.800003051758</ele>
        <time>2013-06-09T12:52:25.000Z</time>
      </trkpt>
      <trkpt lat="48.26083" lon="2.67499">
        <ele>84</ele>
        <time>2013-06-09T12:52:32.000Z</time>
      </trkpt>
      <trkpt lat="48.26055" lon="2.67509">
        <ele>84.599998474121</ele>
        <time>2013-06-09T12:52:38.000Z</time>
      </trkpt>
      <trkpt lat="48.2605" lon="2.67512">
        <ele>84.599998474121</ele>
        <time>2013-06-09T12:52:39.000Z</time>
      </trkpt>
      <trkpt lat="48.26027" lon="2.67528">
        <ele>84.400001525879</ele>
        <time>2013-06-09T12:52:44.000Z</time>
      </trkpt>
      <trkpt lat="48.26023" lon="2.6753">
        <ele>84.400001525879</ele>
        <time>2013-06-09T12:52:49.000Z</time>
      </trkpt>
      <trkpt lat="48.26023" lon="2.6753">
        <ele>84.400001525879</ele>
        <time>2013-06-09T12:52:51.000Z</time>
      </trkpt>
      <trkpt lat="48.26023" lon="2.6753">
        <ele>84.400001525879</ele>
        <time>2013-06-09T12:52:51.000Z</time>
      </trkpt>
      <trkpt lat="48.2602" lon="2.67538">
        <ele>84.199996948242</ele>
        <time>2013-06-09T12:53:05.000Z</time>
      </trkpt>
      <trkpt lat="48.26007" lon="2.67566">
        <ele>82.800003051758</ele>
        <time>2013-06-09T12:53:11.000Z</time>
      </trkpt>
      <trkpt lat="48.25992" lon="2.67588">
        <ele>82</ele>
        <time>2013-06-09T12:53:16.000Z</time>
      </trkpt>
      <trkpt lat="48.2598" lon="2.676">
        <ele>82</ele>
        <time>2013-06-09T12:53:20.000Z</time>
      </trkpt>
      <trkpt lat="48.25973" lon="2.67613">
        <ele>82</ele>
        <time>2013-06-09T12:53:23.000Z</time>
      </trkpt>
      <trkpt lat="48.25972" lon="2.67619">
        <ele>82</ele>
        <time>2013-06-09T12:53:24.000Z</time>
      </trkpt>
      <trkpt lat="48.25972" lon="2.67619">
        <ele>82</ele>
        <time>2013-06-09T12:53:24.000Z</time>
      </trkpt>
      <trkpt lat="48.25971" lon="2.6763">
        <ele>82</ele>
        <time>2013-06-09T12:53:26.000Z</time>
      </trkpt>
      <trkpt lat="48.25983" lon="2.67647">
        <ele>82.800003051758</ele>
        <time>2013-06-09T12:53:31.000Z</time>
      </trkpt>
      <trkpt lat="48.25984" lon="2.67648">
        <ele>82.800003051758</ele>
        <time>2013-06-09T12:53:35.000Z</time>
      </trkpt>
      <trkpt lat="48.25983" lon="2.67648">
        <ele>82.800003051758</ele>
        <time>2013-06-09T12:53:38.000Z</time>
      </trkpt>
      <trkpt lat="48.25989" lon="2.67641">
        <ele>82.800003051758</ele>
        <time>2013-06-09T12:53:46.000Z</time>
      </trkpt>
      <trkpt lat="48.2599" lon="2.6764">
        <ele>82.800003051758</ele>
        <time>2013-06-09T12:53:48.000Z</time>
      </trkpt>
      <trkpt lat="48.25992" lon="2.67655">
        <ele>83.199996948242</ele>
        <time>2013-06-09T12:53:53.000Z</time>
      </trkpt>
      <trkpt lat="48.25998" lon="2.67675">
        <ele>84</ele>
        <time>2013-06-09T12:53:56.000Z</time>
      </trkpt>
      <trkpt lat="48.26008" lon="2.677">
        <ele>84.599998474121</ele>
        <time>2013-06-09T12:54:00.000Z</time>
      </trkpt>
      <trkpt lat="48.2602" lon="2.67735">
        <ele>85</ele>
        <time>2013-06-09T12:54:05.000Z</time>
      </trkpt>
      <trkpt lat="48.26032" lon="2.67761">
        <ele>84.800003051758</ele>
        <time>2013-06-09T12:54:09.000Z</time>
      </trkpt>
      <trkpt lat="48.26039" lon="2.67773">
        <ele>84.800003051758</ele>
        <time>2013-06-09T12:54:11.000Z</time>
      </trkpt>
      <trkpt lat="48.26044" lon="2.67787">
        <ele>84.800003051758</ele>
        <time>2013-06-09T12:54:13.000Z</time>
      </trkpt>
      <trkpt lat="48.26069" lon="2.67818">
        <ele>83.599998474121</ele>
        <time>2013-06-09T12:54:19.000Z</time>
      </trkpt>
      <trkpt lat="48.26073" lon="2.67824">
        <ele>83.599998474121</ele>
        <time>2013-06-09T12:54:20.000Z</time>
      </trkpt>
      <trkpt lat="48.26094" lon="2.67867">
        <ele>83.599998474121</ele>
        <time>2013-06-09T12:54:26.000Z</time>
      </trkpt>
      <trkpt lat="48.261" lon="2.6788">
        <ele>83.599998474121</ele>
        <time>2013-06-09T12:54:28.000Z</time>
      </trkpt>
      <trkpt lat="48.26111" lon="2.67904">
        <ele>83.599998474121</ele>
        <time>2013-06-09T12:54:33.000Z</time>
      </trkpt>
      <trkpt lat="48.26111" lon="2.67904">
        <ele>83.599998474121</ele>
        <time>2013-06-09T12:54:33.000Z</time>
      </trkpt>
      <trkpt lat="48.26105" lon="2.67925">
        <ele>84.800003051758</ele>
        <time>2013-06-09T12:54:38.000Z</time>
      </trkpt>
      <trkpt lat="48.26092" lon="2.67942">
        <ele>86.800003051758</ele>
        <time>2013-06-09T12:54:42.000Z</time>
      </trkpt>
      <trkpt lat="48.26081" lon="2.6796">
        <ele>88.599998474121</ele>
        <time>2013-06-09T12:54:46.000Z</time>
      </trkpt>
      <trkpt lat="48.26075" lon="2.6797">
        <ele>89</ele>
        <time>2013-06-09T12:54:48.000Z</time>
      </trkpt>
      <trkpt lat="48.26069" lon="2.67985">
        <ele>89.800003051758</ele>
        <time>2013-06-09T12:54:51.000Z</time>
      </trkpt>
      <trkpt lat="48.26069" lon="2.67995">
        <ele>90.199996948242</ele>
        <time>2013-06-09T12:54:53.000Z</time>
      </trkpt>
      <trkpt lat="48.26069" lon="2.67995">
        <ele>90.199996948242</ele>
        <time>2013-06-09T12:54:53.000Z</time>
      </trkpt>
      <trkpt lat="48.26084" lon="2.67995">
        <ele>89.599998474121</ele>
        <time>2013-06-09T12:54:58.000Z</time>
      </trkpt>
      <trkpt lat="48.26103" lon="2.67996">
        <ele>87.400001525879</ele>
        <time>2013-06-09T12:55:02.000Z</time>
      </trkpt>
      <trkpt lat="48.26108" lon="2.67999">
        <ele>87</ele>
        <time>2013-06-09T12:55:03.000Z</time>
      </trkpt>
      <trkpt lat="48.26133" lon="2.6801">
        <ele>84.599998474121</ele>
        <time>2013-06-09T12:55:07.000Z</time>
      </trkpt>
      <trkpt lat="48.26147" lon="2.68038">
        <ele>84.800003051758</ele>
        <time>2013-06-09T12:55:11.000Z</time>
      </trkpt>
      <trkpt lat="48.26159" lon="2.68067">
        <ele>85</ele>
        <time>2013-06-09T12:55:15.000Z</time>
      </trkpt>
      <trkpt lat="48.26166" lon="2.68097">
        <ele>85.800003051758</ele>
        <time>2013-06-09T12:55:19.000Z</time>
      </trkpt>
      <trkpt lat="48.26171" lon="2.68117">
        <ele>86.599998474121</ele>
        <time>2013-06-09T12:55:22.000Z</time>
      </trkpt>
      <trkpt lat="48.26173" lon="2.6813">
        <ele>87.199996948242</ele>
        <time>2013-06-09T12:55:24.000Z</time>
      </trkpt>
      <trkpt lat="48.2617" lon="2.68164">
        <ele>89.400001525879</ele>
        <time>2013-06-09T12:55:29.000Z</time>
      </trkpt>
      <trkpt lat="48.26174" lon="2.68178">
        <ele>89.400001525879</ele>
        <time>2013-06-09T12:55:31.000Z</time>
      </trkpt>
      <trkpt lat="48.2618" lon="2.6819">
        <ele>89</ele>
        <time>2013-06-09T12:55:33.000Z</time>
      </trkpt>
      <trkpt lat="48.26185" lon="2.68202">
        <ele>88.800003051758</ele>
        <time>2013-06-09T12:55:35.000Z</time>
      </trkpt>
      <trkpt lat="48.26192" lon="2.68245">
        <ele>89</ele>
        <time>2013-06-09T12:55:41.000Z</time>
      </trkpt>
      <trkpt lat="48.26199" lon="2.68262">
        <ele>88.400001525879</ele>
        <time>2013-06-09T12:55:45.000Z</time>
      </trkpt>
      <trkpt lat="48.262" lon="2.68263">
        <ele>88.400001525879</ele>
        <time>2013-06-09T12:55:46.000Z</time>
      </trkpt>
      <trkpt lat="48.26196" lon="2.68273">
        <ele>89.199996948242</ele>
        <time>2013-06-09T12:55:52.000Z</time>
      </trkpt>
      <trkpt lat="48.26194" lon="2.68275">
        <ele>89.400001525879</ele>
        <time>2013-06-09T12:55:53.000Z</time>
      </trkpt>
      <trkpt lat="48.26185" lon="2.68284">
        <ele>90.800003051758</ele>
        <time>2013-06-09T12:55:57.000Z</time>
      </trkpt>
      <trkpt lat="48.26174" lon="2.68287">
        <ele>92.400001525879</ele>
        <time>2013-06-09T12:56:01.000Z</time>
      </trkpt>
      <trkpt lat="48.26166" lon="2.68303">
        <ele>93.599998474121</ele>
        <time>2013-06-09T12:56:08.000Z</time>
      </trkpt>
      <trkpt lat="48.26162" lon="2.68311">
        <ele>93.800003051758</ele>
        <time>2013-06-09T12:56:11.000Z</time>
      </trkpt>
      <trkpt lat="48.26157" lon="2.68321">
        <ele>94</ele>
        <time>2013-06-09T12:56:15.000Z</time>
      </trkpt>
      <trkpt lat="48.26149" lon="2.6833">
        <ele>94.199996948242</ele>
        <time>2013-06-09T12:56:21.000Z</time>
      </trkpt>
      <trkpt lat="48.26141" lon="2.68336">
        <ele>94.199996948242</ele>
        <time>2013-06-09T12:56:25.000Z</time>
      </trkpt>
      <trkpt lat="48.26137" lon="2.68339">
        <ele>94.400001525879</ele>
        <time>2013-06-09T12:56:27.000Z</time>
      </trkpt>
      <trkpt lat="48.26126" lon="2.68355">
        <ele>94.800003051758</ele>
        <time>2013-06-09T12:56:32.000Z</time>
      </trkpt>
      <trkpt lat="48.26108" lon="2.68367">
        <ele>95</ele>
        <time>2013-06-09T12:56:37.000Z</time>
      </trkpt>
      <trkpt lat="48.26098" lon="2.6838">
        <ele>95</ele>
        <time>2013-06-09T12:56:41.000Z</time>
      </trkpt>
      <trkpt lat="48.26093" lon="2.684">
        <ele>95</ele>
        <time>2013-06-09T12:56:45.000Z</time>
      </trkpt>
      <trkpt lat="48.26082" lon="2.68416">
        <ele>94.800003051758</ele>
        <time>2013-06-09T12:56:48.000Z</time>
      </trkpt>
      <trkpt lat="48.26072" lon="2.68442">
        <ele>93.599998474121</ele>
        <time>2013-06-09T12:56:52.000Z</time>
      </trkpt>
      <trkpt lat="48.26053" lon="2.68483">
        <ele>91.800003051758</ele>
        <time>2013-06-09T12:56:58.000Z</time>
      </trkpt>
      <trkpt lat="48.26036" lon="2.68518">
        <ele>90</ele>
        <time>2013-06-09T12:57:03.000Z</time>
      </trkpt>
      <trkpt lat="48.26027" lon="2.68525">
        <ele>89.400001525879</ele>
        <time>2013-06-09T12:57:05.000Z</time>
      </trkpt>
      <trkpt lat="48.26008" lon="2.68536">
        <ele>88</ele>
        <time>2013-06-09T12:57:10.000Z</time>
      </trkpt>
      <trkpt lat="48.25995" lon="2.68526">
        <ele>87.199996948242</ele>
        <time>2013-06-09T12:57:13.000Z</time>
      </trkpt>
      <trkpt lat="48.25988" lon="2.68515">
        <ele>86.800003051758</ele>
        <time>2013-06-09T12:57:15.000Z</time>
      </trkpt>
      <trkpt lat="48.25977" lon="2.68493">
        <ele>85.800003051758</ele>
        <time>2013-06-09T12:57:19.000Z</time>
      </trkpt>
      <trkpt lat="48.25968" lon="2.68491">
        <ele>85.199996948242</ele>
        <time>2013-06-09T12:57:22.000Z</time>
      </trkpt>
      <trkpt lat="48.25964" lon="2.68496">
        <ele>84.800003051758</ele>
        <time>2013-06-09T12:57:23.000Z</time>
      </trkpt>
      <trkpt lat="48.25941" lon="2.68515">
        <ele>83.199996948242</ele>
        <time>2013-06-09T12:57:27.000Z</time>
      </trkpt>
      <trkpt lat="48.25893" lon="2.6854">
        <ele>82.199996948242</ele>
        <time>2013-06-09T12:57:34.000Z</time>
      </trkpt>
      <trkpt lat="48.25874" lon="2.68559">
        <ele>82.599998474121</ele>
        <time>2013-06-09T12:57:38.000Z</time>
      </trkpt>
      <trkpt lat="48.2586" lon="2.68566">
        <ele>82.800003051758</ele>
        <time>2013-06-09T12:57:41.000Z</time>
      </trkpt>
      <trkpt lat="48.25855" lon="2.68564">
        <ele>82.599998474121</ele>
        <time>2013-06-09T12:57:42.000Z</time>
      </trkpt>
      <trkpt lat="48.25838" lon="2.6856">
        <ele>82.400001525879</ele>
        <time>2013-06-09T12:57:45.000Z</time>
      </trkpt>
      <trkpt lat="48.25814" lon="2.68543">
        <ele>83</ele>
        <time>2013-06-09T12:57:50.000Z</time>
      </trkpt>
      <trkpt lat="48.25805" lon="2.6853">
        <ele>83.400001525879</ele>
        <time>2013-06-09T12:57:55.000Z</time>
      </trkpt>
      <trkpt lat="48.25806" lon="2.68531">
        <ele>83.199996948242</ele>
        <time>2013-06-09T12:57:57.000Z</time>
      </trkpt>
      <trkpt lat="48.25807" lon="2.6853">
        <ele>83.199996948242</ele>
        <time>2013-06-09T12:58:03.000Z</time>
      </trkpt>
      <trkpt lat="48.25809" lon="2.68529">
        <ele>83</ele>
        <time>2013-06-09T12:58:11.000Z</time>
      </trkpt>
      <trkpt lat="48.25809" lon="2.68533">
        <ele>83</ele>
        <time>2013-06-09T12:58:30.000Z</time>
      </trkpt>
      <trkpt lat="48.25804" lon="2.68528">
        <ele>83.400001525879</ele>
        <time>2013-06-09T12:58:41.000Z</time>
      </trkpt>
      <trkpt lat="48.25799" lon="2.68524">
        <ele>83.599998474121</ele>
        <time>2013-06-09T12:58:46.000Z</time>
      </trkpt>
      <trkpt lat="48.25794" lon="2.68519">
        <ele>83.800003051758</ele>
        <time>2013-06-09T12:58:54.000Z</time>
      </trkpt>
      <trkpt lat="48.25787" lon="2.68513">
        <ele>84.199996948242</ele>
        <time>2013-06-09T12:59:02.000Z</time>
      </trkpt>
      <trkpt lat="48.25787" lon="2.68512">
        <ele>84.199996948242</ele>
        <time>2013-06-09T12:59:03.000Z</time>
      </trkpt>
      <trkpt lat="48.25787" lon="2.685">
        <ele>84.199996948242</ele>
        <time>2013-06-09T12:59:10.000Z</time>
      </trkpt>
      <trkpt lat="48.25787" lon="2.68499">
        <ele>84.199996948242</ele>
        <time>2013-06-09T12:59:11.000Z</time>
      </trkpt>
      <trkpt lat="48.25786" lon="2.68495">
        <ele>84.199996948242</ele>
        <time>2013-06-09T12:59:14.000Z</time>
      </trkpt>
      <trkpt lat="48.25784" lon="2.68495">
        <ele>84.400001525879</ele>
        <time>2013-06-09T12:59:21.000Z</time>
      </trkpt>
      <trkpt lat="48.25785" lon="2.68494">
        <ele>84.400001525879</ele>
        <time>2013-06-09T12:59:30.000Z</time>
      </trkpt>
    </trkseg>
  </trk>
</gpx>